Wetterdaten: Samstag, 10.03.2018
Datum Zeit Temp. A. Pool Temp. Feuchte A. Luftdruck Regen Wind Richtung Richtung Sonnenschein ET UV Solar Taupunkt Windchill Windben Empfang
10.03.2018 00:00 4,2 C 3,9 C 86 % 1009,2 hPa 0,0 l/m 3,9 km/h (1 Bft) NO 51 0 min 0,000 mm 0,0 UV-I 0 W/m 2,1 C 4,2 C 4,8 km/h (1 Bft) 100,00 %
10.03.2018 00:01 4,4 C 3,9 C 85 % 1009,2 hPa 0,0 l/m 3,4 km/h (1 Bft) NO 51 0 min 0,000 mm 0,0 UV-I 0 W/m 2,1 C 4,4 C 4,8 km/h (1 Bft) 100,00 %
10.03.2018 00:02 4,5 C 3,9 C 85 % 1009,2 hPa 0,0 l/m 4,3 km/h (1 Bft) O-NO 57 0 min 0,000 mm 0,0 UV-I 0 W/m 2,2 C 4,5 C 4,8 km/h (1 Bft) 100,00 %
10.03.2018 00:03 4,5 C 3,9 C 84 % 1009,1 hPa 0,0 l/m 4,5 km/h (1 Bft) O-NO 67 0 min 0,000 mm 0,0 UV-I 0 W/m 2,0 C 4,5 C 4,8 km/h (1 Bft) 100,00 %
10.03.2018 00:04 4,4 C 3,9 C 84 % 1009,2 hPa 0,0 l/m 4,2 km/h (1 Bft) O 84 0 min 0,000 mm 0,0 UV-I 0 W/m 1,9 C 4,4 C 4,8 km/h (1 Bft) 100,00 %
10.03.2018 00:05 4,4 C 3,9 C 84 % 1009,2 hPa 0,0 l/m 3,5 km/h (1 Bft) O 84 0 min 0,000 mm 0,0 UV-I 0 W/m 1,9 C 4,4 C 4,8 km/h (1 Bft) 96,30 %
10.03.2018 00:06 4,4 C 3,9 C 84 % 1009,1 hPa 0,0 l/m 2,8 km/h (1 Bft) O 84 0 min 0,000 mm 0,0 UV-I 0 W/m 1,9 C 4,4 C 3,2 km/h (1 Bft) 100,00 %
10.03.2018 00:07 4,5 C 3,9 C 84 % 1009,2 hPa 0,0 l/m 2,0 km/h (1 Bft) O 84 0 min 0,000 mm 0,0 UV-I 0 W/m 2,0 C 4,5 C 3,2 km/h (1 Bft) 100,00 %
10.03.2018 00:08 4,5 C 3,9 C 84 % 1009,2 hPa 0,0 l/m 1,8 km/h (1 Bft) O 84 0 min 0,000 mm 0,0 UV-I 0 W/m 2,0 C 4,5 C 3,2 km/h (1 Bft) 100,00 %
10.03.2018 00:09 4,5 C 3,9 C 84 % 1009,2 hPa 0,0 l/m 0,5 km/h (0 Bft) O 84 0 min 0,000 mm 0,0 UV-I 0 W/m 2,0 C 4,5 C 1,6 km/h (1 Bft) 100,00 %
10.03.2018 00:10 4,5 C 3,9 C 84 % 1009,1 hPa 0,0 l/m 0,0 km/h (0 Bft) O 84 0 min 0,000 mm 0,0 UV-I 0 W/m 2,0 C 4,5 C 0,0 km/h (0 Bft) 100,00 %
10.03.2018 00:11 4,5 C 3,9 C 84 % 1009,1 hPa 0,0 l/m 0,0 km/h (0 Bft) O 84 0 min 0,000 mm 0,0 UV-I 0 W/m 2,0 C 4,5 C 0,0 km/h (0 Bft) 100,00 %
10.03.2018 00:12 4,5 C 3,9 C 84 % 1009,0 hPa 0,0 l/m 0,3 km/h (0 Bft) O 84 0 min 0,000 mm 0,0 UV-I 0 W/m 2,0 C 4,5 C 1,6 km/h (1 Bft) 100,00 %
10.03.2018 00:13 4,5 C 3,9 C 84 % 1009,0 hPa 0,0 l/m 1,4 km/h (1 Bft) O 84 0 min 0,000 mm 0,0 UV-I 0 W/m 2,0 C 4,5 C 1,6 km/h (1 Bft) 100,00 %
10.03.2018 00:14 4,5 C 3,9 C 84 % 1009,0 hPa 0,0 l/m 1,5 km/h (1 Bft) O 84 0 min 0,000 mm 0,0 UV-I 0 W/m 2,0 C 4,5 C 3,2 km/h (1 Bft) 100,00 %
10.03.2018 00:15 4,5 C 3,9 C 84 % 1009,0 hPa 0,0 l/m 1,8 km/h (1 Bft) O 84 0 min 0,000 mm 0,0 UV-I 0 W/m 2,0 C 4,5 C 3,2 km/h (1 Bft) 100,00 %
10.03.2018 00:16 4,5 C 3,9 C 84 % 1009,0 hPa 0,0 l/m 0,9 km/h (0 Bft) O 84 0 min 0,000 mm 0,0 UV-I 0 W/m 2,0 C 4,5 C 1,6 km/h (1 Bft) 100,00 %
10.03.2018 00:17 4,6 C 3,9 C 84 % 1009,0 hPa 0,0 l/m 0,2 km/h (0 Bft) O 84 0 min 0,000 mm 0,0 UV-I 0 W/m 2,1 C 4,6 C 1,6 km/h (1 Bft) 100,00 %
10.03.2018 00:18 4,5 C 3,9 C 83 % 1009,0 hPa 0,0 l/m 2,2 km/h (1 Bft) O 84 0 min 0,000 mm 0,0 UV-I 0 W/m 1,9 C 4,5 C 4,8 km/h (1 Bft) 100,00 %
10.03.2018 00:19 4,5 C 3,9 C 83 % 1009,0 hPa 0,0 l/m 1,3 km/h (1 Bft) O 84 0 min 0,000 mm 0,0 UV-I 0 W/m 1,9 C 4,5 C 1,6 km/h (1 Bft) 100,00 %
10.03.2018 00:20 4,3 C 3,9 C 84 % 1009,0 hPa 0,0 l/m 1,3 km/h (1 Bft) O 84 0 min 0,000 mm 0,0 UV-I 0 W/m 1,8 C 4,3 C 1,6 km/h (1 Bft) 94,44 %
10.03.2018 00:21 4,2 C 3,9 C 84 % 1009,1 hPa 0,0 l/m 1,1 km/h (1 Bft) O 84 0 min 0,000 mm 0,0 UV-I 0 W/m 1,7 C 4,2 C 1,6 km/h (1 Bft) 100,00 %
10.03.2018 00:22 4,1 C 3,9 C 85 % 1009,1 hPa 0,0 l/m 0,2 km/h (0 Bft) O 84 0 min 0,000 mm 0,0 UV-I 0 W/m 1,8 C 4,1 C 1,6 km/h (1 Bft) 100,00 %
10.03.2018 00:23 4,1 C 3,9 C 85 % 1009,1 hPa 0,0 l/m 1,0 km/h (0 Bft) O 84 0 min 0,000 mm 0,0 UV-I 0 W/m 1,8 C 4,1 C 1,6 km/h (1 Bft) 95,65 %
10.03.2018 00:24 4,0 C 3,9 C 85 % 1009,1 hPa 0,0 l/m 1,6 km/h (1 Bft) O 84 0 min 0,000 mm 0,0 UV-I 0 W/m 1,7 C 4,0 C 3,2 km/h (1 Bft) 100,00 %
10.03.2018 00:25 3,9 C 3,9 C 86 % 1009,1 hPa 0,0 l/m 1,7 km/h (1 Bft) O 84 0 min 0,000 mm 0,0 UV-I 0 W/m 1,8 C 3,9 C 3,2 km/h (1 Bft) 100,00 %
10.03.2018 00:26 3,9 C 3,9 C 86 % 1009,1 hPa 0,0 l/m 2,1 km/h (1 Bft) O 84 0 min 0,000 mm 0,0 UV-I 0 W/m 1,8 C 3,9 C 3,2 km/h (1 Bft) 100,00 %
10.03.2018 00:27 3,8 C 3,9 C 86 % 1009,1 hPa 0,0 l/m 2,4 km/h (1 Bft) O 84 0 min 0,000 mm 0,0 UV-I 0 W/m 1,7 C 3,8 C 3,2 km/h (1 Bft) 100,00 %
10.03.2018 00:28 3,8 C 3,9 C 86 % 1009,1 hPa 0,0 l/m 2,7 km/h (1 Bft) O 84 0 min 0,000 mm 0,0 UV-I 0 W/m 1,7 C 3,8 C 3,2 km/h (1 Bft) 100,00 %
10.03.2018 00:29 3,9 C 3,9 C 86 % 1009,1 hPa 0,0 l/m 3,2 km/h (1 Bft) O 84 0 min 0,000 mm 0,0 UV-I 0 W/m 1,8 C 3,9 C 3,2 km/h (1 Bft) 100,00 %
10.03.2018 00:30 3,9 C 3,9 C 86 % 1009,1 hPa 0,0 l/m 3,3 km/h (1 Bft) O 84 0 min 0,000 mm 0,0 UV-I 0 W/m 1,8 C 3,9 C 4,8 km/h (1 Bft) 91,30 %
10.03.2018 00:31 3,9 C 3,9 C 86 % 1009,1 hPa 0,0 l/m 2,7 km/h (1 Bft) O 84 0 min 0,000 mm 0,0 UV-I 0 W/m 1,8 C 3,9 C 3,2 km/h (1 Bft) 100,00 %
10.03.2018 00:32 3,9 C 3,9 C 86 % 1009,1 hPa 0,0 l/m 2,3 km/h (1 Bft) O 84 0 min 0,000 mm 0,0 UV-I 0 W/m 1,8 C 3,9 C 3,2 km/h (1 Bft) 100,00 %
10.03.2018 00:33 3,9 C 3,9 C 86 % 1009,1 hPa 0,0 l/m 2,7 km/h (1 Bft) O 84 0 min 0,000 mm 0,0 UV-I 0 W/m 1,8 C 3,9 C 3,2 km/h (1 Bft) 100,00 %
10.03.2018 00:34 3,9 C 3,9 C 85 % 1009,1 hPa 0,0 l/m 2,4 km/h (1 Bft) O 84 0 min 0,000 mm 0,0 UV-I 0 W/m 1,6 C 3,9 C 3,2 km/h (1 Bft) 100,00 %
10.03.2018 00:35 3,9 C 3,9 C 86 % 1009,1 hPa 0,0 l/m 3,0 km/h (1 Bft) O 84 0 min 0,000 mm 0,0 UV-I 0 W/m 1,8 C 3,9 C 4,8 km/h (1 Bft) 100,00 %
10.03.2018 00:36 4,0 C 3,9 C 85 % 1009,1 hPa 0,0 l/m 4,0 km/h (1 Bft) O 84 0 min 0,000 mm 0,0 UV-I 0 W/m 1,7 C 4,0 C 4,8 km/h (1 Bft) 100,00 %
10.03.2018 00:37 3,9 C 3,9 C 85 % 1009,1 hPa 0,0 l/m 4,1 km/h (1 Bft) O 84 0 min 0,000 mm 0,0 UV-I 0 W/m 1,6 C 3,9 C 6,4 km/h (2 Bft) 100,00 %
10.03.2018 00:38 3,7 C 3,9 C 85 % 1009,1 hPa 0,0 l/m 4,5 km/h (1 Bft) O 84 0 min 0,000 mm 0,0 UV-I 0 W/m 1,4 C 3,7 C 4,8 km/h (1 Bft) 100,00 %
10.03.2018 00:39 3,5 C 3,9 C 85 % 1009,1 hPa 0,0 l/m 3,7 km/h (1 Bft) O 84 0 min 0,000 mm 0,0 UV-I 0 W/m 1,2 C 3,5 C 4,8 km/h (1 Bft) 100,00 %
10.03.2018 00:40 3,3 C 3,9 C 86 % 1009,1 hPa 0,0 l/m 3,6 km/h (1 Bft) O 84 0 min 0,000 mm 0,0 UV-I 0 W/m 1,2 C 3,3 C 4,8 km/h (1 Bft) 100,00 %
10.03.2018 00:41 3,1 C 3,9 C 87 % 1009,1 hPa 0,0 l/m 2,6 km/h (1 Bft) O 84 0 min 0,000 mm 0,0 UV-I 0 W/m 1,2 C 3,1 C 3,2 km/h (1 Bft) 91,67 %
10.03.2018 00:42 3,1 C 3,9 C 88 % 1009,1 hPa 0,0 l/m 2,8 km/h (1 Bft) O 84 0 min 0,000 mm 0,0 UV-I 0 W/m 1,3 C 3,1 C 4,8 km/h (1 Bft) 100,00 %
10.03.2018 00:43 3,1 C 3,9 C 89 % 1009,1 hPa 0,0 l/m 2,7 km/h (1 Bft) O 84 0 min 0,000 mm 0,0 UV-I 0 W/m 1,5 C 3,1 C 4,8 km/h (1 Bft) 100,00 %
10.03.2018 00:44 3,2 C 3,9 C 89 % 1009,1 hPa 0,0 l/m 1,7 km/h (1 Bft) O 84 0 min 0,000 mm 0,0 UV-I 0 W/m 1,6 C 3,2 C 3,2 km/h (1 Bft) 100,00 %
10.03.2018 00:45 3,2 C 3,9 C 89 % 1009,1 hPa 0,0 l/m 2,3 km/h (1 Bft) O 84 0 min 0,000 mm 0,0 UV-I 0 W/m 1,6 C 3,2 C 3,2 km/h (1 Bft) 91,67 %
10.03.2018 00:46 3,3 C 3,9 C 89 % 1009,1 hPa 0,0 l/m 2,5 km/h (1 Bft) O 84 0 min 0,000 mm 0,0 UV-I 0 W/m 1,7 C 3,3 C 3,2 km/h (1 Bft) 95,65 %
10.03.2018 00:47 3,3 C 3,9 C 88 % 1009,1 hPa 0,0 l/m 2,7 km/h (1 Bft) O 84 0 min 0,000 mm 0,0 UV-I 0 W/m 1,5 C 3,3 C 3,2 km/h (1 Bft) 100,00 %
10.03.2018 00:48 3,4 C 3,9 C 88 % 1009,1 hPa 0,0 l/m 3,3 km/h (1 Bft) O 84 0 min 0,000 mm 0,0 UV-I 0 W/m 1,6 C 3,4 C 4,8 km/h (1 Bft) 100,00 %
10.03.2018 00:49 3,6 C 3,9 C 88 % 1009,1 hPa 0,0 l/m 3,1 km/h (1 Bft) O 84 0 min 0,000 mm 0,0 UV-I 0 W/m 1,8 C 3,6 C 4,8 km/h (1 Bft) 100,00 %
10.03.2018 00:50 3,7 C 3,9 C 88 % 1009,1 hPa 0,0 l/m 3,0 km/h (1 Bft) O 84 0 min 0,000 mm 0,0 UV-I 0 W/m 1,9 C 3,7 C 4,8 km/h (1 Bft) 100,00 %
10.03.2018 00:51 3,7 C 3,9 C 87 % 1009,1 hPa 0,0 l/m 2,5 km/h (1 Bft) O 84 0 min 0,000 mm 0,0 UV-I 0 W/m 1,7 C 3,7 C 3,2 km/h (1 Bft) 94,44 %
10.03.2018 00:52 3,7 C 3,9 C 86 % 1009,1 hPa 0,0 l/m 2,0 km/h (1 Bft) O 84 0 min 0,000 mm 0,0 UV-I 0 W/m 1,6 C 3,7 C 3,2 km/h (1 Bft) 100,00 %
10.03.2018 00:53 3,7 C 3,9 C 86 % 1009,1 hPa 0,0 l/m 2,3 km/h (1 Bft) O 84 0 min 0,000 mm 0,0 UV-I 0 W/m 1,6 C 3,7 C 3,2 km/h (1 Bft) 95,65 %
10.03.2018 00:54 3,7 C 3,9 C 86 % 1009,1 hPa 0,0 l/m 3,0 km/h (1 Bft) O 84 0 min 0,000 mm 0,0 UV-I 0 W/m 1,6 C 3,7 C 4,8 km/h (1 Bft) 100,00 %
10.03.2018 00:55 3,6 C 3,9 C 86 % 1009,1 hPa 0,0 l/m 2,5 km/h (1 Bft) O 84 0 min 0,000 mm 0,0 UV-I 0 W/m 1,5 C 3,6 C 3,2 km/h (1 Bft) 100,00 %
10.03.2018 00:56 3,6 C 3,9 C 87 % 1009,1 hPa 0,0 l/m 2,6 km/h (1 Bft) O 84 0 min 0,000 mm 0,0 UV-I 0 W/m 1,6 C 3,6 C 3,2 km/h (1 Bft) 100,00 %
10.03.2018 00:57 3,4 C 3,9 C 87 % 1009,0 hPa 0,0 l/m 3,1 km/h (1 Bft) O 84 0 min 0,000 mm 0,0 UV-I 0 W/m 1,4 C 3,4 C 3,2 km/h (1 Bft) 96,55 %
10.03.2018 00:58 3,4 C 3,9 C 87 % 1009,0 hPa 0,0 l/m 3,4 km/h (1 Bft) O 84 0 min 0,000 mm 0,0 UV-I 0 W/m 1,4 C 3,4 C 4,8 km/h (1 Bft) 100,00 %
10.03.2018 00:59 3,3 C 3,9 C 87 % 1009,0 hPa 0,0 l/m 2,7 km/h (1 Bft) O 84 0 min 0,000 mm 0,0 UV-I 0 W/m 1,3 C 3,3 C 3,2 km/h (1 Bft) 96,15 %
10.03.2018 01:00 3,2 C 3,9 C 88 % 1009,0 hPa 0,0 l/m 4,1 km/h (1 Bft) O 84 0 min 0,000 mm 0,0 UV-I 0 W/m 1,4 C 3,2 C 4,8 km/h (1 Bft) 100,00 %
10.03.2018 01:01 3,2 C 3,9 C 88 % 1009,0 hPa 0,0 l/m 3,6 km/h (1 Bft) O 84 0 min 0,000 mm 0,0 UV-I 0 W/m 1,4 C 3,2 C 4,8 km/h (1 Bft) 96,15 %
10.03.2018 01:02 3,3 C 3,9 C 88 % 1009,0 hPa 0,0 l/m 3,8 km/h (1 Bft) O 84 0 min 0,000 mm 0,0 UV-I 0 W/m 1,5 C 3,3 C 4,8 km/h (1 Bft) 96,30 %
10.03.2018 01:03 3,6 C 3,9 C 88 % 1009,0 hPa 0,0 l/m 2,7 km/h (1 Bft) O 84 0 min 0,000 mm 0,0 UV-I 0 W/m 1,8 C 3,6 C 4,8 km/h (1 Bft) 100,00 %
10.03.2018 01:04 3,7 C 3,9 C 88 % 1009,0 hPa 0,0 l/m 2,6 km/h (1 Bft) O 84 0 min 0,000 mm 0,0 UV-I 0 W/m 1,9 C 3,7 C 4,8 km/h (1 Bft) 96,67 %
10.03.2018 01:05 3,9 C 3,9 C 87 % 1009,0 hPa 0,0 l/m 3,8 km/h (1 Bft) O 84 0 min 0,000 mm 0,0 UV-I 0 W/m 1,9 C 3,9 C 4,8 km/h (1 Bft) 100,00 %
10.03.2018 01:06 4,1 C 3,9 C 86 % 1008,9 hPa 0,0 l/m 4,4 km/h (1 Bft) O 84 0 min 0,000 mm 0,0 UV-I 0 W/m 2,0 C 4,1 C 4,8 km/h (1 Bft) 95,83 %
10.03.2018 01:07 4,1 C 3,9 C 86 % 1008,9 hPa 0,0 l/m 5,4 km/h (1 Bft) O 84 0 min 0,000 mm 0,0 UV-I 0 W/m 2,0 C 4,1 C 6,4 km/h (2 Bft) 100,00 %
10.03.2018 01:08 4,2 C 3,9 C 85 % 1008,9 hPa 0,0 l/m 4,6 km/h (1 Bft) O 84 0 min 0,000 mm 0,0 UV-I 0 W/m 1,9 C 4,2 C 4,8 km/h (1 Bft) 95,83 %
10.03.2018 01:09 4,2 C 3,9 C 85 % 1008,9 hPa 0,0 l/m 6,5 km/h (2 Bft) O 90 0 min 0,000 mm 0,0 UV-I 0 W/m 1,9 C 4,1 C 9,7 km/h (2 Bft) 100,00 %
10.03.2018 01:10 4,3 C 3,9 C 84 % 1008,9 hPa 0,0 l/m 4,6 km/h (1 Bft) O-SO 106 0 min 0,000 mm 0,0 UV-I 0 W/m 1,8 C 4,3 C 6,4 km/h (2 Bft) 96,30 %
10.03.2018 01:11 4,3 C 3,9 C 84 % 1008,9 hPa 0,0 l/m 3,6 km/h (1 Bft) O-SO 111 0 min 0,000 mm 0,0 UV-I 0 W/m 1,8 C 4,3 C 6,4 km/h (2 Bft) 100,00 %
10.03.2018 01:12 4,4 C 3,9 C 84 % 1008,9 hPa 0,0 l/m 3,4 km/h (1 Bft) O-SO 111 0 min 0,000 mm 0,0 UV-I 0 W/m 1,9 C 4,4 C 4,8 km/h (1 Bft) 95,83 %
10.03.2018 01:13 4,4 C 3,9 C 84 % 1008,9 hPa 0,0 l/m 3,6 km/h (1 Bft) O-SO 111 0 min 0,000 mm 0,0 UV-I 0 W/m 1,9 C 4,4 C 4,8 km/h (1 Bft) 95,65 %
10.03.2018 01:14 4,4 C 3,9 C 83 % 1008,9 hPa 0,0 l/m 3,9 km/h (1 Bft) O-SO 111 0 min 0,000 mm 0,0 UV-I 0 W/m 1,8 C 4,4 C 4,8 km/h (1 Bft) 98,71 %
10.03.2018 01:15 4,4 C 3,9 C 83 % 1008,9 hPa 0,0 l/m 4,8 km/h (1 Bft) O-SO 111 0 min 0,000 mm 0,0 UV-I 0 W/m 1,8 C 4,4 C 6,4 km/h (2 Bft) 97,62 %
10.03.2018 01:16 4,4 C 3,9 C 83 % 1008,9 hPa 0,0 l/m 4,9 km/h (1 Bft) O-SO 111 0 min 0,000 mm 0,0 UV-I 0 W/m 1,8 C 4,4 C 6,4 km/h (2 Bft) 100,00 %
10.03.2018 01:17 4,3 C 3,9 C 83 % 1008,9 hPa 0,0 l/m 4,0 km/h (1 Bft) O-SO 111 0 min 0,000 mm 0,0 UV-I 0 W/m 1,7 C 4,3 C 6,4 km/h (2 Bft) 95,83 %
10.03.2018 01:18 4,3 C 3,9 C 83 % 1008,9 hPa 0,0 l/m 3,5 km/h (1 Bft) O-SO 111 0 min 0,000 mm 0,0 UV-I 0 W/m 1,7 C 4,3 C 4,8 km/h (1 Bft) 100,00 %
10.03.2018 01:19 4,2 C 3,9 C 83 % 1008,8 hPa 0,0 l/m 2,7 km/h (1 Bft) O-SO 111 0 min 0,000 mm 0,0 UV-I 0 W/m 1,6 C 4,2 C 3,2 km/h (1 Bft) 96,30 %
10.03.2018 01:20 3,9 C 3,9 C 83 % 1008,8 hPa 0,0 l/m 3,2 km/h (1 Bft) O-SO 111 0 min 0,000 mm 0,0 UV-I 0 W/m 1,3 C 3,9 C 4,8 km/h (1 Bft) 100,00 %
10.03.2018 01:21 3,7 C 3,9 C 84 % 1008,8 hPa 0,0 l/m 2,4 km/h (1 Bft) O-SO 111 0 min 0,000 mm 0,0 UV-I 0 W/m 1,3 C 3,7 C 3,2 km/h (1 Bft) 91,67 %
10.03.2018 01:22 3,7 C 3,9 C 85 % 1008,8 hPa 0,0 l/m 2,6 km/h (1 Bft) O-SO 111 0 min 0,000 mm 0,0 UV-I 0 W/m 1,4 C 3,7 C 4,8 km/h (1 Bft) 95,65 %
10.03.2018 01:23 3,7 C 3,9 C 86 % 1008,8 hPa 0,0 l/m 3,7 km/h (1 Bft) O-SO 111 0 min 0,000 mm 0,0 UV-I 0 W/m 1,6 C 3,7 C 4,8 km/h (1 Bft) 97,22 %
10.03.2018 01:24 3,7 C 3,9 C 86 % 1008,9 hPa 0,0 l/m 4,3 km/h (1 Bft) O-SO 111 0 min 0,000 mm 0,0 UV-I 0 W/m 1,6 C 3,7 C 6,4 km/h (2 Bft) 100,00 %
10.03.2018 01:25 3,8 C 3,9 C 86 % 1008,9 hPa 0,0 l/m 3,1 km/h (1 Bft) O-SO 111 0 min 0,000 mm 0,0 UV-I 0 W/m 1,7 C 3,8 C 4,8 km/h (1 Bft) 95,83 %
10.03.2018 01:26 3,8 C 3,9 C 86 % 1008,9 hPa 0,0 l/m 3,7 km/h (1 Bft) O-SO 111 0 min 0,000 mm 0,0 UV-I 0 W/m 1,7 C 3,8 C 4,8 km/h (1 Bft) 100,00 %
10.03.2018 01:27 3,8 C 3,9 C 85 % 1008,8 hPa 0,0 l/m 4,0 km/h (1 Bft) O-SO 111 0 min 0,000 mm 0,0 UV-I 0 W/m 1,5 C 3,8 C 4,8 km/h (1 Bft) 91,67 %
10.03.2018 01:28 3,9 C 3,9 C 85 % 1008,8 hPa 0,0 l/m 3,4 km/h (1 Bft) O-SO 111 0 min 0,000 mm 0,0 UV-I 0 W/m 1,6 C 3,9 C 4,8 km/h (1 Bft) 96,15 %
10.03.2018 01:29 3,9 C 3,9 C 85 % 1008,8 hPa 0,0 l/m 3,4 km/h (1 Bft) O-SO 111 0 min 0,000 mm 0,0 UV-I 0 W/m 1,6 C 3,9 C 4,8 km/h (1 Bft) 100,00 %
10.03.2018 01:30 4,0 C 3,9 C 85 % 1008,9 hPa 0,0 l/m 2,5 km/h (1 Bft) O-SO 111 0 min 0,000 mm 0,0 UV-I 0 W/m 1,7 C 4,0 C 3,2 km/h (1 Bft) 96,15 %
10.03.2018 01:31 4,1 C 3,9 C 85 % 1008,9 hPa 0,0 l/m 2,7 km/h (1 Bft) O-SO 111 0 min 0,000 mm 0,0 UV-I 0 W/m 1,8 C 4,1 C 3,2 km/h (1 Bft) 100,00 %
10.03.2018 01:32 4,0 C 3,9 C 84 % 1008,9 hPa 0,0 l/m 1,9 km/h (1 Bft) O-SO 111 0 min 0,000 mm 0,0 UV-I 0 W/m 1,5 C 4,0 C 3,2 km/h (1 Bft) 100,00 %
10.03.2018 01:33 3,9 C 3,9 C 84 % 1008,9 hPa 0,0 l/m 1,6 km/h (1 Bft) O-SO 111 0 min 0,000 mm 0,0 UV-I 0 W/m 1,4 C 3,9 C 3,2 km/h (1 Bft) 97,37 %
10.03.2018 01:34 3,9 C 3,9 C 84 % 1008,9 hPa 0,0 l/m 2,2 km/h (1 Bft) O-SO 111 0 min 0,000 mm 0,0 UV-I 0 W/m 1,4 C 3,9 C 3,2 km/h (1 Bft) 95,83 %
10.03.2018 01:35 3,8 C 3,9 C 84 % 1008,9 hPa 0,0 l/m 3,5 km/h (1 Bft) O-SO 111 0 min 0,000 mm 0,0 UV-I 0 W/m 1,4 C 3,8 C 4,8 km/h (1 Bft) 100,00 %
10.03.2018 01:36 3,6 C 3,9 C 85 % 1008,9 hPa 0,0 l/m 4,7 km/h (1 Bft) O-SO 110 0 min 0,000 mm 0,0 UV-I 0 W/m 1,3 C 3,6 C 4,8 km/h (1 Bft) 91,67 %
10.03.2018 01:37 3,3 C 3,9 C 85 % 1008,8 hPa 0,0 l/m 4,7 km/h (1 Bft) O-SO 109 0 min 0,000 mm 0,0 UV-I 0 W/m 1,0 C 3,3 C 4,8 km/h (1 Bft) 100,00 %
10.03.2018 01:38 3,2 C 3,9 C 86 % 1008,8 hPa 0,0 l/m 4,2 km/h (1 Bft) O-SO 109 0 min 0,000 mm 0,0 UV-I 0 W/m 1,1 C 3,2 C 4,8 km/h (1 Bft) 91,67 %
10.03.2018 01:39 3,1 C 3,9 C 87 % 1008,8 hPa 0,0 l/m 3,7 km/h (1 Bft) O-SO 109 0 min 0,000 mm 0,0 UV-I 0 W/m 1,2 C 3,1 C 4,8 km/h (1 Bft) 96,15 %
10.03.2018 01:40 3,1 C 3,9 C 88 % 1008,8 hPa 0,0 l/m 4,1 km/h (1 Bft) O-SO 109 0 min 0,000 mm 0,0 UV-I 0 W/m 1,3 C 3,1 C 4,8 km/h (1 Bft) 100,00 %
10.03.2018 01:41 3,1 C 3,9 C 88 % 1008,8 hPa 0,0 l/m 4,6 km/h (1 Bft) O-SO 109 0 min 0,000 mm 0,0 UV-I 0 W/m 1,3 C 3,1 C 4,8 km/h (1 Bft) 91,30 %
10.03.2018 01:42 3,1 C 3,9 C 88 % 1008,8 hPa 0,0 l/m 4,6 km/h (1 Bft) NO 52 0 min 0,000 mm 0,0 UV-I 0 W/m 1,3 C 3,1 C 4,8 km/h (1 Bft) 100,00 %
10.03.2018 01:43 3,1 C 3,9 C 88 % 1008,8 hPa 0,0 l/m 4,5 km/h (1 Bft) NO 52 0 min 0,000 mm 0,0 UV-I 0 W/m 1,3 C 3,1 C 6,4 km/h (2 Bft) 92,31 %
10.03.2018 01:44 3,2 C 3,9 C 88 % 1008,8 hPa 0,0 l/m 4,6 km/h (1 Bft) NO 52 0 min 0,000 mm 0,0 UV-I 0 W/m 1,4 C 3,2 C 6,4 km/h (2 Bft) 95,83 %
10.03.2018 01:45 3,2 C 3,9 C 88 % 1008,8 hPa 0,0 l/m 3,7 km/h (1 Bft) NO 52 0 min 0,000 mm 0,0 UV-I 0 W/m 1,4 C 3,2 C 4,8 km/h (1 Bft) 95,65 %
10.03.2018 01:46 3,3 C 3,9 C 88 % 1008,8 hPa 0,0 l/m 4,5 km/h (1 Bft) NO 52 0 min 0,000 mm 0,0 UV-I 0 W/m 1,5 C 3,3 C 6,4 km/h (2 Bft) 100,00 %
10.03.2018 01:47 3,3 C 3,9 C 88 % 1008,8 hPa 0,0 l/m 3,9 km/h (1 Bft) NO 52 0 min 0,000 mm 0,0 UV-I 0 W/m 1,5 C 3,3 C 4,8 km/h (1 Bft) 91,67 %
10.03.2018 01:48 3,4 C 3,9 C 87 % 1008,8 hPa 0,0 l/m 3,2 km/h (1 Bft) NO 52 0 min 0,000 mm 0,0 UV-I 0 W/m 1,4 C 3,4 C 4,8 km/h (1 Bft) 91,30 %
10.03.2018 01:49 3,6 C 3,9 C 87 % 1008,8 hPa 0,0 l/m 3,6 km/h (1 Bft) NO 52 0 min 0,000 mm 0,0 UV-I 0 W/m 1,6 C 3,6 C 4,8 km/h (1 Bft) 95,83 %
10.03.2018 01:50 3,6 C 3,9 C 86 % 1008,8 hPa 0,0 l/m 3,0 km/h (1 Bft) NO 52 0 min 0,000 mm 0,0 UV-I 0 W/m 1,5 C 3,6 C 4,8 km/h (1 Bft) 89,66 %
10.03.2018 01:51 3,6 C 3,9 C 86 % 1008,8 hPa 0,0 l/m 3,3 km/h (1 Bft) NO 52 0 min 0,000 mm 0,0 UV-I 0 W/m 1,5 C 3,6 C 4,8 km/h (1 Bft) 100,00 %
10.03.2018 01:52 3,6 C 3,9 C 86 % 1008,9 hPa 0,0 l/m 2,5 km/h (1 Bft) NO 52 0 min 0,000 mm 0,0 UV-I 0 W/m 1,5 C 3,6 C 3,2 km/h (1 Bft) 91,30 %
10.03.2018 01:53 3,6 C 3,9 C 86 % 1008,9 hPa 0,0 l/m 1,7 km/h (1 Bft) NO 52 0 min 0,000 mm 0,0 UV-I 0 W/m 1,5 C 3,6 C 3,2 km/h (1 Bft) 91,67 %
10.03.2018 01:54 3,5 C 3,9 C 86 % 1008,8 hPa 0,0 l/m 1,7 km/h (1 Bft) NO 52 0 min 0,000 mm 0,0 UV-I 0 W/m 1,4 C 3,5 C 3,2 km/h (1 Bft) 91,67 %
10.03.2018 01:55 3,5 C 3,9 C 86 % 1008,8 hPa 0,0 l/m 1,6 km/h (1 Bft) NO 52 0 min 0,000 mm 0,0 UV-I 0 W/m 1,4 C 3,5 C 3,2 km/h (1 Bft) 100,00 %
10.03.2018 01:56 3,5 C 3,9 C 86 % 1008,8 hPa 0,0 l/m 1,8 km/h (1 Bft) NO 52 0 min 0,000 mm 0,0 UV-I 0 W/m 1,4 C 3,5 C 3,2 km/h (1 Bft) 92,31 %
10.03.2018 01:57 3,4 C 3,9 C 86 % 1008,8 hPa 0,0 l/m 2,1 km/h (1 Bft) NO 52 0 min 0,000 mm 0,0 UV-I 0 W/m 1,3 C 3,4 C 3,2 km/h (1 Bft) 95,83 %
10.03.2018 01:58 3,4 C 3,9 C 86 % 1008,7 hPa 0,0 l/m 2,3 km/h (1 Bft) NO 52 0 min 0,000 mm 0,0 UV-I 0 W/m 1,3 C 3,4 C 3,2 km/h (1 Bft) 93,33 %
10.03.2018 01:59 3,4 C 3,9 C 87 % 1008,7 hPa 0,0 l/m 2,3 km/h (1 Bft) NO 52 0 min 0,000 mm 0,0 UV-I 0 W/m 1,4 C 3,4 C 3,2 km/h (1 Bft) 96,55 %
10.03.2018 02:00 3,3 C 3,9 C 87 % 1008,7 hPa 0,0 l/m 2,3 km/h (1 Bft) NO 52 0 min 0,000 mm 0,0 UV-I 0 W/m 1,3 C 3,3 C 3,2 km/h (1 Bft) 96,15 %
10.03.2018 02:01 3,2 C 3,9 C 86 % 1008,7 hPa 0,0 l/m 1,6 km/h (1 Bft) NO 52 0 min 0,000 mm 0,0 UV-I 0 W/m 1,1 C 3,2 C 1,6 km/h (1 Bft) 93,33 %
10.03.2018 02:02 3,1 C 3,9 C 86 % 1008,8 hPa 0,0 l/m 2,0 km/h (1 Bft) NO 52 0 min 0,000 mm 0,0 UV-I 0 W/m 1,0 C 3,1 C 3,2 km/h (1 Bft) 100,00 %
10.03.2018 02:03 2,9 C 3,9 C 87 % 1008,8 hPa 0,0 l/m 1,1 km/h (1 Bft) NO 52 0 min 0,000 mm 0,0 UV-I 0 W/m 1,0 C 2,9 C 1,6 km/h (1 Bft) 93,75 %
10.03.2018 02:04 2,7 C 3,9 C 87 % 1008,8 hPa 0,0 l/m 1,4 km/h (1 Bft) NO 52 0 min 0,000 mm 0,0 UV-I 0 W/m 0,8 C 2,7 C 3,2 km/h (1 Bft) 100,00 %
10.03.2018 02:05 2,6 C 3,9 C 88 % 1008,7 hPa 0,0 l/m 0,1 km/h (0 Bft) NO 52 0 min 0,000 mm 0,0 UV-I 0 W/m 0,8 C 2,6 C 1,6 km/h (1 Bft) 92,31 %
10.03.2018 02:06 2,6 C 3,9 C 88 % 1008,7 hPa 0,0 l/m 0,0 km/h (0 Bft) NO 52 0 min 0,000 mm 0,0 UV-I 0 W/m 0,8 C 2,6 C 0,0 km/h (0 Bft) 95,83 %
10.03.2018 02:07 2,6 C 3,9 C 89 % 1008,7 hPa 0,0 l/m 0,0 km/h (0 Bft) NO 52 0 min 0,000 mm 0,0 UV-I 0 W/m 1,0 C 2,6 C 0,0 km/h (0 Bft) 95,65 %
10.03.2018 02:08 2,6 C 3,9 C 89 % 1008,7 hPa 0,0 l/m 0,0 km/h (0 Bft) NO 52 0 min 0,000 mm 0,0 UV-I 0 W/m 1,0 C 2,6 C 0,0 km/h (0 Bft) 92,59 %
10.03.2018 02:09 2,6 C 3,9 C 89 % 1008,7 hPa 0,0 l/m 0,0 km/h (0 Bft) NO 52 0 min 0,000 mm 0,0 UV-I 0 W/m 1,0 C 2,6 C 0,0 km/h (0 Bft) 95,65 %
10.03.2018 02:10 2,7 C 3,9 C 89 % 1008,7 hPa 0,0 l/m 0,0 km/h (0 Bft) NO 52 0 min 0,000 mm 0,0 UV-I 0 W/m 1,1 C 2,7 C 0,0 km/h (0 Bft) 92,59 %
10.03.2018 02:11 2,7 C 3,9 C 89 % 1008,7 hPa 0,0 l/m 0,1 km/h (0 Bft) NO 52 0 min 0,000 mm 0,0 UV-I 0 W/m 1,1 C 2,7 C 1,6 km/h (1 Bft) 100,00 %
10.03.2018 02:12 2,7 C 3,9 C 89 % 1008,7 hPa 0,0 l/m 0,6 km/h (0 Bft) NO 52 0 min 0,000 mm 0,0 UV-I 0 W/m 1,1 C 2,7 C 1,6 km/h (1 Bft) 92,59 %
10.03.2018 02:13 2,7 C 3,9 C 89 % 1008,7 hPa 0,0 l/m 0,0 km/h (0 Bft) NO 52 0 min 0,000 mm 0,0 UV-I 0 W/m 1,1 C 2,7 C 0,0 km/h (0 Bft) 100,00 %
10.03.2018 02:14 2,7 C 3,9 C 89 % 1008,7 hPa 0,0 l/m 0,0 km/h (0 Bft) NO 52 0 min 0,000 mm 0,0 UV-I 0 W/m 1,1 C 2,7 C 0,0 km/h (0 Bft) 95,83 %
10.03.2018 02:15 2,7 C 3,9 C 89 % 1008,7 hPa 0,0 l/m 0,0 km/h (0 Bft) NO 52 0 min 0,000 mm 0,0 UV-I 0 W/m 1,1 C 2,7 C 0,0 km/h (0 Bft) 95,65 %
10.03.2018 02:16 2,7 C 3,9 C 89 % 1008,7 hPa 0,0 l/m 0,0 km/h (0 Bft) NO 52 0 min 0,000 mm 0,0 UV-I 0 W/m 1,1 C 2,7 C 0,0 km/h (0 Bft) 93,33 %
10.03.2018 02:17 2,7 C 3,9 C 89 % 1008,7 hPa 0,0 l/m 0,0 km/h (0 Bft) NO 52 0 min 0,000 mm 0,0 UV-I 0 W/m 1,1 C 2,7 C 0,0 km/h (0 Bft) 100,00 %
10.03.2018 02:18 2,7 C 3,9 C 89 % 1008,7 hPa 0,0 l/m 0,0 km/h (0 Bft) NO 52 0 min 0,000 mm 0,0 UV-I 0 W/m 1,1 C 2,7 C 0,0 km/h (0 Bft) 96,30 %
10.03.2018 02:19 2,7 C 3,9 C 89 % 1008,7 hPa 0,0 l/m 0,0 km/h (0 Bft) NO 52 0 min 0,000 mm 0,0 UV-I 0 W/m 1,1 C 2,7 C 0,0 km/h (0 Bft) 86,96 %
10.03.2018 02:20 2,7 C 3,9 C 89 % 1008,7 hPa 0,0 l/m 0,0 km/h (0 Bft) NO 52 0 min 0,000 mm 0,0 UV-I 0 W/m 1,1 C 2,7 C 0,0 km/h (0 Bft) 95,83 %
10.03.2018 02:21 2,7 C 3,9 C 89 % 1008,7 hPa 0,0 l/m 0,0 km/h (0 Bft) NO 52 0 min 0,000 mm 0,0 UV-I 0 W/m 1,1 C 2,7 C 0,0 km/h (0 Bft) 96,15 %
10.03.2018 02:22 2,7 C 3,9 C 89 % 1008,7 hPa 0,0 l/m 0,4 km/h (0 Bft) NO 52 0 min 0,000 mm 0,0 UV-I 0 W/m 1,1 C 2,7 C 1,6 km/h (1 Bft) 100,00 %
10.03.2018 02:23 2,7 C 3,9 C 89 % 1008,7 hPa 0,0 l/m 0,0 km/h (0 Bft) NO 52 0 min 0,000 mm 0,0 UV-I 0 W/m 1,1 C 2,7 C 0,0 km/h (0 Bft) 100,00 %
10.03.2018 02:24 2,7 C 3,9 C 89 % 1008,6 hPa 0,0 l/m 0,0 km/h (0 Bft) NO 52 0 min 0,000 mm 0,0 UV-I 0 W/m 1,1 C 2,7 C 0,0 km/h (0 Bft) 95,65 %
10.03.2018 02:25 2,6 C 3,9 C 89 % 1008,7 hPa 0,0 l/m 0,0 km/h (0 Bft) NO 52 0 min 0,000 mm 0,0 UV-I 0 W/m 1,0 C 2,6 C 0,0 km/h (0 Bft) 92,59 %
10.03.2018 02:26 2,6 C 3,9 C 89 % 1008,7 hPa 0,0 l/m 0,0 km/h (0 Bft) NO 52 0 min 0,000 mm 0,0 UV-I 0 W/m 1,0 C 2,6 C 0,0 km/h (0 Bft) 100,00 %
10.03.2018 02:27 2,6 C 3,9 C 89 % 1008,7 hPa 0,0 l/m 0,4 km/h (0 Bft) NO 52 0 min 0,000 mm 0,0 UV-I 0 W/m 1,0 C 2,6 C 3,2 km/h (1 Bft) 95,83 %
10.03.2018 02:28 2,6 C 3,9 C 89 % 1008,7 hPa 0,0 l/m 1,4 km/h (1 Bft) NO 52 0 min 0,000 mm 0,0 UV-I 0 W/m 1,0 C 2,6 C 1,6 km/h (1 Bft) 95,65 %
10.03.2018 02:29 2,6 C 3,9 C 90 % 1008,7 hPa 0,0 l/m 1,1 km/h (1 Bft) NO 52 0 min 0,000 mm 0,0 UV-I 0 W/m 1,1 C 2,6 C 3,2 km/h (1 Bft) 95,83 %
10.03.2018 02:30 2,6 C 3,9 C 90 % 1008,7 hPa 0,0 l/m 2,0 km/h (1 Bft) NO 52 0 min 0,000 mm 0,0 UV-I 0 W/m 1,1 C 2,6 C 3,2 km/h (1 Bft) 100,00 %
10.03.2018 02:31 2,7 C 3,9 C 90 % 1008,7 hPa 0,0 l/m 2,5 km/h (1 Bft) NO 52 0 min 0,000 mm 0,0 UV-I 0 W/m 1,2 C 2,7 C 3,2 km/h (1 Bft) 93,33 %
10.03.2018 02:32 2,6 C 3,9 C 89 % 1008,7 hPa 0,0 l/m 2,6 km/h (1 Bft) NO 52 0 min 0,000 mm 0,0 UV-I 0 W/m 1,0 C 2,6 C 3,2 km/h (1 Bft) 100,00 %
10.03.2018 02:34 2,6 C 3,9 C 89 % 1008,7 hPa 0,0 l/m 3,6 km/h (1 Bft) S-SO 159 0 min 0,000 mm 0,0 UV-I 0 W/m 1,0 C 2,6 C 6,4 km/h (2 Bft) 100,00 %
10.03.2018 02:35 2,5 C 3,9 C 89 % 1008,7 hPa 0,0 l/m 3,7 km/h (1 Bft) S-SO 159 0 min 0,000 mm 0,0 UV-I 0 W/m 0,9 C 2,5 C 6,4 km/h (2 Bft) 95,83 %
10.03.2018 02:36 2,5 C 3,9 C 90 % 1008,6 hPa 0,0 l/m 2,7 km/h (1 Bft) S-SO 159 0 min 0,000 mm 0,0 UV-I 0 W/m 1,0 C 2,5 C 3,2 km/h (1 Bft) 96,15 %
10.03.2018 02:37 2,6 C 3,9 C 90 % 1008,6 hPa 0,0 l/m 3,0 km/h (1 Bft) S-SO 159 0 min 0,000 mm 0,0 UV-I 0 W/m 1,1 C 2,6 C 3,2 km/h (1 Bft) 100,00 %
10.03.2018 02:38 2,6 C 3,9 C 90 % 1008,7 hPa 0,0 l/m 2,7 km/h (1 Bft) S-SO 159 0 min 0,000 mm 0,0 UV-I 0 W/m 1,1 C 2,6 C 3,2 km/h (1 Bft) 100,00 %
10.03.2018 02:39 2,6 C 3,9 C 90 % 1008,7 hPa 0,0 l/m 2,6 km/h (1 Bft) S-SO 159 0 min 0,000 mm 0,0 UV-I 0 W/m 1,1 C 2,6 C 3,2 km/h (1 Bft) 100,00 %
10.03.2018 02:40 2,6 C 3,9 C 90 % 1008,6 hPa 0,0 l/m 2,6 km/h (1 Bft) S-SO 159 0 min 0,000 mm 0,0 UV-I 0 W/m 1,1 C 2,6 C 3,2 km/h (1 Bft) 100,00 %
10.03.2018 02:41 2,7 C 3,9 C 90 % 1008,6 hPa 0,0 l/m 2,4 km/h (1 Bft) S-SO 159 0 min 0,000 mm 0,0 UV-I 0 W/m 1,2 C 2,7 C 3,2 km/h (1 Bft) 100,00 %
10.03.2018 02:42 2,7 C 3,9 C 90 % 1008,6 hPa 0,0 l/m 1,4 km/h (1 Bft) S-SO 159 0 min 0,000 mm 0,0 UV-I 0 W/m 1,2 C 2,7 C 1,6 km/h (1 Bft) 100,00 %
10.03.2018 02:43 2,6 C 3,9 C 89 % 1008,5 hPa 0,0 l/m 0,8 km/h (0 Bft) S-SO 159 0 min 0,000 mm 0,0 UV-I 0 W/m 1,0 C 2,6 C 1,6 km/h (1 Bft) 95,65 %
10.03.2018 02:44 2,6 C 3,9 C 89 % 1008,5 hPa 0,0 l/m 1,3 km/h (1 Bft) S-SO 159 0 min 0,000 mm 0,0 UV-I 0 W/m 1,0 C 2,6 C 3,2 km/h (1 Bft) 100,00 %
10.03.2018 02:45 2,5 C 3,9 C 89 % 1008,5 hPa 0,0 l/m 1,7 km/h (1 Bft) S-SO 159 0 min 0,000 mm 0,0 UV-I 0 W/m 0,9 C 2,5 C 3,2 km/h (1 Bft) 100,00 %
10.03.2018 02:46 2,6 C 3,9 C 90 % 1008,5 hPa 0,0 l/m 1,9 km/h (1 Bft) S-SO 159 0 min 0,000 mm 0,0 UV-I 0 W/m 1,1 C 2,6 C 3,2 km/h (1 Bft) 100,00 %
10.03.2018 02:47 2,6 C 3,9 C 90 % 1008,5 hPa 0,0 l/m 2,0 km/h (1 Bft) S-SO 159 0 min 0,000 mm 0,0 UV-I 0 W/m 1,1 C 2,6 C 3,2 km/h (1 Bft) 95,83 %
10.03.2018 02:48 2,6 C 3,9 C 90 % 1008,5 hPa 0,0 l/m 2,1 km/h (1 Bft) S-SO 159 0 min 0,000 mm 0,0 UV-I 0 W/m 1,1 C 2,6 C 3,2 km/h (1 Bft) 100,00 %
10.03.2018 02:49 2,7 C 3,9 C 90 % 1008,5 hPa 0,0 l/m 2,3 km/h (1 Bft) S-SO 159 0 min 0,000 mm 0,0 UV-I 0 W/m 1,2 C 2,7 C 3,2 km/h (1 Bft) 100,00 %
10.03.2018 02:50 2,7 C 3,9 C 89 % 1008,5 hPa 0,0 l/m 2,4 km/h (1 Bft) S-SO 159 0 min 0,000 mm 0,0 UV-I 0 W/m 1,1 C 2,7 C 3,2 km/h (1 Bft) 100,00 %
10.03.2018 02:51 2,6 C 3,9 C 89 % 1008,4 hPa 0,0 l/m 2,3 km/h (1 Bft) S-SO 159 0 min 0,000 mm 0,0 UV-I 0 W/m 1,0 C 2,6 C 3,2 km/h (1 Bft) 100,00 %
10.03.2018 02:52 2,6 C 3,9 C 89 % 1008,4 hPa 0,0 l/m 3,1 km/h (1 Bft) S-SO 159 0 min 0,000 mm 0,0 UV-I 0 W/m 1,0 C 2,6 C 3,2 km/h (1 Bft) 100,00 %
10.03.2018 02:53 2,6 C 3,9 C 89 % 1008,5 hPa 0,0 l/m 3,4 km/h (1 Bft) S-SO 159 0 min 0,000 mm 0,0 UV-I 0 W/m 1,0 C 2,6 C 6,4 km/h (2 Bft) 96,15 %
10.03.2018 02:54 2,6 C 3,9 C 90 % 1008,5 hPa 0,0 l/m 5,0 km/h (1 Bft) S-SO 159 0 min 0,000 mm 0,0 UV-I 0 W/m 1,1 C 2,6 C 6,4 km/h (2 Bft) 100,00 %
10.03.2018 02:55 2,6 C 3,9 C 90 % 1008,5 hPa 0,0 l/m 5,6 km/h (1 Bft) S-SO 160 0 min 0,000 mm 0,0 UV-I 0 W/m 1,1 C 2,6 C 6,4 km/h (2 Bft) 100,00 %
10.03.2018 02:56 2,7 C 3,9 C 89 % 1008,5 hPa 0,0 l/m 4,4 km/h (1 Bft) S-SO 161 0 min 0,000 mm 0,0 UV-I 0 W/m 1,1 C 2,7 C 6,4 km/h (2 Bft) 100,00 %
10.03.2018 02:57 2,7 C 3,9 C 89 % 1008,5 hPa 0,0 l/m 4,8 km/h (1 Bft) S-SO 161 0 min 0,000 mm 0,0 UV-I 0 W/m 1,1 C 2,7 C 6,4 km/h (2 Bft) 100,00 %
10.03.2018 02:58 2,7 C 3,9 C 89 % 1008,4 hPa 0,0 l/m 5,6 km/h (1 Bft) S-SO 162 0 min 0,000 mm 0,0 UV-I 0 W/m 1,1 C 2,7 C 6,4 km/h (2 Bft) 100,00 %
10.03.2018 02:59 2,7 C 3,9 C 89 % 1008,5 hPa 0,0 l/m 5,6 km/h (1 Bft) S 173 0 min 0,000 mm 0,0 UV-I 0 W/m 1,1 C 2,7 C 6,4 km/h (2 Bft) 100,00 %
10.03.2018 03:00 2,6 C 3,9 C 89 % 1008,5 hPa 0,0 l/m 4,6 km/h (1 Bft) S 173 0 min 0,000 mm 0,0 UV-I 0 W/m 1,0 C 2,6 C 4,8 km/h (1 Bft) 100,00 %
10.03.2018 03:01 2,6 C 3,9 C 89 % 1008,5 hPa 0,0 l/m 4,6 km/h (1 Bft) S 173 0 min 0,000 mm 0,0 UV-I 0 W/m 1,0 C 2,6 C 4,8 km/h (1 Bft) 95,65 %
10.03.2018 03:02 2,6 C 3,9 C 89 % 1008,5 hPa 0,0 l/m 3,9 km/h (1 Bft) S 173 0 min 0,000 mm 0,0 UV-I 0 W/m 1,0 C 2,6 C 4,8 km/h (1 Bft) 100,00 %
10.03.2018 03:03 2,6 C 3,9 C 89 % 1008,5 hPa 0,0 l/m 3,9 km/h (1 Bft) S 173 0 min 0,000 mm 0,0 UV-I 0 W/m 1,0 C 2,6 C 4,8 km/h (1 Bft) 100,00 %
10.03.2018 03:04 2,6 C 3,9 C 90 % 1008,5 hPa 0,0 l/m 3,8 km/h (1 Bft) S 173 0 min 0,000 mm 0,0 UV-I 0 W/m 1,1 C 2,6 C 4,8 km/h (1 Bft) 100,00 %
10.03.2018 03:05 2,6 C 3,9 C 90 % 1008,5 hPa 0,0 l/m 3,8 km/h (1 Bft) S 173 0 min 0,000 mm 0,0 UV-I 0 W/m 1,1 C 2,6 C 4,8 km/h (1 Bft) 100,00 %
10.03.2018 03:06 2,6 C 3,9 C 90 % 1008,5 hPa 0,0 l/m 3,7 km/h (1 Bft) S 173 0 min 0,000 mm 0,0 UV-I 0 W/m 1,1 C 2,6 C 4,8 km/h (1 Bft) 95,65 %
10.03.2018 03:07 2,5 C 3,9 C 90 % 1008,4 hPa 0,0 l/m 3,5 km/h (1 Bft) S 173 0 min 0,000 mm 0,0 UV-I 0 W/m 1,0 C 2,5 C 4,8 km/h (1 Bft) 100,00 %
10.03.2018 03:08 2,4 C 3,9 C 89 % 1008,4 hPa 0,0 l/m 3,5 km/h (1 Bft) S 173 0 min 0,000 mm 0,0 UV-I 0 W/m 0,8 C 2,4 C 4,8 km/h (1 Bft) 100,00 %
10.03.2018 03:09 2,3 C 3,9 C 90 % 1008,4 hPa 0,0 l/m 2,7 km/h (1 Bft) S 173 0 min 0,000 mm 0,0 UV-I 0 W/m 0,8 C 2,3 C 3,2 km/h (1 Bft) 100,00 %
10.03.2018 03:10 2,3 C 3,9 C 90 % 1008,4 hPa 0,0 l/m 3,5 km/h (1 Bft) S 173 0 min 0,000 mm 0,0 UV-I 0 W/m 0,8 C 2,3 C 4,8 km/h (1 Bft) 100,00 %
10.03.2018 03:11 2,3 C 3,9 C 90 % 1008,4 hPa 0,0 l/m 4,2 km/h (1 Bft) S 173 0 min 0,000 mm 0,0 UV-I 0 W/m 0,8 C 2,3 C 4,8 km/h (1 Bft) 100,00 %
10.03.2018 03:12 2,2 C 3,9 C 90 % 1008,4 hPa 0,0 l/m 4,8 km/h (1 Bft) S 173 0 min 0,000 mm 0,0 UV-I 0 W/m 0,7 C 2,2 C 8,0 km/h (2 Bft) 100,00 %
10.03.2018 03:13 2,3 C 3,9 C 91 % 1008,4 hPa 0,0 l/m 5,4 km/h (1 Bft) S 176 0 min 0,000 mm 0,0 UV-I 0 W/m 1,0 C 2,3 C 8,0 km/h (2 Bft) 100,00 %
10.03.2018 03:14 2,3 C 3,9 C 91 % 1008,4 hPa 0,0 l/m 4,7 km/h (1 Bft) S 176 0 min 0,000 mm 0,0 UV-I 0 W/m 1,0 C 2,3 C 4,8 km/h (1 Bft) 100,00 %
10.03.2018 03:15 2,4 C 3,9 C 91 % 1008,5 hPa 0,0 l/m 4,8 km/h (1 Bft) S 178 0 min 0,000 mm 0,0 UV-I 0 W/m 1,1 C 2,4 C 6,4 km/h (2 Bft) 100,00 %
10.03.2018 03:16 2,5 C 3,9 C 91 % 1008,4 hPa 0,0 l/m 4,2 km/h (1 Bft) S 178 0 min 0,000 mm 0,0 UV-I 0 W/m 1,2 C 2,5 C 4,8 km/h (1 Bft) 100,00 %
10.03.2018 03:17 2,6 C 3,9 C 91 % 1008,4 hPa 0,0 l/m 3,8 km/h (1 Bft) S 178 0 min 0,000 mm 0,0 UV-I 0 W/m 1,3 C 2,6 C 4,8 km/h (1 Bft) 100,00 %
10.03.2018 03:18 2,6 C 3,9 C 90 % 1008,4 hPa 0,0 l/m 2,2 km/h (1 Bft) S 178 0 min 0,000 mm 0,0 UV-I 0 W/m 1,1 C 2,6 C 3,2 km/h (1 Bft) 92,31 %
10.03.2018 03:19 2,7 C 3,9 C 90 % 1008,4 hPa 0,0 l/m 2,1 km/h (1 Bft) S 178 0 min 0,000 mm 0,0 UV-I 0 W/m 1,2 C 2,7 C 3,2 km/h (1 Bft) 100,00 %
10.03.2018 03:20 2,7 C 3,9 C 90 % 1008,4 hPa 0,0 l/m 1,7 km/h (1 Bft) S 178 0 min 0,000 mm 0,0 UV-I 0 W/m 1,2 C 2,7 C 3,2 km/h (1 Bft) 100,00 %
10.03.2018 03:21 2,7 C 3,9 C 90 % 1008,4 hPa 0,0 l/m 1,6 km/h (1 Bft) S 178 0 min 0,000 mm 0,0 UV-I 0 W/m 1,2 C 2,7 C 3,2 km/h (1 Bft) 100,00 %
10.03.2018 03:22 2,7 C 3,9 C 90 % 1008,4 hPa 0,0 l/m 2,5 km/h (1 Bft) S 178 0 min 0,000 mm 0,0 UV-I 0 W/m 1,2 C 2,7 C 3,2 km/h (1 Bft) 100,00 %
10.03.2018 03:23 2,8 C 3,9 C 90 % 1008,4 hPa 0,0 l/m 2,4 km/h (1 Bft) S 178 0 min 0,000 mm 0,0 UV-I 0 W/m 1,3 C 2,8 C 3,2 km/h (1 Bft) 100,00 %
10.03.2018 03:24 2,7 C 3,9 C 90 % 1008,5 hPa 0,0 l/m 2,8 km/h (1 Bft) S 178 0 min 0,000 mm 0,0 UV-I 0 W/m 1,2 C 2,7 C 4,8 km/h (1 Bft) 100,00 %
10.03.2018 03:25 2,7 C 3,9 C 89 % 1008,5 hPa 0,0 l/m 3,5 km/h (1 Bft) S 178 0 min 0,000 mm 0,0 UV-I 0 W/m 1,1 C 2,7 C 4,8 km/h (1 Bft) 100,00 %
10.03.2018 03:26 2,6 C 3,9 C 90 % 1008,5 hPa 0,0 l/m 3,8 km/h (1 Bft) S 178 0 min 0,000 mm 0,0 UV-I 0 W/m 1,1 C 2,6 C 4,8 km/h (1 Bft) 100,00 %
10.03.2018 03:27 2,6 C 3,9 C 90 % 1008,5 hPa 0,0 l/m 3,2 km/h (1 Bft) S 178 0 min 0,000 mm 0,0 UV-I 0 W/m 1,1 C 2,6 C 4,8 km/h (1 Bft) 95,65 %
10.03.2018 03:28 2,5 C 3,9 C 90 % 1008,5 hPa 0,0 l/m 3,3 km/h (1 Bft) S 178 0 min 0,000 mm 0,0 UV-I 0 W/m 1,0 C 2,5 C 4,8 km/h (1 Bft) 97,77 %
10.03.2018 03:29 2,4 C 3,9 C 90 % 1008,4 hPa 0,0 l/m 2,7 km/h (1 Bft) S 178 0 min 0,000 mm 0,0 UV-I 0 W/m 0,9 C 2,4 C 3,2 km/h (1 Bft) 97,37 %
10.03.2018 03:30 2,4 C 3,9 C 90 % 1008,5 hPa 0,0 l/m 3,0 km/h (1 Bft) S 178 0 min 0,000 mm 0,0 UV-I 0 W/m 0,9 C 2,4 C 3,2 km/h (1 Bft) 100,00 %
10.03.2018 03:31 2,4 C 3,9 C 90 % 1008,5 hPa 0,0 l/m 2,7 km/h (1 Bft) S 178 0 min 0,000 mm 0,0 UV-I 0 W/m 0,9 C 2,4 C 4,8 km/h (1 Bft) 100,00 %
10.03.2018 03:32 2,3 C 3,9 C 90 % 1008,5 hPa 0,0 l/m 3,1 km/h (1 Bft) S 178 0 min 0,000 mm 0,0 UV-I 0 W/m 0,8 C 2,3 C 4,8 km/h (1 Bft) 100,00 %
10.03.2018 03:33 2,3 C 3,9 C 90 % 1008,5 hPa 0,0 l/m 2,9 km/h (1 Bft) S 178 0 min 0,000 mm 0,0 UV-I 0 W/m 0,8 C 2,3 C 3,2 km/h (1 Bft) 95,65 %
10.03.2018 03:34 2,3 C 3,9 C 91 % 1008,5 hPa 0,0 l/m 2,5 km/h (1 Bft) S 178 0 min 0,000 mm 0,0 UV-I 0 W/m 1,0 C 2,3 C 3,2 km/h (1 Bft) 100,00 %
10.03.2018 03:35 2,3 C 3,9 C 91 % 1008,5 hPa 0,0 l/m 2,5 km/h (1 Bft) S 178 0 min 0,000 mm 0,0 UV-I 0 W/m 1,0 C 2,3 C 3,2 km/h (1 Bft) 100,00 %
10.03.2018 03:36 2,3 C 3,9 C 91 % 1008,5 hPa 0,0 l/m 2,5 km/h (1 Bft) S 178 0 min 0,000 mm 0,0 UV-I 0 W/m 1,0 C 2,3 C 3,2 km/h (1 Bft) 100,00 %
10.03.2018 03:37 2,3 C 3,9 C 91 % 1008,5 hPa 0,0 l/m 3,6 km/h (1 Bft) S 178 0 min 0,000 mm 0,0 UV-I 0 W/m 1,0 C 2,3 C 4,8 km/h (1 Bft) 100,00 %
10.03.2018 03:38 2,3 C 3,9 C 91 % 1008,5 hPa 0,0 l/m 2,6 km/h (1 Bft) S 178 0 min 0,000 mm 0,0 UV-I 0 W/m 1,0 C 2,3 C 3,2 km/h (1 Bft) 100,00 %
10.03.2018 03:39 2,3 C 3,9 C 91 % 1008,5 hPa 0,0 l/m 2,6 km/h (1 Bft) S 178 0 min 0,000 mm 0,0 UV-I 0 W/m 1,0 C 2,3 C 3,2 km/h (1 Bft) 100,00 %
10.03.2018 03:40 2,4 C 3,9 C 91 % 1008,5 hPa 0,0 l/m 2,0 km/h (1 Bft) S 178 0 min 0,000 mm 0,0 UV-I 0 W/m 1,1 C 2,4 C 3,2 km/h (1 Bft) 100,00 %
10.03.2018 03:41 2,4 C 3,9 C 91 % 1008,5 hPa 0,0 l/m 2,8 km/h (1 Bft) S 178 0 min 0,000 mm 0,0 UV-I 0 W/m 1,1 C 2,4 C 3,2 km/h (1 Bft) 100,00 %
10.03.2018 03:42 2,4 C 3,9 C 91 % 1008,6 hPa 0,0 l/m 3,0 km/h (1 Bft) S 178 0 min 0,000 mm 0,0 UV-I 0 W/m 1,1 C 2,4 C 3,2 km/h (1 Bft) 100,00 %
10.03.2018 03:43 2,4 C 3,9 C 91 % 1008,6 hPa 0,0 l/m 2,9 km/h (1 Bft) S 178 0 min 0,000 mm 0,0 UV-I 0 W/m 1,1 C 2,4 C 3,2 km/h (1 Bft) 100,00 %
10.03.2018 03:44 2,4 C 3,9 C 91 % 1008,6 hPa 0,0 l/m 2,4 km/h (1 Bft) S 178 0 min 0,000 mm 0,0 UV-I 0 W/m 1,1 C 2,4 C 3,2 km/h (1 Bft) 100,00 %
10.03.2018 03:45 2,4 C 3,9 C 91 % 1008,5 hPa 0,0 l/m 1,7 km/h (1 Bft) S 178 0 min 0,000 mm 0,0 UV-I 0 W/m 1,1 C 2,4 C 3,2 km/h (1 Bft) 100,00 %
10.03.2018 03:46 2,4 C 3,9 C 91 % 1008,5 hPa 0,0 l/m 1,4 km/h (1 Bft) S 178 0 min 0,000 mm 0,0 UV-I 0 W/m 1,1 C 2,4 C 1,6 km/h (1 Bft) 95,65 %
10.03.2018 03:47 2,4 C 3,9 C 91 % 1008,6 hPa 0,0 l/m 1,9 km/h (1 Bft) S 178 0 min 0,000 mm 0,0 UV-I 0 W/m 1,1 C 2,4 C 3,2 km/h (1 Bft) 100,00 %
10.03.2018 03:48 2,4 C 3,9 C 91 % 1008,5 hPa 0,0 l/m 1,7 km/h (1 Bft) S 178 0 min 0,000 mm 0,0 UV-I 0 W/m 1,1 C 2,4 C 3,2 km/h (1 Bft) 100,00 %
10.03.2018 03:49 2,3 C 3,9 C 91 % 1008,5 hPa 0,0 l/m 1,5 km/h (1 Bft) S 178 0 min 0,000 mm 0,0 UV-I 0 W/m 1,0 C 2,3 C 3,2 km/h (1 Bft) 100,00 %
10.03.2018 03:50 2,3 C 3,9 C 91 % 1008,6 hPa 0,0 l/m 1,0 km/h (0 Bft) S 178 0 min 0,000 mm 0,0 UV-I 0 W/m 1,0 C 2,3 C 1,6 km/h (1 Bft) 100,00 %
10.03.2018 03:51 2,4 C 3,9 C 91 % 1008,5 hPa 0,0 l/m 0,2 km/h (0 Bft) S 178 0 min 0,000 mm 0,0 UV-I 0 W/m 1,1 C 2,4 C 1,6 km/h (1 Bft) 100,00 %
10.03.2018 03:52 2,4 C 3,9 C 91 % 1008,4 hPa 0,0 l/m 0,0 km/h (0 Bft) S 178 0 min 0,000 mm 0,0 UV-I 0 W/m 1,1 C 2,4 C 0,0 km/h (0 Bft) 100,00 %
10.03.2018 03:53 2,3 C 3,9 C 91 % 1008,4 hPa 0,0 l/m 0,0 km/h (0 Bft) S 178 0 min 0,000 mm 0,0 UV-I 0 W/m 1,0 C 2,3 C 0,0 km/h (0 Bft) 100,00 %
10.03.2018 03:54 2,2 C 3,9 C 90 % 1008,4 hPa 0,0 l/m 0,0 km/h (0 Bft) S 178 0 min 0,000 mm 0,0 UV-I 0 W/m 0,7 C 2,2 C 0,0 km/h (0 Bft) 95,65 %
10.03.2018 03:55 2,2 C 3,9 C 91 % 1008,3 hPa 0,0 l/m 0,0 km/h (0 Bft) S 178 0 min 0,000 mm 0,0 UV-I 0 W/m 0,9 C 2,2 C 0,0 km/h (0 Bft) 95,83 %
10.03.2018 03:56 2,2 C 3,9 C 91 % 1008,3 hPa 0,0 l/m 0,0 km/h (0 Bft) S 178 0 min 0,000 mm 0,0 UV-I 0 W/m 0,9 C 2,2 C 0,0 km/h (0 Bft) 100,00 %
10.03.2018 03:57 2,2 C 3,9 C 91 % 1008,3 hPa 0,0 l/m 0,0 km/h (0 Bft) S 178 0 min 0,000 mm 0,0 UV-I 0 W/m 0,9 C 2,2 C 0,0 km/h (0 Bft) 91,67 %
10.03.2018 03:58 2,1 C 3,9 C 91 % 1008,3 hPa 0,0 l/m 0,0 km/h (0 Bft) S 178 0 min 0,000 mm 0,0 UV-I 0 W/m 0,8 C 2,1 C 0,0 km/h (0 Bft) 100,00 %
10.03.2018 03:59 2,2 C 3,9 C 91 % 1008,3 hPa 0,0 l/m 0,0 km/h (0 Bft) S 178 0 min 0,000 mm 0,0 UV-I 0 W/m 0,9 C 2,2 C 0,0 km/h (0 Bft) 95,83 %
10.03.2018 04:00 2,2 C 3,9 C 91 % 1008,3 hPa 0,0 l/m 0,0 km/h (0 Bft) S 178 0 min 0,000 mm 0,0 UV-I 0 W/m 0,9 C 2,2 C 0,0 km/h (0 Bft) 95,65 %
10.03.2018 04:02 2,3 C 3,9 C 91 % 1008,2 hPa 0,0 l/m 0,0 km/h (0 Bft) S 178 0 min 0,000 mm 0,0 UV-I 0 W/m 1,0 C 2,3 C 0,0 km/h (0 Bft) 100,00 %
10.03.2018 04:03 2,3 C 3,9 C 91 % 1008,2 hPa 0,0 l/m 0,0 km/h (0 Bft) S 178 0 min 0,000 mm 0,0 UV-I 0 W/m 1,0 C 2,3 C 0,0 km/h (0 Bft) 91,67 %
10.03.2018 04:04 2,3 C 3,9 C 91 % 1008,1 hPa 0,0 l/m 0,0 km/h (0 Bft) S 178 0 min 0,000 mm 0,0 UV-I 0 W/m 1,0 C 2,3 C 0,0 km/h (0 Bft) 100,00 %
10.03.2018 04:05 2,4 C 3,9 C 91 % 1008,1 hPa 0,0 l/m 0,0 km/h (0 Bft) S 178 0 min 0,000 mm 0,0 UV-I 0 W/m 1,1 C 2,4 C 0,0 km/h (0 Bft) 95,65 %
10.03.2018 04:06 2,4 C 3,9 C 91 % 1008,1 hPa 0,0 l/m 0,0 km/h (0 Bft) S 178 0 min 0,000 mm 0,0 UV-I 0 W/m 1,1 C 2,4 C 0,0 km/h (0 Bft) 100,00 %
10.03.2018 04:07 2,4 C 3,9 C 91 % 1008,1 hPa 0,0 l/m 0,0 km/h (0 Bft) S 178 0 min 0,000 mm 0,0 UV-I 0 W/m 1,1 C 2,4 C 0,0 km/h (0 Bft) 95,65 %
10.03.2018 04:08 2,4 C 3,9 C 91 % 1008,1 hPa 0,0 l/m 0,2 km/h (0 Bft) S 178 0 min 0,000 mm 0,0 UV-I 0 W/m 1,1 C 2,4 C 1,6 km/h (1 Bft) 95,83 %
10.03.2018 04:09 2,4 C 3,9 C 90 % 1008,2 hPa 0,0 l/m 0,0 km/h (0 Bft) S 178 0 min 0,000 mm 0,0 UV-I 0 W/m 0,9 C 2,4 C 0,0 km/h (0 Bft) 96,15 %
10.03.2018 04:10 2,4 C 3,9 C 90 % 1008,2 hPa 0,0 l/m 0,0 km/h (0 Bft) S 178 0 min 0,000 mm 0,0 UV-I 0 W/m 0,9 C 2,4 C 0,0 km/h (0 Bft) 96,30 %
10.03.2018 04:11 2,3 C 3,9 C 90 % 1008,2 hPa 0,0 l/m 0,0 km/h (0 Bft) S 178 0 min 0,000 mm 0,0 UV-I 0 W/m 0,8 C 2,3 C 0,0 km/h (0 Bft) 100,00 %
10.03.2018 04:12 2,3 C 3,9 C 91 % 1008,2 hPa 0,0 l/m 0,3 km/h (0 Bft) S 178 0 min 0,000 mm 0,0 UV-I 0 W/m 1,0 C 2,3 C 1,6 km/h (1 Bft) 95,83 %
10.03.2018 04:13 2,3 C 3,9 C 91 % 1008,1 hPa 0,0 l/m 2,6 km/h (1 Bft) S 178 0 min 0,000 mm 0,0 UV-I 0 W/m 1,0 C 2,3 C 3,2 km/h (1 Bft) 95,65 %
10.03.2018 04:14 2,3 C 3,9 C 91 % 1008,1 hPa 0,0 l/m 2,5 km/h (1 Bft) S 178 0 min 0,000 mm 0,0 UV-I 0 W/m 1,0 C 2,3 C 3,2 km/h (1 Bft) 93,33 %
10.03.2018 04:15 2,2 C 3,9 C 91 % 1008,2 hPa 0,0 l/m 3,1 km/h (1 Bft) S 178 0 min 0,000 mm 0,0 UV-I 0 W/m 0,9 C 2,2 C 3,2 km/h (1 Bft) 96,15 %
10.03.2018 04:16 2,2 C 3,9 C 90 % 1008,2 hPa 0,0 l/m 3,4 km/h (1 Bft) S 178 0 min 0,000 mm 0,0 UV-I 0 W/m 0,7 C 2,2 C 4,8 km/h (1 Bft) 100,00 %
10.03.2018 04:17 2,0 C 3,9 C 90 % 1008,2 hPa 0,0 l/m 3,0 km/h (1 Bft) S 178 0 min 0,000 mm 0,0 UV-I 0 W/m 0,5 C 2,0 C 3,2 km/h (1 Bft) 95,65 %
10.03.2018 04:18 1,9 C 3,9 C 91 % 1008,2 hPa 0,0 l/m 2,5 km/h (1 Bft) S 178 0 min 0,000 mm 0,0 UV-I 0 W/m 0,6 C 1,9 C 3,2 km/h (1 Bft) 100,00 %
10.03.2018 04:19 1,9 C 3,9 C 91 % 1008,2 hPa 0,0 l/m 2,2 km/h (1 Bft) S 178 0 min 0,000 mm 0,0 UV-I 0 W/m 0,6 C 1,9 C 3,2 km/h (1 Bft) 91,67 %
10.03.2018 04:20 1,8 C 3,9 C 91 % 1008,2 hPa 0,0 l/m 1,7 km/h (1 Bft) S 178 0 min 0,000 mm 0,0 UV-I 0 W/m 0,5 C 1,8 C 3,2 km/h (1 Bft) 100,00 %
10.03.2018 04:21 1,8 C 3,9 C 91 % 1008,3 hPa 0,0 l/m 1,9 km/h (1 Bft) S 178 0 min 0,000 mm 0,0 UV-I 0 W/m 0,5 C 1,8 C 3,2 km/h (1 Bft) 95,83 %
10.03.2018 04:22 1,8 C 3,9 C 91 % 1008,2 hPa 0,0 l/m 1,9 km/h (1 Bft) S 178 0 min 0,000 mm 0,0 UV-I 0 W/m 0,5 C 1,8 C 3,2 km/h (1 Bft) 100,00 %
10.03.2018 04:23 1,9 C 3,9 C 92 % 1008,2 hPa 0,0 l/m 2,3 km/h (1 Bft) S 178 0 min 0,000 mm 0,0 UV-I 0 W/m 0,7 C 1,9 C 3,2 km/h (1 Bft) 96,30 %
10.03.2018 04:24 1,9 C 3,9 C 92 % 1008,2 hPa 0,0 l/m 2,9 km/h (1 Bft) S 178 0 min 0,000 mm 0,0 UV-I 0 W/m 0,7 C 1,9 C 3,2 km/h (1 Bft) 92,31 %
10.03.2018 04:25 2,0 C 3,9 C 92 % 1008,2 hPa 0,0 l/m 3,0 km/h (1 Bft) S 178 0 min 0,000 mm 0,0 UV-I 0 W/m 0,8 C 2,0 C 3,2 km/h (1 Bft) 100,00 %
10.03.2018 04:26 2,0 C 3,9 C 92 % 1008,2 hPa 0,0 l/m 3,3 km/h (1 Bft) S 178 0 min 0,000 mm 0,0 UV-I 0 W/m 0,8 C 2,0 C 4,8 km/h (1 Bft) 92,86 %
10.03.2018 04:27 1,9 C 3,9 C 91 % 1008,2 hPa 0,0 l/m 3,2 km/h (1 Bft) S 178 0 min 0,000 mm 0,0 UV-I 0 W/m 0,6 C 1,9 C 4,8 km/h (1 Bft) 100,00 %
10.03.2018 04:28 1,8 C 3,9 C 91 % 1008,2 hPa 0,0 l/m 3,7 km/h (1 Bft) S 178 0 min 0,000 mm 0,0 UV-I 0 W/m 0,5 C 1,8 C 4,8 km/h (1 Bft) 95,65 %
10.03.2018 04:29 1,7 C 3,9 C 91 % 1008,2 hPa 0,0 l/m 4,0 km/h (1 Bft) S 178 0 min 0,000 mm 0,0 UV-I 0 W/m 0,4 C 1,7 C 4,8 km/h (1 Bft) 100,00 %
10.03.2018 04:30 1,7 C 3,9 C 91 % 1008,2 hPa 0,0 l/m 3,8 km/h (1 Bft) S 178 0 min 0,000 mm 0,0 UV-I 0 W/m 0,4 C 1,7 C 4,8 km/h (1 Bft) 95,65 %
10.03.2018 04:31 1,6 C 3,9 C 91 % 1008,1 hPa 0,0 l/m 3,8 km/h (1 Bft) S 178 0 min 0,000 mm 0,0 UV-I 0 W/m 0,3 C 1,6 C 4,8 km/h (1 Bft) 100,00 %
10.03.2018 04:32 1,5 C 3,9 C 91 % 1008,2 hPa 0,0 l/m 2,8 km/h (1 Bft) S 178 0 min 0,000 mm 0,0 UV-I 0 W/m 0,2 C 1,5 C 3,2 km/h (1 Bft) 96,15 %
10.03.2018 04:33 1,4 C 3,9 C 91 % 1008,1 hPa 0,0 l/m 2,3 km/h (1 Bft) S 178 0 min 0,000 mm 0,0 UV-I 0 W/m 0,1 C 1,4 C 3,2 km/h (1 Bft) 95,83 %
10.03.2018 04:34 1,4 C 3,9 C 92 % 1008,2 hPa 0,0 l/m 2,1 km/h (1 Bft) S 178 0 min 0,000 mm 0,0 UV-I 0 W/m 0,2 C 1,4 C 3,2 km/h (1 Bft) 100,00 %
10.03.2018 04:35 1,4 C 3,9 C 92 % 1008,2 hPa 0,0 l/m 1,9 km/h (1 Bft) S 178 0 min 0,000 mm 0,0 UV-I 0 W/m 0,2 C 1,4 C 3,2 km/h (1 Bft) 100,00 %
10.03.2018 04:36 1,5 C 3,9 C 92 % 1008,2 hPa 0,0 l/m 1,8 km/h (1 Bft) S 178 0 min 0,000 mm 0,0 UV-I 0 W/m 0,3 C 1,5 C 3,2 km/h (1 Bft) 100,00 %
10.03.2018 04:37 1,5 C 3,9 C 92 % 1008,2 hPa 0,0 l/m 2,5 km/h (1 Bft) S 178 0 min 0,000 mm 0,0 UV-I 0 W/m 0,3 C 1,5 C 3,2 km/h (1 Bft) 96,15 %
10.03.2018 04:38 1,5 C 3,9 C 92 % 1008,1 hPa 0,0 l/m 2,3 km/h (1 Bft) S 178 0 min 0,000 mm 0,0 UV-I 0 W/m 0,3 C 1,5 C 3,2 km/h (1 Bft) 96,30 %
10.03.2018 04:39 1,5 C 3,9 C 93 % 1008,1 hPa 0,0 l/m 2,9 km/h (1 Bft) S 178 0 min 0,000 mm 0,0 UV-I 0 W/m 0,5 C 1,5 C 3,2 km/h (1 Bft) 100,00 %
10.03.2018 04:40 1,5 C 3,9 C 92 % 1008,1 hPa 0,0 l/m 3,1 km/h (1 Bft) S 178 0 min 0,000 mm 0,0 UV-I 0 W/m 0,3 C 1,5 C 3,2 km/h (1 Bft) 100,00 %
10.03.2018 04:41 1,4 C 3,9 C 92 % 1008,1 hPa 0,0 l/m 2,8 km/h (1 Bft) S 178 0 min 0,000 mm 0,0 UV-I 0 W/m 0,2 C 1,4 C 3,2 km/h (1 Bft) 100,00 %
10.03.2018 04:42 1,4 C 3,9 C 92 % 1008,1 hPa 0,0 l/m 2,3 km/h (1 Bft) S 178 0 min 0,000 mm 0,0 UV-I 0 W/m 0,2 C 1,4 C 3,2 km/h (1 Bft) 100,00 %
10.03.2018 04:43 1,4 C 3,9 C 92 % 1008,1 hPa 0,0 l/m 1,4 km/h (1 Bft) S 178 0 min 0,000 mm 0,0 UV-I 0 W/m 0,2 C 1,4 C 3,2 km/h (1 Bft) 100,00 %
10.03.2018 04:44 1,4 C 3,9 C 93 % 1008,1 hPa 0,0 l/m 0,1 km/h (0 Bft) S 178 0 min 0,000 mm 0,0 UV-I 0 W/m 0,4 C 1,4 C 1,6 km/h (1 Bft) 100,00 %
10.03.2018 04:45 1,4 C 3,9 C 93 % 1008,1 hPa 0,0 l/m 0,0 km/h (0 Bft) S 178 0 min 0,000 mm 0,0 UV-I 0 W/m 0,4 C 1,4 C 0,0 km/h (0 Bft) 100,00 %
10.03.2018 04:46 1,5 C 3,9 C 93 % 1008,1 hPa 0,0 l/m 0,0 km/h (0 Bft) S 178 0 min 0,000 mm 0,0 UV-I 0 W/m 0,5 C 1,5 C 0,0 km/h (0 Bft) 100,00 %
10.03.2018 04:47 1,6 C 3,9 C 93 % 1008,1 hPa 0,0 l/m 0,0 km/h (0 Bft) S 178 0 min 0,000 mm 0,0 UV-I 0 W/m 0,6 C 1,6 C 0,0 km/h (0 Bft) 96,15 %
10.03.2018 04:48 1,7 C 3,9 C 93 % 1008,1 hPa 0,0 l/m 0,1 km/h (0 Bft) S 178 0 min 0,000 mm 0,0 UV-I 0 W/m 0,7 C 1,7 C 1,6 km/h (1 Bft) 100,00 %
10.03.2018 04:49 1,7 C 3,9 C 93 % 1008,1 hPa 0,0 l/m 1,6 km/h (1 Bft) S 178 0 min 0,000 mm 0,0 UV-I 0 W/m 0,7 C 1,7 C 1,6 km/h (1 Bft) 100,00 %
10.03.2018 04:50 1,7 C 3,9 C 93 % 1008,1 hPa 0,0 l/m 1,9 km/h (1 Bft) S 178 0 min 0,000 mm 0,0 UV-I 0 W/m 0,7 C 1,7 C 3,2 km/h (1 Bft) 100,00 %
10.03.2018 04:51 1,6 C 3,9 C 92 % 1008,1 hPa 0,0 l/m 2,9 km/h (1 Bft) S 178 0 min 0,000 mm 0,0 UV-I 0 W/m 0,4 C 1,6 C 3,2 km/h (1 Bft) 100,00 %
10.03.2018 04:52 1,5 C 3,9 C 92 % 1008,1 hPa 0,0 l/m 3,4 km/h (1 Bft) S 178 0 min 0,000 mm 0,0 UV-I 0 W/m 0,3 C 1,5 C 4,8 km/h (1 Bft) 100,00 %
10.03.2018 04:53 1,5 C 3,9 C 92 % 1008,0 hPa 0,0 l/m 3,1 km/h (1 Bft) S 178 0 min 0,000 mm 0,0 UV-I 0 W/m 0,3 C 1,5 C 3,2 km/h (1 Bft) 100,00 %
10.03.2018 04:54 1,4 C 3,9 C 92 % 1008,0 hPa 0,0 l/m 2,8 km/h (1 Bft) S 178 0 min 0,000 mm 0,0 UV-I 0 W/m 0,2 C 1,4 C 3,2 km/h (1 Bft) 94,44 %
10.03.2018 04:55 1,4 C 3,9 C 92 % 1008,0 hPa 0,0 l/m 3,4 km/h (1 Bft) S 178 0 min 0,000 mm 0,0 UV-I 0 W/m 0,2 C 1,4 C 4,8 km/h (1 Bft) 95,65 %
10.03.2018 04:56 1,3 C 3,9 C 92 % 1008,0 hPa 0,0 l/m 3,7 km/h (1 Bft) S 178 0 min 0,000 mm 0,0 UV-I 0 W/m 0,1 C 1,3 C 4,8 km/h (1 Bft) 100,00 %
10.03.2018 04:57 1,2 C 3,9 C 92 % 1008,0 hPa 0,0 l/m 3,6 km/h (1 Bft) S 178 0 min 0,000 mm 0,0 UV-I 0 W/m 0,0 C 1,2 C 4,8 km/h (1 Bft) 100,00 %
10.03.2018 04:58 1,2 C 3,9 C 92 % 1008,0 hPa 0,0 l/m 3,3 km/h (1 Bft) S 178 0 min 0,000 mm 0,0 UV-I 0 W/m 0,0 C 1,2 C 4,8 km/h (1 Bft) 100,00 %
10.03.2018 04:59 1,1 C 3,9 C 92 % 1008,0 hPa 0,0 l/m 3,2 km/h (1 Bft) S 178 0 min 0,000 mm 0,0 UV-I 0 W/m -0,1 C 1,1 C 3,2 km/h (1 Bft) 100,00 %
10.03.2018 05:00 1,0 C 3,9 C 92 % 1008,0 hPa 0,0 l/m 2,8 km/h (1 Bft) S 178 0 min 0,000 mm 0,0 UV-I 0 W/m -0,2 C 1,0 C 3,2 km/h (1 Bft) 100,00 %
10.03.2018 05:01 0,9 C 3,9 C 92 % 1008,0 hPa 0,0 l/m 3,0 km/h (1 Bft) S 178 0 min 0,000 mm 0,0 UV-I 0 W/m -0,2 C 0,9 C 3,2 km/h (1 Bft) 100,00 %
10.03.2018 05:02 0,9 C 3,9 C 92 % 1008,0 hPa 0,0 l/m 3,0 km/h (1 Bft) S 178 0 min 0,000 mm 0,0 UV-I 0 W/m -0,2 C 0,9 C 3,2 km/h (1 Bft) 100,00 %
10.03.2018 05:03 0,9 C 3,9 C 93 % 1008,1 hPa 0,0 l/m 3,1 km/h (1 Bft) S 178 0 min 0,000 mm 0,0 UV-I 0 W/m -0,1 C 0,9 C 3,2 km/h (1 Bft) 100,00 %
10.03.2018 05:04 0,9 C 3,9 C 93 % 1008,1 hPa 0,0 l/m 3,2 km/h (1 Bft) S 178 0 min 0,000 mm 0,0 UV-I 0 W/m -0,1 C 0,9 C 4,8 km/h (1 Bft) 95,65 %
10.03.2018 05:05 0,9 C 3,9 C 93 % 1008,1 hPa 0,0 l/m 3,5 km/h (1 Bft) S 178 0 min 0,000 mm 0,0 UV-I 0 W/m -0,1 C 0,9 C 4,8 km/h (1 Bft) 100,00 %
10.03.2018 05:06 1,0 C 3,9 C 93 % 1008,2 hPa 0,0 l/m 3,8 km/h (1 Bft) S 178 0 min 0,000 mm 0,0 UV-I 0 W/m -0,0 C 1,0 C 4,8 km/h (1 Bft) 100,00 %
10.03.2018 05:07 1,1 C 3,9 C 93 % 1008,2 hPa 0,0 l/m 3,9 km/h (1 Bft) S 178 0 min 0,000 mm 0,0 UV-I 0 W/m 0,1 C 1,1 C 4,8 km/h (1 Bft) 100,00 %
10.03.2018 05:08 1,2 C 3,9 C 94 % 1008,2 hPa 0,0 l/m 3,5 km/h (1 Bft) S 178 0 min 0,000 mm 0,0 UV-I 0 W/m 0,3 C 1,2 C 4,8 km/h (1 Bft) 100,00 %
10.03.2018 05:09 1,2 C 3,9 C 93 % 1008,1 hPa 0,0 l/m 3,9 km/h (1 Bft) S 178 0 min 0,000 mm 0,0 UV-I 0 W/m 0,2 C 1,2 C 4,8 km/h (1 Bft) 100,00 %
10.03.2018 05:10 1,2 C 3,9 C 93 % 1008,1 hPa 0,0 l/m 4,0 km/h (1 Bft) S 178 0 min 0,000 mm 0,0 UV-I 0 W/m 0,2 C 1,2 C 4,8 km/h (1 Bft) 100,00 %
10.03.2018 05:11 1,3 C 3,9 C 94 % 1008,1 hPa 0,0 l/m 4,3 km/h (1 Bft) S 178 0 min 0,000 mm 0,0 UV-I 0 W/m 0,4 C 1,3 C 4,8 km/h (1 Bft) 100,00 %
10.03.2018 05:12 1,3 C 3,9 C 94 % 1008,1 hPa 0,0 l/m 3,5 km/h (1 Bft) S 178 0 min 0,000 mm 0,0 UV-I 0 W/m 0,4 C 1,3 C 4,8 km/h (1 Bft) 96,15 %
10.03.2018 05:13 1,2 C 3,9 C 93 % 1008,1 hPa 0,0 l/m 3,3 km/h (1 Bft) S 178 0 min 0,000 mm 0,0 UV-I 0 W/m 0,2 C 1,2 C 4,8 km/h (1 Bft) 100,00 %
10.03.2018 05:14 1,0 C 3,9 C 92 % 1008,0 hPa 0,0 l/m 3,4 km/h (1 Bft) S 178 0 min 0,000 mm 0,0 UV-I 0 W/m -0,2 C 1,0 C 4,8 km/h (1 Bft) 100,00 %
10.03.2018 05:15 1,0 C 3,9 C 92 % 1008,0 hPa 0,0 l/m 2,9 km/h (1 Bft) S 178 0 min 0,000 mm 0,0 UV-I 0 W/m -0,2 C 1,0 C 3,2 km/h (1 Bft) 100,00 %
10.03.2018 05:16 0,9 C 3,9 C 93 % 1008,0 hPa 0,0 l/m 3,6 km/h (1 Bft) S 178 0 min 0,000 mm 0,0 UV-I 0 W/m -0,1 C 0,9 C 4,8 km/h (1 Bft) 100,00 %
10.03.2018 05:17 1,0 C 3,9 C 93 % 1008,0 hPa 0,0 l/m 3,5 km/h (1 Bft) S 178 0 min 0,000 mm 0,0 UV-I 0 W/m -0,0 C 1,0 C 4,8 km/h (1 Bft) 100,00 %
10.03.2018 05:18 1,2 C 3,9 C 94 % 1008,0 hPa 0,0 l/m 2,9 km/h (1 Bft) S 178 0 min 0,000 mm 0,0 UV-I 0 W/m 0,3 C 1,2 C 4,8 km/h (1 Bft) 100,00 %
10.03.2018 05:19 1,3 C 3,9 C 94 % 1008,0 hPa 0,0 l/m 2,5 km/h (1 Bft) S 178 0 min 0,000 mm 0,0 UV-I 0 W/m 0,4 C 1,3 C 3,2 km/h (1 Bft) 96,15 %
10.03.2018 05:20 1,5 C 3,9 C 94 % 1008,0 hPa 0,0 l/m 2,4 km/h (1 Bft) S 178 0 min 0,000 mm 0,0 UV-I 0 W/m 0,6 C 1,5 C 3,2 km/h (1 Bft) 100,00 %
10.03.2018 05:21 1,5 C 3,9 C 94 % 1008,0 hPa 0,0 l/m 3,0 km/h (1 Bft) S 178 0 min 0,000 mm 0,0 UV-I 0 W/m 0,6 C 1,5 C 3,2 km/h (1 Bft) 95,65 %
10.03.2018 05:22 1,5 C 3,9 C 94 % 1008,0 hPa 0,0 l/m 2,8 km/h (1 Bft) S 178 0 min 0,000 mm 0,0 UV-I 0 W/m 0,6 C 1,5 C 3,2 km/h (1 Bft) 100,00 %
10.03.2018 05:23 1,5 C 3,9 C 93 % 1008,0 hPa 0,0 l/m 3,6 km/h (1 Bft) S 178 0 min 0,000 mm 0,0 UV-I 0 W/m 0,5 C 1,5 C 4,8 km/h (1 Bft) 100,00 %
10.03.2018 05:24 1,5 C 3,9 C 93 % 1008,0 hPa 0,0 l/m 3,4 km/h (1 Bft) S 178 0 min 0,000 mm 0,0 UV-I 0 W/m 0,5 C 1,5 C 4,8 km/h (1 Bft) 100,00 %
10.03.2018 05:25 1,4 C 3,9 C 93 % 1008,0 hPa 0,0 l/m 3,2 km/h (1 Bft) S 178 0 min 0,000 mm 0,0 UV-I 0 W/m 0,4 C 1,4 C 4,8 km/h (1 Bft) 100,00 %
10.03.2018 05:26 1,4 C 3,9 C 93 % 1008,0 hPa 0,0 l/m 3,0 km/h (1 Bft) S 178 0 min 0,000 mm 0,0 UV-I 0 W/m 0,4 C 1,4 C 3,2 km/h (1 Bft) 96,30 %
10.03.2018 05:27 1,3 C 3,9 C 92 % 1008,0 hPa 0,0 l/m 2,7 km/h (1 Bft) S 178 0 min 0,000 mm 0,0 UV-I 0 W/m 0,1 C 1,3 C 3,2 km/h (1 Bft) 100,00 %
10.03.2018 05:28 1,3 C 3,9 C 93 % 1008,0 hPa 0,0 l/m 2,3 km/h (1 Bft) S 178 0 min 0,000 mm 0,0 UV-I 0 W/m 0,3 C 1,3 C 3,2 km/h (1 Bft) 100,00 %
10.03.2018 05:29 1,4 C 3,9 C 93 % 1008,0 hPa 0,0 l/m 1,6 km/h (1 Bft) S 178 0 min 0,000 mm 0,0 UV-I 0 W/m 0,4 C 1,4 C 1,6 km/h (1 Bft) 100,00 %
10.03.2018 05:30 1,4 C 3,9 C 93 % 1008,1 hPa 0,0 l/m 2,0 km/h (1 Bft) S 178 0 min 0,000 mm 0,0 UV-I 0 W/m 0,4 C 1,4 C 3,2 km/h (1 Bft) 100,00 %
10.03.2018 05:31 1,4 C 3,9 C 93 % 1008,0 hPa 0,0 l/m 2,3 km/h (1 Bft) S 178 0 min 0,000 mm 0,0 UV-I 0 W/m 0,4 C 1,4 C 3,2 km/h (1 Bft) 100,00 %
10.03.2018 05:32 1,4 C 3,9 C 93 % 1008,1 hPa 0,0 l/m 2,8 km/h (1 Bft) S 178 0 min 0,000 mm 0,0 UV-I 0 W/m 0,4 C 1,4 C 3,2 km/h (1 Bft) 100,00 %
10.03.2018 05:33 1,4 C 3,9 C 93 % 1008,1 hPa 0,0 l/m 3,0 km/h (1 Bft) S 178 0 min 0,000 mm 0,0 UV-I 0 W/m 0,4 C 1,4 C 3,2 km/h (1 Bft) 100,00 %
10.03.2018 05:34 1,4 C 3,9 C 93 % 1008,1 hPa 0,0 l/m 2,4 km/h (1 Bft) S 178 0 min 0,000 mm 0,0 UV-I 0 W/m 0,4 C 1,4 C 3,2 km/h (1 Bft) 100,00 %
10.03.2018 05:35 1,4 C 3,9 C 93 % 1008,1 hPa 0,0 l/m 2,7 km/h (1 Bft) S 178 0 min 0,000 mm 0,0 UV-I 0 W/m 0,4 C 1,4 C 3,2 km/h (1 Bft) 100,00 %
10.03.2018 05:36 1,4 C 3,9 C 93 % 1008,1 hPa 0,0 l/m 2,3 km/h (1 Bft) S 178 0 min 0,000 mm 0,0 UV-I 0 W/m 0,4 C 1,4 C 3,2 km/h (1 Bft) 100,00 %
10.03.2018 05:37 1,3 C 3,9 C 92 % 1008,2 hPa 0,0 l/m 2,6 km/h (1 Bft) S 178 0 min 0,000 mm 0,0 UV-I 0 W/m 0,1 C 1,3 C 3,2 km/h (1 Bft) 100,00 %
10.03.2018 05:38 1,3 C 3,9 C 92 % 1008,2 hPa 0,0 l/m 2,6 km/h (1 Bft) S 178 0 min 0,000 mm 0,0 UV-I 0 W/m 0,1 C 1,3 C 3,2 km/h (1 Bft) 100,00 %
10.03.2018 05:39 1,3 C 3,9 C 93 % 1008,2 hPa 0,0 l/m 3,2 km/h (1 Bft) S 178 0 min 0,000 mm 0,0 UV-I 0 W/m 0,3 C 1,3 C 3,2 km/h (1 Bft) 100,00 %
10.03.2018 05:40 1,2 C 3,9 C 93 % 1008,2 hPa 0,0 l/m 3,3 km/h (1 Bft) S 178 0 min 0,000 mm 0,0 UV-I 0 W/m 0,2 C 1,2 C 4,8 km/h (1 Bft) 100,00 %
10.03.2018 05:41 1,2 C 3,9 C 93 % 1008,2 hPa 0,0 l/m 3,0 km/h (1 Bft) S 178 0 min 0,000 mm 0,0 UV-I 0 W/m 0,2 C 1,2 C 3,2 km/h (1 Bft) 100,00 %
10.03.2018 05:42 1,2 C 3,9 C 93 % 1008,4 hPa 0,0 l/m 3,1 km/h (1 Bft) S 178 0 min 0,000 mm 0,0 UV-I 0 W/m 0,2 C 1,2 C 3,2 km/h (1 Bft) 96,15 %
10.03.2018 05:43 1,2 C 3,9 C 93 % 1008,3 hPa 0,0 l/m 3,2 km/h (1 Bft) S 178 0 min 0,000 mm 0,0 UV-I 0 W/m 0,2 C 1,2 C 4,8 km/h (1 Bft) 100,00 %
10.03.2018 05:44 1,1 C 3,9 C 93 % 1008,4 hPa 0,0 l/m 2,9 km/h (1 Bft) S 178 0 min 0,000 mm 0,0 UV-I 0 W/m 0,1 C 1,1 C 4,8 km/h (1 Bft) 100,00 %
10.03.2018 05:45 1,1 C 3,9 C 93 % 1008,4 hPa 0,0 l/m 3,5 km/h (1 Bft) S 178 0 min 0,000 mm 0,0 UV-I 0 W/m 0,1 C 1,1 C 4,8 km/h (1 Bft) 100,00 %
10.03.2018 05:46 1,1 C 3,9 C 93 % 1008,4 hPa 0,0 l/m 3,8 km/h (1 Bft) S 178 0 min 0,000 mm 0,0 UV-I 0 W/m 0,1 C 1,1 C 4,8 km/h (1 Bft) 100,00 %
10.03.2018 05:47 1,0 C 3,9 C 93 % 1008,4 hPa 0,0 l/m 4,3 km/h (1 Bft) S 179 0 min 0,000 mm 0,0 UV-I 0 W/m -0,0 C 1,0 C 4,8 km/h (1 Bft) 100,00 %
10.03.2018 05:48 1,1 C 3,9 C 93 % 1008,4 hPa 0,0 l/m 4,5 km/h (1 Bft) S 179 0 min 0,000 mm 0,0 UV-I 0 W/m 0,1 C 1,1 C 4,8 km/h (1 Bft) 100,00 %
10.03.2018 05:49 1,0 C 3,9 C 93 % 1008,4 hPa 0,0 l/m 3,7 km/h (1 Bft) S 180 0 min 0,000 mm 0,0 UV-I 0 W/m -0,0 C 1,0 C 4,8 km/h (1 Bft) 100,00 %
10.03.2018 05:50 0,9 C 3,9 C 93 % 1008,4 hPa 0,0 l/m 4,3 km/h (1 Bft) S 182 0 min 0,000 mm 0,0 UV-I 0 W/m -0,1 C 0,9 C 4,8 km/h (1 Bft) 100,00 %
10.03.2018 05:51 0,9 C 3,9 C 93 % 1008,5 hPa 0,0 l/m 4,8 km/h (1 Bft) S-SW 213 0 min 0,000 mm 0,0 UV-I 0 W/m -0,1 C 0,9 C 6,4 km/h (2 Bft) 100,00 %
10.03.2018 05:52 0,9 C 3,9 C 93 % 1008,5 hPa 0,0 l/m 5,7 km/h (1 Bft) S-SW 213 0 min 0,000 mm 0,0 UV-I 0 W/m -0,1 C 0,9 C 6,4 km/h (2 Bft) 100,00 %
10.03.2018 05:53 0,8 C 3,9 C 93 % 1008,5 hPa 0,0 l/m 5,2 km/h (1 Bft) S-SW 213 0 min 0,000 mm 0,0 UV-I 0 W/m -0,2 C 0,8 C 6,4 km/h (2 Bft) 100,00 %
10.03.2018 05:54 0,8 C 3,9 C 93 % 1008,5 hPa 0,0 l/m 4,8 km/h (1 Bft) S-SW 213 0 min 0,000 mm 0,0 UV-I 0 W/m -0,2 C 0,8 C 4,8 km/h (1 Bft) 100,00 %
10.03.2018 05:55 0,8 C 3,9 C 93 % 1008,5 hPa 0,0 l/m 4,6 km/h (1 Bft) S-SW 213 0 min 0,000 mm 0,0 UV-I 0 W/m -0,2 C 0,8 C 4,8 km/h (1 Bft) 100,00 %
10.03.2018 05:56 0,8 C 3,9 C 93 % 1008,5 hPa 0,0 l/m 5,0 km/h (1 Bft) S-SW 212 0 min 0,000 mm 0,0 UV-I 0 W/m -0,2 C 0,8 C 6,4 km/h (2 Bft) 95,65 %
10.03.2018 05:57 0,8 C 3,9 C 93 % 1008,5 hPa 0,0 l/m 5,5 km/h (1 Bft) S-SW 212 0 min 0,000 mm 0,0 UV-I 0 W/m -0,2 C 0,8 C 6,4 km/h (2 Bft) 100,00 %
10.03.2018 05:58 0,8 C 3,9 C 93 % 1008,5 hPa 0,0 l/m 5,8 km/h (2 Bft) S-SW 211 0 min 0,000 mm 0,0 UV-I 0 W/m -0,2 C 0,8 C 6,4 km/h (2 Bft) 100,00 %
10.03.2018 05:59 0,7 C 3,9 C 93 % 1008,5 hPa 0,0 l/m 5,2 km/h (1 Bft) S-SW 211 0 min 0,000 mm 0,0 UV-I 0 W/m -0,3 C 0,7 C 6,4 km/h (2 Bft) 100,00 %
10.03.2018 06:00 0,7 C 3,9 C 93 % 1008,5 hPa 0,0 l/m 4,8 km/h (1 Bft) S-SW 211 0 min 0,000 mm 0,0 UV-I 0 W/m -0,3 C 0,7 C 6,4 km/h (2 Bft) 100,00 %
10.03.2018 06:01 0,6 C 3,9 C 93 % 1008,5 hPa 0,0 l/m 4,6 km/h (1 Bft) S-SW 211 0 min 0,000 mm 0,0 UV-I 0 W/m -0,4 C 0,6 C 6,4 km/h (2 Bft) 100,00 %
10.03.2018 06:02 0,6 C 3,9 C 94 % 1008,5 hPa 0,0 l/m 4,4 km/h (1 Bft) S-SW 211 0 min 0,000 mm 0,0 UV-I 0 W/m -0,3 C 0,6 C 4,8 km/h (1 Bft) 100,00 %
10.03.2018 06:03 0,6 C 3,9 C 94 % 1008,5 hPa 0,0 l/m 5,0 km/h (1 Bft) S-SW 211 0 min 0,000 mm 0,0 UV-I 0 W/m -0,3 C 0,6 C 6,4 km/h (2 Bft) 100,00 %
10.03.2018 06:04 0,6 C 3,9 C 94 % 1008,4 hPa 0,0 l/m 5,1 km/h (1 Bft) S-SW 211 0 min 0,000 mm 0,0 UV-I 0 W/m -0,3 C 0,6 C 6,4 km/h (2 Bft) 100,00 %
10.03.2018 06:05 0,7 C 3,9 C 94 % 1008,4 hPa 0,0 l/m 4,5 km/h (1 Bft) S-SW 211 0 min 0,000 mm 0,0 UV-I 0 W/m -0,2 C 0,7 C 6,4 km/h (2 Bft) 100,00 %
10.03.2018 06:06 0,7 C 3,9 C 94 % 1008,5 hPa 0,0 l/m 4,7 km/h (1 Bft) S-SW 211 0 min 0,000 mm 0,0 UV-I 0 W/m -0,2 C 0,7 C 4,8 km/h (1 Bft) 100,00 %
10.03.2018 06:07 0,7 C 3,9 C 94 % 1008,5 hPa 0,0 l/m 4,2 km/h (1 Bft) S-SW 211 0 min 0,000 mm 0,0 UV-I 0 W/m -0,2 C 0,7 C 4,8 km/h (1 Bft) 100,00 %
10.03.2018 06:08 0,8 C 3,9 C 94 % 1008,5 hPa 0,0 l/m 4,2 km/h (1 Bft) S-SW 211 0 min 0,000 mm 0,0 UV-I 0 W/m -0,1 C 0,8 C 4,8 km/h (1 Bft) 100,00 %
10.03.2018 06:09 0,8 C 3,9 C 94 % 1008,5 hPa 0,0 l/m 3,2 km/h (1 Bft) S-SW 211 0 min 0,000 mm 0,0 UV-I 0 W/m -0,1 C 0,8 C 3,2 km/h (1 Bft) 100,00 %
10.03.2018 06:10 0,8 C 3,9 C 94 % 1008,5 hPa 0,0 l/m 3,6 km/h (1 Bft) S-SW 211 0 min 0,000 mm 0,0 UV-I 0 W/m -0,1 C 0,8 C 4,8 km/h (1 Bft) 100,00 %
10.03.2018 06:11 0,9 C 3,9 C 95 % 1008,6 hPa 0,0 l/m 3,9 km/h (1 Bft) S-SW 211 0 min 0,000 mm 0,0 UV-I 0 W/m 0,2 C 0,9 C 4,8 km/h (1 Bft) 91,67 %
10.03.2018 06:12 1,0 C 3,9 C 95 % 1008,5 hPa 0,0 l/m 3,9 km/h (1 Bft) S-SW 211 0 min 0,000 mm 0,0 UV-I 0 W/m 0,3 C 1,0 C 4,8 km/h (1 Bft) 100,00 %
10.03.2018 06:13 1,1 C 3,9 C 95 % 1008,5 hPa 0,0 l/m 4,2 km/h (1 Bft) S-SW 211 0 min 0,000 mm 0,0 UV-I 0 W/m 0,4 C 1,1 C 4,8 km/h (1 Bft) 100,00 %
10.03.2018 06:14 1,1 C 3,9 C 95 % 1008,5 hPa 0,0 l/m 4,0 km/h (1 Bft) S-SW 211 0 min 0,000 mm 0,0 UV-I 0 W/m 0,4 C 1,1 C 4,8 km/h (1 Bft) 100,00 %
10.03.2018 06:15 1,1 C 3,9 C 94 % 1008,5 hPa 0,0 l/m 3,3 km/h (1 Bft) S-SW 211 0 min 0,000 mm 0,0 UV-I 0 W/m 0,2 C 1,1 C 4,8 km/h (1 Bft) 95,83 %
10.03.2018 06:16 0,9 C 3,9 C 94 % 1008,4 hPa 0,0 l/m 3,5 km/h (1 Bft) S-SW 211 0 min 0,000 mm 0,0 UV-I 0 W/m 0,0 C 0,9 C 4,8 km/h (1 Bft) 100,00 %
10.03.2018 06:17 0,8 C 3,9 C 93 % 1008,4 hPa 0,0 l/m 4,6 km/h (1 Bft) S-SW 211 0 min 0,000 mm 0,0 UV-I 0 W/m -0,2 C 0,8 C 4,8 km/h (1 Bft) 100,00 %
10.03.2018 06:18 0,7 C 3,9 C 93 % 1008,4 hPa 0,0 l/m 4,4 km/h (1 Bft) S-SW 211 0 min 0,000 mm 0,0 UV-I 0 W/m -0,3 C 0,7 C 4,8 km/h (1 Bft) 100,00 %
10.03.2018 06:19 0,6 C 3,9 C 94 % 1008,3 hPa 0,0 l/m 4,6 km/h (1 Bft) S-SW 211 0 min 0,000 mm 0,0 UV-I 2 W/m -0,3 C 0,6 C 4,8 km/h (1 Bft) 100,00 %
10.03.2018 06:20 0,7 C 3,9 C 94 % 1008,3 hPa 0,0 l/m 4,6 km/h (1 Bft) S-SW 211 0 min 0,000 mm 0,0 UV-I 5 W/m -0,2 C 0,7 C 4,8 km/h (1 Bft) 100,00 %
10.03.2018 06:21 0,9 C 3,9 C 95 % 1008,3 hPa 0,0 l/m 4,3 km/h (1 Bft) S-SW 211 0 min 0,000 mm 0,0 UV-I 5 W/m 0,2 C 0,9 C 4,8 km/h (1 Bft) 100,00 %
10.03.2018 06:22 1,1 C 3,9 C 95 % 1008,4 hPa 0,0 l/m 4,2 km/h (1 Bft) S-SW 211 0 min 0,000 mm 0,0 UV-I 5 W/m 0,4 C 1,1 C 4,8 km/h (1 Bft) 100,00 %
10.03.2018 06:23 1,1 C 3,9 C 95 % 1008,4 hPa 0,0 l/m 4,6 km/h (1 Bft) S-SW 211 0 min 0,000 mm 0,0 UV-I 5 W/m 0,4 C 1,1 C 4,8 km/h (1 Bft) 100,00 %
10.03.2018 06:24 1,1 C 3,9 C 94 % 1008,4 hPa 0,0 l/m 5,9 km/h (2 Bft) S-SW 211 0 min 0,000 mm 0,0 UV-I 5 W/m 0,2 C 1,1 C 6,4 km/h (2 Bft) 95,65 %
10.03.2018 06:25 1,1 C 3,9 C 94 % 1008,4 hPa 0,0 l/m 6,3 km/h (2 Bft) S-SW 196 0 min 0,000 mm 0,0 UV-I 5 W/m 0,2 C 1,1 C 8,0 km/h (2 Bft) 100,00 %
10.03.2018 06:26 1,1 C 3,9 C 94 % 1008,4 hPa 0,0 l/m 6,2 km/h (2 Bft) S-SW 196 0 min 0,000 mm 0,0 UV-I 5 W/m 0,2 C 1,1 C 6,4 km/h (2 Bft) 100,00 %
10.03.2018 06:27 1,1 C 3,9 C 94 % 1008,5 hPa 0,0 l/m 6,0 km/h (2 Bft) S-SW 201 0 min 0,000 mm 0,0 UV-I 6 W/m 0,2 C 1,1 C 8,0 km/h (2 Bft) 100,00 %
10.03.2018 06:28 1,1 C 3,9 C 94 % 1008,5 hPa 0,0 l/m 5,3 km/h (1 Bft) S-SW 201 0 min 0,000 mm 0,0 UV-I 7 W/m 0,2 C 1,1 C 6,4 km/h (2 Bft) 91,67 %
10.03.2018 06:29 1,1 C 3,9 C 94 % 1008,4 hPa 0,0 l/m 4,5 km/h (1 Bft) S-SW 200 0 min 0,000 mm 0,0 UV-I 7 W/m 0,2 C 1,1 C 6,4 km/h (2 Bft) 100,00 %
10.03.2018 06:30 1,0 C 3,9 C 94 % 1008,4 hPa 0,0 l/m 5,6 km/h (1 Bft) S-SW 200 0 min 0,000 mm 0,0 UV-I 7 W/m 0,1 C 1,0 C 6,4 km/h (2 Bft) 96,55 %
10.03.2018 06:31 1,0 C 3,9 C 94 % 1008,4 hPa 0,0 l/m 4,8 km/h (1 Bft) S-SW 200 0 min 0,000 mm 0,0 UV-I 8 W/m 0,1 C 1,0 C 6,4 km/h (2 Bft) 95,83 %
10.03.2018 06:32 0,9 C 3,9 C 94 % 1008,4 hPa 0,0 l/m 4,5 km/h (1 Bft) S-SW 200 0 min 0,000 mm 0,0 UV-I 9 W/m 0,0 C 0,9 C 6,4 km/h (2 Bft) 93,33 %
10.03.2018 06:33 0,9 C 3,9 C 94 % 1008,4 hPa 0,0 l/m 4,0 km/h (1 Bft) S-SW 200 0 min 0,000 mm 0,0 UV-I 9 W/m 0,0 C 0,9 C 4,8 km/h (1 Bft) 96,15 %
10.03.2018 06:34 0,9 C 3,9 C 94 % 1008,5 hPa 0,0 l/m 3,3 km/h (1 Bft) S-SW 200 0 min 0,000 mm 0,0 UV-I 10 W/m 0,0 C 0,9 C 4,8 km/h (1 Bft) 96,30 %
10.03.2018 06:35 0,9 C 3,9 C 94 % 1008,5 hPa 0,0 l/m 3,2 km/h (1 Bft) S-SW 200 0 min 0,000 mm 0,0 UV-I 11 W/m 0,0 C 0,9 C 4,8 km/h (1 Bft) 91,30 %
10.03.2018 06:36 0,8 C 3,9 C 94 % 1008,5 hPa 0,0 l/m 3,7 km/h (1 Bft) S-SW 200 0 min 0,000 mm 0,0 UV-I 12 W/m -0,1 C 0,8 C 4,8 km/h (1 Bft) 95,83 %
10.03.2018 06:37 0,8 C 3,9 C 94 % 1008,5 hPa 0,0 l/m 4,3 km/h (1 Bft) S-SW 200 0 min 0,000 mm 0,0 UV-I 12 W/m -0,1 C 0,8 C 4,8 km/h (1 Bft) 95,65 %
10.03.2018 06:38 0,9 C 3,9 C 94 % 1008,4 hPa 0,0 l/m 4,1 km/h (1 Bft) S-SW 200 1 min 0,000 mm 0,0 UV-I 13 W/m 0,0 C 0,9 C 4,8 km/h (1 Bft) 93,33 %
10.03.2018 06:39 1,1 C 3,9 C 94 % 1008,4 hPa 0,0 l/m 4,0 km/h (1 Bft) S-SW 200 1 min 0,000 mm 0,0 UV-I 14 W/m 0,2 C 1,1 C 4,8 km/h (1 Bft) 95,83 %
10.03.2018 06:40 1,1 C 3,9 C 94 % 1008,4 hPa 0,0 l/m 3,4 km/h (1 Bft) S-SW 200 1 min 0,000 mm 0,0 UV-I 16 W/m 0,2 C 1,1 C 4,8 km/h (1 Bft) 95,83 %
10.03.2018 06:41 1,2 C 3,9 C 94 % 1008,4 hPa 0,0 l/m 3,3 km/h (1 Bft) S-SW 200 1 min 0,000 mm 0,0 UV-I 16 W/m 0,3 C 1,2 C 4,8 km/h (1 Bft) 95,65 %
10.03.2018 06:42 1,2 C 3,9 C 94 % 1008,4 hPa 0,0 l/m 3,5 km/h (1 Bft) S-SW 200 1 min 0,000 mm 0,0 UV-I 18 W/m 0,3 C 1,2 C 4,8 km/h (1 Bft) 95,83 %
10.03.2018 06:43 1,1 C 3,9 C 94 % 1008,4 hPa 0,0 l/m 4,5 km/h (1 Bft) S-SW 200 1 min 0,000 mm 0,0 UV-I 19 W/m 0,2 C 1,1 C 4,8 km/h (1 Bft) 91,30 %
10.03.2018 06:44 1,1 C 3,9 C 94 % 1008,4 hPa 0,0 l/m 4,4 km/h (1 Bft) S-SW 200 1 min 0,000 mm 0,0 UV-I 20 W/m 0,2 C 1,1 C 4,8 km/h (1 Bft) 95,83 %
10.03.2018 06:45 1,1 C 3,9 C 94 % 1008,3 hPa 0,0 l/m 4,0 km/h (1 Bft) S-SW 200 1 min 0,000 mm 0,0 UV-I 22 W/m 0,2 C 1,1 C 4,8 km/h (1 Bft) 96,15 %
10.03.2018 06:46 1,1 C 3,9 C 94 % 1008,4 hPa 0,0 l/m 3,5 km/h (1 Bft) S-SW 200 1 min 0,000 mm 0,0 UV-I 25 W/m 0,2 C 1,1 C 4,8 km/h (1 Bft) 95,83 %
10.03.2018 06:47 1,1 C 3,9 C 94 % 1008,4 hPa 0,0 l/m 3,5 km/h (1 Bft) S-SW 200 1 min 0,000 mm 0,0 UV-I 25 W/m 0,2 C 1,1 C 4,8 km/h (1 Bft) 95,65 %
10.03.2018 06:48 1,1 C 3,9 C 94 % 1008,4 hPa 0,0 l/m 3,8 km/h (1 Bft) S-SW 200 0 min 0,000 mm 0,0 UV-I 25 W/m 0,2 C 1,1 C 4,8 km/h (1 Bft) 96,30 %
10.03.2018 06:49 1,0 C 3,9 C 94 % 1008,4 hPa 0,0 l/m 5,5 km/h (1 Bft) S-SW 200 0 min 0,000 mm 0,0 UV-I 24 W/m 0,1 C 1,0 C 6,4 km/h (2 Bft) 91,30 %
10.03.2018 06:50 1,0 C 3,9 C 94 % 1008,4 hPa 0,0 l/m 4,5 km/h (1 Bft) S-SW 200 0 min 0,000 mm 0,0 UV-I 23 W/m 0,1 C 1,0 C 6,4 km/h (2 Bft) 96,30 %
10.03.2018 06:51 0,9 C 3,9 C 94 % 1008,3 hPa 0,0 l/m 4,2 km/h (1 Bft) S-SW 200 0 min 0,000 mm 0,0 UV-I 24 W/m 0,0 C 0,9 C 4,8 km/h (1 Bft) 100,00 %
10.03.2018 06:52 0,9 C 3,9 C 94 % 1008,3 hPa 0,0 l/m 4,4 km/h (1 Bft) S-SW 200 0 min 0,000 mm 0,0 UV-I 25 W/m 0,0 C 0,9 C 4,8 km/h (1 Bft) 88,46 %
10.03.2018 06:53 0,8 C 3,9 C 94 % 1008,3 hPa 0,0 l/m 4,5 km/h (1 Bft) S-SW 200 0 min 0,000 mm 0,0 UV-I 25 W/m -0,1 C 0,8 C 4,8 km/h (1 Bft) 91,67 %
10.03.2018 06:54 0,8 C 3,9 C 94 % 1008,3 hPa 0,0 l/m 3,3 km/h (1 Bft) S-SW 200 0 min 0,000 mm 0,0 UV-I 25 W/m -0,1 C 0,8 C 4,8 km/h (1 Bft) 92,31 %
10.03.2018 06:55 0,7 C 3,9 C 93 % 1008,3 hPa 0,0 l/m 3,6 km/h (1 Bft) S-SW 200 0 min 0,000 mm 0,0 UV-I 25 W/m -0,3 C 0,7 C 4,8 km/h (1 Bft) 95,83 %
10.03.2018 06:56 0,7 C 3,9 C 94 % 1008,4 hPa 0,0 l/m 5,2 km/h (1 Bft) S-SW 200 0 min 0,000 mm 0,0 UV-I 26 W/m -0,2 C 0,7 C 6,4 km/h (2 Bft) 100,00 %
10.03.2018 06:57 0,7 C 3,9 C 94 % 1008,4 hPa 0,0 l/m 4,5 km/h (1 Bft) S-SW 200 0 min 0,000 mm 0,0 UV-I 28 W/m -0,2 C 0,7 C 6,4 km/h (2 Bft) 95,83 %
10.03.2018 06:58 0,8 C 3,9 C 94 % 1008,4 hPa 0,0 l/m 4,1 km/h (1 Bft) S-SW 200 0 min 0,000 mm 0,0 UV-I 30 W/m -0,1 C 0,8 C 4,8 km/h (1 Bft) 95,65 %
10.03.2018 06:59 0,8 C 3,9 C 94 % 1008,4 hPa 0,0 l/m 3,5 km/h (1 Bft) S-SW 200 0 min 0,000 mm 0,0 UV-I 32 W/m -0,1 C 0,8 C 4,8 km/h (1 Bft) 96,30 %
10.03.2018 07:00 0,8 C 3,9 C 94 % 1008,4 hPa 0,0 l/m 3,3 km/h (1 Bft) S-SW 200 0 min 0,000 mm 0,0 UV-I 34 W/m -0,1 C 0,8 C 4,8 km/h (1 Bft) 91,30 %
10.03.2018 07:01 0,8 C 3,9 C 94 % 1008,4 hPa 0,0 l/m 2,7 km/h (1 Bft) S-SW 200 0 min 0,000 mm 0,0 UV-I 37 W/m -0,1 C 0,8 C 3,2 km/h (1 Bft) 100,00 %
10.03.2018 07:02 0,8 C 3,9 C 94 % 1008,4 hPa 0,0 l/m 2,6 km/h (1 Bft) S-SW 200 0 min 0,000 mm 0,0 UV-I 41 W/m -0,1 C 0,8 C 3,2 km/h (1 Bft) 91,30 %
10.03.2018 07:03 0,7 C 3,9 C 94 % 1008,4 hPa 0,0 l/m 3,4 km/h (1 Bft) S-SW 200 0 min 0,000 mm 0,0 UV-I 45 W/m -0,2 C 0,7 C 4,8 km/h (1 Bft) 100,00 %
10.03.2018 07:04 0,7 C 3,9 C 94 % 1008,3 hPa 0,0 l/m 2,8 km/h (1 Bft) S-SW 200 0 min 0,000 mm 0,0 UV-I 47 W/m -0,2 C 0,7 C 4,8 km/h (1 Bft) 93,75 %
10.03.2018 07:05 0,8 C 3,9 C 94 % 1008,3 hPa 0,0 l/m 3,1 km/h (1 Bft) S-SW 200 0 min 0,000 mm 0,0 UV-I 51 W/m -0,1 C 0,8 C 3,2 km/h (1 Bft) 100,00 %
10.03.2018 07:06 0,9 C 3,9 C 95 % 1008,4 hPa 0,0 l/m 2,5 km/h (1 Bft) S-SW 200 0 min 0,000 mm 0,0 UV-I 51 W/m 0,2 C 0,9 C 3,2 km/h (1 Bft) 92,31 %
10.03.2018 07:07 1,0 C 3,9 C 95 % 1008,4 hPa 0,0 l/m 2,6 km/h (1 Bft) S-SW 200 0 min 0,000 mm 0,0 UV-I 51 W/m 0,3 C 1,0 C 3,2 km/h (1 Bft) 95,83 %
10.03.2018 07:08 1,1 C 3,9 C 95 % 1008,4 hPa 0,0 l/m 3,2 km/h (1 Bft) S-SW 200 0 min 0,000 mm 0,0 UV-I 50 W/m 0,4 C 1,1 C 3,2 km/h (1 Bft) 95,65 %
10.03.2018 07:09 1,2 C 3,9 C 95 % 1008,5 hPa 0,0 l/m 3,2 km/h (1 Bft) S-SW 200 0 min 0,000 mm 0,0 UV-I 49 W/m 0,5 C 1,2 C 3,2 km/h (1 Bft) 87,50 %
10.03.2018 07:10 1,3 C 3,9 C 95 % 1008,5 hPa 0,0 l/m 3,2 km/h (1 Bft) S-SW 200 0 min 0,000 mm 0,0 UV-I 46 W/m 0,6 C 1,3 C 3,2 km/h (1 Bft) 100,00 %
10.03.2018 07:11 1,3 C 3,9 C 95 % 1008,5 hPa 0,0 l/m 3,3 km/h (1 Bft) S-SW 200 0 min 0,000 mm 0,0 UV-I 46 W/m 0,6 C 1,3 C 4,8 km/h (1 Bft) 96,55 %
10.03.2018 07:12 1,3 C 3,9 C 94 % 1008,5 hPa 0,0 l/m 2,6 km/h (1 Bft) S-SW 200 0 min 0,000 mm 0,0 UV-I 48 W/m 0,4 C 1,3 C 3,2 km/h (1 Bft) 95,83 %
10.03.2018 07:13 1,3 C 3,9 C 94 % 1008,5 hPa 0,0 l/m 2,1 km/h (1 Bft) S-SW 200 0 min 0,000 mm 0,0 UV-I 50 W/m 0,4 C 1,3 C 3,2 km/h (1 Bft) 100,00 %
10.03.2018 07:14 1,3 C 3,9 C 94 % 1008,5 hPa 0,0 l/m 1,5 km/h (1 Bft) S-SW 200 0 min 0,000 mm 0,0 UV-I 52 W/m 0,4 C 1,3 C 1,6 km/h (1 Bft) 95,65 %
10.03.2018 07:15 1,3 C 3,9 C 94 % 1008,5 hPa 0,0 l/m 0,7 km/h (0 Bft) S-SW 200 0 min 0,000 mm 0,0 UV-I 54 W/m 0,4 C 1,3 C 1,6 km/h (1 Bft) 91,67 %
10.03.2018 07:16 1,4 C 3,9 C 94 % 1008,5 hPa 0,0 l/m 0,3 km/h (0 Bft) S-SW 200 0 min 0,000 mm 0,0 UV-I 54 W/m 0,5 C 1,4 C 1,6 km/h (1 Bft) 96,67 %
10.03.2018 07:17 1,4 C 3,9 C 94 % 1008,5 hPa 0,0 l/m 0,3 km/h (0 Bft) S-SW 200 0 min 0,000 mm 0,0 UV-I 56 W/m 0,5 C 1,4 C 1,6 km/h (1 Bft) 100,00 %
10.03.2018 07:18 1,4 C 3,9 C 94 % 1008,6 hPa 0,0 l/m 1,8 km/h (1 Bft) S-SW 200 0 min 0,000 mm 0,0 UV-I 56 W/m 0,5 C 1,4 C 3,2 km/h (1 Bft) 95,83 %
10.03.2018 07:19 1,4 C 3,9 C 94 % 1008,6 hPa 0,0 l/m 1,7 km/h (1 Bft) S-SW 200 0 min 0,000 mm 0,0 UV-I 56 W/m 0,5 C 1,4 C 3,2 km/h (1 Bft) 100,00 %
10.03.2018 07:20 1,4 C 3,9 C 94 % 1008,6 hPa 0,0 l/m 2,3 km/h (1 Bft) S-SW 200 0 min 0,000 mm 0,0 UV-I 58 W/m 0,5 C 1,4 C 3,2 km/h (1 Bft) 92,59 %
10.03.2018 07:21 1,4 C 3,9 C 94 % 1008,6 hPa 0,0 l/m 1,2 km/h (1 Bft) S-SW 200 0 min 0,000 mm 0,0 UV-I 60 W/m 0,5 C 1,4 C 3,2 km/h (1 Bft) 96,55 %
10.03.2018 07:22 1,4 C 3,9 C 93 % 1008,6 hPa 0,0 l/m 1,6 km/h (1 Bft) S-SW 200 0 min 0,000 mm 0,0 UV-I 65 W/m 0,4 C 1,4 C 1,6 km/h (1 Bft) 95,83 %
10.03.2018 07:23 1,3 C 3,9 C 93 % 1008,6 hPa 0,0 l/m 1,8 km/h (1 Bft) S-SW 200 0 min 0,000 mm 0,0 UV-I 63 W/m 0,3 C 1,3 C 3,2 km/h (1 Bft) 97,98 %
10.03.2018 07:24 1,3 C 3,9 C 93 % 1008,5 hPa 0,0 l/m 1,7 km/h (1 Bft) S-SW 200 0 min 0,000 mm 0,0 UV-I 64 W/m 0,3 C 1,3 C 3,2 km/h (1 Bft) 97,87 %
10.03.2018 07:25 1,2 C 3,9 C 93 % 1008,5 hPa 0,0 l/m 2,1 km/h (1 Bft) S-SW 200 0 min 0,000 mm 0,0 UV-I 66 W/m 0,2 C 1,2 C 3,2 km/h (1 Bft) 100,00 %
10.03.2018 07:26 1,2 C 3,9 C 93 % 1008,5 hPa 0,0 l/m 2,3 km/h (1 Bft) S-SW 200 0 min 0,000 mm 0,0 UV-I 67 W/m 0,2 C 1,2 C 3,2 km/h (1 Bft) 96,15 %
10.03.2018 07:27 1,2 C 3,9 C 93 % 1008,5 hPa 0,0 l/m 2,7 km/h (1 Bft) S-SW 200 0 min 0,000 mm 0,0 UV-I 69 W/m 0,2 C 1,2 C 3,2 km/h (1 Bft) 100,00 %
10.03.2018 07:28 1,2 C 3,9 C 93 % 1008,6 hPa 0,0 l/m 3,5 km/h (1 Bft) S-SW 200 0 min 0,000 mm 0,0 UV-I 69 W/m 0,2 C 1,2 C 4,8 km/h (1 Bft) 95,65 %
10.03.2018 07:29 1,2 C 3,9 C 93 % 1008,6 hPa 0,0 l/m 3,8 km/h (1 Bft) S-SW 200 0 min 0,000 mm 0,0 UV-I 69 W/m 0,2 C 1,2 C 4,8 km/h (1 Bft) 95,83 %
10.03.2018 07:30 1,2 C 3,9 C 94 % 1008,6 hPa 0,0 l/m 3,5 km/h (1 Bft) S-SW 200 0 min 0,000 mm 0,0 UV-I 70 W/m 0,3 C 1,2 C 4,8 km/h (1 Bft) 100,00 %
10.03.2018 07:31 1,2 C 3,9 C 94 % 1008,6 hPa 0,0 l/m 3,3 km/h (1 Bft) S-SW 200 0 min 0,000 mm 0,0 UV-I 71 W/m 0,3 C 1,2 C 4,8 km/h (1 Bft) 95,83 %
10.03.2018 07:32 1,3 C 3,9 C 94 % 1008,6 hPa 0,0 l/m 2,9 km/h (1 Bft) S-SW 200 0 min 0,000 mm 0,0 UV-I 72 W/m 0,4 C 1,3 C 3,2 km/h (1 Bft) 100,00 %
10.03.2018 07:33 1,3 C 3,9 C 94 % 1008,6 hPa 0,0 l/m 2,4 km/h (1 Bft) S-SW 200 0 min 0,000 mm 0,0 UV-I 74 W/m 0,4 C 1,3 C 3,2 km/h (1 Bft) 93,33 %
10.03.2018 07:34 1,4 C 3,9 C 94 % 1008,5 hPa 0,0 l/m 1,9 km/h (1 Bft) S-SW 200 0 min 0,000 mm 0,0 UV-I 74 W/m 0,5 C 1,4 C 3,2 km/h (1 Bft) 100,00 %
10.03.2018 07:35 1,4 C 3,9 C 94 % 1008,5 hPa 0,0 l/m 1,3 km/h (1 Bft) S-SW 200 0 min 0,000 mm 0,0 UV-I 74 W/m 0,5 C 1,4 C 1,6 km/h (1 Bft) 96,30 %
10.03.2018 07:36 1,4 C 3,9 C 94 % 1008,5 hPa 0,0 l/m 0,6 km/h (0 Bft) S-SW 200 0 min 0,000 mm 0,0 UV-I 74 W/m 0,5 C 1,4 C 1,6 km/h (1 Bft) 100,00 %
10.03.2018 07:37 1,5 C 3,9 C 93 % 1008,5 hPa 0,0 l/m 1,5 km/h (1 Bft) S-SW 200 0 min 0,000 mm 0,0 UV-I 73 W/m 0,5 C 1,5 C 3,2 km/h (1 Bft) 95,83 %
10.03.2018 07:38 1,5 C 3,9 C 94 % 1008,5 hPa 0,0 l/m 2,5 km/h (1 Bft) S-SW 200 0 min 0,000 mm 0,0 UV-I 71 W/m 0,6 C 1,5 C 3,2 km/h (1 Bft) 100,00 %
10.03.2018 07:39 1,6 C 3,9 C 94 % 1008,5 hPa 0,0 l/m 3,0 km/h (1 Bft) S-SW 200 0 min 0,000 mm 0,0 UV-I 70 W/m 0,7 C 1,6 C 4,8 km/h (1 Bft) 95,83 %
10.03.2018 07:40 1,6 C 3,9 C 93 % 1008,5 hPa 0,0 l/m 4,2 km/h (1 Bft) S-SW 200 0 min 0,000 mm 0,0 UV-I 70 W/m 0,6 C 1,6 C 4,8 km/h (1 Bft) 96,15 %
10.03.2018 07:41 1,6 C 3,9 C 93 % 1008,5 hPa 0,0 l/m 4,8 km/h (1 Bft) S-SW 200 0 min 0,000 mm 0,0 UV-I 72 W/m 0,6 C 1,6 C 4,8 km/h (1 Bft) 95,83 %
10.03.2018 07:42 1,6 C 3,9 C 93 % 1008,5 hPa 0,0 l/m 3,8 km/h (1 Bft) S-SW 200 0 min 0,000 mm 0,0 UV-I 72 W/m 0,6 C 1,6 C 4,8 km/h (1 Bft) 95,65 %
10.03.2018 07:43 1,6 C 3,9 C 93 % 1008,5 hPa 0,0 l/m 3,8 km/h (1 Bft) S-SW 200 0 min 0,000 mm 0,0 UV-I 72 W/m 0,6 C 1,6 C 4,8 km/h (1 Bft) 100,00 %
10.03.2018 07:44 1,6 C 3,9 C 93 % 1008,5 hPa 0,0 l/m 2,2 km/h (1 Bft) S-SW 200 0 min 0,000 mm 0,0 UV-I 72 W/m 0,6 C 1,6 C 3,2 km/h (1 Bft) 96,15 %
10.03.2018 07:45 1,5 C 3,9 C 93 % 1008,5 hPa 0,0 l/m 3,0 km/h (1 Bft) S-SW 200 0 min 0,000 mm 0,0 UV-I 72 W/m 0,5 C 1,5 C 3,2 km/h (1 Bft) 100,00 %
10.03.2018 07:46 1,5 C 3,9 C 93 % 1008,5 hPa 0,0 l/m 2,9 km/h (1 Bft) S-SW 200 0 min 0,000 mm 0,0 UV-I 72 W/m 0,5 C 1,5 C 3,2 km/h (1 Bft) 93,33 %
10.03.2018 07:47 1,5 C 3,9 C 93 % 1008,5 hPa 0,0 l/m 2,5 km/h (1 Bft) S-SW 200 0 min 0,000 mm 0,0 UV-I 68 W/m 0,5 C 1,5 C 3,2 km/h (1 Bft) 100,00 %
10.03.2018 07:48 1,6 C 3,9 C 93 % 1008,6 hPa 0,0 l/m 2,1 km/h (1 Bft) S-SW 200 0 min 0,000 mm 0,0 UV-I 65 W/m 0,6 C 1,6 C 3,2 km/h (1 Bft) 96,30 %
10.03.2018 07:49 1,6 C 3,9 C 93 % 1008,5 hPa 0,0 l/m 1,1 km/h (1 Bft) S-SW 200 0 min 0,000 mm 0,0 UV-I 62 W/m 0,6 C 1,6 C 1,6 km/h (1 Bft) 95,65 %
10.03.2018 07:50 1,8 C 3,9 C 94 % 1008,5 hPa 0,0 l/m 2,1 km/h (1 Bft) S-SW 200 0 min 0,000 mm 0,0 UV-I 62 W/m 0,9 C 1,8 C 3,2 km/h (1 Bft) 100,00 %
10.03.2018 07:51 1,9 C 3,9 C 94 % 1008,5 hPa 0,0 l/m 2,1 km/h (1 Bft) S-SW 200 0 min 0,000 mm 0,0 UV-I 63 W/m 1,0 C 1,9 C 3,2 km/h (1 Bft) 96,15 %
10.03.2018 07:52 2,0 C 3,9 C 94 % 1008,5 hPa 0,0 l/m 1,7 km/h (1 Bft) S-SW 200 0 min 0,000 mm 0,0 UV-I 66 W/m 1,1 C 2,0 C 3,2 km/h (1 Bft) 100,00 %
10.03.2018 07:53 2,1 C 3,9 C 93 % 1008,5 hPa 0,0 l/m 1,9 km/h (1 Bft) S-SW 200 0 min 0,000 mm 0,0 UV-I 72 W/m 1,1 C 2,1 C 3,2 km/h (1 Bft) 96,15 %
10.03.2018 07:54 2,1 C 3,9 C 93 % 1008,5 hPa 0,0 l/m 2,3 km/h (1 Bft) S-SW 200 0 min 0,000 mm 0,0 UV-I 79 W/m 1,1 C 2,1 C 3,2 km/h (1 Bft) 100,00 %
10.03.2018 07:55 2,1 C 3,9 C 92 % 1008,4 hPa 0,0 l/m 1,7 km/h (1 Bft) S-SW 200 0 min 0,000 mm 0,0 UV-I 87 W/m 0,9 C 2,1 C 3,2 km/h (1 Bft) 96,15 %
10.03.2018 07:56 2,0 C 3,9 C 92 % 1008,5 hPa 0,0 l/m 1,8 km/h (1 Bft) S-SW 200 0 min 0,000 mm 0,0 UV-I 95 W/m 0,8 C 2,0 C 3,2 km/h (1 Bft) 100,00 %
10.03.2018 07:57 1,9 C 3,9 C 92 % 1008,4 hPa 0,0 l/m 2,3 km/h (1 Bft) S-SW 200 0 min 0,000 mm 0,0 UV-I 100 W/m 0,7 C 1,9 C 3,2 km/h (1 Bft) 92,86 %
10.03.2018 07:58 1,9 C 3,9 C 92 % 1008,5 hPa 0,0 l/m 2,0 km/h (1 Bft) S-SW 200 0 min 0,000 mm 0,0 UV-I 106 W/m 0,7 C 1,9 C 3,2 km/h (1 Bft) 100,00 %
10.03.2018 07:59 1,8 C 3,9 C 92 % 1008,5 hPa 0,0 l/m 1,7 km/h (1 Bft) S-SW 200 0 min 0,000 mm 0,0 UV-I 115 W/m 0,6 C 1,8 C 3,2 km/h (1 Bft) 92,31 %
10.03.2018 08:00 1,8 C 3,9 C 92 % 1008,5 hPa 0,0 l/m 3,1 km/h (1 Bft) S-SW 200 0 min 0,000 mm 0,0 UV-I 135 W/m 0,6 C 1,8 C 3,2 km/h (1 Bft) 95,83 %
10.03.2018 08:01 1,9 C 3,9 C 92 % 1008,5 hPa 0,0 l/m 3,3 km/h (1 Bft) S-SW 200 1 min 0,025 mm 0,0 UV-I 159 W/m 0,7 C 1,9 C 4,8 km/h (1 Bft) 100,00 %
10.03.2018 08:02 1,9 C 3,9 C 93 % 1008,5 hPa 0,0 l/m 2,2 km/h (1 Bft) S-SW 200 1 min 0,000 mm 0,0 UV-I 231 W/m 0,9 C 1,9 C 3,2 km/h (1 Bft) 96,30 %
10.03.2018 08:03 2,1 C 3,9 C 93 % 1008,5 hPa 0,0 l/m 1,1 km/h (1 Bft) S-SW 200 1 min 0,000 mm 0,0 UV-I 196 W/m 1,1 C 2,1 C 1,6 km/h (1 Bft) 100,00 %
10.03.2018 08:04 2,2 C 3,9 C 93 % 1008,5 hPa 0,0 l/m 0,0 km/h (0 Bft) S-SW 200 0 min 0,000 mm 0,0 UV-I 135 W/m 1,2 C 2,2 C 0,0 km/h (0 Bft) 96,15 %
10.03.2018 08:05 2,2 C 3,9 C 92 % 1008,5 hPa 0,0 l/m 0,0 km/h (0 Bft) S-SW 200 0 min 0,000 mm 0,0 UV-I 126 W/m 1,0 C 2,2 C 0,0 km/h (0 Bft) 100,00 %
10.03.2018 08:06 2,2 C 3,9 C 92 % 1008,5 hPa 0,0 l/m 0,0 km/h (0 Bft) S-SW 200 0 min 0,000 mm 0,0 UV-I 122 W/m 1,0 C 2,2 C 0,0 km/h (0 Bft) 95,12 %
10.03.2018 08:07 2,2 C 3,9 C 92 % 1008,5 hPa 0,0 l/m 0,0 km/h (0 Bft) S-SW 200 0 min 0,000 mm 0,0 UV-I 121 W/m 1,0 C 2,2 C 0,0 km/h (0 Bft) 100,00 %
10.03.2018 08:08 2,3 C 3,9 C 92 % 1008,5 hPa 0,0 l/m 2,0 km/h (1 Bft) S-SW 200 0 min 0,000 mm 0,0 UV-I 123 W/m 1,1 C 2,3 C 3,2 km/h (1 Bft) 86,67 %
10.03.2018 08:09 2,3 C 3,9 C 92 % 1008,6 hPa 0,0 l/m 2,4 km/h (1 Bft) S-SW 200 0 min 0,000 mm 0,0 UV-I 123 W/m 1,1 C 2,3 C 3,2 km/h (1 Bft) 100,00 %
10.03.2018 08:10 2,3 C 3,9 C 92 % 1008,6 hPa 0,0 l/m 2,0 km/h (1 Bft) S-SW 200 0 min 0,000 mm 0,0 UV-I 125 W/m 1,1 C 2,3 C 3,2 km/h (1 Bft) 96,15 %
10.03.2018 08:11 2,3 C 3,9 C 92 % 1008,6 hPa 0,0 l/m 1,5 km/h (1 Bft) S-SW 200 0 min 0,000 mm 0,0 UV-I 125 W/m 1,1 C 2,3 C 1,6 km/h (1 Bft) 95,83 %
10.03.2018 08:12 2,4 C 3,9 C 92 % 1008,7 hPa 0,0 l/m 1,1 km/h (1 Bft) S-SW 200 0 min 0,000 mm 0,0 UV-I 126 W/m 1,2 C 2,4 C 1,6 km/h (1 Bft) 96,15 %
10.03.2018 08:13 2,3 C 3,9 C 91 % 1008,7 hPa 0,0 l/m 1,3 km/h (1 Bft) S-SW 200 0 min 0,000 mm 0,0 UV-I 127 W/m 1,0 C 2,3 C 3,2 km/h (1 Bft) 95,83 %
10.03.2018 08:14 2,3 C 3,9 C 91 % 1008,7 hPa 0,0 l/m 1,8 km/h (1 Bft) S-SW 200 0 min 0,000 mm 0,0 UV-I 127 W/m 1,0 C 2,3 C 3,2 km/h (1 Bft) 100,00 %
10.03.2018 08:15 2,2 C 3,9 C 91 % 1008,7 hPa 0,0 l/m 1,7 km/h (1 Bft) S-SW 200 0 min 0,000 mm 0,0 UV-I 124 W/m 0,9 C 2,2 C 3,2 km/h (1 Bft) 100,00 %
10.03.2018 08:16 2,1 C 3,9 C 91 % 1008,8 hPa 0,0 l/m 1,6 km/h (1 Bft) S-SW 200 0 min 0,000 mm 0,0 UV-I 121 W/m 0,8 C 2,1 C 1,6 km/h (1 Bft) 100,00 %
10.03.2018 08:17 2,1 C 3,9 C 91 % 1008,8 hPa 0,0 l/m 1,3 km/h (1 Bft) S-SW 200 0 min 0,000 mm 0,0 UV-I 119 W/m 0,8 C 2,1 C 1,6 km/h (1 Bft) 95,83 %
10.03.2018 08:18 2,1 C 3,9 C 92 % 1008,8 hPa 0,0 l/m 0,1 km/h (0 Bft) S-SW 200 0 min 0,000 mm 0,0 UV-I 117 W/m 0,9 C 2,1 C 1,6 km/h (1 Bft) 100,00 %
10.03.2018 08:19 2,1 C 3,9 C 92 % 1008,7 hPa 0,0 l/m 0,0 km/h (0 Bft) S-SW 200 0 min 0,000 mm 0,0 UV-I 115 W/m 0,9 C 2,1 C 0,0 km/h (0 Bft) 100,00 %
10.03.2018 08:20 2,1 C 3,9 C 92 % 1008,8 hPa 0,0 l/m 0,0 km/h (0 Bft) S-SW 200 0 min 0,000 mm 0,0 UV-I 113 W/m 0,9 C 2,1 C 0,0 km/h (0 Bft) 100,00 %
10.03.2018 08:21 2,2 C 3,9 C 92 % 1008,7 hPa 0,0 l/m 0,2 km/h (0 Bft) S-SW 200 0 min 0,000 mm 0,0 UV-I 111 W/m 1,0 C 2,2 C 1,6 km/h (1 Bft) 95,83 %
10.03.2018 08:22 2,2 C 3,9 C 92 % 1008,7 hPa 0,0 l/m 1,3 km/h (1 Bft) S-SW 200 0 min 0,000 mm 0,0 UV-I 111 W/m 1,0 C 2,2 C 3,2 km/h (1 Bft) 100,00 %
10.03.2018 08:23 2,2 C 3,9 C 92 % 1008,7 hPa 0,0 l/m 2,5 km/h (1 Bft) S-SW 200 0 min 0,000 mm 0,0 UV-I 111 W/m 1,0 C 2,2 C 3,2 km/h (1 Bft) 100,00 %
10.03.2018 08:24 2,3 C 3,9 C 92 % 1008,7 hPa 0,0 l/m 3,0 km/h (1 Bft) S-SW 200 0 min 0,000 mm 0,0 UV-I 112 W/m 1,1 C 2,3 C 4,8 km/h (1 Bft) 96,30 %
10.03.2018 08:25 2,4 C 3,9 C 92 % 1008,8 hPa 0,0 l/m 3,5 km/h (1 Bft) S-SW 200 0 min 0,000 mm 0,0 UV-I 113 W/m 1,2 C 2,4 C 4,8 km/h (1 Bft) 100,00 %
10.03.2018 08:26 2,5 C 3,9 C 92 % 1008,8 hPa 0,0 l/m 2,7 km/h (1 Bft) S-SW 200 0 min 0,000 mm 0,0 UV-I 114 W/m 1,3 C 2,5 C 3,2 km/h (1 Bft) 100,00 %
10.03.2018 08:27 2,6 C 3,9 C 92 % 1008,8 hPa 0,0 l/m 2,4 km/h (1 Bft) S-SW 200 0 min 0,000 mm 0,0 UV-I 116 W/m 1,4 C 2,6 C 3,2 km/h (1 Bft) 91,30 %
10.03.2018 08:29 2,8 C 3,9 C 91 % 1008,8 hPa 0,0 l/m 1,5 km/h (1 Bft) S-SW 200 0 min 0,000 mm 0,0 UV-I 128 W/m 1,5 C 2,8 C 3,2 km/h (1 Bft) 98,00 %
10.03.2018 08:30 2,8 C 3,9 C 91 % 1008,8 hPa 0,0 l/m 0,9 km/h (0 Bft) S-SW 200 0 min 0,000 mm 0,0 UV-I 156 W/m 1,5 C 2,8 C 1,6 km/h (1 Bft) 100,00 %
10.03.2018 08:31 2,9 C 3,9 C 91 % 1008,7 hPa 0,0 l/m 1,1 km/h (1 Bft) S-SW 200 1 min 0,000 mm 0,3 UV-I 186 W/m 1,6 C 2,9 C 1,6 km/h (1 Bft) 95,65 %
10.03.2018 08:32 3,0 C 3,9 C 91 % 1008,7 hPa 0,0 l/m 0,1 km/h (0 Bft) S-SW 200 1 min 0,000 mm 0,5 UV-I 203 W/m 1,7 C 3,0 C 1,6 km/h (1 Bft) 100,00 %
10.03.2018 08:34 2,9 C 3,9 C 90 % 1008,7 hPa 0,0 l/m 0,0 km/h (0 Bft) S-SW 200 2 min 0,000 mm 0,5 UV-I 235 W/m 1,4 C 2,9 C 1,6 km/h (1 Bft) 100,00 %
10.03.2018 08:35 2,9 C 3,9 C 90 % 1008,7 hPa 0,0 l/m 0,0 km/h (0 Bft) S-SW 200 1 min 0,000 mm 0,6 UV-I 371 W/m 1,4 C 2,9 C 0,0 km/h (0 Bft) 96,30 %
10.03.2018 08:36 2,9 C 3,9 C 90 % 1008,7 hPa 0,0 l/m 0,3 km/h (0 Bft) S-SW 200 1 min 0,000 mm 0,5 UV-I 410 W/m 1,4 C 2,9 C 1,6 km/h (1 Bft) 100,00 %
10.03.2018 08:37 3,0 C 3,9 C 90 % 1008,7 hPa 0,0 l/m 0,0 km/h (0 Bft) S-SW 200 1 min 0,000 mm 0,5 UV-I 277 W/m 1,5 C 3,0 C 0,0 km/h (0 Bft) 100,00 %
10.03.2018 08:38 3,2 C 3,9 C 91 % 1008,7 hPa 0,0 l/m 0,0 km/h (0 Bft) S-SW 200 1 min 0,000 mm 0,6 UV-I 316 W/m 1,9 C 3,2 C 0,0 km/h (0 Bft) 100,00 %
10.03.2018 08:39 3,4 C 3,9 C 91 % 1008,7 hPa 0,0 l/m 0,0 km/h (0 Bft) S-SW 200 1 min 0,000 mm 0,6 UV-I 302 W/m 2,1 C 3,4 C 0,0 km/h (0 Bft) 100,00 %
10.03.2018 08:40 3,6 C 3,9 C 91 % 1008,7 hPa 0,0 l/m 0,0 km/h (0 Bft) S-SW 200 1 min 0,000 mm 0,6 UV-I 310 W/m 2,3 C 3,6 C 0,0 km/h (0 Bft) 100,00 %
10.03.2018 08:41 3,8 C 3,9 C 90 % 1008,7 hPa 0,0 l/m 0,0 km/h (0 Bft) S-SW 200 1 min 0,000 mm 0,6 UV-I 279 W/m 2,3 C 3,8 C 0,0 km/h (0 Bft) 100,00 %
10.03.2018 08:42 3,9 C 3,9 C 89 % 1008,8 hPa 0,0 l/m 0,0 km/h (0 Bft) S-SW 200 1 min 0,000 mm 0,6 UV-I 287 W/m 2,3 C 3,9 C 0,0 km/h (0 Bft) 100,00 %
10.03.2018 08:43 4,1 C 3,9 C 89 % 1008,8 hPa 0,0 l/m 0,0 km/h (0 Bft) S-SW 200 1 min 0,000 mm 0,6 UV-I 274 W/m 2,5 C 4,1 C 0,0 km/h (0 Bft) 100,00 %
10.03.2018 08:44 4,2 C 3,9 C 88 % 1008,7 hPa 0,0 l/m 0,0 km/h (0 Bft) S-SW 200 1 min 0,000 mm 0,6 UV-I 292 W/m 2,4 C 4,2 C 0,0 km/h (0 Bft) 100,00 %
10.03.2018 08:45 4,3 C 3,9 C 88 % 1008,7 hPa 0,0 l/m 0,9 km/h (0 Bft) S-SW 200 1 min 0,000 mm 0,6 UV-I 239 W/m 2,5 C 4,3 C 3,2 km/h (1 Bft) 100,00 %
10.03.2018 08:46 4,3 C 3,9 C 88 % 1008,7 hPa 0,0 l/m 3,0 km/h (1 Bft) S-SW 200 1 min 0,000 mm 0,6 UV-I 223 W/m 2,5 C 4,3 C 3,2 km/h (1 Bft) 93,33 %
10.03.2018 08:47 4,3 C 3,9 C 86 % 1008,7 hPa 0,0 l/m 2,7 km/h (1 Bft) S-SW 200 1 min 0,000 mm 0,6 UV-I 216 W/m 2,2 C 4,3 C 3,2 km/h (1 Bft) 100,00 %
10.03.2018 08:48 4,3 C 3,9 C 86 % 1008,7 hPa 0,0 l/m 2,7 km/h (1 Bft) S-SW 199 1 min 0,000 mm 0,6 UV-I 213 W/m 2,2 C 4,3 C 4,8 km/h (1 Bft) 95,65 %
10.03.2018 08:49 4,3 C 3,9 C 86 % 1008,6 hPa 0,0 l/m 3,6 km/h (1 Bft) S-SW 199 1 min 0,000 mm 0,6 UV-I 207 W/m 2,2 C 4,3 C 4,8 km/h (1 Bft) 100,00 %
10.03.2018 08:50 4,3 C 3,9 C 86 % 1008,5 hPa 0,0 l/m 3,5 km/h (1 Bft) S-SW 198 0 min 0,000 mm 0,6 UV-I 202 W/m 2,2 C 4,3 C 4,8 km/h (1 Bft) 92,31 %
10.03.2018 08:51 4,3 C 3,9 C 87 % 1008,6 hPa 0,0 l/m 3,6 km/h (1 Bft) S-SW 198 1 min 0,000 mm 0,6 UV-I 209 W/m 2,3 C 4,3 C 4,8 km/h (1 Bft) 96,30 %
10.03.2018 08:52 4,3 C 3,9 C 87 % 1008,6 hPa 0,0 l/m 3,5 km/h (1 Bft) S-SW 197 1 min 0,000 mm 0,6 UV-I 208 W/m 2,3 C 4,3 C 4,8 km/h (1 Bft) 100,00 %
10.03.2018 08:53 4,3 C 3,9 C 87 % 1008,6 hPa 0,0 l/m 3,7 km/h (1 Bft) S-SW 197 1 min 0,000 mm 0,6 UV-I 217 W/m 2,3 C 4,3 C 4,8 km/h (1 Bft) 96,67 %
10.03.2018 08:54 4,3 C 3,9 C 87 % 1008,6 hPa 0,0 l/m 3,7 km/h (1 Bft) S-SW 195 0 min 0,000 mm 0,6 UV-I 205 W/m 2,3 C 4,3 C 4,8 km/h (1 Bft) 100,00 %
10.03.2018 08:55 4,3 C 3,9 C 87 % 1008,6 hPa 0,0 l/m 4,1 km/h (1 Bft) NO 43 0 min 0,000 mm 0,6 UV-I 195 W/m 2,3 C 4,3 C 6,4 km/h (2 Bft) 95,83 %
10.03.2018 08:56 4,3 C 3,9 C 87 % 1008,6 hPa 0,0 l/m 4,2 km/h (1 Bft) NO 45 0 min 0,000 mm 0,6 UV-I 199 W/m 2,3 C 4,3 C 6,4 km/h (2 Bft) 100,00 %
10.03.2018 08:57 4,3 C 3,9 C 87 % 1008,5 hPa 0,0 l/m 3,3 km/h (1 Bft) NO 45 0 min 0,000 mm 0,6 UV-I 199 W/m 2,3 C 4,3 C 4,8 km/h (1 Bft) 96,30 %
10.03.2018 08:58 4,3 C 3,9 C 87 % 1008,5 hPa 0,0 l/m 2,6 km/h (1 Bft) NO 45 0 min 0,000 mm 0,6 UV-I 212 W/m 2,3 C 4,3 C 4,8 km/h (1 Bft) 100,00 %
10.03.2018 08:59 4,3 C 3,9 C 88 % 1008,5 hPa 0,0 l/m 2,3 km/h (1 Bft) NO 45 1 min 0,000 mm 0,6 UV-I 218 W/m 2,5 C 4,3 C 3,2 km/h (1 Bft) 92,59 %
10.03.2018 09:00 4,3 C 3,9 C 88 % 1008,4 hPa 0,0 l/m 2,3 km/h (1 Bft) NO 45 0 min 0,077 mm 0,6 UV-I 212 W/m 2,5 C 4,3 C 3,2 km/h (1 Bft) 91,30 %
10.03.2018 09:01 4,3 C 3,9 C 88 % 1008,5 hPa 0,0 l/m 3,1 km/h (1 Bft) NO 45 0 min 0,000 mm 0,6 UV-I 213 W/m 2,5 C 4,3 C 3,2 km/h (1 Bft) 100,00 %
10.03.2018 09:02 4,4 C 3,9 C 88 % 1008,5 hPa 0,0 l/m 2,2 km/h (1 Bft) NO 45 1 min 0,000 mm 0,7 UV-I 224 W/m 2,6 C 4,4 C 3,2 km/h (1 Bft) 95,65 %
10.03.2018 09:03 4,5 C 3,9 C 88 % 1008,5 hPa 0,0 l/m 2,5 km/h (1 Bft) NO 45 0 min 0,000 mm 0,7 UV-I 216 W/m 2,7 C 4,5 C 3,2 km/h (1 Bft) 97,89 %
10.03.2018 09:04 4,6 C 3,9 C 88 % 1008,5 hPa 0,0 l/m 2,5 km/h (1 Bft) NO 45 0 min 0,000 mm 0,6 UV-I 178 W/m 2,8 C 4,6 C 3,2 km/h (1 Bft) 97,73 %
10.03.2018 09:05 4,7 C 3,9 C 87 % 1008,5 hPa 0,0 l/m 1,8 km/h (1 Bft) NO 45 0 min 0,000 mm 0,6 UV-I 178 W/m 2,7 C 4,7 C 3,2 km/h (1 Bft) 100,00 %
10.03.2018 09:06 4,7 C 3,9 C 86 % 1008,5 hPa 0,0 l/m 1,5 km/h (1 Bft) NO 45 0 min 0,000 mm 0,7 UV-I 166 W/m 2,6 C 4,7 C 3,2 km/h (1 Bft) 95,65 %
10.03.2018 09:07 4,8 C 3,9 C 86 % 1008,5 hPa 0,0 l/m 1,6 km/h (1 Bft) NO 45 0 min 0,000 mm 0,7 UV-I 174 W/m 2,7 C 4,8 C 3,2 km/h (1 Bft) 100,00 %
10.03.2018 09:08 4,8 C 3,9 C 85 % 1008,5 hPa 0,0 l/m 1,6 km/h (1 Bft) NO 45 1 min 0,000 mm 0,7 UV-I 255 W/m 2,5 C 4,8 C 1,6 km/h (1 Bft) 95,83 %
10.03.2018 09:09 4,8 C 3,9 C 85 % 1008,6 hPa 0,0 l/m 0,6 km/h (0 Bft) NO 45 1 min 0,000 mm 0,8 UV-I 336 W/m 2,5 C 4,8 C 1,6 km/h (1 Bft) 96,15 %
10.03.2018 09:10 4,9 C 3,9 C 85 % 1008,6 hPa 0,0 l/m 2,1 km/h (1 Bft) NO 45 1 min 0,000 mm 0,8 UV-I 376 W/m 2,6 C 4,9 C 3,2 km/h (1 Bft) 91,67 %
10.03.2018 09:11 5,0 C 3,9 C 84 % 1008,6 hPa 0,0 l/m 3,2 km/h (1 Bft) NO 45 1 min 0,000 mm 0,9 UV-I 377 W/m 2,5 C 5,0 C 4,8 km/h (1 Bft) 97,37 %
10.03.2018 09:12 5,1 C 3,9 C 84 % 1008,6 hPa 0,0 l/m 2,5 km/h (1 Bft) NO 45 1 min 0,000 mm 0,8 UV-I 360 W/m 2,6 C 5,1 C 3,2 km/h (1 Bft) 100,00 %
10.03.2018 09:13 5,1 C 3,9 C 84 % 1008,6 hPa 0,0 l/m 3,1 km/h (1 Bft) NO 45 1 min 0,000 mm 0,7 UV-I 359 W/m 2,6 C 5,1 C 4,8 km/h (1 Bft) 95,65 %
10.03.2018 09:14 5,1 C 3,9 C 84 % 1008,6 hPa 0,0 l/m 3,3 km/h (1 Bft) NO 45 1 min 0,000 mm 0,8 UV-I 247 W/m 2,6 C 5,1 C 4,8 km/h (1 Bft) 100,00 %
10.03.2018 09:15 5,2 C 3,9 C 84 % 1008,5 hPa 0,0 l/m 3,2 km/h (1 Bft) NO 45 1 min 0,000 mm 0,8 UV-I 251 W/m 2,7 C 5,2 C 4,8 km/h (1 Bft) 95,65 %
10.03.2018 09:16 5,2 C 3,9 C 84 % 1008,6 hPa 0,0 l/m 2,5 km/h (1 Bft) NO 45 0 min 0,000 mm 0,9 UV-I 234 W/m 2,7 C 5,2 C 3,2 km/h (1 Bft) 95,83 %
10.03.2018 09:17 5,2 C 3,9 C 84 % 1008,6 hPa 0,0 l/m 2,0 km/h (1 Bft) NO 45 1 min 0,000 mm 0,9 UV-I 317 W/m 2,7 C 5,2 C 3,2 km/h (1 Bft) 91,30 %
10.03.2018 09:18 5,3 C 3,9 C 84 % 1008,6 hPa 0,0 l/m 3,7 km/h (1 Bft) NO 45 1 min 0,000 mm 0,9 UV-I 445 W/m 2,8 C 5,3 C 4,8 km/h (1 Bft) 100,00 %
10.03.2018 09:19 5,3 C 3,9 C 84 % 1008,6 hPa 0,0 l/m 2,6 km/h (1 Bft) NO 45 1 min 0,000 mm 0,9 UV-I 417 W/m 2,8 C 5,3 C 3,2 km/h (1 Bft) 100,00 %
10.03.2018 09:20 5,5 C 3,9 C 85 % 1008,5 hPa 0,0 l/m 3,5 km/h (1 Bft) NO 45 1 min 0,000 mm 0,9 UV-I 385 W/m 3,2 C 5,5 C 4,8 km/h (1 Bft) 100,00 %
10.03.2018 09:21 5,6 C 3,9 C 84 % 1008,6 hPa 0,0 l/m 3,0 km/h (1 Bft) NO 45 1 min 0,000 mm 1,0 UV-I 435 W/m 3,1 C 5,6 C 4,8 km/h (1 Bft) 100,00 %
10.03.2018 09:22 5,6 C 3,9 C 84 % 1008,5 hPa 0,0 l/m 3,0 km/h (1 Bft) NO 45 1 min 0,000 mm 1,0 UV-I 438 W/m 3,1 C 5,6 C 3,2 km/h (1 Bft) 100,00 %
10.03.2018 09:23 5,6 C 3,9 C 83 % 1008,5 hPa 0,0 l/m 2,5 km/h (1 Bft) NO 45 1 min 0,000 mm 0,9 UV-I 417 W/m 2,9 C 5,6 C 3,2 km/h (1 Bft) 100,00 %
10.03.2018 09:24 5,7 C 3,9 C 83 % 1008,5 hPa 0,0 l/m 3,3 km/h (1 Bft) NO 45 1 min 0,000 mm 0,9 UV-I 372 W/m 3,0 C 5,7 C 4,8 km/h (1 Bft) 100,00 %
10.03.2018 09:25 5,8 C 3,9 C 83 % 1008,5 hPa 0,0 l/m 4,0 km/h (1 Bft) NO 45 1 min 0,000 mm 0,9 UV-I 344 W/m 3,1 C 5,8 C 4,8 km/h (1 Bft) 96,15 %
10.03.2018 09:26 5,8 C 3,9 C 83 % 1008,4 hPa 0,0 l/m 2,8 km/h (1 Bft) NO 45 1 min 0,000 mm 0,9 UV-I 380 W/m 3,1 C 5,8 C 3,2 km/h (1 Bft) 100,00 %
10.03.2018 09:27 5,8 C 3,9 C 83 % 1008,4 hPa 0,0 l/m 3,5 km/h (1 Bft) NO 45 1 min 0,000 mm 1,0 UV-I 347 W/m 3,1 C 5,8 C 4,8 km/h (1 Bft) 96,30 %
10.03.2018 09:28 5,9 C 3,9 C 83 % 1008,4 hPa 0,0 l/m 3,5 km/h (1 Bft) NO 45 1 min 0,000 mm 0,9 UV-I 362 W/m 3,2 C 5,9 C 4,8 km/h (1 Bft) 100,00 %
10.03.2018 09:29 5,9 C 3,9 C 83 % 1008,5 hPa 0,0 l/m 3,3 km/h (1 Bft) NO 45 1 min 0,000 mm 1,0 UV-I 356 W/m 3,2 C 5,9 C 4,8 km/h (1 Bft) 96,67 %
10.03.2018 09:30 6,0 C 3,9 C 83 % 1008,4 hPa 0,0 l/m 3,5 km/h (1 Bft) NO 45 1 min 0,000 mm 1,0 UV-I 408 W/m 3,3 C 6,0 C 4,8 km/h (1 Bft) 95,65 %
10.03.2018 09:31 6,0 C 3,9 C 82 % 1008,4 hPa 0,0 l/m 3,7 km/h (1 Bft) NO 45 1 min 0,000 mm 1,0 UV-I 438 W/m 3,2 C 6,0 C 4,8 km/h (1 Bft) 100,00 %
10.03.2018 09:32 6,1 C 3,9 C 82 % 1008,4 hPa 0,0 l/m 3,5 km/h (1 Bft) NO 45 1 min 0,000 mm 1,0 UV-I 442 W/m 3,3 C 6,1 C 4,8 km/h (1 Bft) 96,55 %
10.03.2018 09:33 6,1 C 3,9 C 82 % 1008,5 hPa 0,0 l/m 2,7 km/h (1 Bft) NO 45 1 min 0,000 mm 1,0 UV-I 442 W/m 3,3 C 6,1 C 4,8 km/h (1 Bft) 100,00 %
10.03.2018 09:34 6,2 C 3,9 C 81 % 1008,4 hPa 0,0 l/m 2,2 km/h (1 Bft) NO 45 1 min 0,000 mm 1,1 UV-I 441 W/m 3,2 C 6,2 C 3,2 km/h (1 Bft) 95,65 %
10.03.2018 09:35 6,3 C 3,9 C 81 % 1008,4 hPa 0,0 l/m 2,3 km/h (1 Bft) NO 45 1 min 0,000 mm 1,1 UV-I 438 W/m 3,3 C 6,3 C 3,2 km/h (1 Bft) 100,00 %
10.03.2018 09:36 6,5 C 3,9 C 82 % 1008,4 hPa 0,0 l/m 1,5 km/h (1 Bft) NO 45 1 min 0,000 mm 1,1 UV-I 438 W/m 3,7 C 6,5 C 3,2 km/h (1 Bft) 95,65 %
10.03.2018 09:37 6,7 C 3,9 C 80 % 1008,4 hPa 0,0 l/m 1,1 km/h (1 Bft) NO 45 1 min 0,000 mm 1,1 UV-I 477 W/m 3,5 C 6,7 C 3,2 km/h (1 Bft) 100,00 %
10.03.2018 09:38 6,8 C 3,9 C 80 % 1008,5 hPa 0,0 l/m 2,3 km/h (1 Bft) NO 45 1 min 0,000 mm 1,1 UV-I 485 W/m 3,6 C 6,8 C 3,2 km/h (1 Bft) 95,65 %
10.03.2018 09:39 6,8 C 3,9 C 79 % 1008,5 hPa 0,0 l/m 2,2 km/h (1 Bft) NO 45 1 min 0,000 mm 1,1 UV-I 483 W/m 3,4 C 6,8 C 3,2 km/h (1 Bft) 100,00 %
10.03.2018 09:40 6,9 C 3,9 C 78 % 1008,4 hPa 0,0 l/m 2,2 km/h (1 Bft) NO 45 1 min 0,000 mm 1,1 UV-I 473 W/m 3,3 C 6,9 C 3,2 km/h (1 Bft) 92,31 %
10.03.2018 09:41 7,0 C 3,9 C 78 % 1008,5 hPa 0,0 l/m 1,6 km/h (1 Bft) NO 45 1 min 0,000 mm 1,1 UV-I 374 W/m 3,4 C 7,0 C 3,2 km/h (1 Bft) 88,89 %
10.03.2018 09:42 7,1 C 3,9 C 77 % 1008,4 hPa 0,0 l/m 0,0 km/h (0 Bft) NO 45 1 min 0,000 mm 1,0 UV-I 271 W/m 3,3 C 7,1 C 0,0 km/h (0 Bft) 91,67 %
10.03.2018 09:43 7,1 C 3,9 C 77 % 1008,5 hPa 0,0 l/m 0,3 km/h (0 Bft) NO 45 1 min 0,000 mm 1,1 UV-I 279 W/m 3,3 C 7,1 C 1,6 km/h (1 Bft) 96,15 %
10.03.2018 09:44 7,1 C 3,9 C 77 % 1008,5 hPa 0,0 l/m 0,5 km/h (0 Bft) NO 45 1 min 0,000 mm 1,1 UV-I 362 W/m 3,3 C 7,1 C 1,6 km/h (1 Bft) 100,00 %
10.03.2018 09:45 7,1 C 3,9 C 77 % 1008,5 hPa 0,0 l/m 0,0 km/h (0 Bft) NO 45 1 min 0,000 mm 1,1 UV-I 391 W/m 3,3 C 7,1 C 0,0 km/h (0 Bft) 92,86 %
10.03.2018 09:46 7,2 C 3,9 C 76 % 1008,5 hPa 0,0 l/m 0,0 km/h (0 Bft) NO 45 1 min 0,000 mm 1,1 UV-I 435 W/m 3,3 C 7,2 C 0,0 km/h (0 Bft) 100,00 %
10.03.2018 09:47 7,2 C 3,9 C 76 % 1008,5 hPa 0,0 l/m 0,5 km/h (0 Bft) NO 45 1 min 0,000 mm 1,1 UV-I 465 W/m 3,3 C 7,2 C 1,6 km/h (1 Bft) 96,15 %
10.03.2018 09:48 7,2 C 3,9 C 76 % 1008,5 hPa 0,0 l/m 0,8 km/h (0 Bft) NO 45 1 min 0,000 mm 1,2 UV-I 519 W/m 3,3 C 7,2 C 1,6 km/h (1 Bft) 100,00 %
10.03.2018 09:49 7,3 C 3,9 C 75 % 1008,5 hPa 0,0 l/m 0,0 km/h (0 Bft) NO 45 1 min 0,000 mm 1,2 UV-I 490 W/m 3,2 C 7,3 C 0,0 km/h (0 Bft) 96,15 %
10.03.2018 09:50 7,3 C 3,9 C 75 % 1008,5 hPa 0,0 l/m 0,3 km/h (0 Bft) NO 45 1 min 0,000 mm 1,2 UV-I 367 W/m 3,2 C 7,3 C 1,6 km/h (1 Bft) 95,83 %
10.03.2018 09:51 7,3 C 3,9 C 75 % 1008,5 hPa 0,0 l/m 1,4 km/h (1 Bft) NO 45 1 min 0,000 mm 1,2 UV-I 415 W/m 3,2 C 7,3 C 3,2 km/h (1 Bft) 100,00 %
10.03.2018 09:52 7,4 C 3,9 C 76 % 1008,5 hPa 0,0 l/m 1,7 km/h (1 Bft) NO 45 1 min 0,000 mm 1,1 UV-I 317 W/m 3,5 C 7,4 C 3,2 km/h (1 Bft) 100,00 %
10.03.2018 09:53 7,4 C 3,9 C 76 % 1008,4 hPa 0,0 l/m 1,5 km/h (1 Bft) NO 45 0 min 0,000 mm 1,0 UV-I 244 W/m 3,5 C 7,4 C 3,2 km/h (1 Bft) 96,55 %
10.03.2018 09:54 7,4 C 3,9 C 76 % 1008,4 hPa 0,0 l/m 3,6 km/h (1 Bft) NO 47 0 min 0,000 mm 1,0 UV-I 251 W/m 3,5 C 7,4 C 4,8 km/h (1 Bft) 95,83 %
10.03.2018 09:55 7,3 C 3,9 C 76 % 1008,5 hPa 0,0 l/m 3,4 km/h (1 Bft) NO 47 0 min 0,000 mm 1,0 UV-I 267 W/m 3,4 C 7,3 C 4,8 km/h (1 Bft) 100,00 %
10.03.2018 09:56 7,3 C 3,9 C 76 % 1008,4 hPa 0,0 l/m 2,7 km/h (1 Bft) NO 47 1 min 0,000 mm 1,1 UV-I 305 W/m 3,4 C 7,3 C 3,2 km/h (1 Bft) 93,33 %
10.03.2018 09:57 7,3 C 3,9 C 76 % 1008,4 hPa 0,0 l/m 2,8 km/h (1 Bft) NO 47 1 min 0,000 mm 1,1 UV-I 339 W/m 3,4 C 7,3 C 4,8 km/h (1 Bft) 96,15 %
10.03.2018 09:58 7,3 C 3,9 C 76 % 1008,4 hPa 0,0 l/m 2,6 km/h (1 Bft) NO 47 1 min 0,000 mm 1,2 UV-I 340 W/m 3,4 C 7,3 C 4,8 km/h (1 Bft) 95,83 %
10.03.2018 09:59 7,3 C 3,9 C 76 % 1008,5 hPa 0,0 l/m 2,1 km/h (1 Bft) NO 47 1 min 0,000 mm 1,2 UV-I 398 W/m 3,4 C 7,3 C 3,2 km/h (1 Bft) 100,00 %
10.03.2018 10:00 7,3 C 3,9 C 76 % 1008,5 hPa 0,0 l/m 0,2 km/h (0 Bft) NO 47 1 min 0,152 mm 1,2 UV-I 464 W/m 3,4 C 7,3 C 1,6 km/h (1 Bft) 95,83 %
10.03.2018 10:01 7,4 C 3,9 C 77 % 1008,4 hPa 0,0 l/m 1,8 km/h (1 Bft) NO 47 1 min 0,000 mm 1,2 UV-I 445 W/m 3,6 C 7,4 C 3,2 km/h (1 Bft) 95,65 %
10.03.2018 10:02 7,4 C 3,9 C 76 % 1008,4 hPa 0,0 l/m 3,2 km/h (1 Bft) O 96 1 min 0,000 mm 1,3 UV-I 411 W/m 3,5 C 7,4 C 4,8 km/h (1 Bft) 100,00 %
10.03.2018 10:03 7,3 C 3,9 C 76 % 1008,4 hPa 0,0 l/m 4,2 km/h (1 Bft) O 96 1 min 0,000 mm 1,2 UV-I 308 W/m 3,4 C 7,3 C 4,8 km/h (1 Bft) 100,00 %
10.03.2018 10:04 7,2 C 3,9 C 76 % 1008,4 hPa 0,0 l/m 2,7 km/h (1 Bft) O 96 1 min 0,000 mm 1,2 UV-I 364 W/m 3,3 C 7,2 C 4,8 km/h (1 Bft) 96,15 %
10.03.2018 10:05 7,2 C 3,9 C 76 % 1008,4 hPa 0,0 l/m 3,3 km/h (1 Bft) O 96 1 min 0,000 mm 1,3 UV-I 347 W/m 3,3 C 7,2 C 4,8 km/h (1 Bft) 95,83 %
10.03.2018 10:06 7,1 C 3,9 C 76 % 1008,4 hPa 0,0 l/m 3,6 km/h (1 Bft) O 96 1 min 0,000 mm 1,4 UV-I 334 W/m 3,2 C 7,1 C 6,4 km/h (2 Bft) 100,00 %
10.03.2018 10:07 7,2 C 3,9 C 76 % 1008,4 hPa 0,0 l/m 2,6 km/h (1 Bft) O 96 1 min 0,000 mm 1,3 UV-I 338 W/m 3,3 C 7,2 C 4,8 km/h (1 Bft) 95,83 %
10.03.2018 10:08 7,3 C 3,9 C 78 % 1008,4 hPa 0,0 l/m 3,6 km/h (1 Bft) O 96 1 min 0,000 mm 1,3 UV-I 350 W/m 3,7 C 7,3 C 4,8 km/h (1 Bft) 95,65 %
10.03.2018 10:09 7,4 C 3,9 C 78 % 1008,3 hPa 0,0 l/m 1,6 km/h (1 Bft) O 96 1 min 0,000 mm 1,4 UV-I 453 W/m 3,8 C 7,4 C 3,2 km/h (1 Bft) 91,67 %
10.03.2018 10:10 7,6 C 3,9 C 77 % 1008,3 hPa 0,0 l/m 0,8 km/h (0 Bft) O 96 1 min 0,000 mm 1,4 UV-I 540 W/m 3,8 C 7,6 C 3,2 km/h (1 Bft) 96,55 %
10.03.2018 10:11 7,7 C 3,9 C 77 % 1008,3 hPa 0,0 l/m 4,1 km/h (1 Bft) O 96 1 min 0,000 mm 1,3 UV-I 396 W/m 3,9 C 7,7 C 4,8 km/h (1 Bft) 91,67 %
10.03.2018 10:12 7,7 C 3,9 C 77 % 1008,3 hPa 0,0 l/m 3,5 km/h (1 Bft) O 96 1 min 0,000 mm 1,3 UV-I 402 W/m 3,9 C 7,7 C 4,8 km/h (1 Bft) 94,29 %
10.03.2018 10:13 7,7 C 3,9 C 76 % 1008,3 hPa 0,0 l/m 4,6 km/h (1 Bft) O 95 1 min 0,000 mm 1,3 UV-I 424 W/m 3,7 C 7,7 C 6,4 km/h (2 Bft) 100,00 %
10.03.2018 10:14 7,7 C 3,9 C 76 % 1008,3 hPa 0,0 l/m 4,5 km/h (1 Bft) O 91 1 min 0,000 mm 1,3 UV-I 474 W/m 3,7 C 7,7 C 6,4 km/h (2 Bft) 96,15 %
10.03.2018 10:15 7,7 C 3,9 C 76 % 1008,3 hPa 0,0 l/m 4,5 km/h (1 Bft) O 90 1 min 0,000 mm 1,4 UV-I 468 W/m 3,7 C 7,7 C 6,4 km/h (2 Bft) 95,83 %
10.03.2018 10:16 7,7 C 3,9 C 76 % 1008,3 hPa 0,0 l/m 4,3 km/h (1 Bft) O 88 1 min 0,000 mm 1,3 UV-I 472 W/m 3,7 C 7,7 C 4,8 km/h (1 Bft) 92,31 %
10.03.2018 10:17 7,7 C 3,9 C 75 % 1008,2 hPa 0,0 l/m 5,3 km/h (1 Bft) O-NO 70 1 min 0,000 mm 1,3 UV-I 411 W/m 3,6 C 7,7 C 6,4 km/h (2 Bft) 100,00 %
10.03.2018 10:18 7,8 C 3,9 C 77 % 1008,2 hPa 0,0 l/m 4,7 km/h (1 Bft) O-NO 65 1 min 0,000 mm 1,3 UV-I 379 W/m 4,0 C 7,8 C 6,4 km/h (2 Bft) 92,31 %
10.03.2018 10:19 7,9 C 3,9 C 78 % 1008,2 hPa 0,0 l/m 5,6 km/h (1 Bft) O-NO 65 1 min 0,000 mm 1,3 UV-I 408 W/m 4,3 C 7,9 C 8,0 km/h (2 Bft) 95,83 %
10.03.2018 10:20 8,1 C 3,9 C 79 % 1008,2 hPa 0,0 l/m 6,5 km/h (2 Bft) O-NO 64 1 min 0,000 mm 1,3 UV-I 350 W/m 4,7 C 8,0 C 8,0 km/h (2 Bft) 95,83 %
10.03.2018 10:21 8,1 C 3,9 C 76 % 1008,2 hPa 0,0 l/m 4,8 km/h (1 Bft) O-NO 64 1 min 0,000 mm 1,2 UV-I 321 W/m 4,1 C 8,1 C 6,4 km/h (2 Bft) 92,86 %
10.03.2018 10:22 8,2 C 3,9 C 78 % 1008,2 hPa 0,0 l/m 3,5 km/h (1 Bft) O-NO 64 1 min 0,000 mm 1,2 UV-I 319 W/m 4,6 C 8,2 C 6,4 km/h (2 Bft) 96,30 %
10.03.2018 10:23 8,1 C 3,9 C 74 % 1008,2 hPa 0,0 l/m 4,7 km/h (1 Bft) O 92 1 min 0,000 mm 1,2 UV-I 317 W/m 3,8 C 8,1 C 6,4 km/h (2 Bft) 95,65 %
10.03.2018 10:24 8,0 C 3,9 C 73 % 1008,2 hPa 0,0 l/m 5,2 km/h (1 Bft) O 86 1 min 0,000 mm 1,2 UV-I 311 W/m 3,5 C 8,0 C 6,4 km/h (2 Bft) 95,83 %
10.03.2018 10:25 8,0 C 3,9 C 75 % 1008,2 hPa 0,0 l/m 5,0 km/h (1 Bft) O 98 1 min 0,000 mm 1,3 UV-I 322 W/m 3,8 C 8,0 C 6,4 km/h (2 Bft) 91,30 %
10.03.2018 10:26 7,9 C 3,9 C 74 % 1008,1 hPa 0,0 l/m 5,1 km/h (1 Bft) O 101 1 min 0,000 mm 1,3 UV-I 330 W/m 3,6 C 7,9 C 6,4 km/h (2 Bft) 91,67 %
10.03.2018 10:27 7,9 C 3,9 C 72 % 1008,2 hPa 0,0 l/m 2,4 km/h (1 Bft) O 101 1 min 0,000 mm 1,3 UV-I 341 W/m 3,2 C 7,9 C 3,2 km/h (1 Bft) 86,96 %
10.03.2018 10:28 7,8 C 3,9 C 73 % 1008,1 hPa 0,0 l/m 3,1 km/h (1 Bft) O 101 1 min 0,000 mm 1,3 UV-I 351 W/m 3,3 C 7,8 C 4,8 km/h (1 Bft) 96,30 %
10.03.2018 10:29 7,9 C 3,9 C 73 % 1008,1 hPa 0,0 l/m 3,3 km/h (1 Bft) O 98 1 min 0,000 mm 1,3 UV-I 361 W/m 3,4 C 7,9 C 4,8 km/h (1 Bft) 97,62 %
10.03.2018 10:30 7,9 C 3,9 C 73 % 1008,2 hPa 0,0 l/m 5,2 km/h (1 Bft) O-SO 119 1 min 0,000 mm 1,3 UV-I 358 W/m 3,4 C 7,9 C 6,4 km/h (2 Bft) 95,12 %
10.03.2018 10:31 7,9 C 3,9 C 71 % 1008,2 hPa 0,0 l/m 1,4 km/h (1 Bft) O-SO 111 1 min 0,000 mm 1,3 UV-I 343 W/m 3,0 C 7,9 C 4,8 km/h (1 Bft) 95,65 %
10.03.2018 10:32 8,0 C 3,9 C 73 % 1008,1 hPa 0,0 l/m 4,9 km/h (1 Bft) O 85 1 min 0,000 mm 1,3 UV-I 337 W/m 3,5 C 8,0 C 6,4 km/h (2 Bft) 100,00 %
10.03.2018 10:33 8,1 C 3,9 C 73 % 1008,1 hPa 0,0 l/m 5,6 km/h (1 Bft) O 83 1 min 0,000 mm 1,3 UV-I 355 W/m 3,6 C 8,1 C 6,4 km/h (2 Bft) 96,55 %
10.03.2018 10:34 8,2 C 3,9 C 72 % 1008,1 hPa 0,0 l/m 3,5 km/h (1 Bft) O 83 1 min 0,000 mm 1,3 UV-I 358 W/m 3,5 C 8,2 C 4,8 km/h (1 Bft) 100,00 %
10.03.2018 10:35 8,2 C 3,9 C 72 % 1008,2 hPa 0,0 l/m 3,9 km/h (1 Bft) O 83 1 min 0,000 mm 1,4 UV-I 378 W/m 3,5 C 8,2 C 6,4 km/h (2 Bft) 96,30 %
10.03.2018 10:36 8,2 C 3,9 C 71 % 1008,1 hPa 0,0 l/m 2,8 km/h (1 Bft) O 83 1 min 0,000 mm 1,3 UV-I 373 W/m 3,3 C 8,2 C 3,2 km/h (1 Bft) 96,55 %
10.03.2018 10:37 8,3 C 3,9 C 73 % 1008,1 hPa 0,0 l/m 3,4 km/h (1 Bft) O 83 1 min 0,000 mm 1,3 UV-I 366 W/m 3,8 C 8,3 C 4,8 km/h (1 Bft) 95,65 %
10.03.2018 10:38 8,4 C 3,9 C 73 % 1008,1 hPa 0,0 l/m 2,9 km/h (1 Bft) O 83 1 min 0,000 mm 1,3 UV-I 364 W/m 3,8 C 8,4 C 4,8 km/h (1 Bft) 91,67 %
10.03.2018 10:39 8,4 C 3,9 C 71 % 1008,1 hPa 0,0 l/m 0,2 km/h (0 Bft) O 83 1 min 0,000 mm 1,3 UV-I 365 W/m 3,5 C 8,4 C 1,6 km/h (1 Bft) 95,83 %
10.03.2018 10:40 8,4 C 3,9 C 71 % 1008,2 hPa 0,0 l/m 2,5 km/h (1 Bft) O 93 1 min 0,000 mm 1,3 UV-I 366 W/m 3,5 C 8,4 C 9,7 km/h (2 Bft) 95,65 %
10.03.2018 10:41 8,4 C 3,9 C 71 % 1008,1 hPa 0,0 l/m 4,0 km/h (1 Bft) O 93 1 min 0,000 mm 1,3 UV-I 358 W/m 3,5 C 8,4 C 6,4 km/h (2 Bft) 100,00 %
10.03.2018 10:42 8,4 C 3,9 C 71 % 1008,2 hPa 0,0 l/m 3,4 km/h (1 Bft) O 93 1 min 0,000 mm 1,3 UV-I 357 W/m 3,5 C 8,4 C 6,4 km/h (2 Bft) 94,12 %
10.03.2018 10:43 8,4 C 3,9 C 72 % 1008,1 hPa 0,0 l/m 4,6 km/h (1 Bft) O 94 1 min 0,000 mm 1,3 UV-I 352 W/m 3,7 C 8,4 C 6,4 km/h (2 Bft) 100,00 %
10.03.2018 10:44 8,3 C 3,9 C 71 % 1008,1 hPa 0,0 l/m 4,8 km/h (1 Bft) O 95 1 min 0,000 mm 1,3 UV-I 352 W/m 3,4 C 8,3 C 6,4 km/h (2 Bft) 95,65 %
10.03.2018 10:45 8,3 C 3,9 C 71 % 1008,1 hPa 0,0 l/m 4,7 km/h (1 Bft) O 96 1 min 0,000 mm 1,3 UV-I 341 W/m 3,4 C 8,3 C 6,4 km/h (2 Bft) 100,00 %
10.03.2018 10:46 8,3 C 3,9 C 72 % 1008,1 hPa 0,0 l/m 2,5 km/h (1 Bft) O 95 1 min 0,000 mm 1,3 UV-I 335 W/m 3,6 C 8,3 C 4,8 km/h (1 Bft) 91,30 %
10.03.2018 10:47 8,3 C 3,9 C 71 % 1008,1 hPa 0,0 l/m 3,6 km/h (1 Bft) O 95 1 min 0,000 mm 1,2 UV-I 323 W/m 3,4 C 8,3 C 4,8 km/h (1 Bft) 95,83 %
10.03.2018 10:48 8,3 C 3,9 C 72 % 1008,1 hPa 0,0 l/m 3,0 km/h (1 Bft) O 95 1 min 0,000 mm 1,2 UV-I 316 W/m 3,6 C 8,3 C 4,8 km/h (1 Bft) 95,65 %
10.03.2018 10:49 8,3 C 3,9 C 72 % 1008,1 hPa 0,0 l/m 1,8 km/h (1 Bft) O 95 1 min 0,000 mm 1,2 UV-I 316 W/m 3,6 C 8,3 C 3,2 km/h (1 Bft) 95,83 %
10.03.2018 10:50 8,3 C 3,9 C 72 % 1008,1 hPa 0,0 l/m 2,8 km/h (1 Bft) O 95 0 min 0,000 mm 1,2 UV-I 311 W/m 3,6 C 8,3 C 4,8 km/h (1 Bft) 100,00 %
10.03.2018 10:51 8,3 C 3,9 C 72 % 1008,1 hPa 0,0 l/m 2,5 km/h (1 Bft) O 95 0 min 0,000 mm 1,2 UV-I 306 W/m 3,6 C 8,3 C 4,8 km/h (1 Bft) 93,33 %
10.03.2018 10:52 8,3 C 3,9 C 73 % 1008,1 hPa 0,0 l/m 4,0 km/h (1 Bft) O 95 0 min 0,000 mm 1,2 UV-I 306 W/m 3,8 C 8,3 C 4,8 km/h (1 Bft) 96,43 %
10.03.2018 10:53 8,4 C 3,9 C 73 % 1008,1 hPa 0,0 l/m 2,1 km/h (1 Bft) O 95 0 min 0,000 mm 1,2 UV-I 302 W/m 3,8 C 8,4 C 3,2 km/h (1 Bft) 96,30 %
10.03.2018 10:54 8,4 C 3,9 C 72 % 1008,2 hPa 0,0 l/m 1,9 km/h (1 Bft) O 95 0 min 0,000 mm 1,2 UV-I 300 W/m 3,7 C 8,4 C 4,8 km/h (1 Bft) 100,00 %
10.03.2018 10:55 8,3 C 3,9 C 72 % 1008,1 hPa 0,0 l/m 3,5 km/h (1 Bft) O-SO 121 0 min 0,000 mm 1,2 UV-I 296 W/m 3,6 C 8,3 C 4,8 km/h (1 Bft) 96,15 %
10.03.2018 10:56 8,3 C 3,9 C 72 % 1008,1 hPa 0,0 l/m 2,9 km/h (1 Bft) O-SO 121 0 min 0,000 mm 1,2 UV-I 295 W/m 3,6 C 8,3 C 4,8 km/h (1 Bft) 100,00 %
10.03.2018 10:57 8,3 C 3,9 C 72 % 1008,1 hPa 0,0 l/m 2,6 km/h (1 Bft) O-SO 121 0 min 0,000 mm 1,2 UV-I 298 W/m 3,6 C 8,3 C 4,8 km/h (1 Bft) 95,65 %
10.03.2018 10:58 8,2 C 3,9 C 73 % 1008,1 hPa 0,0 l/m 2,2 km/h (1 Bft) O-SO 121 0 min 0,000 mm 1,2 UV-I 299 W/m 3,7 C 8,2 C 3,2 km/h (1 Bft) 96,30 %
10.03.2018 10:59 8,3 C 3,9 C 73 % 1008,1 hPa 0,0 l/m 3,0 km/h (1 Bft) O-SO 120 0 min 0,000 mm 1,2 UV-I 301 W/m 3,8 C 8,3 C 4,8 km/h (1 Bft) 95,65 %
10.03.2018 11:00 8,4 C 3,9 C 74 % 1008,1 hPa 0,0 l/m 4,9 km/h (1 Bft) O-NO 74 0 min 0,000 mm 1,2 UV-I 302 W/m 4,0 C 8,4 C 8,0 km/h (2 Bft) 96,30 %
10.03.2018 11:01 8,6 C 3,9 C 75 % 1008,1 hPa 0,0 l/m 3,4 km/h (1 Bft) O-NO 74 0 min 0,178 mm 1,2 UV-I 302 W/m 4,4 C 8,6 C 4,8 km/h (1 Bft) 95,83 %
10.03.2018 11:02 8,6 C 3,9 C 73 % 1008,1 hPa 0,0 l/m 1,8 km/h (1 Bft) O-NO 74 0 min 0,000 mm 1,2 UV-I 299 W/m 4,0 C 8,6 C 3,2 km/h (1 Bft) 91,67 %
10.03.2018 11:03 8,7 C 3,9 C 72 % 1008,0 hPa 0,0 l/m 2,5 km/h (1 Bft) O-NO 74 0 min 0,000 mm 1,2 UV-I 295 W/m 3,9 C 8,7 C 4,8 km/h (1 Bft) 100,00 %
10.03.2018 11:04 8,7 C 3,9 C 72 % 1008,1 hPa 0,0 l/m 4,2 km/h (1 Bft) O-NO 74 0 min 0,000 mm 1,2 UV-I 292 W/m 3,9 C 8,7 C 6,4 km/h (2 Bft) 95,83 %
10.03.2018 11:05 8,8 C 3,9 C 73 % 1008,1 hPa 0,0 l/m 3,8 km/h (1 Bft) O-NO 74 0 min 0,000 mm 1,2 UV-I 290 W/m 4,2 C 8,8 C 4,8 km/h (1 Bft) 96,00 %
10.03.2018 11:06 8,8 C 3,9 C 71 % 1008,0 hPa 0,0 l/m 4,2 km/h (1 Bft) O-SO 104 0 min 0,000 mm 1,2 UV-I 291 W/m 3,8 C 8,8 C 6,4 km/h (2 Bft) 95,83 %
10.03.2018 11:07 8,8 C 3,9 C 71 % 1008,0 hPa 0,0 l/m 4,8 km/h (1 Bft) O 89 0 min 0,000 mm 1,2 UV-I 293 W/m 3,8 C 8,8 C 6,4 km/h (2 Bft) 100,00 %
10.03.2018 11:08 8,8 C 3,9 C 71 % 1008,0 hPa 0,0 l/m 5,5 km/h (1 Bft) O 84 0 min 0,000 mm 1,2 UV-I 299 W/m 3,8 C 8,8 C 6,4 km/h (2 Bft) 95,83 %
10.03.2018 11:09 8,8 C 3,9 C 71 % 1008,0 hPa 0,0 l/m 4,7 km/h (1 Bft) O 95 0 min 0,000 mm 1,3 UV-I 309 W/m 3,8 C 8,8 C 6,4 km/h (2 Bft) 96,15 %
10.03.2018 11:10 8,8 C 3,9 C 70 % 1008,0 hPa 0,0 l/m 3,9 km/h (1 Bft) O 95 0 min 0,000 mm 1,3 UV-I 316 W/m 3,6 C 8,8 C 4,8 km/h (1 Bft) 100,00 %
10.03.2018 11:11 8,8 C 3,9 C 70 % 1008,0 hPa 0,0 l/m 1,6 km/h (1 Bft) O 95 0 min 0,000 mm 1,3 UV-I 326 W/m 3,6 C 8,8 C 3,2 km/h (1 Bft) 91,67 %
10.03.2018 11:12 8,8 C 3,9 C 71 % 1008,0 hPa 0,0 l/m 0,7 km/h (0 Bft) O 95 1 min 0,000 mm 1,3 UV-I 336 W/m 3,8 C 8,8 C 3,2 km/h (1 Bft) 100,00 %
10.03.2018 11:13 8,8 C 3,9 C 70 % 1007,9 hPa 0,0 l/m 3,5 km/h (1 Bft) O-NO 69 1 min 0,000 mm 1,3 UV-I 347 W/m 3,6 C 8,8 C 6,4 km/h (2 Bft) 95,83 %
10.03.2018 11:14 8,9 C 3,9 C 72 % 1007,9 hPa 0,0 l/m 5,5 km/h (1 Bft) O-NO 68 1 min 0,000 mm 1,4 UV-I 356 W/m 4,1 C 8,9 C 6,4 km/h (2 Bft) 100,00 %
10.03.2018 11:15 9,0 C 3,9 C 71 % 1007,9 hPa 0,0 l/m 4,5 km/h (1 Bft) O-NO 68 1 min 0,000 mm 1,4 UV-I 365 W/m 4,0 C 9,0 C 6,4 km/h (2 Bft) 95,83 %
10.03.2018 11:16 9,1 C 3,9 C 72 % 1007,9 hPa 0,0 l/m 5,4 km/h (1 Bft) O-NO 68 1 min 0,000 mm 1,4 UV-I 373 W/m 4,3 C 9,1 C 8,0 km/h (2 Bft) 96,15 %
10.03.2018 11:17 9,2 C 3,9 C 71 % 1007,9 hPa 0,0 l/m 6,4 km/h (2 Bft) O-NO 61 1 min 0,000 mm 1,4 UV-I 376 W/m 4,2 C 9,2 C 8,0 km/h (2 Bft) 91,67 %
10.03.2018 11:18 9,2 C 3,9 C 70 % 1007,9 hPa 0,0 l/m 3,1 km/h (1 Bft) O-NO 64 1 min 0,000 mm 1,5 UV-I 379 W/m 4,0 C 9,2 C 4,8 km/h (1 Bft) 100,00 %
10.03.2018 11:19 9,2 C 3,9 C 69 % 1008,0 hPa 0,0 l/m 3,6 km/h (1 Bft) O-NO 65 1 min 0,000 mm 1,4 UV-I 376 W/m 3,8 C 9,2 C 4,8 km/h (1 Bft) 95,83 %
10.03.2018 11:20 9,2 C 3,9 C 70 % 1008,0 hPa 0,0 l/m 3,1 km/h (1 Bft) O-NO 65 1 min 0,000 mm 1,4 UV-I 375 W/m 4,0 C 9,2 C 4,8 km/h (1 Bft) 100,00 %
10.03.2018 11:21 9,2 C 3,9 C 70 % 1008,0 hPa 0,0 l/m 4,9 km/h (1 Bft) O-NO 70 1 min 0,000 mm 1,4 UV-I 374 W/m 4,0 C 9,2 C 6,4 km/h (2 Bft) 95,83 %
10.03.2018 11:22 9,2 C 3,9 C 70 % 1008,0 hPa 0,0 l/m 5,0 km/h (1 Bft) O-NO 70 1 min 0,000 mm 1,4 UV-I 373 W/m 4,0 C 9,2 C 6,4 km/h (2 Bft) 92,31 %
10.03.2018 11:23 9,2 C 3,9 C 70 % 1008,0 hPa 0,0 l/m 4,7 km/h (1 Bft) O 82 1 min 0,000 mm 1,4 UV-I 371 W/m 4,0 C 9,2 C 6,4 km/h (2 Bft) 100,00 %
10.03.2018 11:24 9,3 C 3,9 C 70 % 1008,0 hPa 0,0 l/m 4,4 km/h (1 Bft) O-NO 77 1 min 0,000 mm 1,4 UV-I 368 W/m 4,1 C 9,3 C 8,0 km/h (2 Bft) 95,65 %
10.03.2018 11:25 9,3 C 3,9 C 69 % 1007,9 hPa 0,0 l/m 5,6 km/h (1 Bft) O 93 1 min 0,000 mm 1,4 UV-I 367 W/m 3,9 C 9,3 C 9,7 km/h (2 Bft) 100,00 %
10.03.2018 11:26 9,3 C 3,9 C 69 % 1007,9 hPa 0,0 l/m 5,0 km/h (1 Bft) O 96 1 min 0,000 mm 1,4 UV-I 367 W/m 3,9 C 9,3 C 6,4 km/h (2 Bft) 95,65 %
10.03.2018 11:27 9,3 C 3,9 C 68 % 1007,9 hPa 0,0 l/m 3,8 km/h (1 Bft) O 97 1 min 0,000 mm 1,4 UV-I 370 W/m 3,7 C 9,3 C 6,4 km/h (2 Bft) 100,00 %
10.03.2018 11:28 9,3 C 3,9 C 69 % 1007,9 hPa 0,0 l/m 2,7 km/h (1 Bft) O 97 1 min 0,000 mm 1,4 UV-I 357 W/m 3,9 C 9,3 C 3,2 km/h (1 Bft) 81,82 %
10.03.2018 11:29 9,2 C 3,9 C 68 % 1007,9 hPa 0,0 l/m 5,7 km/h (1 Bft) O-NO 76 1 min 0,000 mm 1,4 UV-I 352 W/m 3,6 C 9,2 C 6,4 km/h (2 Bft) 100,00 %
10.03.2018 11:30 9,3 C 3,9 C 68 % 1007,9 hPa 0,0 l/m 6,4 km/h (2 Bft) O 82 1 min 0,000 mm 1,4 UV-I 351 W/m 3,7 C 9,3 C 9,7 km/h (2 Bft) 96,15 %
10.03.2018 11:31 9,3 C 3,9 C 67 % 1007,9 hPa 0,0 l/m 5,6 km/h (1 Bft) O 94 1 min 0,000 mm 1,4 UV-I 349 W/m 3,5 C 9,3 C 9,7 km/h (2 Bft) 100,00 %
10.03.2018 11:32 9,3 C 3,9 C 66 % 1007,9 hPa 0,0 l/m 6,8 km/h (2 Bft) O-NO 72 1 min 0,000 mm 1,4 UV-I 349 W/m 3,3 C 9,0 C 9,7 km/h (2 Bft) 96,15 %
10.03.2018 11:33 9,3 C 3,9 C 66 % 1007,9 hPa 0,0 l/m 6,3 km/h (2 Bft) O 86 1 min 0,000 mm 1,4 UV-I 352 W/m 3,3 C 9,3 C 9,7 km/h (2 Bft) 100,00 %
10.03.2018 11:34 9,4 C 3,9 C 66 % 1007,9 hPa 0,0 l/m 6,3 km/h (2 Bft) O-NO 78 1 min 0,000 mm 1,4 UV-I 356 W/m 3,4 C 9,4 C 8,0 km/h (2 Bft) 96,30 %
10.03.2018 11:35 9,4 C 3,9 C 66 % 1007,9 hPa 0,0 l/m 3,1 km/h (1 Bft) O-NO 78 1 min 0,000 mm 1,5 UV-I 357 W/m 3,4 C 9,4 C 4,8 km/h (1 Bft) 96,15 %
10.03.2018 11:36 9,4 C 3,9 C 67 % 1007,9 hPa 0,0 l/m 4,1 km/h (1 Bft) O 80 1 min 0,000 mm 1,4 UV-I 354 W/m 3,6 C 9,4 C 4,8 km/h (1 Bft) 100,00 %
10.03.2018 11:37 9,6 C 3,9 C 68 % 1007,9 hPa 0,0 l/m 5,4 km/h (1 Bft) O 88 1 min 0,000 mm 1,5 UV-I 354 W/m 4,0 C 9,6 C 6,4 km/h (2 Bft) 96,15 %
10.03.2018 11:38 9,6 C 3,9 C 67 % 1007,9 hPa 0,0 l/m 4,2 km/h (1 Bft) O-NO 69 1 min 0,000 mm 1,5 UV-I 352 W/m 3,8 C 9,6 C 6,4 km/h (2 Bft) 100,00 %
10.03.2018 11:39 9,6 C 3,9 C 66 % 1007,9 hPa 0,0 l/m 5,7 km/h (1 Bft) O 89 1 min 0,000 mm 1,5 UV-I 349 W/m 3,6 C 9,6 C 8,0 km/h (2 Bft) 96,55 %
10.03.2018 11:40 9,6 C 3,9 C 66 % 1007,9 hPa 0,0 l/m 4,1 km/h (1 Bft) O-NO 78 1 min 0,000 mm 1,4 UV-I 344 W/m 3,6 C 9,6 C 6,4 km/h (2 Bft) 100,00 %
10.03.2018 11:41 9,6 C 3,9 C 66 % 1007,9 hPa 0,0 l/m 6,4 km/h (2 Bft) O-NO 74 1 min 0,000 mm 1,4 UV-I 339 W/m 3,6 C 9,6 C 9,7 km/h (2 Bft) 85,71 %
10.03.2018 11:42 9,7 C 3,9 C 67 % 1007,9 hPa 0,0 l/m 5,7 km/h (1 Bft) O-SO 104 1 min 0,000 mm 1,4 UV-I 338 W/m 3,9 C 9,7 C 9,7 km/h (2 Bft) 100,00 %
10.03.2018 11:43 9,6 C 3,9 C 64 % 1007,9 hPa 0,0 l/m 4,4 km/h (1 Bft) O-SO 103 1 min 0,000 mm 1,4 UV-I 338 W/m 3,1 C 9,6 C 6,4 km/h (2 Bft) 96,15 %
10.03.2018 11:44 9,6 C 3,9 C 66 % 1007,8 hPa 0,0 l/m 3,4 km/h (1 Bft) O 96 0 min 0,000 mm 1,4 UV-I 336 W/m 3,6 C 9,6 C 6,4 km/h (2 Bft) 96,30 %
10.03.2018 11:45 9,6 C 3,9 C 65 % 1007,8 hPa 0,0 l/m 6,8 km/h (2 Bft) O-SO 102 0 min 0,000 mm 1,4 UV-I 334 W/m 3,4 C 9,3 C 9,7 km/h (2 Bft) 100,00 %
10.03.2018 11:46 9,6 C 3,9 C 65 % 1007,9 hPa 0,0 l/m 5,9 km/h (2 Bft) O-SO 114 0 min 0,000 mm 1,4 UV-I 331 W/m 3,4 C 9,6 C 6,4 km/h (2 Bft) 100,00 %
10.03.2018 11:47 9,6 C 3,9 C 65 % 1007,9 hPa 0,0 l/m 4,8 km/h (1 Bft) SO 127 0 min 0,000 mm 1,4 UV-I 328 W/m 3,4 C 9,6 C 6,4 km/h (2 Bft) 96,15 %
10.03.2018 11:48 9,5 C 3,9 C 65 % 1007,9 hPa 0,0 l/m 5,6 km/h (1 Bft) O-SO 116 0 min 0,000 mm 1,4 UV-I 328 W/m 3,3 C 9,5 C 6,4 km/h (2 Bft) 95,83 %
10.03.2018 11:49 9,6 C 3,9 C 67 % 1007,9 hPa 0,0 l/m 5,2 km/h (1 Bft) O-SO 113 0 min 0,000 mm 1,4 UV-I 327 W/m 3,8 C 9,6 C 6,4 km/h (2 Bft) 100,00 %
10.03.2018 11:50 9,6 C 3,9 C 67 % 1007,9 hPa 0,0 l/m 5,5 km/h (1 Bft) O 93 0 min 0,000 mm 1,4 UV-I 326 W/m 3,8 C 9,6 C 9,7 km/h (2 Bft) 92,68 %
10.03.2018 11:51 9,6 C 3,9 C 66 % 1007,9 hPa 0,0 l/m 6,1 km/h (2 Bft) O-SO 109 0 min 0,000 mm 1,4 UV-I 327 W/m 3,6 C 9,6 C 9,7 km/h (2 Bft) 95,65 %
10.03.2018 11:52 9,6 C 3,9 C 66 % 1007,9 hPa 0,0 l/m 6,6 km/h (2 Bft) O-SO 107 0 min 0,000 mm 1,4 UV-I 329 W/m 3,6 C 9,5 C 9,7 km/h (2 Bft) 92,59 %
10.03.2018 11:53 9,6 C 3,9 C 66 % 1007,9 hPa 0,0 l/m 6,4 km/h (2 Bft) O-SO 111 0 min 0,000 mm 1,4 UV-I 329 W/m 3,6 C 9,6 C 9,7 km/h (2 Bft) 100,00 %
10.03.2018 11:54 9,7 C 3,9 C 66 % 1007,9 hPa 0,0 l/m 4,0 km/h (1 Bft) O-SO 111 0 min 0,000 mm 1,4 UV-I 330 W/m 3,7 C 9,7 C 6,4 km/h (2 Bft) 95,65 %
10.03.2018 11:55 9,6 C 3,9 C 64 % 1007,9 hPa 0,0 l/m 3,4 km/h (1 Bft) O 100 0 min 0,000 mm 1,4 UV-I 328 W/m 3,1 C 9,6 C 6,4 km/h (2 Bft) 91,67 %
10.03.2018 11:56 9,7 C 3,9 C 65 % 1008,0 hPa 0,0 l/m 4,5 km/h (1 Bft) O 100 0 min 0,000 mm 1,4 UV-I 324 W/m 3,4 C 9,7 C 4,8 km/h (1 Bft) 92,31 %
10.03.2018 11:57 9,7 C 3,9 C 65 % 1008,0 hPa 0,0 l/m 3,0 km/h (1 Bft) O 100 0 min 0,000 mm 1,4 UV-I 322 W/m 3,4 C 9,7 C 4,8 km/h (1 Bft) 96,67 %
10.03.2018 11:58 9,7 C 3,9 C 65 % 1008,0 hPa 0,0 l/m 3,2 km/h (1 Bft) O 98 0 min 0,000 mm 1,4 UV-I 322 W/m 3,4 C 9,7 C 4,8 km/h (1 Bft) 95,65 %
10.03.2018 11:59 9,7 C 3,9 C 66 % 1008,0 hPa 0,0 l/m 4,4 km/h (1 Bft) O 97 0 min 0,000 mm 1,4 UV-I 324 W/m 3,7 C 9,7 C 6,4 km/h (2 Bft) 95,83 %
10.03.2018 12:00 9,8 C 3,9 C 67 % 1008,0 hPa 0,0 l/m 5,8 km/h (2 Bft) O-SO 109 0 min 0,000 mm 1,4 UV-I 327 W/m 4,0 C 9,8 C 6,4 km/h (2 Bft) 92,86 %
10.03.2018 12:01 9,8 C 3,9 C 66 % 1008,0 hPa 0,0 l/m 4,8 km/h (1 Bft) O-SO 113 0 min 0,178 mm 1,4 UV-I 328 W/m 3,8 C 9,8 C 6,4 km/h (2 Bft) 96,15 %
10.03.2018 12:02 9,7 C 3,9 C 65 % 1008,0 hPa 0,0 l/m 3,3 km/h (1 Bft) O-SO 113 0 min 0,000 mm 1,4 UV-I 331 W/m 3,4 C 9,7 C 4,8 km/h (1 Bft) 95,65 %
10.03.2018 12:03 9,7 C 3,9 C 67 % 1008,0 hPa 0,0 l/m 3,2 km/h (1 Bft) O-SO 113 0 min 0,000 mm 1,5 UV-I 332 W/m 3,9 C 9,7 C 4,8 km/h (1 Bft) 91,67 %
10.03.2018 12:04 9,8 C 3,9 C 67 % 1008,0 hPa 0,0 l/m 2,0 km/h (1 Bft) O-SO 113 1 min 0,000 mm 1,5 UV-I 346 W/m 4,0 C 9,8 C 3,2 km/h (1 Bft) 100,00 %
10.03.2018 12:05 9,8 C 3,9 C 67 % 1008,0 hPa 0,0 l/m 2,6 km/h (1 Bft) O-SO 113 1 min 0,000 mm 1,5 UV-I 348 W/m 4,0 C 9,8 C 4,8 km/h (1 Bft) 86,67 %
10.03.2018 12:06 9,9 C 3,9 C 67 % 1007,9 hPa 0,0 l/m 2,4 km/h (1 Bft) O-SO 113 1 min 0,000 mm 1,5 UV-I 344 W/m 4,1 C 9,9 C 3,2 km/h (1 Bft) 100,00 %
10.03.2018 12:07 9,9 C 3,9 C 66 % 1007,9 hPa 0,0 l/m 3,3 km/h (1 Bft) O-NO 69 0 min 0,000 mm 1,5 UV-I 338 W/m 3,9 C 9,9 C 4,8 km/h (1 Bft) 94,74 %
10.03.2018 12:08 9,9 C 3,9 C 64 % 1007,9 hPa 0,0 l/m 3,6 km/h (1 Bft) O-NO 69 0 min 0,000 mm 1,4 UV-I 332 W/m 3,4 C 9,9 C 4,8 km/h (1 Bft) 96,55 %
10.03.2018 12:09 9,9 C 3,9 C 65 % 1007,9 hPa 0,0 l/m 5,8 km/h (2 Bft) O 100 0 min 0,000 mm 1,4 UV-I 330 W/m 3,6 C 9,9 C 9,7 km/h (2 Bft) 91,67 %
10.03.2018 12:10 9,9 C 3,9 C 65 % 1007,9 hPa 0,0 l/m 4,0 km/h (1 Bft) O 92 0 min 0,000 mm 1,4 UV-I 336 W/m 3,6 C 9,9 C 4,8 km/h (1 Bft) 91,30 %
10.03.2018 12:11 10,0 C 3,9 C 66 % 1007,9 hPa 0,0 l/m 5,0 km/h (1 Bft) O 92 0 min 0,000 mm 1,4 UV-I 334 W/m 3,9 C 10,0 C 6,4 km/h (2 Bft) 100,00 %
10.03.2018 12:12 10,0 C 3,9 C 64 % 1007,9 hPa 0,0 l/m 5,0 km/h (1 Bft) O 89 0 min 0,000 mm 1,4 UV-I 331 W/m 3,5 C 10,0 C 6,4 km/h (2 Bft) 91,30 %
10.03.2018 12:13 10,0 C 3,9 C 65 % 1007,9 hPa 0,0 l/m 4,2 km/h (1 Bft) O 89 0 min 0,000 mm 1,4 UV-I 326 W/m 3,7 C 10,0 C 4,8 km/h (1 Bft) 100,00 %
10.03.2018 12:14 10,1 C 3,9 C 65 % 1007,9 hPa 0,0 l/m 5,0 km/h (1 Bft) O-NO 76 0 min 0,000 mm 1,4 UV-I 320 W/m 3,8 C 10,1 C 6,4 km/h (2 Bft) 93,33 %
10.03.2018 12:15 10,1 C 3,9 C 65 % 1007,9 hPa 0,0 l/m 4,1 km/h (1 Bft) O 80 0 min 0,000 mm 1,4 UV-I 316 W/m 3,8 C 10,1 C 6,4 km/h (2 Bft) 96,15 %
10.03.2018 12:16 10,1 C 3,9 C 64 % 1007,9 hPa 0,0 l/m 5,0 km/h (1 Bft) O 80 0 min 0,000 mm 1,4 UV-I 315 W/m 3,6 C 10,1 C 6,4 km/h (2 Bft) 91,67 %
10.03.2018 12:17 10,1 C 3,9 C 64 % 1007,9 hPa 0,0 l/m 3,8 km/h (1 Bft) O 80 0 min 0,000 mm 1,4 UV-I 309 W/m 3,6 C 10,1 C 4,8 km/h (1 Bft) 100,00 %
10.03.2018 12:18 10,0 C 3,9 C 64 % 1007,8 hPa 0,0 l/m 4,3 km/h (1 Bft) O 80 0 min 0,000 mm 1,3 UV-I 300 W/m 3,5 C 10,0 C 6,4 km/h (2 Bft) 93,33 %
10.03.2018 12:19 10,0 C 3,9 C 65 % 1007,8 hPa 0,0 l/m 2,9 km/h (1 Bft) O 80 0 min 0,000 mm 1,3 UV-I 287 W/m 3,7 C 10,0 C 3,2 km/h (1 Bft) 92,31 %
10.03.2018 12:20 10,1 C 3,9 C 65 % 1007,8 hPa 0,0 l/m 4,0 km/h (1 Bft) O-NO 77 0 min 0,000 mm 1,2 UV-I 271 W/m 3,8 C 10,1 C 6,4 km/h (2 Bft) 100,00 %
10.03.2018 12:21 10,2 C 3,9 C 67 % 1007,8 hPa 0,0 l/m 5,1 km/h (1 Bft) O-NO 62 0 min 0,000 mm 1,2 UV-I 255 W/m 4,4 C 10,2 C 6,4 km/h (2 Bft) 92,31 %
10.03.2018 12:22 10,3 C 3,9 C 67 % 1007,8 hPa 0,0 l/m 4,6 km/h (1 Bft) NO 43 0 min 0,000 mm 1,2 UV-I 243 W/m 4,4 C 10,3 C 6,4 km/h (2 Bft) 100,00 %
10.03.2018 12:23 10,3 C 3,9 C 68 % 1007,7 hPa 0,0 l/m 5,1 km/h (1 Bft) NO 42 0 min 0,000 mm 1,1 UV-I 231 W/m 4,7 C 10,3 C 6,4 km/h (2 Bft) 93,10 %
10.03.2018 12:24 10,3 C 3,9 C 67 % 1007,7 hPa 0,0 l/m 4,2 km/h (1 Bft) NO 42 0 min 0,000 mm 1,1 UV-I 222 W/m 4,4 C 10,3 C 6,4 km/h (2 Bft) 100,00 %
10.03.2018 12:25 10,3 C 3,9 C 66 % 1007,7 hPa 0,0 l/m 3,1 km/h (1 Bft) NO 42 0 min 0,000 mm 1,1 UV-I 214 W/m 4,2 C 10,3 C 4,8 km/h (1 Bft) 95,65 %
10.03.2018 12:26 10,2 C 3,9 C 66 % 1007,7 hPa 0,0 l/m 4,8 km/h (1 Bft) NO 42 0 min 0,000 mm 1,1 UV-I 210 W/m 4,1 C 10,2 C 6,4 km/h (2 Bft) 100,00 %
10.03.2018 12:27 10,2 C 3,9 C 67 % 1007,6 hPa 0,0 l/m 4,8 km/h (1 Bft) NO 42 0 min 0,000 mm 1,1 UV-I 210 W/m 4,4 C 10,2 C 4,8 km/h (1 Bft) 91,67 %
10.03.2018 12:28 10,2 C 3,9 C 66 % 1007,6 hPa 0,0 l/m 4,6 km/h (1 Bft) NO 53 0 min 0,000 mm 1,1 UV-I 215 W/m 4,1 C 10,2 C 6,4 km/h (2 Bft) 94,74 %
10.03.2018 12:29 10,2 C 3,9 C 67 % 1007,7 hPa 0,0 l/m 5,3 km/h (1 Bft) NO 51 0 min 0,000 mm 1,1 UV-I 224 W/m 4,4 C 10,2 C 8,0 km/h (2 Bft) 100,00 %
10.03.2018 12:30 10,3 C 3,9 C 68 % 1007,7 hPa 0,0 l/m 5,8 km/h (2 Bft) NO 51 0 min 0,000 mm 1,1 UV-I 234 W/m 4,7 C 10,3 C 8,0 km/h (2 Bft) 95,83 %
10.03.2018 12:31 10,3 C 3,9 C 67 % 1007,7 hPa 0,0 l/m 6,1 km/h (2 Bft) NO 51 0 min 0,000 mm 1,2 UV-I 245 W/m 4,4 C 10,3 C 8,0 km/h (2 Bft) 100,00 %
10.03.2018 12:32 10,3 C 3,9 C 66 % 1007,7 hPa 0,0 l/m 5,2 km/h (1 Bft) NO 51 0 min 0,000 mm 1,2 UV-I 255 W/m 4,2 C 10,3 C 6,4 km/h (2 Bft) 93,33 %
10.03.2018 12:33 10,3 C 3,9 C 68 % 1007,7 hPa 0,0 l/m 4,2 km/h (1 Bft) NO 51 0 min 0,000 mm 1,2 UV-I 262 W/m 4,7 C 10,3 C 4,8 km/h (1 Bft) 100,00 %
10.03.2018 12:34 10,3 C 3,9 C 67 % 1007,7 hPa 0,0 l/m 3,7 km/h (1 Bft) NO 51 0 min 0,000 mm 1,2 UV-I 269 W/m 4,4 C 10,3 C 4,8 km/h (1 Bft) 96,55 %
10.03.2018 12:35 10,3 C 3,9 C 67 % 1007,7 hPa 0,0 l/m 5,7 km/h (1 Bft) NO 51 0 min 0,000 mm 1,2 UV-I 272 W/m 4,4 C 10,3 C 6,4 km/h (2 Bft) 100,00 %
10.03.2018 12:36 10,4 C 3,9 C 68 % 1007,6 hPa 0,0 l/m 5,4 km/h (1 Bft) NO 53 0 min 0,000 mm 1,2 UV-I 273 W/m 4,8 C 10,4 C 6,4 km/h (2 Bft) 96,15 %
10.03.2018 12:37 10,4 C 3,9 C 67 % 1007,6 hPa 0,0 l/m 4,7 km/h (1 Bft) O-NO 72 0 min 0,000 mm 1,2 UV-I 275 W/m 4,5 C 10,4 C 6,4 km/h (2 Bft) 100,00 %
10.03.2018 12:38 10,4 C 3,9 C 67 % 1007,6 hPa 0,0 l/m 6,9 km/h (2 Bft) N-NO 30 0 min 0,000 mm 1,2 UV-I 279 W/m 4,5 C 10,0 C 8,0 km/h (2 Bft) 96,55 %
10.03.2018 12:39 10,5 C 3,9 C 68 % 1007,6 hPa 0,0 l/m 6,8 km/h (2 Bft) NO 52 0 min 0,000 mm 1,2 UV-I 283 W/m 4,8 C 10,2 C 8,0 km/h (2 Bft) 96,30 %
10.03.2018 12:40 10,6 C 3,9 C 69 % 1007,6 hPa 0,0 l/m 4,3 km/h (1 Bft) N 349 0 min 0,000 mm 1,2 UV-I 286 W/m 5,2 C 10,6 C 6,4 km/h (2 Bft) 100,00 %
10.03.2018 12:41 10,6 C 3,9 C 71 % 1007,6 hPa 0,0 l/m 4,0 km/h (1 Bft) N 355 0 min 0,000 mm 1,3 UV-I 295 W/m 5,6 C 10,6 C 6,4 km/h (2 Bft) 96,30 %
10.03.2018 12:42 10,6 C 3,9 C 70 % 1007,6 hPa 0,0 l/m 5,7 km/h (1 Bft) N-NO 30 0 min 0,000 mm 1,3 UV-I 300 W/m 5,4 C 10,6 C 8,0 km/h (2 Bft) 100,00 %
10.03.2018 12:43 10,7 C 3,9 C 72 % 1007,5 hPa 0,0 l/m 7,7 km/h (2 Bft) N-NO 14 0 min 0,000 mm 1,3 UV-I 305 W/m 5,9 C 9,8 C 11,3 km/h (2 Bft) 95,83 %
10.03.2018 12:44 10,7 C 3,9 C 70 % 1007,5 hPa 0,0 l/m 6,1 km/h (2 Bft) N-NO 19 0 min 0,000 mm 1,3 UV-I 315 W/m 5,5 C 10,7 C 8,0 km/h (2 Bft) 100,00 %
10.03.2018 12:45 10,7 C 3,9 C 69 % 1007,6 hPa 0,0 l/m 4,7 km/h (1 Bft) N-NO 26 0 min 0,000 mm 1,3 UV-I 317 W/m 5,2 C 10,7 C 6,4 km/h (2 Bft) 91,67 %
10.03.2018 12:46 10,7 C 3,9 C 69 % 1007,6 hPa 0,0 l/m 4,0 km/h (1 Bft) N-NO 26 0 min 0,000 mm 1,3 UV-I 315 W/m 5,2 C 10,7 C 4,8 km/h (1 Bft) 100,00 %
10.03.2018 12:47 10,8 C 3,9 C 68 % 1007,5 hPa 0,0 l/m 3,4 km/h (1 Bft) NO 44 0 min 0,000 mm 1,3 UV-I 314 W/m 5,1 C 10,8 C 6,4 km/h (2 Bft) 95,83 %
10.03.2018 12:48 10,8 C 3,9 C 70 % 1007,5 hPa 0,0 l/m 6,7 km/h (2 Bft) N-NO 13 0 min 0,000 mm 1,3 UV-I 313 W/m 5,6 C 10,6 C 8,0 km/h (2 Bft) 100,00 %
10.03.2018 12:49 10,8 C 3,9 C 70 % 1007,5 hPa 0,0 l/m 5,7 km/h (1 Bft) NO 50 0 min 0,000 mm 1,3 UV-I 313 W/m 5,6 C 10,8 C 8,0 km/h (2 Bft) 96,15 %
10.03.2018 12:50 10,8 C 3,9 C 68 % 1007,5 hPa 0,0 l/m 6,8 km/h (2 Bft) NO 46 0 min 0,000 mm 1,3 UV-I 311 W/m 5,1 C 10,5 C 8,0 km/h (2 Bft) 96,15 %
10.03.2018 12:51 10,8 C 3,9 C 68 % 1007,5 hPa 0,0 l/m 5,8 km/h (2 Bft) N 5 0 min 0,000 mm 1,3 UV-I 314 W/m 5,1 C 10,8 C 8,0 km/h (2 Bft) 100,00 %
10.03.2018 12:52 10,8 C 3,9 C 69 % 1007,5 hPa 0,0 l/m 5,5 km/h (1 Bft) N 5 0 min 0,000 mm 1,3 UV-I 319 W/m 5,3 C 10,8 C 6,4 km/h (2 Bft) 96,88 %
10.03.2018 12:53 10,8 C 3,9 C 69 % 1007,5 hPa 0,0 l/m 5,4 km/h (1 Bft) NO 38 1 min 0,000 mm 1,3 UV-I 336 W/m 5,3 C 10,8 C 6,4 km/h (2 Bft) 95,65 %
10.03.2018 12:54 10,8 C 3,9 C 68 % 1007,5 hPa 0,0 l/m 4,4 km/h (1 Bft) NO 38 0 min 0,000 mm 1,3 UV-I 334 W/m 5,1 C 10,8 C 6,4 km/h (2 Bft) 100,00 %
10.03.2018 12:55 10,8 C 3,9 C 68 % 1007,5 hPa 0,0 l/m 5,6 km/h (1 Bft) N 5 0 min 0,000 mm 1,3 UV-I 322 W/m 5,1 C 10,8 C 9,7 km/h (2 Bft) 100,00 %
10.03.2018 12:56 10,8 C 3,9 C 68 % 1007,5 hPa 0,0 l/m 7,2 km/h (2 Bft) N-NW 329 0 min 0,000 mm 1,3 UV-I 315 W/m 5,1 C 10,2 C 9,7 km/h (2 Bft) 100,00 %
10.03.2018 12:57 10,7 C 3,9 C 66 % 1007,6 hPa 0,0 l/m 5,5 km/h (1 Bft) N 5 0 min 0,000 mm 1,3 UV-I 311 W/m 4,6 C 10,7 C 6,4 km/h (2 Bft) 100,00 %
10.03.2018 12:58 10,7 C 3,9 C 67 % 1007,5 hPa 0,0 l/m 6,6 km/h (2 Bft) N-NO 23 0 min 0,000 mm 1,3 UV-I 305 W/m 4,8 C 10,6 C 8,0 km/h (2 Bft) 100,00 %
10.03.2018 12:59 10,7 C 3,9 C 68 % 1007,5 hPa 0,0 l/m 5,1 km/h (1 Bft) O-NO 57 0 min 0,000 mm 1,3 UV-I 310 W/m 5,0 C 10,7 C 6,4 km/h (2 Bft) 100,00 %
10.03.2018 13:00 10,8 C 3,9 C 69 % 1007,5 hPa 0,0 l/m 3,2 km/h (1 Bft) O-NO 57 0 min 0,152 mm 1,3 UV-I 315 W/m 5,3 C 10,8 C 4,8 km/h (1 Bft) 100,00 %
10.03.2018 13:01 10,8 C 3,9 C 66 % 1007,6 hPa 0,0 l/m 4,5 km/h (1 Bft) O-NO 61 0 min 0,000 mm 1,3 UV-I 312 W/m 4,7 C 10,8 C 4,8 km/h (1 Bft) 100,00 %
10.03.2018 13:02 10,8 C 3,9 C 68 % 1007,5 hPa 0,0 l/m 4,3 km/h (1 Bft) O-NO 61 0 min 0,000 mm 1,3 UV-I 312 W/m 5,1 C 10,8 C 4,8 km/h (1 Bft) 100,00 %
10.03.2018 13:03 10,9 C 3,9 C 68 % 1007,5 hPa 0,0 l/m 6,7 km/h (2 Bft) NO 47 0 min 0,000 mm 1,3 UV-I 310 W/m 5,2 C 10,7 C 11,3 km/h (2 Bft) 100,00 %
10.03.2018 13:04 10,9 C 3,9 C 68 % 1007,5 hPa 0,0 l/m 4,3 km/h (1 Bft) NO 49 0 min 0,000 mm 1,3 UV-I 311 W/m 5,2 C 10,9 C 6,4 km/h (2 Bft) 100,00 %
10.03.2018 13:05 11,0 C 3,9 C 68 % 1007,6 hPa 0,0 l/m 3,4 km/h (1 Bft) NO 49 0 min 0,000 mm 1,3 UV-I 307 W/m 5,3 C 11,0 C 4,8 km/h (1 Bft) 93,33 %
10.03.2018 13:06 11,1 C 3,9 C 69 % 1007,5 hPa 0,0 l/m 5,4 km/h (1 Bft) NO 44 0 min 0,000 mm 1,3 UV-I 306 W/m 5,6 C 11,1 C 6,4 km/h (2 Bft) 100,00 %
10.03.2018 13:07 11,1 C 3,9 C 67 % 1007,5 hPa 0,0 l/m 3,4 km/h (1 Bft) NO 44 0 min 0,000 mm 1,2 UV-I 303 W/m 5,2 C 11,1 C 4,8 km/h (1 Bft) 100,00 %
10.03.2018 13:08 11,1 C 3,9 C 67 % 1007,5 hPa 0,0 l/m 5,7 km/h (1 Bft) N-NO 29 0 min 0,000 mm 1,2 UV-I 296 W/m 5,2 C 11,1 C 8,0 km/h (2 Bft) 100,00 %
10.03.2018 13:09 11,1 C 3,9 C 68 % 1007,5 hPa 0,0 l/m 6,4 km/h (2 Bft) N-NO 29 0 min 0,000 mm 1,2 UV-I 292 W/m 5,4 C 11,1 C 8,0 km/h (2 Bft) 100,00 %
10.03.2018 13:10 11,0 C 3,9 C 67 % 1007,5 hPa 0,0 l/m 4,8 km/h (1 Bft) NO 37 0 min 0,000 mm 1,2 UV-I 286 W/m 5,1 C 11,0 C 6,4 km/h (2 Bft) 100,00 %
10.03.2018 13:11 10,9 C 3,9 C 67 % 1007,6 hPa 0,0 l/m 5,9 km/h (2 Bft) N 10 0 min 0,000 mm 1,2 UV-I 280 W/m 5,0 C 10,9 C 8,0 km/h (2 Bft) 100,00 %
10.03.2018 13:12 10,9 C 3,9 C 68 % 1007,5 hPa 0,0 l/m 5,9 km/h (2 Bft) N 10 0 min 0,000 mm 1,2 UV-I 275 W/m 5,2 C 10,9 C 8,0 km/h (2 Bft) 100,00 %
10.03.2018 13:13 10,9 C 3,9 C 67 % 1007,5 hPa 0,0 l/m 5,4 km/h (1 Bft) N 9 0 min 0,000 mm 1,2 UV-I 271 W/m 5,0 C 10,9 C 6,4 km/h (2 Bft) 96,30 %
10.03.2018 13:14 10,8 C 3,9 C 66 % 1007,5 hPa 0,0 l/m 3,5 km/h (1 Bft) N 9 0 min 0,000 mm 1,2 UV-I 267 W/m 4,7 C 10,8 C 4,8 km/h (1 Bft) 95,65 %
10.03.2018 13:15 10,8 C 3,9 C 65 % 1007,6 hPa 0,0 l/m 1,4 km/h (1 Bft) N 9 0 min 0,000 mm 1,1 UV-I 264 W/m 4,5 C 10,8 C 3,2 km/h (1 Bft) 100,00 %
10.03.2018 13:16 10,8 C 3,9 C 65 % 1007,6 hPa 0,0 l/m 0,8 km/h (0 Bft) N 9 0 min 0,000 mm 1,1 UV-I 261 W/m 4,5 C 10,8 C 3,2 km/h (1 Bft) 100,00 %
10.03.2018 13:17 10,7 C 3,9 C 65 % 1007,5 hPa 0,0 l/m 1,0 km/h (0 Bft) N 9 0 min 0,000 mm 1,1 UV-I 258 W/m 4,4 C 10,7 C 3,2 km/h (1 Bft) 100,00 %
10.03.2018 13:18 10,7 C 3,9 C 66 % 1007,5 hPa 0,0 l/m 2,5 km/h (1 Bft) N 9 0 min 0,000 mm 1,1 UV-I 256 W/m 4,6 C 10,7 C 4,8 km/h (1 Bft) 100,00 %
10.03.2018 13:19 10,7 C 3,9 C 66 % 1007,5 hPa 0,0 l/m 3,1 km/h (1 Bft) N 9 0 min 0,000 mm 1,1 UV-I 251 W/m 4,6 C 10,7 C 3,2 km/h (1 Bft) 100,00 %
10.03.2018 13:20 10,7 C 3,9 C 65 % 1007,5 hPa 0,0 l/m 3,1 km/h (1 Bft) N 9 0 min 0,000 mm 1,1 UV-I 249 W/m 4,4 C 10,7 C 4,8 km/h (1 Bft) 100,00 %
10.03.2018 13:21 10,7 C 3,9 C 67 % 1007,5 hPa 0,0 l/m 1,7 km/h (1 Bft) N 9 0 min 0,000 mm 1,1 UV-I 245 W/m 4,8 C 10,7 C 3,2 km/h (1 Bft) 100,00 %
10.03.2018 13:22 10,8 C 3,9 C 67 % 1007,5 hPa 0,0 l/m 3,2 km/h (1 Bft) N 5 0 min 0,000 mm 1,1 UV-I 242 W/m 4,9 C 10,8 C 4,8 km/h (1 Bft) 95,65 %
10.03.2018 13:23 10,8 C 3,9 C 67 % 1007,5 hPa 0,0 l/m 3,6 km/h (1 Bft) N 5 0 min 0,000 mm 1,0 UV-I 240 W/m 4,9 C 10,8 C 4,8 km/h (1 Bft) 100,00 %
10.03.2018 13:24 10,8 C 3,9 C 67 % 1007,5 hPa 0,0 l/m 4,4 km/h (1 Bft) N-NO 32 0 min 0,000 mm 1,0 UV-I 236 W/m 4,9 C 10,8 C 8,0 km/h (2 Bft) 100,00 %
10.03.2018 13:25 10,9 C 3,9 C 69 % 1007,6 hPa 0,0 l/m 4,7 km/h (1 Bft) N-NO 32 0 min 0,000 mm 1,0 UV-I 232 W/m 5,4 C 10,9 C 6,4 km/h (2 Bft) 100,00 %
10.03.2018 13:26 10,9 C 3,9 C 69 % 1007,5 hPa 0,0 l/m 3,5 km/h (1 Bft) N-NO 32 0 min 0,000 mm 1,0 UV-I 229 W/m 5,4 C 10,9 C 4,8 km/h (1 Bft) 100,00 %
10.03.2018 13:27 10,9 C 3,9 C 68 % 1007,5 hPa 0,0 l/m 2,8 km/h (1 Bft) N-NO 32 0 min 0,000 mm 1,0 UV-I 226 W/m 5,2 C 10,9 C 4,8 km/h (1 Bft) 100,00 %
10.03.2018 13:28 10,9 C 3,9 C 68 % 1007,5 hPa 0,0 l/m 2,1 km/h (1 Bft) N-NO 32 0 min 0,000 mm 1,0 UV-I 224 W/m 5,2 C 10,9 C 3,2 km/h (1 Bft) 100,00 %
10.03.2018 13:29 10,8 C 3,9 C 66 % 1007,5 hPa 0,0 l/m 1,9 km/h (1 Bft) N-NO 32 0 min 0,000 mm 0,9 UV-I 222 W/m 4,7 C 10,8 C 3,2 km/h (1 Bft) 96,15 %
10.03.2018 13:30 10,9 C 3,9 C 66 % 1007,5 hPa 0,0 l/m 3,1 km/h (1 Bft) N-NO 32 0 min 0,000 mm 0,9 UV-I 220 W/m 4,8 C 10,9 C 4,8 km/h (1 Bft) 100,00 %
10.03.2018 13:31 10,9 C 3,9 C 67 % 1007,5 hPa 0,0 l/m 2,6 km/h (1 Bft) N-NO 32 0 min 0,000 mm 0,9 UV-I 218 W/m 5,0 C 10,9 C 3,2 km/h (1 Bft) 100,00 %
10.03.2018 13:32 10,9 C 3,9 C 67 % 1007,5 hPa 0,0 l/m 1,4 km/h (1 Bft) N-NO 32 0 min 0,000 mm 0,9 UV-I 216 W/m 5,0 C 10,9 C 1,6 km/h (1 Bft) 96,30 %
10.03.2018 13:33 11,0 C 3,9 C 65 % 1007,5 hPa 0,0 l/m 0,9 km/h (0 Bft) N-NO 32 0 min 0,000 mm 0,9 UV-I 216 W/m 4,7 C 11,0 C 1,6 km/h (1 Bft) 100,00 %
10.03.2018 13:34 11,0 C 3,9 C 64 % 1007,5 hPa 0,0 l/m 0,1 km/h (0 Bft) N-NO 32 0 min 0,000 mm 0,9 UV-I 216 W/m 4,5 C 11,0 C 1,6 km/h (1 Bft) 100,00 %
10.03.2018 13:35 11,0 C 3,9 C 64 % 1007,5 hPa 0,0 l/m 0,0 km/h (0 Bft) N-NO 32 0 min 0,000 mm 0,9 UV-I 216 W/m 4,5 C 11,0 C 0,0 km/h (0 Bft) 95,65 %
10.03.2018 13:36 10,9 C 3,9 C 65 % 1007,5 hPa 0,0 l/m 0,0 km/h (0 Bft) N-NO 32 0 min 0,000 mm 0,9 UV-I 216 W/m 4,6 C 10,9 C 0,0 km/h (0 Bft) 100,00 %
10.03.2018 13:37 10,9 C 3,9 C 65 % 1007,5 hPa 0,0 l/m 0,0 km/h (0 Bft) N-NO 32 0 min 0,000 mm 0,9 UV-I 216 W/m 4,6 C 10,9 C 0,0 km/h (0 Bft) 100,00 %
10.03.2018 13:38 10,9 C 3,9 C 66 % 1007,5 hPa 0,0 l/m 0,2 km/h (0 Bft) N-NO 32 0 min 0,000 mm 0,9 UV-I 216 W/m 4,8 C 10,9 C 1,6 km/h (1 Bft) 100,00 %
10.03.2018 13:39 10,9 C 3,9 C 65 % 1007,5 hPa 0,0 l/m 3,2 km/h (1 Bft) O-NO 67 0 min 0,000 mm 0,9 UV-I 216 W/m 4,6 C 10,9 C 4,8 km/h (1 Bft) 100,00 %
10.03.2018 13:40 10,9 C 3,9 C 65 % 1007,5 hPa 0,0 l/m 0,9 km/h (0 Bft) O-NO 67 0 min 0,000 mm 0,9 UV-I 216 W/m 4,6 C 10,9 C 1,6 km/h (1 Bft) 100,00 %
10.03.2018 13:41 10,9 C 3,9 C 65 % 1007,5 hPa 0,0 l/m 1,0 km/h (0 Bft) O-NO 67 0 min 0,000 mm 0,9 UV-I 216 W/m 4,6 C 10,9 C 1,6 km/h (1 Bft) 95,65 %
10.03.2018 13:42 10,9 C 3,9 C 65 % 1007,5 hPa 0,0 l/m 0,0 km/h (0 Bft) O-NO 67 0 min 0,000 mm 0,9 UV-I 216 W/m 4,6 C 10,9 C 0,0 km/h (0 Bft) 100,00 %
10.03.2018 13:43 10,9 C 3,9 C 68 % 1007,5 hPa 0,0 l/m 0,0 km/h (0 Bft) O-NO 67 0 min 0,000 mm 0,9 UV-I 218 W/m 5,2 C 10,9 C 0,0 km/h (0 Bft) 100,00 %
10.03.2018 13:44 10,9 C 3,9 C 65 % 1007,5 hPa 0,0 l/m 0,1 km/h (0 Bft) O-NO 67 0 min 0,000 mm 0,9 UV-I 220 W/m 4,6 C 10,9 C 1,6 km/h (1 Bft) 95,65 %
10.03.2018 13:45 10,8 C 3,9 C 64 % 1007,5 hPa 0,0 l/m 2,6 km/h (1 Bft) O-NO 67 0 min 0,000 mm 0,9 UV-I 221 W/m 4,3 C 10,8 C 4,8 km/h (1 Bft) 100,00 %
10.03.2018 13:46 10,8 C 3,9 C 64 % 1007,5 hPa 0,0 l/m 2,1 km/h (1 Bft) O-NO 67 0 min 0,000 mm 0,9 UV-I 224 W/m 4,3 C 10,8 C 3,2 km/h (1 Bft) 96,15 %
10.03.2018 13:47 10,8 C 3,9 C 64 % 1007,5 hPa 0,0 l/m 1,4 km/h (1 Bft) O-NO 67 0 min 0,000 mm 0,9 UV-I 226 W/m 4,3 C 10,8 C 3,2 km/h (1 Bft) 96,55 %
10.03.2018 13:48 10,8 C 3,9 C 65 % 1007,5 hPa 0,0 l/m 2,7 km/h (1 Bft) O-NO 67 0 min 0,000 mm 0,9 UV-I 229 W/m 4,5 C 10,8 C 3,2 km/h (1 Bft) 100,00 %
10.03.2018 13:49 10,8 C 3,9 C 66 % 1007,5 hPa 0,0 l/m 2,1 km/h (1 Bft) O-NO 67 0 min 0,000 mm 0,9 UV-I 229 W/m 4,7 C 10,8 C 3,2 km/h (1 Bft) 92,59 %
10.03.2018 13:50 10,9 C 3,9 C 67 % 1007,5 hPa 0,0 l/m 1,7 km/h (1 Bft) O-NO 67 0 min 0,000 mm 0,9 UV-I 230 W/m 5,0 C 10,9 C 3,2 km/h (1 Bft) 100,00 %
10.03.2018 13:51 10,9 C 3,9 C 66 % 1007,4 hPa 0,0 l/m 0,8 km/h (0 Bft) O-NO 67 0 min 0,000 mm 0,9 UV-I 231 W/m 4,8 C 10,9 C 1,6 km/h (1 Bft) 95,83 %
10.03.2018 13:52 11,0 C 3,9 C 64 % 1007,5 hPa 0,0 l/m 0,3 km/h (0 Bft) O-NO 67 0 min 0,000 mm 0,9 UV-I 232 W/m 4,5 C 11,0 C 1,6 km/h (1 Bft) 95,65 %
10.03.2018 13:53 11,1 C 3,9 C 64 % 1007,5 hPa 0,0 l/m 0,0 km/h (0 Bft) O-NO 67 0 min 0,000 mm 0,9 UV-I 232 W/m 4,6 C 11,1 C 0,0 km/h (0 Bft) 95,83 %
10.03.2018 13:54 10,9 C 3,9 C 63 % 1007,4 hPa 0,0 l/m 0,0 km/h (0 Bft) O-NO 67 0 min 0,000 mm 0,9 UV-I 232 W/m 4,1 C 10,9 C 0,0 km/h (0 Bft) 100,00 %
10.03.2018 13:55 10,9 C 3,9 C 64 % 1007,4 hPa 0,0 l/m 0,0 km/h (0 Bft) O-NO 67 0 min 0,000 mm 0,9 UV-I 232 W/m 4,4 C 10,9 C 0,0 km/h (0 Bft) 95,83 %
10.03.2018 13:56 10,9 C 3,9 C 64 % 1007,4 hPa 0,0 l/m 0,0 km/h (0 Bft) O-NO 67 0 min 0,000 mm 0,9 UV-I 231 W/m 4,4 C 10,9 C 0,0 km/h (0 Bft) 95,65 %
10.03.2018 13:57 10,9 C 3,9 C 64 % 1007,4 hPa 0,0 l/m 0,1 km/h (0 Bft) O-NO 67 0 min 0,000 mm 0,9 UV-I 230 W/m 4,4 C 10,9 C 1,6 km/h (1 Bft) 100,00 %
10.03.2018 13:58 10,9 C 3,9 C 64 % 1007,4 hPa 0,0 l/m 0,0 km/h (0 Bft) O-NO 67 0 min 0,000 mm 0,9 UV-I 230 W/m 4,4 C 10,9 C 0,0 km/h (0 Bft) 95,65 %
10.03.2018 13:59 10,9 C 3,9 C 65 % 1007,4 hPa 0,0 l/m 0,0 km/h (0 Bft) O-NO 67 0 min 0,000 mm 0,9 UV-I 230 W/m 4,6 C 10,9 C 0,0 km/h (0 Bft) 100,00 %
10.03.2018 14:00 11,0 C 3,9 C 66 % 1007,4 hPa 0,0 l/m 0,0 km/h (0 Bft) O-NO 67 0 min 0,000 mm 0,9 UV-I 229 W/m 4,9 C 11,0 C 0,0 km/h (0 Bft) 96,15 %
10.03.2018 14:01 11,1 C 3,9 C 66 % 1007,4 hPa 0,0 l/m 0,4 km/h (0 Bft) O-NO 67 0 min 0,127 mm 0,9 UV-I 229 W/m 5,0 C 11,1 C 1,6 km/h (1 Bft) 100,00 %
10.03.2018 14:02 11,1 C 3,9 C 65 % 1007,4 hPa 0,0 l/m 2,1 km/h (1 Bft) O-NO 67 0 min 0,000 mm 0,9 UV-I 227 W/m 4,8 C 11,1 C 3,2 km/h (1 Bft) 96,30 %
10.03.2018 14:03 11,0 C 3,9 C 64 % 1007,4 hPa 0,0 l/m 1,9 km/h (1 Bft) O-NO 67 0 min 0,000 mm 0,9 UV-I 226 W/m 4,5 C 11,0 C 3,2 km/h (1 Bft) 96,15 %
10.03.2018 14:04 11,0 C 3,9 C 65 % 1007,4 hPa 0,0 l/m 1,2 km/h (1 Bft) O-NO 67 0 min 0,000 mm 0,9 UV-I 223 W/m 4,7 C 11,0 C 3,2 km/h (1 Bft) 100,00 %
10.03.2018 14:05 10,9 C 3,9 C 64 % 1007,5 hPa 0,0 l/m 0,8 km/h (0 Bft) O-NO 67 0 min 0,000 mm 0,9 UV-I 221 W/m 4,4 C 10,9 C 1,6 km/h (1 Bft) 93,33 %
10.03.2018 14:06 11,1 C 3,9 C 66 % 1007,5 hPa 0,0 l/m 0,8 km/h (0 Bft) O-NO 67 0 min 0,000 mm 0,9 UV-I 221 W/m 5,0 C 11,1 C 1,6 km/h (1 Bft) 100,00 %
10.03.2018 14:07 11,1 C 3,9 C 66 % 1007,5 hPa 0,0 l/m 1,5 km/h (1 Bft) O-NO 67 0 min 0,000 mm 0,9 UV-I 221 W/m 5,0 C 11,1 C 3,2 km/h (1 Bft) 96,15 %
10.03.2018 14:08 11,2 C 3,9 C 65 % 1007,5 hPa 0,0 l/m 1,5 km/h (1 Bft) O-NO 67 0 min 0,000 mm 0,9 UV-I 220 W/m 4,9 C 11,2 C 3,2 km/h (1 Bft) 100,00 %
10.03.2018 14:09 11,2 C 3,9 C 65 % 1007,4 hPa 0,0 l/m 1,1 km/h (1 Bft) O-NO 67 0 min 0,000 mm 0,9 UV-I 220 W/m 4,9 C 11,2 C 1,6 km/h (1 Bft) 95,65 %
10.03.2018 14:10 11,2 C 3,9 C 66 % 1007,4 hPa 0,0 l/m 0,8 km/h (0 Bft) O-NO 67 0 min 0,000 mm 0,9 UV-I 221 W/m 5,1 C 11,2 C 1,6 km/h (1 Bft) 100,00 %
10.03.2018 14:11 11,2 C 3,9 C 65 % 1007,4 hPa 0,0 l/m 0,8 km/h (0 Bft) O-NO 67 0 min 0,000 mm 0,9 UV-I 223 W/m 4,9 C 11,2 C 1,6 km/h (1 Bft) 96,15 %
10.03.2018 14:12 11,3 C 3,9 C 65 % 1007,4 hPa 0,0 l/m 0,9 km/h (0 Bft) O-NO 67 0 min 0,000 mm 0,9 UV-I 223 W/m 5,0 C 11,3 C 1,6 km/h (1 Bft) 95,83 %
10.03.2018 14:13 11,2 C 3,9 C 66 % 1007,4 hPa 0,0 l/m 2,0 km/h (1 Bft) O-NO 67 0 min 0,000 mm 0,9 UV-I 223 W/m 5,1 C 11,2 C 3,2 km/h (1 Bft) 100,00 %
10.03.2018 14:14 11,3 C 3,9 C 65 % 1007,4 hPa 0,0 l/m 2,2 km/h (1 Bft) O-NO 67 0 min 0,000 mm 0,9 UV-I 223 W/m 5,0 C 11,3 C 3,2 km/h (1 Bft) 100,00 %
10.03.2018 14:15 11,3 C 3,9 C 65 % 1007,4 hPa 0,0 l/m 2,1 km/h (1 Bft) O-NO 66 0 min 0,000 mm 0,9 UV-I 223 W/m 5,0 C 11,3 C 3,2 km/h (1 Bft) 100,00 %
10.03.2018 14:16 11,3 C 3,9 C 65 % 1007,5 hPa 0,0 l/m 3,0 km/h (1 Bft) NO 34 0 min 0,000 mm 0,9 UV-I 222 W/m 5,0 C 11,3 C 4,8 km/h (1 Bft) 100,00 %
10.03.2018 14:17 11,3 C 3,9 C 64 % 1007,4 hPa 0,0 l/m 3,2 km/h (1 Bft) NO 34 0 min 0,000 mm 0,9 UV-I 220 W/m 4,7 C 11,3 C 4,8 km/h (1 Bft) 100,00 %
10.03.2018 14:18 11,2 C 3,9 C 64 % 1007,5 hPa 0,0 l/m 2,9 km/h (1 Bft) NO 34 0 min 0,000 mm 0,8 UV-I 218 W/m 4,6 C 11,2 C 3,2 km/h (1 Bft) 96,15 %
10.03.2018 14:19 11,2 C 3,9 C 64 % 1007,5 hPa 0,0 l/m 2,8 km/h (1 Bft) W-SW 258 0 min 0,000 mm 0,8 UV-I 215 W/m 4,6 C 11,2 C 4,8 km/h (1 Bft) 100,00 %
10.03.2018 14:20 11,2 C 3,9 C 65 % 1007,5 hPa 0,0 l/m 3,0 km/h (1 Bft) W 259 0 min 0,000 mm 0,8 UV-I 214 W/m 4,9 C 11,2 C 4,8 km/h (1 Bft) 100,00 %
10.03.2018 14:21 11,1 C 3,9 C 64 % 1007,5 hPa 0,0 l/m 3,1 km/h (1 Bft) W 275 0 min 0,000 mm 0,8 UV-I 212 W/m 4,6 C 11,1 C 4,8 km/h (1 Bft) 100,00 %
10.03.2018 14:22 11,1 C 3,9 C 64 % 1007,5 hPa 0,0 l/m 4,2 km/h (1 Bft) W 275 0 min 0,000 mm 0,8 UV-I 210 W/m 4,6 C 11,1 C 6,4 km/h (2 Bft) 97,14 %
10.03.2018 14:23 11,1 C 3,9 C 64 % 1007,5 hPa 0,0 l/m 2,7 km/h (1 Bft) W 279 0 min 0,000 mm 0,8 UV-I 207 W/m 4,6 C 11,1 C 4,8 km/h (1 Bft) 100,00 %
10.03.2018 14:24 11,1 C 3,9 C 64 % 1007,5 hPa 0,0 l/m 1,5 km/h (1 Bft) W 279 0 min 0,000 mm 0,8 UV-I 206 W/m 4,6 C 11,1 C 3,2 km/h (1 Bft) 100,00 %
10.03.2018 14:25 11,1 C 3,9 C 63 % 1007,5 hPa 0,0 l/m 2,0 km/h (1 Bft) W 279 0 min 0,000 mm 0,8 UV-I 204 W/m 4,3 C 11,1 C 3,2 km/h (1 Bft) 100,00 %
10.03.2018 14:26 11,1 C 3,9 C 63 % 1007,5 hPa 0,0 l/m 2,3 km/h (1 Bft) W 279 0 min 0,000 mm 0,8 UV-I 203 W/m 4,3 C 11,1 C 3,2 km/h (1 Bft) 95,65 %
10.03.2018 14:27 11,1 C 3,9 C 64 % 1007,5 hPa 0,0 l/m 1,1 km/h (1 Bft) W 279 0 min 0,000 mm 0,8 UV-I 202 W/m 4,6 C 11,1 C 3,2 km/h (1 Bft) 95,83 %
10.03.2018 14:28 11,1 C 3,9 C 66 % 1007,5 hPa 0,0 l/m 0,7 km/h (0 Bft) W 279 0 min 0,000 mm 0,7 UV-I 202 W/m 5,0 C 11,1 C 1,6 km/h (1 Bft) 100,00 %
10.03.2018 14:29 11,2 C 3,9 C 63 % 1007,5 hPa 0,0 l/m 0,6 km/h (0 Bft) W 279 0 min 0,000 mm 0,7 UV-I 202 W/m 4,4 C 11,2 C 1,6 km/h (1 Bft) 100,00 %
10.03.2018 14:30 11,2 C 3,9 C 62 % 1007,5 hPa 0,0 l/m 0,2 km/h (0 Bft) W 279 0 min 0,000 mm 0,7 UV-I 202 W/m 4,2 C 11,2 C 1,6 km/h (1 Bft) 100,00 %
10.03.2018 14:31 11,1 C 3,9 C 62 % 1007,5 hPa 0,0 l/m 1,5 km/h (1 Bft) W 279 0 min 0,000 mm 0,7 UV-I 202 W/m 4,1 C 11,1 C 3,2 km/h (1 Bft) 97,51 %
10.03.2018 14:32 11,1 C 3,9 C 62 % 1007,5 hPa 0,0 l/m 2,3 km/h (1 Bft) W 279 0 min 0,000 mm 0,7 UV-I 204 W/m 4,1 C 11,1 C 3,2 km/h (1 Bft) 100,00 %
10.03.2018 14:33 11,2 C 3,9 C 64 % 1007,5 hPa 0,0 l/m 1,6 km/h (1 Bft) W 279 0 min 0,000 mm 0,7 UV-I 205 W/m 4,6 C 11,2 C 3,2 km/h (1 Bft) 100,00 %
10.03.2018 14:34 11,2 C 3,9 C 64 % 1007,5 hPa 0,0 l/m 1,0 km/h (0 Bft) W 279 0 min 0,000 mm 0,7 UV-I 207 W/m 4,6 C 11,2 C 1,6 km/h (1 Bft) 100,00 %
10.03.2018 14:35 11,2 C 3,9 C 64 % 1007,5 hPa 0,0 l/m 1,6 km/h (1 Bft) W 279 0 min 0,000 mm 0,7 UV-I 209 W/m 4,6 C 11,2 C 3,2 km/h (1 Bft) 100,00 %
10.03.2018 14:36 11,3 C 3,9 C 64 % 1007,5 hPa 0,0 l/m 1,4 km/h (1 Bft) W 279 0 min 0,000 mm 0,7 UV-I 212 W/m 4,7 C 11,3 C 3,2 km/h (1 Bft) 100,00 %
10.03.2018 14:37 11,3 C 3,9 C 63 % 1007,5 hPa 0,0 l/m 2,1 km/h (1 Bft) W 279 0 min 0,000 mm 0,8 UV-I 215 W/m 4,5 C 11,3 C 3,2 km/h (1 Bft) 100,00 %
10.03.2018 14:38 11,4 C 3,9 C 64 % 1007,5 hPa 0,0 l/m 1,8 km/h (1 Bft) W 279 0 min 0,000 mm 0,8 UV-I 217 W/m 4,8 C 11,4 C 3,2 km/h (1 Bft) 100,00 %
10.03.2018 14:39 11,4 C 3,9 C 63 % 1007,5 hPa 0,0 l/m 1,6 km/h (1 Bft) W 279 0 min 0,000 mm 0,8 UV-I 219 W/m 4,6 C 11,4 C 1,6 km/h (1 Bft) 95,65 %
10.03.2018 14:40 11,4 C 3,9 C 62 % 1007,5 hPa 0,0 l/m 2,4 km/h (1 Bft) W 279 0 min 0,000 mm 0,8 UV-I 220 W/m 4,4 C 11,4 C 3,2 km/h (1 Bft) 100,00 %
10.03.2018 14:41 11,4 C 3,9 C 62 % 1007,5 hPa 0,0 l/m 0,4 km/h (0 Bft) W 279 0 min 0,000 mm 0,8 UV-I 220 W/m 4,4 C 11,4 C 1,6 km/h (1 Bft) 100,00 %
10.03.2018 14:42 11,4 C 3,9 C 63 % 1007,5 hPa 0,0 l/m 2,0 km/h (1 Bft) W 275 0 min 0,000 mm 0,8 UV-I 220 W/m 4,6 C 11,4 C 4,8 km/h (1 Bft) 100,00 %
10.03.2018 14:43 11,4 C 3,9 C 63 % 1007,5 hPa 0,0 l/m 4,3 km/h (1 Bft) W-SW 254 0 min 0,000 mm 0,8 UV-I 218 W/m 4,6 C 11,4 C 4,8 km/h (1 Bft) 100,00 %
10.03.2018 14:44 11,4 C 3,9 C 62 % 1007,5 hPa 0,0 l/m 3,8 km/h (1 Bft) W-SW 254 0 min 0,000 mm 0,8 UV-I 217 W/m 4,4 C 11,4 C 4,8 km/h (1 Bft) 100,00 %
10.03.2018 14:45 11,4 C 3,9 C 62 % 1007,5 hPa 0,0 l/m 3,1 km/h (1 Bft) W-SW 254 0 min 0,000 mm 0,8 UV-I 216 W/m 4,4 C 11,4 C 4,8 km/h (1 Bft) 100,00 %
10.03.2018 14:46 11,3 C 3,9 C 62 % 1007,5 hPa 0,0 l/m 1,9 km/h (1 Bft) W-SW 257 0 min 0,000 mm 0,8 UV-I 214 W/m 4,3 C 11,3 C 3,2 km/h (1 Bft) 100,00 %
10.03.2018 14:47 11,4 C 3,9 C 63 % 1007,5 hPa 0,0 l/m 1,9 km/h (1 Bft) W-SW 257 0 min 0,000 mm 0,8 UV-I 213 W/m 4,6 C 11,4 C 3,2 km/h (1 Bft) 100,00 %
10.03.2018 14:48 11,4 C 3,9 C 64 % 1007,5 hPa 0,0 l/m 1,1 km/h (1 Bft) W-SW 257 0 min 0,000 mm 0,7 UV-I 210 W/m 4,8 C 11,4 C 3,2 km/h (1 Bft) 100,00 %
10.03.2018 14:49 11,4 C 3,9 C 63 % 1007,5 hPa 0,0 l/m 1,9 km/h (1 Bft) W-SW 257 0 min 0,000 mm 0,7 UV-I 208 W/m 4,6 C 11,4 C 3,2 km/h (1 Bft) 100,00 %
10.03.2018 14:50 11,5 C 3,9 C 64 % 1007,5 hPa 0,0 l/m 3,4 km/h (1 Bft) W 259 0 min 0,000 mm 0,7 UV-I 205 W/m 4,9 C 11,5 C 4,8 km/h (1 Bft) 100,00 %
10.03.2018 14:51 11,4 C 3,9 C 63 % 1007,5 hPa 0,0 l/m 4,3 km/h (1 Bft) W 277 0 min 0,000 mm 0,7 UV-I 202 W/m 4,6 C 11,4 C 6,4 km/h (2 Bft) 100,00 %
10.03.2018 14:52 11,4 C 3,9 C 62 % 1007,5 hPa 0,0 l/m 4,7 km/h (1 Bft) W 273 0 min 0,000 mm 0,7 UV-I 198 W/m 4,4 C 11,4 C 6,4 km/h (2 Bft) 100,00 %
10.03.2018 14:53 11,4 C 3,9 C 63 % 1007,4 hPa 0,0 l/m 3,6 km/h (1 Bft) W 274 0 min 0,000 mm 0,7 UV-I 195 W/m 4,6 C 11,4 C 4,8 km/h (1 Bft) 100,00 %
10.03.2018 14:54 11,4 C 3,9 C 62 % 1007,4 hPa 0,0 l/m 3,3 km/h (1 Bft) W 274 0 min 0,000 mm 0,7 UV-I 191 W/m 4,4 C 11,4 C 4,8 km/h (1 Bft) 100,00 %
10.03.2018 14:55 11,4 C 3,9 C 62 % 1007,4 hPa 0,0 l/m 3,4 km/h (1 Bft) W 267 0 min 0,000 mm 0,7 UV-I 187 W/m 4,4 C 11,4 C 6,4 km/h (2 Bft) 100,00 %
10.03.2018 14:56 11,3 C 3,9 C 63 % 1007,4 hPa 0,0 l/m 4,7 km/h (1 Bft) W 267 0 min 0,000 mm 0,7 UV-I 183 W/m 4,5 C 11,3 C 6,4 km/h (2 Bft) 100,00 %
10.03.2018 14:57 11,4 C 3,9 C 64 % 1007,4 hPa 0,0 l/m 3,4 km/h (1 Bft) W 268 0 min 0,000 mm 0,7 UV-I 180 W/m 4,8 C 11,4 C 4,8 km/h (1 Bft) 95,83 %
10.03.2018 14:58 11,4 C 3,9 C 64 % 1007,4 hPa 0,0 l/m 2,2 km/h (1 Bft) W 268 0 min 0,000 mm 0,7 UV-I 176 W/m 4,8 C 11,4 C 3,2 km/h (1 Bft) 100,00 %
10.03.2018 14:59 11,4 C 3,9 C 64 % 1007,4 hPa 0,0 l/m 4,2 km/h (1 Bft) W-SW 246 0 min 0,000 mm 0,6 UV-I 174 W/m 4,8 C 11,4 C 6,4 km/h (2 Bft) 100,00 %
10.03.2018 15:00 11,4 C 3,9 C 64 % 1007,4 hPa 0,0 l/m 5,1 km/h (1 Bft) SW 217 0 min 0,000 mm 0,6 UV-I 171 W/m 4,8 C 11,4 C 6,4 km/h (2 Bft) 100,00 %
10.03.2018 15:01 11,4 C 3,9 C 63 % 1007,4 hPa 0,0 l/m 3,9 km/h (1 Bft) SW 216 0 min 0,102 mm 0,6 UV-I 168 W/m 4,6 C 11,4 C 4,8 km/h (1 Bft) 96,30 %
10.03.2018 15:02 11,4 C 3,9 C 63 % 1007,4 hPa 0,0 l/m 2,1 km/h (1 Bft) SW 216 0 min 0,000 mm 0,6 UV-I 166 W/m 4,6 C 11,4 C 3,2 km/h (1 Bft) 100,00 %
10.03.2018 15:03 11,4 C 3,9 C 64 % 1007,3 hPa 0,0 l/m 3,8 km/h (1 Bft) W 261 0 min 0,000 mm 0,6 UV-I 164 W/m 4,8 C 11,4 C 6,4 km/h (2 Bft) 95,83 %
10.03.2018 15:04 11,4 C 3,9 C 64 % 1007,4 hPa 0,0 l/m 3,5 km/h (1 Bft) W 261 0 min 0,000 mm 0,6 UV-I 162 W/m 4,8 C 11,4 C 6,4 km/h (2 Bft) 96,55 %
10.03.2018 15:05 11,4 C 3,9 C 64 % 1007,4 hPa 0,0 l/m 5,1 km/h (1 Bft) W 259 0 min 0,000 mm 0,6 UV-I 162 W/m 4,8 C 11,4 C 6,4 km/h (2 Bft) 100,00 %
10.03.2018 15:06 11,3 C 3,9 C 64 % 1007,4 hPa 0,0 l/m 5,6 km/h (1 Bft) W-SW 252 0 min 0,000 mm 0,6 UV-I 159 W/m 4,7 C 11,3 C 9,7 km/h (2 Bft) 100,00 %
10.03.2018 15:07 11,3 C 3,9 C 64 % 1007,4 hPa 0,0 l/m 3,8 km/h (1 Bft) W-SW 252 0 min 0,000 mm 0,6 UV-I 158 W/m 4,7 C 11,3 C 6,4 km/h (2 Bft) 100,00 %
10.03.2018 15:08 11,3 C 3,9 C 64 % 1007,4 hPa 0,0 l/m 4,7 km/h (1 Bft) W-SW 253 0 min 0,000 mm 0,6 UV-I 157 W/m 4,7 C 11,3 C 6,4 km/h (2 Bft) 100,00 %
10.03.2018 15:09 11,3 C 3,9 C 64 % 1007,4 hPa 0,0 l/m 4,5 km/h (1 Bft) W 276 0 min 0,000 mm 0,6 UV-I 155 W/m 4,7 C 11,3 C 6,4 km/h (2 Bft) 100,00 %
10.03.2018 15:10 11,3 C 3,9 C 64 % 1007,4 hPa 0,0 l/m 3,7 km/h (1 Bft) W 276 0 min 0,000 mm 0,6 UV-I 155 W/m 4,7 C 11,3 C 4,8 km/h (1 Bft) 90,91 %
10.03.2018 15:11 11,3 C 3,9 C 63 % 1007,4 hPa 0,0 l/m 3,7 km/h (1 Bft) W 276 0 min 0,000 mm 0,5 UV-I 153 W/m 4,5 C 11,3 C 4,8 km/h (1 Bft) 100,00 %
10.03.2018 15:12 11,3 C 3,9 C 65 % 1007,4 hPa 0,0 l/m 4,8 km/h (1 Bft) W-SW 254 0 min 0,000 mm 0,5 UV-I 151 W/m 5,0 C 11,3 C 6,4 km/h (2 Bft) 100,00 %
10.03.2018 15:13 11,3 C 3,9 C 65 % 1007,4 hPa 0,0 l/m 4,3 km/h (1 Bft) W 261 0 min 0,000 mm 0,5 UV-I 150 W/m 5,0 C 11,3 C 4,8 km/h (1 Bft) 100,00 %
10.03.2018 15:14 11,3 C 3,9 C 65 % 1007,4 hPa 0,0 l/m 3,1 km/h (1 Bft) W 259 0 min 0,000 mm 0,5 UV-I 148 W/m 5,0 C 11,3 C 4,8 km/h (1 Bft) 100,00 %
10.03.2018 15:15 11,3 C 3,9 C 63 % 1007,5 hPa 0,0 l/m 5,2 km/h (1 Bft) W-SW 239 0 min 0,000 mm 0,5 UV-I 147 W/m 4,5 C 11,3 C 6,4 km/h (2 Bft) 100,00 %
10.03.2018 15:16 11,3 C 3,9 C 63 % 1007,5 hPa 0,0 l/m 3,7 km/h (1 Bft) W-SW 242 0 min 0,000 mm 0,5 UV-I 144 W/m 4,5 C 11,3 C 4,8 km/h (1 Bft) 95,65 %
10.03.2018 15:17 11,3 C 3,9 C 63 % 1007,4 hPa 0,0 l/m 1,5 km/h (1 Bft) W-SW 242 0 min 0,000 mm 0,5 UV-I 142 W/m 4,5 C 11,3 C 3,2 km/h (1 Bft) 95,83 %
10.03.2018 15:18 11,3 C 3,9 C 63 % 1007,4 hPa 0,0 l/m 2,7 km/h (1 Bft) W-SW 242 0 min 0,000 mm 0,5 UV-I 138 W/m 4,5 C 11,3 C 3,2 km/h (1 Bft) 95,65 %
10.03.2018 15:19 11,4 C 3,9 C 64 % 1007,5 hPa 0,0 l/m 3,0 km/h (1 Bft) W-SW 242 0 min 0,000 mm 0,5 UV-I 136 W/m 4,8 C 11,4 C 4,8 km/h (1 Bft) 95,83 %
10.03.2018 15:20 11,4 C 3,9 C 63 % 1007,4 hPa 0,0 l/m 2,5 km/h (1 Bft) W-SW 242 0 min 0,000 mm 0,3 UV-I 133 W/m 4,6 C 11,4 C 3,2 km/h (1 Bft) 100,00 %
10.03.2018 15:21 11,4 C 3,9 C 63 % 1007,4 hPa 0,0 l/m 2,6 km/h (1 Bft) W-SW 242 0 min 0,000 mm 0,0 UV-I 130 W/m 4,6 C 11,4 C 3,2 km/h (1 Bft) 100,00 %
10.03.2018 15:22 11,4 C 3,9 C 63 % 1007,4 hPa 0,0 l/m 3,0 km/h (1 Bft) SW 236 0 min 0,000 mm 0,0 UV-I 127 W/m 4,6 C 11,4 C 4,8 km/h (1 Bft) 100,00 %
10.03.2018 15:23 11,3 C 3,9 C 63 % 1007,4 hPa 0,0 l/m 5,6 km/h (1 Bft) SW 226 0 min 0,000 mm 0,0 UV-I 125 W/m 4,5 C 11,3 C 6,4 km/h (2 Bft) 100,00 %
10.03.2018 15:24 11,3 C 3,9 C 63 % 1007,4 hPa 0,0 l/m 4,5 km/h (1 Bft) SW 226 0 min 0,000 mm 0,0 UV-I 122 W/m 4,5 C 11,3 C 6,4 km/h (2 Bft) 100,00 %
10.03.2018 15:25 11,3 C 3,9 C 63 % 1007,4 hPa 0,0 l/m 3,8 km/h (1 Bft) SW 226 0 min 0,000 mm 0,0 UV-I 119 W/m 4,5 C 11,3 C 6,4 km/h (2 Bft) 95,65 %
10.03.2018 15:26 11,3 C 3,9 C 63 % 1007,4 hPa 0,0 l/m 2,5 km/h (1 Bft) SW 226 0 min 0,000 mm 0,0 UV-I 116 W/m 4,5 C 11,3 C 4,8 km/h (1 Bft) 95,83 %
10.03.2018 15:27 11,2 C 3,9 C 64 % 1007,4 hPa 0,0 l/m 2,6 km/h (1 Bft) SW 226 0 min 0,000 mm 0,0 UV-I 113 W/m 4,6 C 11,2 C 3,2 km/h (1 Bft) 100,00 %
10.03.2018 15:28 11,2 C 3,9 C 65 % 1007,4 hPa 0,0 l/m 1,7 km/h (1 Bft) SW 226 0 min 0,000 mm 0,0 UV-I 111 W/m 4,9 C 11,2 C 3,2 km/h (1 Bft) 95,83 %
10.03.2018 15:29 11,2 C 3,9 C 64 % 1007,4 hPa 0,0 l/m 2,5 km/h (1 Bft) SW 225 0 min 0,000 mm 0,0 UV-I 107 W/m 4,6 C 11,2 C 4,8 km/h (1 Bft) 100,00 %
10.03.2018 15:30 11,2 C 3,9 C 64 % 1007,3 hPa 0,0 l/m 4,1 km/h (1 Bft) SW 225 0 min 0,000 mm 0,0 UV-I 105 W/m 4,6 C 11,2 C 4,8 km/h (1 Bft) 100,00 %
10.03.2018 15:31 11,2 C 3,9 C 63 % 1007,3 hPa 0,0 l/m 3,5 km/h (1 Bft) SW 225 0 min 0,000 mm 0,0 UV-I 102 W/m 4,4 C 11,2 C 4,8 km/h (1 Bft) 95,65 %
10.03.2018 15:32 11,2 C 3,9 C 64 % 1007,3 hPa 0,0 l/m 2,7 km/h (1 Bft) SW 225 0 min 0,000 mm 0,0 UV-I 99 W/m 4,6 C 11,2 C 3,2 km/h (1 Bft) 100,00 %
10.03.2018 15:33 11,2 C 3,9 C 64 % 1007,3 hPa 0,0 l/m 1,0 km/h (0 Bft) SW 225 0 min 0,000 mm 0,0 UV-I 97 W/m 4,6 C 11,2 C 1,6 km/h (1 Bft) 100,00 %
10.03.2018 15:34 11,1 C 3,9 C 64 % 1007,3 hPa 0,0 l/m 3,4 km/h (1 Bft) SW 225 0 min 0,000 mm 0,0 UV-I 94 W/m 4,6 C 11,1 C 4,8 km/h (1 Bft) 93,33 %
10.03.2018 15:35 11,1 C 3,9 C 65 % 1007,3 hPa 0,0 l/m 3,6 km/h (1 Bft) SW 225 0 min 0,000 mm 0,0 UV-I 91 W/m 4,8 C 11,1 C 4,8 km/h (1 Bft) 96,15 %
10.03.2018 15:36 11,0 C 3,9 C 65 % 1007,3 hPa 0,0 l/m 4,1 km/h (1 Bft) SW 225 0 min 0,000 mm 0,0 UV-I 89 W/m 4,7 C 11,0 C 4,8 km/h (1 Bft) 100,00 %
10.03.2018 15:37 11,1 C 3,9 C 65 % 1007,3 hPa 0,0 l/m 4,7 km/h (1 Bft) S-SO 160 0 min 0,000 mm 0,0 UV-I 87 W/m 4,8 C 11,1 C 8,0 km/h (2 Bft) 100,00 %
10.03.2018 15:38 11,0 C 3,9 C 64 % 1007,3 hPa 0,0 l/m 4,9 km/h (1 Bft) S-SO 161 0 min 0,000 mm 0,0 UV-I 85 W/m 4,5 C 11,0 C 8,0 km/h (2 Bft) 100,00 %
10.03.2018 15:39 11,0 C 3,9 C 65 % 1007,3 hPa 0,0 l/m 3,5 km/h (1 Bft) S-SO 161 0 min 0,000 mm 0,0 UV-I 83 W/m 4,7 C 11,0 C 6,4 km/h (2 Bft) 100,00 %
10.03.2018 15:40 11,0 C 3,9 C 64 % 1007,3 hPa 0,0 l/m 2,8 km/h (1 Bft) S-SO 161 0 min 0,000 mm 0,0 UV-I 81 W/m 4,5 C 11,0 C 6,4 km/h (2 Bft) 100,00 %
10.03.2018 15:41 11,0 C 3,9 C 64 % 1007,3 hPa 0,0 l/m 2,7 km/h (1 Bft) S-SW 209 0 min 0,000 mm 0,0 UV-I 78 W/m 4,5 C 11,0 C 4,8 km/h (1 Bft) 100,00 %
10.03.2018 15:42 11,0 C 3,9 C 65 % 1007,3 hPa 0,0 l/m 4,1 km/h (1 Bft) W-SW 239 0 min 0,000 mm 0,0 UV-I 77 W/m 4,7 C 11,0 C 6,4 km/h (2 Bft) 96,15 %
10.03.2018 15:43 10,9 C 3,9 C 64 % 1007,4 hPa 0,0 l/m 4,6 km/h (1 Bft) W-SW 239 0 min 0,000 mm 0,0 UV-I 75 W/m 4,4 C 10,9 C 6,4 km/h (2 Bft) 100,00 %
10.03.2018 15:44 10,9 C 3,9 C 64 % 1007,5 hPa 0,0 l/m 4,1 km/h (1 Bft) W-SW 256 0 min 0,000 mm 0,0 UV-I 73 W/m 4,4 C 10,9 C 6,4 km/h (2 Bft) 96,00 %
10.03.2018 15:45 11,0 C 3,9 C 65 % 1007,5 hPa 0,0 l/m 4,2 km/h (1 Bft) W-SW 248 0 min 0,000 mm 0,0 UV-I 70 W/m 4,7 C 11,0 C 4,8 km/h (1 Bft) 100,00 %
10.03.2018 15:46 10,9 C 3,9 C 65 % 1007,5 hPa 0,0 l/m 3,2 km/h (1 Bft) W-SW 241 0 min 0,000 mm 0,0 UV-I 69 W/m 4,6 C 10,9 C 4,8 km/h (1 Bft) 95,65 %
10.03.2018 15:47 10,9 C 3,9 C 65 % 1007,5 hPa 0,0 l/m 3,3 km/h (1 Bft) SW 223 0 min 0,000 mm 0,0 UV-I 69 W/m 4,6 C 10,9 C 4,8 km/h (1 Bft) 95,83 %
10.03.2018 15:48 10,9 C 3,9 C 65 % 1007,5 hPa 0,0 l/m 5,0 km/h (1 Bft) W-SW 238 0 min 0,000 mm 0,0 UV-I 68 W/m 4,6 C 10,9 C 8,0 km/h (2 Bft) 95,65 %
10.03.2018 15:49 10,9 C 3,9 C 65 % 1007,5 hPa 0,0 l/m 6,6 km/h (2 Bft) W-SW 248 0 min 0,000 mm 0,0 UV-I 66 W/m 4,6 C 10,8 C 8,0 km/h (2 Bft) 93,33 %
10.03.2018 15:50 10,9 C 3,9 C 65 % 1007,5 hPa 0,0 l/m 4,4 km/h (1 Bft) W-SW 248 0 min 0,000 mm 0,0 UV-I 65 W/m 4,6 C 10,9 C 6,4 km/h (2 Bft) 100,00 %
10.03.2018 15:51 10,9 C 3,9 C 65 % 1007,5 hPa 0,0 l/m 3,5 km/h (1 Bft) W-SW 248 0 min 0,000 mm 0,0 UV-I 65 W/m 4,6 C 10,9 C 4,8 km/h (1 Bft) 91,67 %
10.03.2018 15:52 10,9 C 3,9 C 66 % 1007,5 hPa 0,0 l/m 4,2 km/h (1 Bft) SW 227 0 min 0,000 mm 0,0 UV-I 65 W/m 4,8 C 10,9 C 6,4 km/h (2 Bft) 100,00 %
10.03.2018 15:53 10,9 C 3,9 C 66 % 1007,5 hPa 0,0 l/m 5,4 km/h (1 Bft) S-SW 209 0 min 0,000 mm 0,0 UV-I 65 W/m 4,8 C 10,9 C 6,4 km/h (2 Bft) 91,67 %
10.03.2018 15:54 10,9 C 3,9 C 66 % 1007,5 hPa 0,0 l/m 5,3 km/h (1 Bft) SW 215 0 min 0,000 mm 0,0 UV-I 66 W/m 4,8 C 10,9 C 8,0 km/h (2 Bft) 96,15 %
10.03.2018 15:55 10,9 C 3,9 C 66 % 1007,5 hPa 0,0 l/m 4,8 km/h (1 Bft) SW 215 0 min 0,000 mm 0,0 UV-I 67 W/m 4,8 C 10,9 C 6,4 km/h (2 Bft) 100,00 %
10.03.2018 15:56 10,8 C 3,9 C 66 % 1007,5 hPa 0,0 l/m 4,9 km/h (1 Bft) SW 225 0 min 0,000 mm 0,0 UV-I 67 W/m 4,7 C 10,8 C 8,0 km/h (2 Bft) 100,00 %
10.03.2018 15:57 10,8 C 3,9 C 67 % 1007,5 hPa 0,0 l/m 4,5 km/h (1 Bft) SW 219 0 min 0,000 mm 0,0 UV-I 69 W/m 4,9 C 10,8 C 6,4 km/h (2 Bft) 95,65 %
10.03.2018 15:58 10,8 C 3,9 C 67 % 1007,5 hPa 0,0 l/m 5,0 km/h (1 Bft) SW 217 0 min 0,000 mm 0,0 UV-I 69 W/m 4,9 C 10,8 C 6,4 km/h (2 Bft) 91,67 %
10.03.2018 15:59 10,8 C 3,9 C 67 % 1007,5 hPa 0,0 l/m 4,1 km/h (1 Bft) SW 217 0 min 0,000 mm 0,0 UV-I 70 W/m 4,9 C 10,8 C 4,8 km/h (1 Bft) 100,00 %
10.03.2018 16:00 10,8 C 3,9 C 67 % 1007,5 hPa 0,0 l/m 4,2 km/h (1 Bft) SW 225 0 min 0,000 mm 0,0 UV-I 71 W/m 4,9 C 10,8 C 4,8 km/h (1 Bft) 95,83 %
10.03.2018 16:01 10,8 C 3,9 C 67 % 1007,5 hPa 0,0 l/m 5,5 km/h (1 Bft) SW 225 0 min 0,076 mm 0,0 UV-I 73 W/m 4,9 C 10,8 C 8,0 km/h (2 Bft) 96,15 %
10.03.2018 16:02 10,8 C 3,9 C 67 % 1007,5 hPa 0,0 l/m 4,3 km/h (1 Bft) SW 223 0 min 0,000 mm 0,0 UV-I 74 W/m 4,9 C 10,8 C 6,4 km/h (2 Bft) 96,30 %
10.03.2018 16:03 10,7 C 3,9 C 67 % 1007,5 hPa 0,0 l/m 4,8 km/h (1 Bft) SW 223 0 min 0,000 mm 0,0 UV-I 76 W/m 4,8 C 10,7 C 6,4 km/h (2 Bft) 95,65 %
10.03.2018 16:04 10,8 C 3,9 C 67 % 1007,5 hPa 0,0 l/m 4,4 km/h (1 Bft) W-SW 242 0 min 0,000 mm 0,0 UV-I 76 W/m 4,9 C 10,8 C 4,8 km/h (1 Bft) 100,00 %
10.03.2018 16:05 10,7 C 3,9 C 67 % 1007,5 hPa 0,0 l/m 3,6 km/h (1 Bft) SW 223 0 min 0,000 mm 0,0 UV-I 77 W/m 4,8 C 10,7 C 6,4 km/h (2 Bft) 100,00 %
10.03.2018 16:06 10,7 C 3,9 C 67 % 1007,5 hPa 0,0 l/m 5,7 km/h (1 Bft) SW 218 0 min 0,000 mm 0,0 UV-I 77 W/m 4,8 C 10,7 C 6,4 km/h (2 Bft) 96,30 %
10.03.2018 16:07 10,7 C 3,9 C 67 % 1007,5 hPa 0,0 l/m 4,4 km/h (1 Bft) SW 215 0 min 0,000 mm 0,0 UV-I 78 W/m 4,8 C 10,7 C 4,8 km/h (1 Bft) 95,65 %
10.03.2018 16:08 10,7 C 3,9 C 67 % 1007,5 hPa 0,0 l/m 4,8 km/h (1 Bft) SW 214 0 min 0,000 mm 0,0 UV-I 79 W/m 4,8 C 10,7 C 6,4 km/h (2 Bft) 100,00 %
10.03.2018 16:09 10,7 C 3,9 C 67 % 1007,5 hPa 0,0 l/m 3,8 km/h (1 Bft) SW 215 0 min 0,000 mm 0,0 UV-I 79 W/m 4,8 C 10,7 C 6,4 km/h (2 Bft) 97,37 %
10.03.2018 16:10 10,7 C 3,9 C 68 % 1007,5 hPa 0,0 l/m 5,0 km/h (1 Bft) SW 218 0 min 0,000 mm 0,0 UV-I 79 W/m 5,0 C 10,7 C 6,4 km/h (2 Bft) 100,00 %
10.03.2018 16:11 10,7 C 3,9 C 68 % 1007,5 hPa 0,0 l/m 3,2 km/h (1 Bft) SW 217 0 min 0,000 mm 0,0 UV-I 79 W/m 5,0 C 10,7 C 4,8 km/h (1 Bft) 92,86 %
10.03.2018 16:12 10,7 C 3,9 C 68 % 1007,5 hPa 0,0 l/m 4,8 km/h (1 Bft) W-SW 258 0 min 0,000 mm 0,0 UV-I 79 W/m 5,0 C 10,7 C 6,4 km/h (2 Bft) 95,83 %
10.03.2018 16:13 10,7 C 3,9 C 68 % 1007,5 hPa 0,0 l/m 4,4 km/h (1 Bft) W-SW 241 0 min 0,000 mm 0,0 UV-I 79 W/m 5,0 C 10,7 C 6,4 km/h (2 Bft) 96,55 %
10.03.2018 16:14 10,7 C 3,9 C 68 % 1007,5 hPa 0,0 l/m 3,8 km/h (1 Bft) W-SW 241 0 min 0,000 mm 0,0 UV-I 79 W/m 5,0 C 10,7 C 4,8 km/h (1 Bft) 95,83 %
10.03.2018 16:15 10,7 C 3,9 C 67 % 1007,5 hPa 0,0 l/m 4,3 km/h (1 Bft) W-SW 240 0 min 0,000 mm 0,0 UV-I 77 W/m 4,8 C 10,7 C 6,4 km/h (2 Bft) 100,00 %
10.03.2018 16:16 10,7 C 3,9 C 67 % 1007,5 hPa 0,0 l/m 3,1 km/h (1 Bft) W-SW 242 0 min 0,000 mm 0,0 UV-I 77 W/m 4,8 C 10,7 C 4,8 km/h (1 Bft) 93,33 %
10.03.2018 16:18 10,7 C 3,9 C 68 % 1007,5 hPa 0,0 l/m 4,3 km/h (1 Bft) SW 234 0 min 0,000 mm 0,0 UV-I 76 W/m 5,0 C 10,7 C 6,4 km/h (2 Bft) 98,00 %
10.03.2018 16:19 10,7 C 3,9 C 68 % 1007,5 hPa 0,0 l/m 4,6 km/h (1 Bft) SW 234 0 min 0,000 mm 0,0 UV-I 75 W/m 5,0 C 10,7 C 6,4 km/h (2 Bft) 100,00 %
10.03.2018 16:20 10,7 C 3,9 C 68 % 1007,5 hPa 0,0 l/m 4,6 km/h (1 Bft) SW 226 0 min 0,000 mm 0,0 UV-I 74 W/m 5,0 C 10,7 C 6,4 km/h (2 Bft) 100,00 %
10.03.2018 16:21 10,7 C 3,9 C 68 % 1007,5 hPa 0,0 l/m 5,3 km/h (1 Bft) SW 225 0 min 0,000 mm 0,0 UV-I 74 W/m 5,0 C 10,7 C 6,4 km/h (2 Bft) 100,00 %
10.03.2018 16:22 10,7 C 3,9 C 68 % 1007,5 hPa 0,0 l/m 3,8 km/h (1 Bft) SW 225 0 min 0,000 mm 0,0 UV-I 72 W/m 5,0 C 10,7 C 6,4 km/h (2 Bft) 100,00 %
10.03.2018 16:23 10,6 C 3,9 C 68 % 1007,4 hPa 0,0 l/m 1,9 km/h (1 Bft) SW 225 0 min 0,000 mm 0,0 UV-I 72 W/m 4,9 C 10,6 C 3,2 km/h (1 Bft) 100,00 %
10.03.2018 16:24 10,6 C 3,9 C 67 % 1007,4 hPa 0,0 l/m 2,6 km/h (1 Bft) SW 225 0 min 0,000 mm 0,0 UV-I 72 W/m 4,7 C 10,6 C 3,2 km/h (1 Bft) 100,00 %
10.03.2018 16:25 10,6 C 3,9 C 67 % 1007,4 hPa 0,0 l/m 2,8 km/h (1 Bft) SW 225 0 min 0,000 mm 0,0 UV-I 72 W/m 4,7 C 10,6 C 3,2 km/h (1 Bft) 100,00 %
10.03.2018 16:26 10,6 C 3,9 C 67 % 1007,4 hPa 0,0 l/m 2,9 km/h (1 Bft) SW 225 0 min 0,000 mm 0,0 UV-I 72 W/m 4,7 C 10,6 C 4,8 km/h (1 Bft) 100,00 %
10.03.2018 16:27 10,6 C 3,9 C 68 % 1007,4 hPa 0,0 l/m 4,0 km/h (1 Bft) SW 229 0 min 0,000 mm 0,0 UV-I 72 W/m 4,9 C 10,6 C 6,4 km/h (2 Bft) 95,83 %
10.03.2018 16:28 10,6 C 3,9 C 68 % 1007,4 hPa 0,0 l/m 3,0 km/h (1 Bft) SW 229 0 min 0,000 mm 0,0 UV-I 72 W/m 4,9 C 10,6 C 4,8 km/h (1 Bft) 100,00 %
10.03.2018 16:29 10,6 C 3,9 C 68 % 1007,4 hPa 0,0 l/m 3,3 km/h (1 Bft) SW 229 0 min 0,000 mm 0,0 UV-I 71 W/m 4,9 C 10,6 C 4,8 km/h (1 Bft) 100,00 %
10.03.2018 16:30 10,6 C 3,9 C 69 % 1007,4 hPa 0,0 l/m 2,9 km/h (1 Bft) SW 229 0 min 0,000 mm 0,0 UV-I 70 W/m 5,2 C 10,6 C 4,8 km/h (1 Bft) 100,00 %
10.03.2018 16:31 10,6 C 3,9 C 69 % 1007,3 hPa 0,0 l/m 2,7 km/h (1 Bft) SW 229 0 min 0,000 mm 0,0 UV-I 70 W/m 5,2 C 10,6 C 4,8 km/h (1 Bft) 95,83 %
10.03.2018 16:32 10,6 C 3,9 C 69 % 1007,3 hPa 0,0 l/m 2,2 km/h (1 Bft) SW 234 0 min 0,000 mm 0,0 UV-I 70 W/m 5,2 C 10,6 C 3,2 km/h (1 Bft) 100,00 %
10.03.2018 16:33 10,6 C 3,9 C 69 % 1007,3 hPa 0,0 l/m 2,4 km/h (1 Bft) SW 234 0 min 0,000 mm 0,0 UV-I 70 W/m 5,2 C 10,6 C 4,8 km/h (1 Bft) 96,15 %
10.03.2018 16:34 10,6 C 3,9 C 70 % 1007,3 hPa 0,0 l/m 2,7 km/h (1 Bft) SW 234 0 min 0,000 mm 0,0 UV-I 69 W/m 5,4 C 10,6 C 4,8 km/h (1 Bft) 100,00 %
10.03.2018 16:35 10,6 C 3,9 C 70 % 1007,4 hPa 0,0 l/m 3,1 km/h (1 Bft) SW 234 0 min 0,000 mm 0,0 UV-I 69 W/m 5,4 C 10,6 C 4,8 km/h (1 Bft) 91,30 %
10.03.2018 16:36 10,5 C 3,9 C 70 % 1007,3 hPa 0,0 l/m 3,6 km/h (1 Bft) SW 234 0 min 0,000 mm 0,0 UV-I 68 W/m 5,3 C 10,5 C 4,8 km/h (1 Bft) 100,00 %
10.03.2018 16:37 10,6 C 3,9 C 70 % 1007,4 hPa 0,0 l/m 4,0 km/h (1 Bft) SW 233 0 min 0,000 mm 0,0 UV-I 67 W/m 5,4 C 10,6 C 6,4 km/h (2 Bft) 100,00 %
10.03.2018 16:38 10,5 C 3,9 C 70 % 1007,4 hPa 0,0 l/m 4,5 km/h (1 Bft) SW 233 0 min 0,000 mm 0,0 UV-I 67 W/m 5,3 C 10,5 C 6,4 km/h (2 Bft) 100,00 %
10.03.2018 16:39 10,5 C 3,9 C 71 % 1007,4 hPa 0,0 l/m 5,4 km/h (1 Bft) SW 232 0 min 0,000 mm 0,0 UV-I 65 W/m 5,5 C 10,5 C 6,4 km/h (2 Bft) 100,00 %
10.03.2018 16:40 10,4 C 3,9 C 71 % 1007,4 hPa 0,0 l/m 4,8 km/h (1 Bft) SW 232 0 min 0,000 mm 0,0 UV-I 64 W/m 5,4 C 10,4 C 4,8 km/h (1 Bft) 100,00 %
10.03.2018 16:41 10,4 C 3,9 C 71 % 1007,5 hPa 0,0 l/m 2,7 km/h (1 Bft) SW 232 0 min 0,000 mm 0,0 UV-I 63 W/m 5,4 C 10,4 C 3,2 km/h (1 Bft) 100,00 %
10.03.2018 16:42 10,4 C 3,9 C 71 % 1007,4 hPa 0,0 l/m 2,2 km/h (1 Bft) SW 232 0 min 0,000 mm 0,0 UV-I 62 W/m 5,4 C 10,4 C 3,2 km/h (1 Bft) 100,00 %
10.03.2018 16:43 10,4 C 3,9 C 71 % 1007,4 hPa 0,0 l/m 2,7 km/h (1 Bft) SW 233 0 min 0,000 mm 0,0 UV-I 62 W/m 5,4 C 10,4 C 3,2 km/h (1 Bft) 95,65 %
10.03.2018 16:44 10,4 C 3,9 C 71 % 1007,4 hPa 0,0 l/m 4,4 km/h (1 Bft) SW 232 0 min 0,000 mm 0,0 UV-I 62 W/m 5,4 C 10,4 C 6,4 km/h (2 Bft) 100,00 %
10.03.2018 16:45 10,4 C 3,9 C 71 % 1007,4 hPa 0,0 l/m 3,6 km/h (1 Bft) SW 232 0 min 0,000 mm 0,0 UV-I 60 W/m 5,4 C 10,4 C 4,8 km/h (1 Bft) 100,00 %
10.03.2018 16:46 10,4 C 3,9 C 71 % 1007,4 hPa 0,0 l/m 3,1 km/h (1 Bft) SW 232 0 min 0,000 mm 0,0 UV-I 60 W/m 5,4 C 10,4 C 4,8 km/h (1 Bft) 100,00 %
10.03.2018 16:47 10,4 C 3,9 C 71 % 1007,4 hPa 0,0 l/m 2,0 km/h (1 Bft) SW 232 0 min 0,000 mm 0,0 UV-I 58 W/m 5,4 C 10,4 C 3,2 km/h (1 Bft) 100,00 %
10.03.2018 16:48 10,4 C 3,9 C 71 % 1007,4 hPa 0,0 l/m 2,2 km/h (1 Bft) SW 233 0 min 0,000 mm 0,0 UV-I 57 W/m 5,4 C 10,4 C 3,2 km/h (1 Bft) 100,00 %
10.03.2018 16:49 10,4 C 3,9 C 71 % 1007,4 hPa 0,0 l/m 3,3 km/h (1 Bft) SW 233 0 min 0,000 mm 0,0 UV-I 56 W/m 5,4 C 10,4 C 4,8 km/h (1 Bft) 95,65 %
10.03.2018 16:50 10,4 C 3,9 C 70 % 1007,4 hPa 0,0 l/m 3,2 km/h (1 Bft) SW 233 0 min 0,000 mm 0,0 UV-I 54 W/m 5,2 C 10,4 C 4,8 km/h (1 Bft) 100,00 %
10.03.2018 16:51 10,4 C 3,9 C 70 % 1007,3 hPa 0,0 l/m 2,6 km/h (1 Bft) SW 233 0 min 0,000 mm 0,0 UV-I 54 W/m 5,2 C 10,4 C 3,2 km/h (1 Bft) 100,00 %
10.03.2018 16:52 10,4 C 3,9 C 70 % 1007,3 hPa 0,0 l/m 1,7 km/h (1 Bft) SW 233 0 min 0,000 mm 0,0 UV-I 53 W/m 5,2 C 10,4 C 3,2 km/h (1 Bft) 100,00 %
10.03.2018 16:53 10,4 C 3,9 C 70 % 1007,3 hPa 0,0 l/m 1,8 km/h (1 Bft) SW 233 0 min 0,000 mm 0,0 UV-I 52 W/m 5,2 C 10,4 C 3,2 km/h (1 Bft) 100,00 %
10.03.2018 16:54 10,4 C 3,9 C 70 % 1007,3 hPa 0,0 l/m 1,4 km/h (1 Bft) SW 233 0 min 0,000 mm 0,0 UV-I 51 W/m 5,2 C 10,4 C 1,6 km/h (1 Bft) 95,83 %
10.03.2018 16:55 10,4 C 3,9 C 71 % 1007,3 hPa 0,0 l/m 0,7 km/h (0 Bft) SW 233 0 min 0,000 mm 0,0 UV-I 51 W/m 5,4 C 10,4 C 1,6 km/h (1 Bft) 93,33 %
10.03.2018 16:56 10,4 C 3,9 C 70 % 1007,3 hPa 0,0 l/m 2,4 km/h (1 Bft) SW 233 0 min 0,000 mm 0,0 UV-I 49 W/m 5,2 C 10,4 C 3,2 km/h (1 Bft) 100,00 %
10.03.2018 16:57 10,3 C 3,9 C 70 % 1007,3 hPa 0,0 l/m 1,7 km/h (1 Bft) SW 233 0 min 0,000 mm 0,0 UV-I 47 W/m 5,1 C 10,3 C 3,2 km/h (1 Bft) 100,00 %
10.03.2018 16:58 10,3 C 3,9 C 70 % 1007,3 hPa 0,0 l/m 0,1 km/h (0 Bft) SW 233 0 min 0,000 mm 0,0 UV-I 47 W/m 5,1 C 10,3 C 1,6 km/h (1 Bft) 100,00 %
10.03.2018 16:59 10,3 C 3,9 C 70 % 1007,3 hPa 0,0 l/m 0,0 km/h (0 Bft) SW 233 0 min 0,000 mm 0,0 UV-I 46 W/m 5,1 C 10,3 C 0,0 km/h (0 Bft) 100,00 %
10.03.2018 17:00 10,4 C 3,9 C 70 % 1007,3 hPa 0,0 l/m 0,0 km/h (0 Bft) SW 233 0 min 0,000 mm 0,0 UV-I 45 W/m 5,2 C 10,4 C 0,0 km/h (0 Bft) 96,15 %
10.03.2018 17:01 10,4 C 3,9 C 71 % 1007,3 hPa 0,0 l/m 0,0 km/h (0 Bft) SW 233 0 min 0,051 mm 0,0 UV-I 44 W/m 5,4 C 10,4 C 0,0 km/h (0 Bft) 100,00 %
10.03.2018 17:02 10,4 C 3,9 C 71 % 1007,3 hPa 0,0 l/m 0,0 km/h (0 Bft) SW 233 0 min 0,000 mm 0,0 UV-I 44 W/m 5,4 C 10,4 C 0,0 km/h (0 Bft) 100,00 %
10.03.2018 17:03 10,4 C 3,9 C 71 % 1007,2 hPa 0,0 l/m 0,0 km/h (0 Bft) SW 233 0 min 0,000 mm 0,0 UV-I 42 W/m 5,4 C 10,4 C 0,0 km/h (0 Bft) 100,00 %
10.03.2018 17:04 10,5 C 3,9 C 71 % 1007,2 hPa 0,0 l/m 0,0 km/h (0 Bft) SW 233 0 min 0,000 mm 0,0 UV-I 42 W/m 5,5 C 10,5 C 0,0 km/h (0 Bft) 100,00 %
10.03.2018 17:05 10,5 C 3,9 C 70 % 1007,2 hPa 0,0 l/m 0,0 km/h (0 Bft) SW 233 0 min 0,000 mm 0,0 UV-I 41 W/m 5,3 C 10,5 C 0,0 km/h (0 Bft) 95,83 %
10.03.2018 17:06 10,5 C 3,9 C 70 % 1007,2 hPa 0,0 l/m 0,0 km/h (0 Bft) SW 233 0 min 0,000 mm 0,0 UV-I 40 W/m 5,3 C 10,5 C 0,0 km/h (0 Bft) 95,65 %
10.03.2018 17:07 10,4 C 3,9 C 70 % 1007,3 hPa 0,0 l/m 0,0 km/h (0 Bft) SW 233 0 min 0,000 mm 0,0 UV-I 40 W/m 5,2 C 10,4 C 0,0 km/h (0 Bft) 95,83 %
10.03.2018 17:08 10,4 C 3,9 C 70 % 1007,3 hPa 0,0 l/m 0,0 km/h (0 Bft) SW 233 0 min 0,000 mm 0,0 UV-I 39 W/m 5,2 C 10,4 C 0,0 km/h (0 Bft) 100,00 %
10.03.2018 17:09 10,4 C 3,9 C 70 % 1007,3 hPa 0,0 l/m 0,0 km/h (0 Bft) SW 233 0 min 0,000 mm 0,0 UV-I 39 W/m 5,2 C 10,4 C 0,0 km/h (0 Bft) 97,37 %
10.03.2018 17:10 10,3 C 3,9 C 71 % 1007,3 hPa 0,0 l/m 0,0 km/h (0 Bft) SW 233 0 min 0,000 mm 0,0 UV-I 38 W/m 5,3 C 10,3 C 0,0 km/h (0 Bft) 91,67 %
10.03.2018 17:11 10,3 C 3,9 C 70 % 1007,3 hPa 0,0 l/m 0,0 km/h (0 Bft) SW 233 0 min 0,000 mm 0,0 UV-I 37 W/m 5,1 C 10,3 C 0,0 km/h (0 Bft) 96,15 %
10.03.2018 17:12 10,3 C 3,9 C 70 % 1007,2 hPa 0,0 l/m 0,0 km/h (0 Bft) SW 233 0 min 0,000 mm 0,0 UV-I 36 W/m 5,1 C 10,3 C 0,0 km/h (0 Bft) 95,83 %
10.03.2018 17:13 10,2 C 3,9 C 71 % 1007,3 hPa 0,0 l/m 0,0 km/h (0 Bft) SW 233 0 min 0,000 mm 0,0 UV-I 35 W/m 5,2 C 10,2 C 0,0 km/h (0 Bft) 96,55 %
10.03.2018 17:14 10,2 C 3,9 C 72 % 1007,3 hPa 0,0 l/m 0,0 km/h (0 Bft) SW 233 0 min 0,000 mm 0,0 UV-I 33 W/m 5,4 C 10,2 C 0,0 km/h (0 Bft) 96,15 %
10.03.2018 17:15 10,1 C 3,9 C 72 % 1007,3 hPa 0,0 l/m 0,0 km/h (0 Bft) SW 233 0 min 0,000 mm 0,0 UV-I 33 W/m 5,3 C 10,1 C 0,0 km/h (0 Bft) 100,00 %
10.03.2018 17:16 10,1 C 3,9 C 72 % 1007,2 hPa 0,0 l/m 0,0 km/h (0 Bft) SW 233 0 min 0,000 mm 0,0 UV-I 33 W/m 5,3 C 10,1 C 0,0 km/h (0 Bft) 95,83 %
10.03.2018 17:17 10,1 C 3,9 C 72 % 1007,3 hPa 0,0 l/m 0,0 km/h (0 Bft) SW 233 0 min 0,000 mm 0,0 UV-I 32 W/m 5,3 C 10,1 C 0,0 km/h (0 Bft) 100,00 %
10.03.2018 17:18 10,0 C 3,9 C 72 % 1007,3 hPa 0,0 l/m 0,0 km/h (0 Bft) SW 233 0 min 0,000 mm 0,0 UV-I 31 W/m 5,2 C 10,0 C 0,0 km/h (0 Bft) 95,83 %
10.03.2018 17:19 9,9 C 3,9 C 72 % 1007,3 hPa 0,0 l/m 0,0 km/h (0 Bft) SW 233 0 min 0,000 mm 0,0 UV-I 30 W/m 5,1 C 9,9 C 0,0 km/h (0 Bft) 100,00 %
10.03.2018 17:20 9,8 C 3,9 C 72 % 1007,3 hPa 0,0 l/m 0,0 km/h (0 Bft) SW 233 0 min 0,000 mm 0,0 UV-I 28 W/m 5,0 C 9,8 C 0,0 km/h (0 Bft) 95,83 %
10.03.2018 17:21 9,8 C 3,9 C 73 % 1007,3 hPa 0,0 l/m 0,3 km/h (0 Bft) SW 233 0 min 0,000 mm 0,0 UV-I 28 W/m 5,2 C 9,8 C 1,6 km/h (1 Bft) 95,65 %
10.03.2018 17:22 9,7 C 3,9 C 73 % 1007,3 hPa 0,0 l/m 2,6 km/h (1 Bft) SW 233 0 min 0,000 mm 0,0 UV-I 27 W/m 5,1 C 9,7 C 3,2 km/h (1 Bft) 100,00 %
10.03.2018 17:23 9,7 C 3,9 C 73 % 1007,3 hPa 0,0 l/m 2,6 km/h (1 Bft) SW 233 0 min 0,000 mm 0,0 UV-I 26 W/m 5,1 C 9,7 C 3,2 km/h (1 Bft) 100,00 %
10.03.2018 17:24 9,7 C 3,9 C 73 % 1007,3 hPa 0,0 l/m 2,3 km/h (1 Bft) SW 233 0 min 0,000 mm 0,0 UV-I 26 W/m 5,1 C 9,7 C 3,2 km/h (1 Bft) 96,43 %
10.03.2018 17:25 9,6 C 3,9 C 73 % 1007,3 hPa 0,0 l/m 2,5 km/h (1 Bft) SW 233 0 min 0,000 mm 0,0 UV-I 25 W/m 5,0 C 9,6 C 3,2 km/h (1 Bft) 96,15 %
10.03.2018 17:26 9,6 C 3,9 C 73 % 1007,2 hPa 0,0 l/m 2,2 km/h (1 Bft) SW 233 0 min 0,000 mm 0,0 UV-I 25 W/m 5,0 C 9,6 C 3,2 km/h (1 Bft) 100,00 %
10.03.2018 17:27 9,5 C 3,9 C 74 % 1007,3 hPa 0,0 l/m 1,8 km/h (1 Bft) SW 233 0 min 0,000 mm 0,0 UV-I 24 W/m 5,1 C 9,5 C 3,2 km/h (1 Bft) 96,88 %
10.03.2018 17:28 9,4 C 3,9 C 74 % 1007,3 hPa 0,0 l/m 1,7 km/h (1 Bft) SW 233 0 min 0,000 mm 0,0 UV-I 23 W/m 5,0 C 9,4 C 3,2 km/h (1 Bft) 100,00 %
10.03.2018 17:29 9,4 C 3,9 C 74 % 1007,3 hPa 0,0 l/m 1,7 km/h (1 Bft) SW 233 0 min 0,000 mm 0,0 UV-I 23 W/m 5,0 C 9,4 C 3,2 km/h (1 Bft) 96,30 %
10.03.2018 17:30 9,5 C 3,9 C 74 % 1007,2 hPa 0,0 l/m 1,6 km/h (1 Bft) SW 233 0 min 0,000 mm 0,0 UV-I 21 W/m 5,1 C 9,5 C 1,6 km/h (1 Bft) 100,00 %
10.03.2018 17:31 9,5 C 3,9 C 74 % 1007,2 hPa 0,0 l/m 2,1 km/h (1 Bft) SW 233 0 min 0,000 mm 0,0 UV-I 21 W/m 5,1 C 9,5 C 3,2 km/h (1 Bft) 95,83 %
10.03.2018 17:32 9,5 C 3,9 C 74 % 1007,3 hPa 0,0 l/m 2,3 km/h (1 Bft) SW 233 0 min 0,000 mm 0,0 UV-I 21 W/m 5,1 C 9,5 C 3,2 km/h (1 Bft) 100,00 %
10.03.2018 17:33 9,5 C 3,9 C 74 % 1007,3 hPa 0,0 l/m 2,4 km/h (1 Bft) SW 233 0 min 0,000 mm 0,0 UV-I 19 W/m 5,1 C 9,5 C 3,2 km/h (1 Bft) 95,83 %
10.03.2018 17:34 9,4 C 3,9 C 74 % 1007,2 hPa 0,0 l/m 2,6 km/h (1 Bft) SW 233 0 min 0,000 mm 0,0 UV-I 19 W/m 5,0 C 9,4 C 3,2 km/h (1 Bft) 100,00 %
10.03.2018 17:35 9,4 C 3,9 C 74 % 1007,2 hPa 0,0 l/m 2,5 km/h (1 Bft) SW 233 0 min 0,000 mm 0,0 UV-I 18 W/m 5,0 C 9,4 C 3,2 km/h (1 Bft) 96,30 %
10.03.2018 17:36 9,3 C 3,9 C 74 % 1007,2 hPa 0,0 l/m 2,3 km/h (1 Bft) SW 233 0 min 0,000 mm 0,0 UV-I 18 W/m 4,9 C 9,3 C 3,2 km/h (1 Bft) 95,65 %
10.03.2018 17:37 9,2 C 3,9 C 75 % 1007,2 hPa 0,0 l/m 2,3 km/h (1 Bft) SW 233 0 min 0,000 mm 0,0 UV-I 18 W/m 5,0 C 9,2 C 3,2 km/h (1 Bft) 100,00 %
10.03.2018 17:38 9,2 C 3,9 C 75 % 1007,2 hPa 0,0 l/m 2,1 km/h (1 Bft) SW 233 0 min 0,000 mm 0,0 UV-I 16 W/m 5,0 C 9,2 C 3,2 km/h (1 Bft) 95,65 %
10.03.2018 17:39 9,2 C 3,9 C 75 % 1007,2 hPa 0,0 l/m 1,7 km/h (1 Bft) SW 233 0 min 0,000 mm 0,0 UV-I 16 W/m 5,0 C 9,2 C 3,2 km/h (1 Bft) 100,00 %
10.03.2018 17:40 9,2 C 3,9 C 75 % 1007,2 hPa 0,0 l/m 1,7 km/h (1 Bft) SW 233 0 min 0,000 mm 0,0 UV-I 15 W/m 5,0 C 9,2 C 3,2 km/h (1 Bft) 96,15 %
10.03.2018 17:41 9,2 C 3,9 C 75 % 1007,2 hPa 0,0 l/m 1,7 km/h (1 Bft) SW 233 0 min 0,000 mm 0,0 UV-I 14 W/m 5,0 C 9,2 C 3,2 km/h (1 Bft) 95,83 %
10.03.2018 17:42 9,2 C 3,9 C 75 % 1007,2 hPa 0,0 l/m 1,9 km/h (1 Bft) SW 233 0 min 0,000 mm 0,0 UV-I 14 W/m 5,0 C 9,2 C 3,2 km/h (1 Bft) 100,00 %
10.03.2018 17:43 9,2 C 3,9 C 75 % 1007,2 hPa 0,0 l/m 2,4 km/h (1 Bft) SW 233 0 min 0,000 mm 0,0 UV-I 12 W/m 5,0 C 9,2 C 3,2 km/h (1 Bft) 100,00 %
10.03.2018 17:44 9,2 C 3,9 C 75 % 1007,2 hPa 0,0 l/m 2,3 km/h (1 Bft) SW 233 0 min 0,000 mm 0,0 UV-I 12 W/m 5,0 C 9,2 C 3,2 km/h (1 Bft) 96,15 %
10.03.2018 17:45 9,1 C 3,9 C 75 % 1007,2 hPa 0,0 l/m 2,5 km/h (1 Bft) SW 233 0 min 0,000 mm 0,0 UV-I 12 W/m 4,9 C 9,1 C 3,2 km/h (1 Bft) 95,83 %
10.03.2018 17:46 9,0 C 3,9 C 76 % 1007,2 hPa 0,0 l/m 2,1 km/h (1 Bft) SW 233 0 min 0,000 mm 0,0 UV-I 11 W/m 5,0 C 9,0 C 3,2 km/h (1 Bft) 96,15 %
10.03.2018 17:47 8,9 C 3,9 C 77 % 1007,2 hPa 0,0 l/m 1,6 km/h (1 Bft) SW 233 0 min 0,000 mm 0,0 UV-I 11 W/m 5,1 C 8,9 C 1,6 km/h (1 Bft) 91,67 %
10.03.2018 17:48 8,8 C 3,9 C 77 % 1007,3 hPa 0,0 l/m 1,7 km/h (1 Bft) SW 233 0 min 0,000 mm 0,0 UV-I 11 W/m 5,0 C 8,8 C 3,2 km/h (1 Bft) 88,89 %
10.03.2018 17:49 8,8 C 3,9 C 77 % 1007,3 hPa 0,0 l/m 2,0 km/h (1 Bft) SW 233 0 min 0,000 mm 0,0 UV-I 9 W/m 5,0 C 8,8 C 3,2 km/h (1 Bft) 86,96 %
10.03.2018 17:50 8,9 C 3,9 C 77 % 1007,3 hPa 0,0 l/m 2,3 km/h (1 Bft) SW 233 0 min 0,000 mm 0,0 UV-I 9 W/m 5,1 C 8,9 C 3,2 km/h (1 Bft) 95,83 %
10.03.2018 17:51 8,9 C 3,9 C 77 % 1007,3 hPa 0,0 l/m 2,1 km/h (1 Bft) SW 233 1 min 0,000 mm 0,0 UV-I 9 W/m 5,1 C 8,9 C 3,2 km/h (1 Bft) 92,31 %
10.03.2018 17:52 8,8 C 3,9 C 77 % 1007,3 hPa 0,0 l/m 2,9 km/h (1 Bft) SW 233 0 min 0,000 mm 0,0 UV-I 8 W/m 5,0 C 8,8 C 3,2 km/h (1 Bft) 100,00 %
10.03.2018 17:53 8,8 C 3,9 C 78 % 1007,3 hPa 0,0 l/m 2,8 km/h (1 Bft) SW 233 0 min 0,000 mm 0,0 UV-I 7 W/m 5,2 C 8,8 C 3,2 km/h (1 Bft) 86,67 %
10.03.2018 17:54 8,7 C 3,9 C 78 % 1007,3 hPa 0,0 l/m 3,4 km/h (1 Bft) SW 232 0 min 0,000 mm 0,0 UV-I 7 W/m 5,1 C 8,7 C 4,8 km/h (1 Bft) 100,00 %
10.03.2018 17:55 8,7 C 3,9 C 78 % 1007,3 hPa 0,0 l/m 3,5 km/h (1 Bft) SW 232 0 min 0,000 mm 0,0 UV-I 7 W/m 5,1 C 8,7 C 4,8 km/h (1 Bft) 91,30 %
10.03.2018 17:56 8,6 C 3,9 C 79 % 1007,3 hPa 0,0 l/m 3,8 km/h (1 Bft) SW 232 0 min 0,000 mm 0,0 UV-I 5 W/m 5,2 C 8,6 C 4,8 km/h (1 Bft) 100,00 %
10.03.2018 17:57 8,4 C 3,9 C 79 % 1007,3 hPa 0,0 l/m 3,0 km/h (1 Bft) SW 232 0 min 0,000 mm 0,0 UV-I 5 W/m 5,0 C 8,4 C 4,8 km/h (1 Bft) 93,55 %
10.03.2018 17:58 8,4 C 3,9 C 80 % 1007,3 hPa 0,0 l/m 1,9 km/h (1 Bft) SW 232 0 min 0,000 mm 0,0 UV-I 5 W/m 5,2 C 8,4 C 3,2 km/h (1 Bft) 91,67 %
10.03.2018 17:59 8,4 C 3,9 C 79 % 1007,3 hPa 0,0 l/m 0,4 km/h (0 Bft) SW 232 0 min 0,000 mm 0,0 UV-I 5 W/m 5,0 C 8,4 C 1,6 km/h (1 Bft) 100,00 %
10.03.2018 18:00 8,5 C 3,9 C 79 % 1007,3 hPa 0,0 l/m 0,0 km/h (0 Bft) SW 232 0 min 0,000 mm 0,0 UV-I 5 W/m 5,1 C 8,5 C 0,0 km/h (0 Bft) 91,67 %
10.03.2018 18:01 8,6 C 3,9 C 79 % 1007,2 hPa 0,0 l/m 2,1 km/h (1 Bft) SW 232 0 min 0,025 mm 0,0 UV-I 4 W/m 5,2 C 8,6 C 3,2 km/h (1 Bft) 100,00 %
10.03.2018 18:02 8,7 C 3,9 C 79 % 1007,3 hPa 0,0 l/m 3,9 km/h (1 Bft) SW 232 0 min 0,000 mm 0,0 UV-I 0 W/m 5,3 C 8,7 C 4,8 km/h (1 Bft) 91,67 %
10.03.2018 18:03 8,7 C 3,9 C 79 % 1007,3 hPa 0,0 l/m 4,1 km/h (1 Bft) SW 232 0 min 0,000 mm 0,0 UV-I 0 W/m 5,3 C 8,7 C 4,8 km/h (1 Bft) 100,00 %
10.03.2018 18:04 8,7 C 3,9 C 78 % 1007,3 hPa 0,0 l/m 3,0 km/h (1 Bft) SW 232 0 min 0,000 mm 0,0 UV-I 0 W/m 5,1 C 8,7 C 3,2 km/h (1 Bft) 92,59 %
10.03.2018 18:05 8,7 C 3,9 C 78 % 1007,2 hPa 0,0 l/m 3,4 km/h (1 Bft) SW 232 0 min 0,000 mm 0,0 UV-I 0 W/m 5,1 C 8,7 C 4,8 km/h (1 Bft) 91,30 %
10.03.2018 18:06 8,6 C 3,9 C 78 % 1007,3 hPa 0,0 l/m 1,9 km/h (1 Bft) SW 232 0 min 0,000 mm 0,0 UV-I 0 W/m 5,0 C 8,6 C 3,2 km/h (1 Bft) 100,00 %
10.03.2018 18:07 8,4 C 3,9 C 79 % 1007,3 hPa 0,0 l/m 0,2 km/h (0 Bft) SW 232 0 min 0,000 mm 0,0 UV-I 0 W/m 5,0 C 8,4 C 1,6 km/h (1 Bft) 100,00 %
10.03.2018 18:08 8,3 C 3,9 C 80 % 1007,3 hPa 0,0 l/m 0,0 km/h (0 Bft) SW 232 0 min 0,000 mm 0,0 UV-I 0 W/m 5,1 C 8,3 C 0,0 km/h (0 Bft) 93,10 %
10.03.2018 18:09 8,2 C 3,9 C 80 % 1007,3 hPa 0,0 l/m 0,0 km/h (0 Bft) SW 232 0 min 0,000 mm 0,0 UV-I 0 W/m 5,0 C 8,2 C 0,0 km/h (0 Bft) 91,30 %
10.03.2018 18:10 8,3 C 3,9 C 80 % 1007,3 hPa 0,0 l/m 0,0 km/h (0 Bft) SW 232 0 min 0,000 mm 0,0 UV-I 0 W/m 5,1 C 8,3 C 0,0 km/h (0 Bft) 100,00 %
10.03.2018 18:11 8,3 C 3,9 C 80 % 1007,3 hPa 0,0 l/m 0,0 km/h (0 Bft) SW 232 0 min 0,000 mm 0,0 UV-I 0 W/m 5,1 C 8,3 C 0,0 km/h (0 Bft) 92,31 %
10.03.2018 18:12 8,3 C 3,9 C 80 % 1007,3 hPa 0,0 l/m 1,5 km/h (1 Bft) SW 232 0 min 0,000 mm 0,0 UV-I 0 W/m 5,1 C 8,3 C 3,2 km/h (1 Bft) 100,00 %
10.03.2018 18:13 8,4 C 3,9 C 79 % 1007,3 hPa 0,0 l/m 2,2 km/h (1 Bft) SW 232 0 min 0,000 mm 0,0 UV-I 0 W/m 5,0 C 8,4 C 3,2 km/h (1 Bft) 91,67 %
10.03.2018 18:14 8,4 C 3,9 C 79 % 1007,3 hPa 0,0 l/m 1,9 km/h (1 Bft) SW 232 0 min 0,000 mm 0,0 UV-I 0 W/m 5,0 C 8,4 C 3,2 km/h (1 Bft) 100,00 %
10.03.2018 18:15 8,3 C 3,9 C 79 % 1007,3 hPa 0,0 l/m 1,4 km/h (1 Bft) SW 232 0 min 0,000 mm 0,0 UV-I 0 W/m 4,9 C 8,3 C 1,6 km/h (1 Bft) 92,59 %
10.03.2018 18:16 8,3 C 3,9 C 79 % 1007,3 hPa 0,0 l/m 1,3 km/h (1 Bft) SW 232 0 min 0,000 mm 0,0 UV-I 0 W/m 4,9 C 8,3 C 1,6 km/h (1 Bft) 95,65 %
10.03.2018 18:17 8,4 C 3,9 C 79 % 1007,3 hPa 0,0 l/m 2,3 km/h (1 Bft) SW 232 0 min 0,000 mm 0,0 UV-I 0 W/m 5,0 C 8,4 C 3,2 km/h (1 Bft) 96,30 %
10.03.2018 18:18 8,4 C 3,9 C 79 % 1007,3 hPa 0,0 l/m 2,5 km/h (1 Bft) SW 232 0 min 0,000 mm 0,0 UV-I 0 W/m 5,0 C 8,4 C 3,2 km/h (1 Bft) 91,30 %
10.03.2018 18:19 8,4 C 3,9 C 79 % 1007,3 hPa 0,0 l/m 1,5 km/h (1 Bft) SW 232 0 min 0,000 mm 0,0 UV-I 0 W/m 5,0 C 8,4 C 3,2 km/h (1 Bft) 100,00 %
10.03.2018 18:20 8,4 C 3,9 C 79 % 1007,4 hPa 0,0 l/m 0,7 km/h (0 Bft) SW 232 0 min 0,000 mm 0,0 UV-I 0 W/m 5,0 C 8,4 C 1,6 km/h (1 Bft) 88,24 %
10.03.2018 18:21 8,4 C 3,9 C 79 % 1007,4 hPa 0,0 l/m 1,9 km/h (1 Bft) SW 232 0 min 0,000 mm 0,0 UV-I 0 W/m 5,0 C 8,4 C 3,2 km/h (1 Bft) 100,00 %
10.03.2018 18:22 8,5 C 3,9 C 78 % 1007,4 hPa 0,0 l/m 2,2 km/h (1 Bft) SW 232 0 min 0,000 mm 0,0 UV-I 0 W/m 4,9 C 8,5 C 3,2 km/h (1 Bft) 91,30 %
10.03.2018 18:23 8,6 C 3,9 C 78 % 1007,3 hPa 0,0 l/m 1,5 km/h (1 Bft) SW 232 0 min 0,000 mm 0,0 UV-I 0 W/m 5,0 C 8,6 C 3,2 km/h (1 Bft) 92,59 %
10.03.2018 18:24 8,6 C 3,9 C 78 % 1007,4 hPa 0,0 l/m 0,6 km/h (0 Bft) SW 232 0 min 0,000 mm 0,0 UV-I 0 W/m 5,0 C 8,6 C 1,6 km/h (1 Bft) 93,33 %
10.03.2018 18:25 8,4 C 3,9 C 78 % 1007,4 hPa 0,0 l/m 0,0 km/h (0 Bft) SW 232 0 min 0,000 mm 0,0 UV-I 0 W/m 4,8 C 8,4 C 0,0 km/h (0 Bft) 96,15 %
10.03.2018 18:26 8,4 C 3,9 C 79 % 1007,4 hPa 0,0 l/m 0,0 km/h (0 Bft) SW 232 0 min 0,000 mm 0,0 UV-I 0 W/m 5,0 C 8,4 C 0,0 km/h (0 Bft) 96,15 %
10.03.2018 18:27 8,4 C 3,9 C 79 % 1007,4 hPa 0,0 l/m 0,0 km/h (0 Bft) SW 232 0 min 0,000 mm 0,0 UV-I 0 W/m 5,0 C 8,4 C 0,0 km/h (0 Bft) 92,59 %
10.03.2018 18:28 8,3 C 3,9 C 79 % 1007,4 hPa 0,0 l/m 0,0 km/h (0 Bft) SW 232 0 min 0,000 mm 0,0 UV-I 0 W/m 4,9 C 8,3 C 0,0 km/h (0 Bft) 100,00 %
10.03.2018 18:29 8,3 C 3,9 C 79 % 1007,4 hPa 0,0 l/m 0,0 km/h (0 Bft) SW 232 0 min 0,000 mm 0,0 UV-I 0 W/m 4,9 C 8,3 C 0,0 km/h (0 Bft) 95,83 %
10.03.2018 18:30 8,3 C 3,9 C 79 % 1007,4 hPa 0,0 l/m 0,0 km/h (0 Bft) SW 232 0 min 0,000 mm 0,0 UV-I 0 W/m 4,9 C 8,3 C 0,0 km/h (0 Bft) 100,00 %
10.03.2018 18:31 8,3 C 3,9 C 79 % 1007,4 hPa 0,0 l/m 0,0 km/h (0 Bft) SW 232 0 min 0,000 mm 0,0 UV-I 0 W/m 4,9 C 8,3 C 0,0 km/h (0 Bft) 95,65 %
10.03.2018 18:32 8,4 C 3,9 C 79 % 1007,4 hPa 0,0 l/m 0,0 km/h (0 Bft) SW 232 0 min 0,000 mm 0,0 UV-I 0 W/m 5,0 C 8,4 C 0,0 km/h (0 Bft) 100,00 %
10.03.2018 18:33 8,4 C 3,9 C 79 % 1007,4 hPa 0,0 l/m 1,1 km/h (1 Bft) SW 232 0 min 0,000 mm 0,0 UV-I 0 W/m 5,0 C 8,4 C 1,6 km/h (1 Bft) 96,15 %
10.03.2018 18:34 8,4 C 3,9 C 79 % 1007,4 hPa 0,0 l/m 1,5 km/h (1 Bft) SW 232 0 min 0,000 mm 0,0 UV-I 0 W/m 5,0 C 8,4 C 1,6 km/h (1 Bft) 100,00 %
10.03.2018 18:35 8,5 C 3,9 C 78 % 1007,4 hPa 0,0 l/m 0,4 km/h (0 Bft) SW 232 0 min 0,000 mm 0,0 UV-I 0 W/m 4,9 C 8,5 C 1,6 km/h (1 Bft) 92,86 %
10.03.2018 18:36 8,6 C 3,9 C 78 % 1007,4 hPa 0,0 l/m 0,0 km/h (0 Bft) SW 232 0 min 0,000 mm 0,0 UV-I 0 W/m 5,0 C 8,6 C 0,0 km/h (0 Bft) 100,00 %
10.03.2018 18:37 8,6 C 3,9 C 78 % 1007,4 hPa 0,0 l/m 0,0 km/h (0 Bft) SW 232 0 min 0,000 mm 0,0 UV-I 0 W/m 5,0 C 8,6 C 0,0 km/h (0 Bft) 95,65 %
10.03.2018 18:38 8,7 C 3,9 C 78 % 1007,4 hPa 0,0 l/m 0,0 km/h (0 Bft) SW 232 0 min 0,000 mm 0,0 UV-I 0 W/m 5,1 C 8,7 C 0,0 km/h (0 Bft) 96,67 %
10.03.2018 18:39 8,7 C 3,9 C 77 % 1007,4 hPa 0,0 l/m 0,0 km/h (0 Bft) SW 232 0 min 0,000 mm 0,0 UV-I 0 W/m 4,9 C 8,7 C 0,0 km/h (0 Bft) 100,00 %
10.03.2018 18:40 8,7 C 3,9 C 78 % 1007,4 hPa 0,0 l/m 0,0 km/h (0 Bft) SW 232 0 min 0,000 mm 0,0 UV-I 0 W/m 5,1 C 8,7 C 0,0 km/h (0 Bft) 100,00 %
10.03.2018 18:41 8,6 C 3,9 C 77 % 1007,4 hPa 0,0 l/m 1,0 km/h (0 Bft) SW 232 0 min 0,000 mm 0,0 UV-I 0 W/m 4,8 C 8,6 C 3,2 km/h (1 Bft) 95,65 %
10.03.2018 18:42 8,4 C 3,9 C 78 % 1007,4 hPa 0,0 l/m 1,5 km/h (1 Bft) SW 232 0 min 0,000 mm 0,0 UV-I 0 W/m 4,8 C 8,4 C 1,6 km/h (1 Bft) 95,83 %
10.03.2018 18:43 8,3 C 3,9 C 79 % 1007,4 hPa 0,0 l/m 0,3 km/h (0 Bft) SW 232 0 min 0,000 mm 0,0 UV-I 0 W/m 4,9 C 8,3 C 1,6 km/h (1 Bft) 100,00 %
10.03.2018 18:44 8,2 C 3,9 C 79 % 1007,4 hPa 0,0 l/m 0,0 km/h (0 Bft) SW 232 0 min 0,000 mm 0,0 UV-I 0 W/m 4,8 C 8,2 C 0,0 km/h (0 Bft) 95,83 %
10.03.2018 18:45 8,1 C 3,9 C 80 % 1007,4 hPa 0,0 l/m 0,0 km/h (0 Bft) SW 232 0 min 0,000 mm 0,0 UV-I 0 W/m 4,9 C 8,1 C 0,0 km/h (0 Bft) 100,00 %
10.03.2018 18:46 8,1 C 3,9 C 80 % 1007,5 hPa 0,0 l/m 0,0 km/h (0 Bft) SW 232 0 min 0,000 mm 0,0 UV-I 0 W/m 4,9 C 8,1 C 0,0 km/h (0 Bft) 97,37 %
10.03.2018 18:47 8,1 C 3,9 C 81 % 1007,5 hPa 0,0 l/m 0,0 km/h (0 Bft) SW 232 0 min 0,000 mm 0,0 UV-I 0 W/m 5,0 C 8,1 C 0,0 km/h (0 Bft) 100,00 %
10.03.2018 18:48 8,1 C 3,9 C 80 % 1007,4 hPa 0,0 l/m 0,0 km/h (0 Bft) SW 232 0 min 0,000 mm 0,0 UV-I 0 W/m 4,9 C 8,1 C 0,0 km/h (0 Bft) 100,00 %
10.03.2018 18:49 8,1 C 3,9 C 81 % 1007,4 hPa 0,0 l/m 0,0 km/h (0 Bft) SW 232 0 min 0,000 mm 0,0 UV-I 0 W/m 5,0 C 8,1 C 0,0 km/h (0 Bft) 100,00 %
10.03.2018 18:50 8,1 C 3,9 C 81 % 1007,4 hPa 0,0 l/m 0,0 km/h (0 Bft) SW 232 0 min 0,000 mm 0,0 UV-I 0 W/m 5,0 C 8,1 C 0,0 km/h (0 Bft) 95,83 %
10.03.2018 18:51 8,1 C 3,9 C 80 % 1007,4 hPa 0,0 l/m 0,0 km/h (0 Bft) SW 232 0 min 0,000 mm 0,0 UV-I 0 W/m 4,9 C 8,1 C 0,0 km/h (0 Bft) 100,00 %
10.03.2018 18:52 8,2 C 3,9 C 80 % 1007,4 hPa 0,0 l/m 0,0 km/h (0 Bft) SW 232 0 min 0,000 mm 0,0 UV-I 0 W/m 5,0 C 8,2 C 0,0 km/h (0 Bft) 100,00 %
10.03.2018 18:53 8,2 C 3,9 C 80 % 1007,4 hPa 0,0 l/m 0,0 km/h (0 Bft) SW 232 0 min 0,000 mm 0,0 UV-I 0 W/m 5,0 C 8,2 C 0,0 km/h (0 Bft) 95,83 %
10.03.2018 18:54 8,1 C 3,9 C 80 % 1007,4 hPa 0,0 l/m 0,0 km/h (0 Bft) SW 232 0 min 0,000 mm 0,0 UV-I 0 W/m 4,9 C 8,1 C 0,0 km/h (0 Bft) 100,00 %
10.03.2018 18:55 8,1 C 3,9 C 80 % 1007,4 hPa 0,0 l/m 0,0 km/h (0 Bft) SW 232 0 min 0,000 mm 0,0 UV-I 0 W/m 4,9 C 8,1 C 0,0 km/h (0 Bft) 100,00 %
10.03.2018 18:56 8,0 C 3,9 C 80 % 1007,5 hPa 0,0 l/m 0,0 km/h (0 Bft) SW 232 0 min 0,000 mm 0,0 UV-I 0 W/m 4,8 C 8,0 C 0,0 km/h (0 Bft) 100,00 %
10.03.2018 18:57 7,9 C 3,9 C 81 % 1007,5 hPa 0,0 l/m 0,0 km/h (0 Bft) SW 232 0 min 0,000 mm 0,0 UV-I 0 W/m 4,8 C 7,9 C 0,0 km/h (0 Bft) 95,83 %
10.03.2018 18:58 7,8 C 3,9 C 81 % 1007,5 hPa 0,0 l/m 0,0 km/h (0 Bft) SW 232 0 min 0,000 mm 0,0 UV-I 0 W/m 4,7 C 7,8 C 0,0 km/h (0 Bft) 100,00 %
10.03.2018 18:59 7,8 C 3,9 C 82 % 1007,5 hPa 0,0 l/m 0,0 km/h (0 Bft) SW 232 0 min 0,000 mm 0,0 UV-I 0 W/m 4,9 C 7,8 C 0,0 km/h (0 Bft) 100,00 %
10.03.2018 19:00 7,8 C 3,9 C 82 % 1007,5 hPa 0,0 l/m 3,3 km/h (1 Bft) SW 232 0 min 0,000 mm 0,0 UV-I 0 W/m 4,9 C 7,8 C 4,8 km/h (1 Bft) 100,00 %
10.03.2018 19:01 7,9 C 3,9 C 81 % 1007,5 hPa 0,0 l/m 4,3 km/h (1 Bft) SW 233 0 min 0,000 mm 0,0 UV-I 0 W/m 4,8 C 7,9 C 4,8 km/h (1 Bft) 100,00 %
10.03.2018 19:02 7,9 C 3,9 C 81 % 1007,5 hPa 0,0 l/m 4,3 km/h (1 Bft) SW 233 0 min 0,000 mm 0,0 UV-I 0 W/m 4,8 C 7,9 C 6,4 km/h (2 Bft) 100,00 %
10.03.2018 19:03 7,8 C 3,9 C 81 % 1007,5 hPa 0,0 l/m 4,8 km/h (1 Bft) SW 233 0 min 0,000 mm 0,0 UV-I 0 W/m 4,7 C 7,8 C 6,4 km/h (2 Bft) 100,00 %
10.03.2018 19:04 7,8 C 3,9 C 81 % 1007,6 hPa 0,0 l/m 4,0 km/h (1 Bft) SW 233 0 min 0,000 mm 0,0 UV-I 0 W/m 4,7 C 7,8 C 4,8 km/h (1 Bft) 100,00 %
10.03.2018 19:05 7,7 C 3,9 C 82 % 1007,6 hPa 0,0 l/m 3,2 km/h (1 Bft) SW 233 0 min 0,000 mm 0,0 UV-I 0 W/m 4,8 C 7,7 C 4,8 km/h (1 Bft) 100,00 %
10.03.2018 19:06 7,7 C 3,9 C 82 % 1007,6 hPa 0,0 l/m 2,4 km/h (1 Bft) SW 233 0 min 0,000 mm 0,0 UV-I 0 W/m 4,8 C 7,7 C 3,2 km/h (1 Bft) 100,00 %
10.03.2018 19:07 7,7 C 3,9 C 82 % 1007,5 hPa 0,0 l/m 2,9 km/h (1 Bft) SW 233 0 min 0,000 mm 0,0 UV-I 0 W/m 4,8 C 7,7 C 3,2 km/h (1 Bft) 100,00 %
10.03.2018 19:08 7,6 C 3,9 C 82 % 1007,6 hPa 0,0 l/m 2,2 km/h (1 Bft) SW 233 0 min 0,000 mm 0,0 UV-I 0 W/m 4,7 C 7,6 C 3,2 km/h (1 Bft) 100,00 %
10.03.2018 19:09 7,4 C 3,9 C 82 % 1007,5 hPa 0,0 l/m 1,9 km/h (1 Bft) SW 233 0 min 0,000 mm 0,0 UV-I 0 W/m 4,5 C 7,4 C 3,2 km/h (1 Bft) 100,00 %
10.03.2018 19:10 7,3 C 3,9 C 83 % 1007,5 hPa 0,0 l/m 1,4 km/h (1 Bft) SW 233 0 min 0,000 mm 0,0 UV-I 0 W/m 4,6 C 7,3 C 3,2 km/h (1 Bft) 100,00 %
10.03.2018 19:11 7,3 C 3,9 C 83 % 1007,6 hPa 0,0 l/m 1,3 km/h (1 Bft) SW 233 0 min 0,000 mm 0,0 UV-I 0 W/m 4,6 C 7,3 C 1,6 km/h (1 Bft) 100,00 %
10.03.2018 19:12 7,2 C 3,9 C 84 % 1007,6 hPa 0,0 l/m 0,6 km/h (0 Bft) SW 233 0 min 0,000 mm 0,0 UV-I 0 W/m 4,7 C 7,2 C 1,6 km/h (1 Bft) 100,00 %
10.03.2018 19:13 7,2 C 3,9 C 83 % 1007,6 hPa 0,0 l/m 0,6 km/h (0 Bft) SW 233 0 min 0,000 mm 0,0 UV-I 0 W/m 4,5 C 7,2 C 1,6 km/h (1 Bft) 100,00 %
10.03.2018 19:14 7,3 C 3,9 C 84 % 1007,6 hPa 0,0 l/m 1,1 km/h (1 Bft) SW 233 0 min 0,000 mm 0,0 UV-I 0 W/m 4,8 C 7,3 C 3,2 km/h (1 Bft) 100,00 %
10.03.2018 19:15 7,4 C 3,9 C 83 % 1007,6 hPa 0,0 l/m 2,1 km/h (1 Bft) SW 233 0 min 0,000 mm 0,0 UV-I 0 W/m 4,7 C 7,4 C 3,2 km/h (1 Bft) 100,00 %
10.03.2018 19:16 7,5 C 3,9 C 83 % 1007,6 hPa 0,0 l/m 3,0 km/h (1 Bft) SW 233 0 min 0,000 mm 0,0 UV-I 0 W/m 4,8 C 7,5 C 3,2 km/h (1 Bft) 100,00 %
10.03.2018 19:17 7,6 C 3,9 C 83 % 1007,6 hPa 0,0 l/m 3,5 km/h (1 Bft) SW 233 0 min 0,000 mm 0,0 UV-I 0 W/m 4,9 C 7,6 C 4,8 km/h (1 Bft) 92,31 %
10.03.2018 19:18 7,7 C 3,9 C 82 % 1007,7 hPa 0,0 l/m 3,4 km/h (1 Bft) SW 233 0 min 0,000 mm 0,0 UV-I 0 W/m 4,8 C 7,7 C 4,8 km/h (1 Bft) 100,00 %
10.03.2018 19:19 7,8 C 3,9 C 82 % 1007,7 hPa 0,0 l/m 3,2 km/h (1 Bft) SW 233 0 min 0,000 mm 0,0 UV-I 0 W/m 4,9 C 7,8 C 4,8 km/h (1 Bft) 100,00 %
10.03.2018 19:20 7,7 C 3,9 C 82 % 1007,7 hPa 0,0 l/m 2,5 km/h (1 Bft) SW 233 0 min 0,000 mm 0,0 UV-I 0 W/m 4,8 C 7,7 C 3,2 km/h (1 Bft) 100,00 %
10.03.2018 19:21 7,7 C 3,9 C 82 % 1007,7 hPa 0,0 l/m 2,6 km/h (1 Bft) SW 233 0 min 0,000 mm 0,0 UV-I 0 W/m 4,8 C 7,7 C 3,2 km/h (1 Bft) 100,00 %
10.03.2018 19:22 7,5 C 3,9 C 82 % 1007,7 hPa 0,0 l/m 3,1 km/h (1 Bft) SW 233 0 min 0,000 mm 0,0 UV-I 0 W/m 4,6 C 7,5 C 3,2 km/h (1 Bft) 100,00 %
10.03.2018 19:23 7,4 C 3,9 C 83 % 1007,8 hPa 0,0 l/m 2,3 km/h (1 Bft) SW 233 0 min 0,000 mm 0,0 UV-I 0 W/m 4,7 C 7,4 C 3,2 km/h (1 Bft) 100,00 %
10.03.2018 19:24 7,4 C 3,9 C 83 % 1007,7 hPa 0,0 l/m 3,2 km/h (1 Bft) SW 233 0 min 0,000 mm 0,0 UV-I 0 W/m 4,7 C 7,4 C 3,2 km/h (1 Bft) 95,83 %
10.03.2018 19:25 7,4 C 3,9 C 83 % 1007,7 hPa 0,0 l/m 3,4 km/h (1 Bft) SW 233 0 min 0,000 mm 0,0 UV-I 0 W/m 4,7 C 7,4 C 4,8 km/h (1 Bft) 100,00 %
10.03.2018 19:26 7,4 C 3,9 C 83 % 1007,7 hPa 0,0 l/m 3,2 km/h (1 Bft) SW 233 0 min 0,000 mm 0,0 UV-I 0 W/m 4,7 C 7,4 C 3,2 km/h (1 Bft) 100,00 %
10.03.2018 19:27 7,3 C 3,9 C 83 % 1007,7 hPa 0,0 l/m 2,4 km/h (1 Bft) SW 233 0 min 0,000 mm 0,0 UV-I 0 W/m 4,6 C 7,3 C 3,2 km/h (1 Bft) 100,00 %
10.03.2018 19:28 7,2 C 3,9 C 83 % 1007,7 hPa 0,0 l/m 2,3 km/h (1 Bft) SW 233 0 min 0,000 mm 0,0 UV-I 0 W/m 4,5 C 7,2 C 3,2 km/h (1 Bft) 100,00 %
10.03.2018 19:29 7,1 C 3,9 C 84 % 1007,7 hPa 0,0 l/m 2,2 km/h (1 Bft) SW 233 0 min 0,000 mm 0,0 UV-I 0 W/m 4,6 C 7,1 C 3,2 km/h (1 Bft) 100,00 %
10.03.2018 19:30 6,9 C 3,9 C 84 % 1007,7 hPa 0,0 l/m 1,8 km/h (1 Bft) SW 233 0 min 0,000 mm 0,0 UV-I 0 W/m 4,4 C 6,9 C 3,2 km/h (1 Bft) 100,00 %
10.03.2018 19:31 6,9 C 3,9 C 85 % 1007,7 hPa 0,0 l/m 1,8 km/h (1 Bft) SW 233 0 min 0,000 mm 0,0 UV-I 0 W/m 4,6 C 6,9 C 3,2 km/h (1 Bft) 100,00 %
10.03.2018 19:32 6,9 C 3,9 C 85 % 1007,7 hPa 0,0 l/m 0,9 km/h (0 Bft) SW 233 0 min 0,000 mm 0,0 UV-I 0 W/m 4,6 C 6,9 C 1,6 km/h (1 Bft) 100,00 %
10.03.2018 19:33 7,0 C 3,9 C 85 % 1007,7 hPa 0,0 l/m 0,6 km/h (0 Bft) SW 233 0 min 0,000 mm 0,0 UV-I 0 W/m 4,7 C 7,0 C 1,6 km/h (1 Bft) 91,67 %
10.03.2018 19:34 7,1 C 3,9 C 85 % 1007,7 hPa 0,0 l/m 0,0 km/h (0 Bft) SW 233 0 min 0,000 mm 0,0 UV-I 0 W/m 4,8 C 7,1 C 0,0 km/h (0 Bft) 95,65 %
10.03.2018 19:35 7,2 C 3,9 C 85 % 1007,7 hPa 0,0 l/m 0,0 km/h (0 Bft) SW 233 0 min 0,000 mm 0,0 UV-I 0 W/m 4,9 C 7,2 C 0,0 km/h (0 Bft) 100,00 %
10.03.2018 19:36 7,2 C 3,9 C 84 % 1007,7 hPa 0,0 l/m 0,0 km/h (0 Bft) SW 233 0 min 0,000 mm 0,0 UV-I 0 W/m 4,7 C 7,2 C 0,0 km/h (0 Bft) 100,00 %
10.03.2018 19:37 7,2 C 3,9 C 84 % 1007,7 hPa 0,0 l/m 0,0 km/h (0 Bft) SW 233 0 min 0,000 mm 0,0 UV-I 0 W/m 4,7 C 7,2 C 0,0 km/h (0 Bft) 100,00 %
10.03.2018 19:38 7,3 C 3,9 C 84 % 1007,7 hPa 0,0 l/m 0,0 km/h (0 Bft) SW 233 0 min 0,000 mm 0,0 UV-I 0 W/m 4,8 C 7,3 C 0,0 km/h (0 Bft) 100,00 %
10.03.2018 19:39 7,3 C 3,9 C 84 % 1007,7 hPa 0,0 l/m 0,0 km/h (0 Bft) SW 233 0 min 0,000 mm 0,0 UV-I 0 W/m 4,8 C 7,3 C 0,0 km/h (0 Bft) 95,83 %
10.03.2018 19:40 7,4 C 3,9 C 83 % 1007,7 hPa 0,0 l/m 0,0 km/h (0 Bft) SW 233 0 min 0,000 mm 0,0 UV-I 0 W/m 4,7 C 7,4 C 0,0 km/h (0 Bft) 95,65 %
10.03.2018 19:41 7,5 C 3,9 C 83 % 1007,7 hPa 0,0 l/m 0,2 km/h (0 Bft) SW 233 0 min 0,000 mm 0,0 UV-I 0 W/m 4,8 C 7,5 C 1,6 km/h (1 Bft) 100,00 %
10.03.2018 19:42 7,5 C 3,9 C 83 % 1007,7 hPa 0,0 l/m 2,1 km/h (1 Bft) SW 233 0 min 0,000 mm 0,0 UV-I 0 W/m 4,8 C 7,5 C 3,2 km/h (1 Bft) 100,00 %
10.03.2018 19:43 7,5 C 3,9 C 82 % 1007,7 hPa 0,0 l/m 1,8 km/h (1 Bft) SW 233 0 min 0,000 mm 0,0 UV-I 0 W/m 4,6 C 7,5 C 3,2 km/h (1 Bft) 100,00 %
10.03.2018 19:44 7,4 C 3,9 C 83 % 1007,7 hPa 0,0 l/m 1,5 km/h (1 Bft) SW 233 0 min 0,000 mm 0,0 UV-I 0 W/m 4,7 C 7,4 C 1,6 km/h (1 Bft) 95,65 %
10.03.2018 19:45 7,3 C 3,9 C 83 % 1007,7 hPa 0,0 l/m 1,9 km/h (1 Bft) SW 233 0 min 0,000 mm 0,0 UV-I 0 W/m 4,6 C 7,3 C 3,2 km/h (1 Bft) 100,00 %
10.03.2018 19:46 7,3 C 3,9 C 83 % 1007,7 hPa 0,0 l/m 1,6 km/h (1 Bft) SW 233 0 min 0,000 mm 0,0 UV-I 0 W/m 4,6 C 7,3 C 3,2 km/h (1 Bft) 100,00 %
10.03.2018 19:47 7,3 C 3,9 C 83 % 1007,7 hPa 0,0 l/m 1,9 km/h (1 Bft) SW 233 0 min 0,000 mm 0,0 UV-I 0 W/m 4,6 C 7,3 C 3,2 km/h (1 Bft) 100,00 %
10.03.2018 19:48 7,4 C 3,9 C 83 % 1007,7 hPa 0,0 l/m 1,7 km/h (1 Bft) SW 233 0 min 0,000 mm 0,0 UV-I 0 W/m 4,7 C 7,4 C 3,2 km/h (1 Bft) 97,65 %
10.03.2018 19:49 7,4 C 3,9 C 83 % 1007,7 hPa 0,0 l/m 2,6 km/h (1 Bft) SW 233 0 min 0,000 mm 0,0 UV-I 0 W/m 4,7 C 7,4 C 3,2 km/h (1 Bft) 100,00 %
10.03.2018 19:50 7,4 C 3,9 C 83 % 1007,8 hPa 0,0 l/m 3,2 km/h (1 Bft) SW 233 0 min 0,000 mm 0,0 UV-I 0 W/m 4,7 C 7,4 C 3,2 km/h (1 Bft) 100,00 %
10.03.2018 19:51 7,3 C 3,9 C 83 % 1007,7 hPa 0,0 l/m 2,5 km/h (1 Bft) SW 233 0 min 0,000 mm 0,0 UV-I 0 W/m 4,6 C 7,3 C 3,2 km/h (1 Bft) 91,30 %
10.03.2018 19:52 7,2 C 3,9 C 83 % 1007,7 hPa 0,0 l/m 2,1 km/h (1 Bft) SW 233 0 min 0,000 mm 0,0 UV-I 0 W/m 4,5 C 7,2 C 3,2 km/h (1 Bft) 100,00 %
10.03.2018 19:53 7,1 C 3,9 C 84 % 1007,7 hPa 0,0 l/m 2,0 km/h (1 Bft) SW 233 0 min 0,000 mm 0,0 UV-I 0 W/m 4,6 C 7,1 C 3,2 km/h (1 Bft) 95,65 %
10.03.2018 19:54 6,9 C 3,9 C 84 % 1007,7 hPa 0,0 l/m 2,1 km/h (1 Bft) SW 233 0 min 0,000 mm 0,0 UV-I 0 W/m 4,4 C 6,9 C 3,2 km/h (1 Bft) 100,00 %
10.03.2018 19:55 6,9 C 3,9 C 85 % 1007,7 hPa 0,0 l/m 2,3 km/h (1 Bft) SW 233 0 min 0,000 mm 0,0 UV-I 0 W/m 4,6 C 6,9 C 3,2 km/h (1 Bft) 100,00 %
10.03.2018 19:56 6,8 C 3,9 C 85 % 1007,7 hPa 0,0 l/m 1,7 km/h (1 Bft) SW 233 0 min 0,000 mm 0,0 UV-I 0 W/m 4,5 C 6,8 C 3,2 km/h (1 Bft) 100,00 %
10.03.2018 19:57 6,8 C 3,9 C 85 % 1007,7 hPa 0,0 l/m 1,5 km/h (1 Bft) SW 233 0 min 0,000 mm 0,0 UV-I 0 W/m 4,5 C 6,8 C 3,2 km/h (1 Bft) 100,00 %
10.03.2018 19:58 6,8 C 3,9 C 85 % 1007,7 hPa 0,0 l/m 2,3 km/h (1 Bft) SW 233 0 min 0,000 mm 0,0 UV-I 0 W/m 4,5 C 6,8 C 3,2 km/h (1 Bft) 100,00 %
10.03.2018 19:59 6,9 C 3,9 C 85 % 1007,8 hPa 0,0 l/m 1,6 km/h (1 Bft) SW 233 0 min 0,000 mm 0,0 UV-I 0 W/m 4,6 C 6,9 C 1,6 km/h (1 Bft) 100,00 %
10.03.2018 20:00 6,9 C 3,9 C 85 % 1007,8 hPa 0,0 l/m 2,0 km/h (1 Bft) SW 233 0 min 0,000 mm 0,0 UV-I 0 W/m 4,6 C 6,9 C 3,2 km/h (1 Bft) 100,00 %
10.03.2018 20:01 6,9 C 3,9 C 85 % 1007,8 hPa 0,0 l/m 2,5 km/h (1 Bft) SW 233 0 min 0,000 mm 0,0 UV-I 0 W/m 4,6 C 6,9 C 3,2 km/h (1 Bft) 100,00 %
10.03.2018 20:02 7,0 C 3,9 C 85 % 1007,8 hPa 0,0 l/m 2,3 km/h (1 Bft) SW 233 0 min 0,000 mm 0,0 UV-I 0 W/m 4,7 C 7,0 C 3,2 km/h (1 Bft) 100,00 %
10.03.2018 20:03 7,0 C 3,9 C 85 % 1007,7 hPa 0,0 l/m 1,8 km/h (1 Bft) SW 233 0 min 0,000 mm 0,0 UV-I 0 W/m 4,7 C 7,0 C 3,2 km/h (1 Bft) 100,00 %
10.03.2018 20:04 7,1 C 3,9 C 85 % 1007,7 hPa 0,0 l/m 1,6 km/h (1 Bft) SW 233 0 min 0,000 mm 0,0 UV-I 0 W/m 4,8 C 7,1 C 1,6 km/h (1 Bft) 96,30 %
10.03.2018 20:05 7,1 C 3,9 C 85 % 1007,7 hPa 0,0 l/m 1,6 km/h (1 Bft) SW 233 0 min 0,000 mm 0,0 UV-I 0 W/m 4,8 C 7,1 C 1,6 km/h (1 Bft) 96,15 %
10.03.2018 20:06 7,1 C 3,9 C 84 % 1007,7 hPa 0,0 l/m 1,2 km/h (1 Bft) SW 233 0 min 0,000 mm 0,0 UV-I 0 W/m 4,6 C 7,1 C 1,6 km/h (1 Bft) 100,00 %
10.03.2018 20:07 7,0 C 3,9 C 84 % 1007,7 hPa 0,0 l/m 0,7 km/h (0 Bft) SW 233 0 min 0,000 mm 0,0 UV-I 0 W/m 4,5 C 7,0 C 1,6 km/h (1 Bft) 100,00 %
10.03.2018 20:08 6,9 C 3,9 C 84 % 1007,7 hPa 0,0 l/m 0,5 km/h (0 Bft) SW 233 0 min 0,000 mm 0,0 UV-I 0 W/m 4,4 C 6,9 C 1,6 km/h (1 Bft) 100,00 %
10.03.2018 20:09 6,9 C 3,9 C 84 % 1007,7 hPa 0,0 l/m 0,0 km/h (0 Bft) SW 233 0 min 0,000 mm 0,0 UV-I 0 W/m 4,4 C 6,9 C 0,0 km/h (0 Bft) 100,00 %
10.03.2018 20:10 6,9 C 3,9 C 85 % 1007,7 hPa 0,0 l/m 0,0 km/h (0 Bft) SW 233 0 min 0,000 mm 0,0 UV-I 0 W/m 4,6 C 6,9 C 0,0 km/h (0 Bft) 100,00 %
10.03.2018 20:11 7,0 C 3,9 C 85 % 1007,7 hPa 0,0 l/m 0,0 km/h (0 Bft) SW 233 0 min 0,000 mm 0,0 UV-I 0 W/m 4,7 C 7,0 C 0,0 km/h (0 Bft) 100,00 %
10.03.2018 20:12 7,1 C 3,9 C 85 % 1007,7 hPa 0,0 l/m 0,0 km/h (0 Bft) SW 233 0 min 0,000 mm 0,0 UV-I 0 W/m 4,8 C 7,1 C 0,0 km/h (0 Bft) 100,00 %
10.03.2018 20:13 7,1 C 3,9 C 84 % 1007,7 hPa 0,0 l/m 0,0 km/h (0 Bft) SW 233 0 min 0,000 mm 0,0 UV-I 0 W/m 4,6 C 7,1 C 0,0 km/h (0 Bft) 95,83 %
10.03.2018 20:14 7,1 C 3,9 C 84 % 1007,7 hPa 0,0 l/m 0,0 km/h (0 Bft) SW 233 0 min 0,000 mm 0,0 UV-I 0 W/m 4,6 C 7,1 C 0,0 km/h (0 Bft) 92,86 %
10.03.2018 20:15 7,1 C 3,9 C 84 % 1007,7 hPa 0,0 l/m 0,0 km/h (0 Bft) SW 233 0 min 0,000 mm 0,0 UV-I 0 W/m 4,6 C 7,1 C 0,0 km/h (0 Bft) 95,83 %
10.03.2018 20:16 7,1 C 3,9 C 84 % 1007,7 hPa 0,0 l/m 0,0 km/h (0 Bft) SW 233 0 min 0,000 mm 0,0 UV-I 0 W/m 4,6 C 7,1 C 0,0 km/h (0 Bft) 100,00 %
10.03.2018 20:17 7,2 C 3,9 C 84 % 1007,8 hPa 0,0 l/m 0,0 km/h (0 Bft) SW 233 0 min 0,000 mm 0,0 UV-I 0 W/m 4,7 C 7,2 C 0,0 km/h (0 Bft) 95,83 %
10.03.2018 20:18 7,3 C 3,9 C 84 % 1007,8 hPa 0,0 l/m 0,0 km/h (0 Bft) SW 233 0 min 0,000 mm 0,0 UV-I 0 W/m 4,8 C 7,3 C 0,0 km/h (0 Bft) 95,65 %
10.03.2018 20:19 7,4 C 3,9 C 83 % 1007,8 hPa 0,0 l/m 0,0 km/h (0 Bft) SW 233 0 min 0,000 mm 0,0 UV-I 0 W/m 4,7 C 7,4 C 0,0 km/h (0 Bft) 100,00 %
10.03.2018 20:20 7,4 C 3,9 C 83 % 1007,8 hPa 0,0 l/m 0,0 km/h (0 Bft) SW 233 0 min 0,000 mm 0,0 UV-I 0 W/m 4,7 C 7,4 C 0,0 km/h (0 Bft) 100,00 %
10.03.2018 20:21 7,4 C 3,9 C 83 % 1007,8 hPa 0,0 l/m 0,0 km/h (0 Bft) SW 233 0 min 0,000 mm 0,0 UV-I 0 W/m 4,7 C 7,4 C 0,0 km/h (0 Bft) 94,74 %
10.03.2018 20:22 7,4 C 3,9 C 83 % 1007,8 hPa 0,0 l/m 0,0 km/h (0 Bft) SW 233 0 min 0,000 mm 0,0 UV-I 0 W/m 4,7 C 7,4 C 0,0 km/h (0 Bft) 96,15 %
10.03.2018 20:23 7,3 C 3,9 C 83 % 1007,8 hPa 0,0 l/m 0,0 km/h (0 Bft) SW 233 0 min 0,000 mm 0,0 UV-I 0 W/m 4,6 C 7,3 C 0,0 km/h (0 Bft) 100,00 %
10.03.2018 20:24 7,3 C 3,9 C 83 % 1007,8 hPa 0,0 l/m 0,0 km/h (0 Bft) SW 233 0 min 0,000 mm 0,0 UV-I 0 W/m 4,6 C 7,3 C 0,0 km/h (0 Bft) 95,65 %
10.03.2018 20:25 7,2 C 3,9 C 83 % 1007,8 hPa 0,0 l/m 0,7 km/h (0 Bft) SW 233 0 min 0,000 mm 0,0 UV-I 0 W/m 4,5 C 7,2 C 3,2 km/h (1 Bft) 92,59 %
10.03.2018 20:26 7,2 C 3,9 C 84 % 1007,8 hPa 0,0 l/m 1,4 km/h (1 Bft) SW 233 0 min 0,000 mm 0,0 UV-I 0 W/m 4,7 C 7,2 C 1,6 km/h (1 Bft) 100,00 %
10.03.2018 20:27 7,2 C 3,9 C 83 % 1007,9 hPa 0,0 l/m 0,1 km/h (0 Bft) SW 233 0 min 0,000 mm 0,0 UV-I 0 W/m 4,5 C 7,2 C 1,6 km/h (1 Bft) 96,15 %
10.03.2018 20:28 7,1 C 3,9 C 83 % 1007,9 hPa 0,0 l/m 0,0 km/h (0 Bft) SW 233 0 min 0,000 mm 0,0 UV-I 0 W/m 4,4 C 7,1 C 0,0 km/h (0 Bft) 100,00 %
10.03.2018 20:29 6,9 C 3,9 C 83 % 1007,8 hPa 0,0 l/m 0,0 km/h (0 Bft) SW 233 0 min 0,000 mm 0,0 UV-I 0 W/m 4,2 C 6,9 C 0,0 km/h (0 Bft) 95,65 %
10.03.2018 20:30 6,8 C 3,9 C 85 % 1007,9 hPa 0,0 l/m 0,0 km/h (0 Bft) SW 233 0 min 0,000 mm 0,0 UV-I 0 W/m 4,5 C 6,8 C 0,0 km/h (0 Bft) 100,00 %
10.03.2018 20:31 6,7 C 3,9 C 85 % 1007,9 hPa 0,0 l/m 0,0 km/h (0 Bft) SW 233 0 min 0,000 mm 0,0 UV-I 0 W/m 4,4 C 6,7 C 0,0 km/h (0 Bft) 95,65 %
10.03.2018 20:32 6,6 C 3,9 C 85 % 1007,8 hPa 0,0 l/m 0,0 km/h (0 Bft) SW 233 0 min 0,000 mm 0,0 UV-I 0 W/m 4,3 C 6,6 C 0,0 km/h (0 Bft) 96,30 %
10.03.2018 20:33 6,4 C 3,9 C 85 % 1007,8 hPa 0,0 l/m 0,0 km/h (0 Bft) SW 233 0 min 0,000 mm 0,0 UV-I 0 W/m 4,1 C 6,4 C 0,0 km/h (0 Bft) 100,00 %
10.03.2018 20:34 6,3 C 3,9 C 86 % 1007,8 hPa 0,0 l/m 0,0 km/h (0 Bft) SW 233 0 min 0,000 mm 0,0 UV-I 0 W/m 4,1 C 6,3 C 0,0 km/h (0 Bft) 100,00 %
10.03.2018 20:35 6,2 C 3,9 C 86 % 1007,9 hPa 0,0 l/m 0,0 km/h (0 Bft) SW 233 0 min 0,000 mm 0,0 UV-I 0 W/m 4,0 C 6,2 C 0,0 km/h (0 Bft) 96,15 %
10.03.2018 20:36 6,1 C 3,9 C 86 % 1007,8 hPa 0,0 l/m 0,0 km/h (0 Bft) SW 233 0 min 0,000 mm 0,0 UV-I 0 W/m 3,9 C 6,1 C 0,0 km/h (0 Bft) 93,33 %
10.03.2018 20:37 6,1 C 3,9 C 87 % 1007,8 hPa 0,0 l/m 0,0 km/h (0 Bft) SW 233 0 min 0,000 mm 0,0 UV-I 0 W/m 4,1 C 6,1 C 0,0 km/h (0 Bft) 100,00 %
10.03.2018 20:38 6,1 C 3,9 C 87 % 1007,8 hPa 0,0 l/m 0,0 km/h (0 Bft) SW 233 0 min 0,000 mm 0,0 UV-I 0 W/m 4,1 C 6,1 C 0,0 km/h (0 Bft) 93,33 %
10.03.2018 20:39 6,2 C 3,9 C 87 % 1007,8 hPa 0,0 l/m 0,0 km/h (0 Bft) SW 233 0 min 0,000 mm 0,0 UV-I 0 W/m 4,2 C 6,2 C 0,0 km/h (0 Bft) 100,00 %
10.03.2018 20:40 6,2 C 3,9 C 87 % 1007,8 hPa 0,0 l/m 0,0 km/h (0 Bft) SW 233 0 min 0,000 mm 0,0 UV-I 0 W/m 4,2 C 6,2 C 0,0 km/h (0 Bft) 92,59 %
10.03.2018 20:41 6,3 C 3,9 C 88 % 1007,8 hPa 0,0 l/m 0,0 km/h (0 Bft) SW 233 0 min 0,000 mm 0,0 UV-I 0 W/m 4,5 C 6,3 C 0,0 km/h (0 Bft) 95,65 %
10.03.2018 20:42 6,3 C 3,9 C 87 % 1007,8 hPa 0,0 l/m 1,4 km/h (1 Bft) SW 233 0 min 0,000 mm 0,0 UV-I 0 W/m 4,3 C 6,3 C 3,2 km/h (1 Bft) 100,00 %
10.03.2018 20:43 6,4 C 3,9 C 87 % 1007,8 hPa 0,0 l/m 2,1 km/h (1 Bft) SW 233 0 min 0,000 mm 0,0 UV-I 0 W/m 4,4 C 6,4 C 3,2 km/h (1 Bft) 100,00 %
10.03.2018 20:44 6,5 C 3,9 C 87 % 1007,8 hPa 0,0 l/m 0,6 km/h (0 Bft) SW 233 0 min 0,000 mm 0,0 UV-I 0 W/m 4,5 C 6,5 C 1,6 km/h (1 Bft) 95,65 %
10.03.2018 20:45 6,5 C 3,9 C 86 % 1007,8 hPa 0,0 l/m 0,0 km/h (0 Bft) SW 233 0 min 0,000 mm 0,0 UV-I 0 W/m 4,3 C 6,5 C 0,0 km/h (0 Bft) 100,00 %
10.03.2018 20:46 6,4 C 3,9 C 86 % 1007,8 hPa 0,0 l/m 0,0 km/h (0 Bft) SW 233 0 min 0,000 mm 0,0 UV-I 0 W/m 4,2 C 6,4 C 0,0 km/h (0 Bft) 92,68 %
10.03.2018 20:47 6,3 C 3,9 C 86 % 1007,8 hPa 0,0 l/m 0,0 km/h (0 Bft) SW 233 0 min 0,000 mm 0,0 UV-I 0 W/m 4,1 C 6,3 C 0,0 km/h (0 Bft) 91,67 %
10.03.2018 20:48 6,3 C 3,9 C 86 % 1007,8 hPa 0,0 l/m 0,0 km/h (0 Bft) SW 233 0 min 0,000 mm 0,0 UV-I 0 W/m 4,1 C 6,3 C 0,0 km/h (0 Bft) 100,00 %
10.03.2018 20:49 6,3 C 3,9 C 87 % 1007,8 hPa 0,0 l/m 0,1 km/h (0 Bft) SW 233 0 min 0,000 mm 0,0 UV-I 0 W/m 4,3 C 6,3 C 1,6 km/h (1 Bft) 95,83 %
10.03.2018 20:50 6,3 C 3,9 C 87 % 1007,8 hPa 0,0 l/m 2,7 km/h (1 Bft) SW 233 0 min 0,000 mm 0,0 UV-I 0 W/m 4,3 C 6,3 C 3,2 km/h (1 Bft) 100,00 %
10.03.2018 20:51 6,3 C 3,9 C 86 % 1007,9 hPa 0,0 l/m 2,2 km/h (1 Bft) SW 233 0 min 0,000 mm 0,0 UV-I 0 W/m 4,1 C 6,3 C 3,2 km/h (1 Bft) 96,30 %
10.03.2018 20:52 6,2 C 3,9 C 86 % 1007,9 hPa 0,0 l/m 0,6 km/h (0 Bft) SW 233 0 min 0,000 mm 0,0 UV-I 0 W/m 4,0 C 6,2 C 1,6 km/h (1 Bft) 96,15 %
10.03.2018 20:53 6,2 C 3,9 C 86 % 1007,8 hPa 0,0 l/m 0,0 km/h (0 Bft) SW 233 0 min 0,000 mm 0,0 UV-I 0 W/m 4,0 C 6,2 C 0,0 km/h (0 Bft) 100,00 %
10.03.2018 20:54 6,2 C 3,9 C 87 % 1007,8 hPa 0,0 l/m 0,0 km/h (0 Bft) SW 233 0 min 0,000 mm 0,0 UV-I 0 W/m 4,2 C 6,2 C 0,0 km/h (0 Bft) 92,86 %
10.03.2018 20:55 6,2 C 3,9 C 87 % 1007,8 hPa 0,0 l/m 0,0 km/h (0 Bft) SW 233 0 min 0,000 mm 0,0 UV-I 0 W/m 4,2 C 6,2 C 0,0 km/h (0 Bft) 95,83 %
10.03.2018 20:56 6,2 C 3,9 C 87 % 1007,9 hPa 0,0 l/m 0,0 km/h (0 Bft) SW 233 0 min 0,000 mm 0,0 UV-I 0 W/m 4,2 C 6,2 C 0,0 km/h (0 Bft) 95,65 %
10.03.2018 20:57 6,2 C 3,9 C 87 % 1007,8 hPa 0,0 l/m 0,0 km/h (0 Bft) SW 233 0 min 0,000 mm 0,0 UV-I 0 W/m 4,2 C 6,2 C 0,0 km/h (0 Bft) 100,00 %
10.03.2018 20:58 6,2 C 3,9 C 87 % 1007,9 hPa 0,0 l/m 0,0 km/h (0 Bft) SW 233 0 min 0,000 mm 0,0 UV-I 0 W/m 4,2 C 6,2 C 0,0 km/h (0 Bft) 100,00 %
10.03.2018 20:59 6,2 C 3,9 C 87 % 1007,9 hPa 0,0 l/m 0,0 km/h (0 Bft) SW 233 0 min 0,000 mm 0,0 UV-I 0 W/m 4,2 C 6,2 C 0,0 km/h (0 Bft) 100,00 %
10.03.2018 21:00 6,2 C 3,9 C 87 % 1007,9 hPa 0,0 l/m 0,0 km/h (0 Bft) SW 233 0 min 0,000 mm 0,0 UV-I 0 W/m 4,2 C 6,2 C 0,0 km/h (0 Bft) 100,00 %
10.03.2018 21:01 6,2 C 3,9 C 87 % 1007,9 hPa 0,0 l/m 0,0 km/h (0 Bft) SW 233 0 min 0,000 mm 0,0 UV-I 0 W/m 4,2 C 6,2 C 0,0 km/h (0 Bft) 100,00 %
10.03.2018 21:02 6,2 C 3,9 C 87 % 1007,9 hPa 0,0 l/m 0,0 km/h (0 Bft) SW 233 0 min 0,000 mm 0,0 UV-I 0 W/m 4,2 C 6,2 C 0,0 km/h (0 Bft) 96,15 %
10.03.2018 21:03 6,2 C 3,9 C 87 % 1007,9 hPa 0,0 l/m 0,0 km/h (0 Bft) SW 233 0 min 0,000 mm 0,0 UV-I 0 W/m 4,2 C 6,2 C 0,0 km/h (0 Bft) 100,00 %
10.03.2018 21:04 6,2 C 3,9 C 87 % 1007,9 hPa 0,0 l/m 0,0 km/h (0 Bft) SW 233 0 min 0,000 mm 0,0 UV-I 0 W/m 4,2 C 6,2 C 0,0 km/h (0 Bft) 100,00 %
10.03.2018 21:05 6,2 C 3,9 C 87 % 1007,9 hPa 0,0 l/m 0,0 km/h (0 Bft) SW 233 0 min 0,000 mm 0,0 UV-I 0 W/m 4,2 C 6,2 C 0,0 km/h (0 Bft) 96,15 %
10.03.2018 21:06 6,3 C 3,9 C 87 % 1007,9 hPa 0,0 l/m 0,8 km/h (0 Bft) SW 233 0 min 0,000 mm 0,0 UV-I 0 W/m 4,3 C 6,3 C 3,2 km/h (1 Bft) 100,00 %
10.03.2018 21:07 6,3 C 3,9 C 87 % 1008,0 hPa 0,0 l/m 2,7 km/h (1 Bft) SW 233 0 min 0,000 mm 0,0 UV-I 0 W/m 4,3 C 6,3 C 3,2 km/h (1 Bft) 100,00 %
10.03.2018 21:08 6,2 C 3,9 C 87 % 1007,9 hPa 0,0 l/m 2,9 km/h (1 Bft) SW 233 0 min 0,000 mm 0,0 UV-I 0 W/m 4,2 C 6,2 C 3,2 km/h (1 Bft) 100,00 %
10.03.2018 21:09 6,2 C 3,9 C 87 % 1007,9 hPa 0,0 l/m 2,9 km/h (1 Bft) SW 233 0 min 0,000 mm 0,0 UV-I 0 W/m 4,2 C 6,2 C 3,2 km/h (1 Bft) 96,15 %
10.03.2018 21:10 6,1 C 3,9 C 87 % 1007,9 hPa 0,0 l/m 2,9 km/h (1 Bft) SW 233 0 min 0,000 mm 0,0 UV-I 0 W/m 4,1 C 6,1 C 3,2 km/h (1 Bft) 100,00 %
10.03.2018 21:11 6,0 C 3,9 C 87 % 1007,9 hPa 0,0 l/m 3,0 km/h (1 Bft) SW 233 0 min 0,000 mm 0,0 UV-I 0 W/m 4,0 C 6,0 C 3,2 km/h (1 Bft) 100,00 %
10.03.2018 21:12 6,0 C 3,9 C 88 % 1007,9 hPa 0,0 l/m 3,1 km/h (1 Bft) SW 233 0 min 0,000 mm 0,0 UV-I 0 W/m 4,2 C 6,0 C 3,2 km/h (1 Bft) 100,00 %
10.03.2018 21:13 6,1 C 3,9 C 88 % 1007,9 hPa 0,0 l/m 3,2 km/h (1 Bft) SW 233 0 min 0,000 mm 0,0 UV-I 0 W/m 4,3 C 6,1 C 3,2 km/h (1 Bft) 100,00 %
10.03.2018 21:14 6,1 C 3,9 C 88 % 1008,0 hPa 0,0 l/m 3,2 km/h (1 Bft) SW 233 0 min 0,000 mm 0,0 UV-I 0 W/m 4,3 C 6,1 C 4,8 km/h (1 Bft) 100,00 %
10.03.2018 21:15 6,2 C 3,9 C 88 % 1008,0 hPa 0,0 l/m 3,3 km/h (1 Bft) SW 233 0 min 0,000 mm 0,0 UV-I 0 W/m 4,4 C 6,2 C 4,8 km/h (1 Bft) 96,15 %
10.03.2018 21:16 6,2 C 3,9 C 87 % 1008,0 hPa 0,0 l/m 3,9 km/h (1 Bft) SW 233 0 min 0,000 mm 0,0 UV-I 0 W/m 4,2 C 6,2 C 4,8 km/h (1 Bft) 100,00 %
10.03.2018 21:17 6,3 C 3,9 C 87 % 1008,0 hPa 0,0 l/m 4,3 km/h (1 Bft) SW 233 0 min 0,000 mm 0,0 UV-I 0 W/m 4,3 C 6,3 C 4,8 km/h (1 Bft) 100,00 %
10.03.2018 21:18 6,4 C 3,9 C 87 % 1008,1 hPa 0,0 l/m 4,8 km/h (1 Bft) SW 233 0 min 0,000 mm 0,0 UV-I 0 W/m 4,4 C 6,4 C 6,4 km/h (2 Bft) 100,00 %
10.03.2018 21:19 6,4 C 3,9 C 87 % 1008,1 hPa 0,0 l/m 5,0 km/h (1 Bft) SW 232 0 min 0,000 mm 0,0 UV-I 0 W/m 4,4 C 6,4 C 6,4 km/h (2 Bft) 100,00 %
10.03.2018 21:20 6,3 C 3,9 C 86 % 1008,2 hPa 0,0 l/m 5,1 km/h (1 Bft) SW 232 0 min 0,000 mm 0,0 UV-I 0 W/m 4,1 C 6,3 C 6,4 km/h (2 Bft) 100,00 %
10.03.2018 21:21 6,3 C 3,9 C 86 % 1008,2 hPa 0,0 l/m 4,7 km/h (1 Bft) SW 232 0 min 0,000 mm 0,0 UV-I 0 W/m 4,1 C 6,3 C 4,8 km/h (1 Bft) 100,00 %
10.03.2018 21:22 6,2 C 3,9 C 86 % 1008,2 hPa 0,0 l/m 4,7 km/h (1 Bft) SW 232 0 min 0,000 mm 0,0 UV-I 0 W/m 4,0 C 6,2 C 4,8 km/h (1 Bft) 96,15 %
10.03.2018 21:23 6,0 C 3,9 C 87 % 1008,2 hPa 0,0 l/m 4,8 km/h (1 Bft) SW 232 0 min 0,000 mm 0,0 UV-I 0 W/m 4,0 C 6,0 C 4,8 km/h (1 Bft) 100,00 %
10.03.2018 21:24 5,8 C 3,9 C 87 % 1008,2 hPa 0,0 l/m 5,0 km/h (1 Bft) SW 232 0 min 0,000 mm 0,0 UV-I 0 W/m 3,8 C 5,8 C 6,4 km/h (2 Bft) 100,00 %
10.03.2018 21:25 5,8 C 3,9 C 87 % 1008,2 hPa 0,0 l/m 4,7 km/h (1 Bft) SW 232 0 min 0,000 mm 0,0 UV-I 0 W/m 3,8 C 5,8 C 4,8 km/h (1 Bft) 100,00 %
10.03.2018 21:26 5,7 C 3,9 C 88 % 1008,2 hPa 0,0 l/m 4,7 km/h (1 Bft) SW 232 0 min 0,000 mm 0,0 UV-I 0 W/m 3,9 C 5,7 C 4,8 km/h (1 Bft) 100,00 %
10.03.2018 21:27 5,7 C 3,9 C 88 % 1008,3 hPa 0,0 l/m 5,1 km/h (1 Bft) SW 232 0 min 0,000 mm 0,0 UV-I 0 W/m 3,9 C 5,7 C 6,4 km/h (2 Bft) 100,00 %
10.03.2018 21:28 5,7 C 3,9 C 88 % 1008,2 hPa 0,0 l/m 5,0 km/h (1 Bft) SW 232 0 min 0,000 mm 0,0 UV-I 0 W/m 3,9 C 5,7 C 6,4 km/h (2 Bft) 95,65 %
10.03.2018 21:29 5,8 C 3,9 C 89 % 1008,2 hPa 0,0 l/m 4,7 km/h (1 Bft) SW 232 0 min 0,000 mm 0,0 UV-I 0 W/m 4,1 C 5,8 C 4,8 km/h (1 Bft) 100,00 %
10.03.2018 21:30 5,8 C 3,9 C 89 % 1008,2 hPa 0,0 l/m 4,1 km/h (1 Bft) SW 232 0 min 0,000 mm 0,0 UV-I 0 W/m 4,1 C 5,8 C 4,8 km/h (1 Bft) 100,00 %
10.03.2018 21:31 5,9 C 3,9 C 89 % 1008,3 hPa 0,0 l/m 4,2 km/h (1 Bft) SW 232 0 min 0,000 mm 0,0 UV-I 0 W/m 4,2 C 5,9 C 4,8 km/h (1 Bft) 100,00 %
10.03.2018 21:33 6,1 C 3,9 C 89 % 1008,2 hPa 0,0 l/m 4,7 km/h (1 Bft) SW 232 0 min 0,000 mm 0,0 UV-I 0 W/m 4,4 C 6,1 C 4,8 km/h (1 Bft) 95,12 %
10.03.2018 21:34 6,1 C 3,9 C 88 % 1008,2 hPa 0,0 l/m 4,9 km/h (1 Bft) SW 232 0 min 0,000 mm 0,0 UV-I 0 W/m 4,3 C 6,1 C 6,4 km/h (2 Bft) 96,15 %
10.03.2018 21:35 6,2 C 3,9 C 88 % 1008,2 hPa 0,0 l/m 5,0 km/h (1 Bft) SW 232 0 min 0,000 mm 0,0 UV-I 0 W/m 4,4 C 6,2 C 6,4 km/h (2 Bft) 100,00 %
10.03.2018 21:36 6,2 C 3,9 C 87 % 1008,2 hPa 0,0 l/m 4,6 km/h (1 Bft) SW 232 0 min 0,000 mm 0,0 UV-I 0 W/m 4,2 C 6,2 C 6,4 km/h (2 Bft) 100,00 %
10.03.2018 21:37 6,2 C 3,9 C 87 % 1008,2 hPa 0,0 l/m 4,8 km/h (1 Bft) SW 232 0 min 0,000 mm 0,0 UV-I 0 W/m 4,2 C 6,2 C 6,4 km/h (2 Bft) 100,00 %
10.03.2018 21:38 6,1 C 3,9 C 87 % 1008,3 hPa 0,0 l/m 4,6 km/h (1 Bft) SW 232 0 min 0,000 mm 0,0 UV-I 0 W/m 4,1 C 6,1 C 4,8 km/h (1 Bft) 100,00 %
10.03.2018 21:39 6,1 C 3,9 C 87 % 1008,2 hPa 0,0 l/m 3,3 km/h (1 Bft) SW 232 0 min 0,000 mm 0,0 UV-I 0 W/m 4,1 C 6,1 C 4,8 km/h (1 Bft) 100,00 %
10.03.2018 21:40 6,1 C 3,9 C 88 % 1008,2 hPa 0,0 l/m 3,5 km/h (1 Bft) SW 232 0 min 0,000 mm 0,0 UV-I 0 W/m 4,3 C 6,1 C 4,8 km/h (1 Bft) 100,00 %
10.03.2018 21:41 6,1 C 3,9 C 88 % 1008,2 hPa 0,0 l/m 3,3 km/h (1 Bft) SW 232 0 min 0,000 mm 0,0 UV-I 0 W/m 4,3 C 6,1 C 4,8 km/h (1 Bft) 100,00 %
10.03.2018 21:42 6,2 C 3,9 C 88 % 1008,2 hPa 0,0 l/m 3,1 km/h (1 Bft) SW 232 0 min 0,000 mm 0,0 UV-I 0 W/m 4,4 C 6,2 C 3,2 km/h (1 Bft) 96,15 %
10.03.2018 21:43 6,2 C 3,9 C 88 % 1008,3 hPa 0,0 l/m 3,2 km/h (1 Bft) SW 232 0 min 0,000 mm 0,0 UV-I 0 W/m 4,4 C 6,2 C 4,8 km/h (1 Bft) 100,00 %
10.03.2018 21:44 6,3 C 3,9 C 88 % 1008,3 hPa 0,0 l/m 3,1 km/h (1 Bft) SW 232 0 min 0,000 mm 0,0 UV-I 0 W/m 4,5 C 6,3 C 3,2 km/h (1 Bft) 100,00 %
10.03.2018 21:45 6,3 C 3,9 C 87 % 1008,2 hPa 0,0 l/m 3,4 km/h (1 Bft) SW 232 0 min 0,000 mm 0,0 UV-I 0 W/m 4,3 C 6,3 C 4,8 km/h (1 Bft) 100,00 %
10.03.2018 21:46 6,3 C 3,9 C 87 % 1008,2 hPa 0,0 l/m 3,6 km/h (1 Bft) SW 232 0 min 0,000 mm 0,0 UV-I 0 W/m 4,3 C 6,3 C 4,8 km/h (1 Bft) 100,00 %
10.03.2018 21:47 6,4 C 3,9 C 87 % 1008,2 hPa 0,0 l/m 4,7 km/h (1 Bft) SW 232 0 min 0,000 mm 0,0 UV-I 0 W/m 4,4 C 6,4 C 6,4 km/h (2 Bft) 96,55 %
10.03.2018 21:48 6,4 C 3,9 C 87 % 1008,2 hPa 0,0 l/m 4,4 km/h (1 Bft) SW 232 0 min 0,000 mm 0,0 UV-I 0 W/m 4,4 C 6,4 C 4,8 km/h (1 Bft) 100,00 %
10.03.2018 21:49 6,5 C 3,9 C 87 % 1008,2 hPa 0,0 l/m 4,0 km/h (1 Bft) SW 232 0 min 0,000 mm 0,0 UV-I 0 W/m 4,5 C 6,5 C 4,8 km/h (1 Bft) 100,00 %
10.03.2018 21:50 6,4 C 3,9 C 87 % 1008,2 hPa 0,0 l/m 3,8 km/h (1 Bft) SW 232 0 min 0,000 mm 0,0 UV-I 0 W/m 4,4 C 6,4 C 4,8 km/h (1 Bft) 100,00 %
10.03.2018 21:51 6,4 C 3,9 C 86 % 1008,2 hPa 0,0 l/m 3,3 km/h (1 Bft) SW 232 0 min 0,000 mm 0,0 UV-I 0 W/m 4,2 C 6,4 C 4,8 km/h (1 Bft) 100,00 %
10.03.2018 21:52 6,3 C 3,9 C 87 % 1008,2 hPa 0,0 l/m 2,9 km/h (1 Bft) SW 232 0 min 0,000 mm 0,0 UV-I 0 W/m 4,3 C 6,3 C 4,8 km/h (1 Bft) 100,00 %
10.03.2018 21:53 6,3 C 3,9 C 86 % 1008,2 hPa 0,0 l/m 3,5 km/h (1 Bft) SW 232 0 min 0,000 mm 0,0 UV-I 0 W/m 4,1 C 6,3 C 4,8 km/h (1 Bft) 95,65 %
10.03.2018 21:54 6,2 C 3,9 C 86 % 1008,2 hPa 0,0 l/m 4,4 km/h (1 Bft) SW 232 0 min 0,000 mm 0,0 UV-I 0 W/m 4,0 C 6,2 C 4,8 km/h (1 Bft) 100,00 %
10.03.2018 21:55 6,2 C 3,9 C 87 % 1008,2 hPa 0,0 l/m 4,6 km/h (1 Bft) SW 232 0 min 0,000 mm 0,0 UV-I 0 W/m 4,2 C 6,2 C 4,8 km/h (1 Bft) 100,00 %
10.03.2018 21:56 6,2 C 3,9 C 87 % 1008,2 hPa 0,0 l/m 3,3 km/h (1 Bft) SW 232 0 min 0,000 mm 0,0 UV-I 0 W/m 4,2 C 6,2 C 4,8 km/h (1 Bft) 100,00 %
10.03.2018 21:57 6,2 C 3,9 C 88 % 1008,2 hPa 0,0 l/m 3,5 km/h (1 Bft) SW 232 0 min 0,000 mm 0,0 UV-I 0 W/m 4,4 C 6,2 C 4,8 km/h (1 Bft) 100,00 %
10.03.2018 21:58 6,3 C 3,9 C 87 % 1008,1 hPa 0,0 l/m 3,9 km/h (1 Bft) SW 232 0 min 0,000 mm 0,0 UV-I 0 W/m 4,3 C 6,3 C 4,8 km/h (1 Bft) 100,00 %
10.03.2018 21:59 6,3 C 3,9 C 87 % 1008,1 hPa 0,0 l/m 3,8 km/h (1 Bft) SW 232 0 min 0,000 mm 0,0 UV-I 0 W/m 4,3 C 6,3 C 4,8 km/h (1 Bft) 96,15 %
10.03.2018 22:00 6,3 C 3,9 C 87 % 1008,2 hPa 0,0 l/m 4,1 km/h (1 Bft) SW 232 0 min 0,000 mm 0,0 UV-I 0 W/m 4,3 C 6,3 C 4,8 km/h (1 Bft) 100,00 %
10.03.2018 22:01 6,3 C 3,9 C 87 % 1008,1 hPa 0,0 l/m 3,6 km/h (1 Bft) SW 232 0 min 0,000 mm 0,0 UV-I 0 W/m 4,3 C 6,3 C 4,8 km/h (1 Bft) 100,00 %
10.03.2018 22:02 6,3 C 3,9 C 87 % 1008,2 hPa 0,0 l/m 2,9 km/h (1 Bft) SW 232 0 min 0,000 mm 0,0 UV-I 0 W/m 4,3 C 6,3 C 3,2 km/h (1 Bft) 100,00 %
10.03.2018 22:03 6,2 C 3,9 C 87 % 1008,2 hPa 0,0 l/m 3,6 km/h (1 Bft) SW 232 0 min 0,000 mm 0,0 UV-I 0 W/m 4,2 C 6,2 C 4,8 km/h (1 Bft) 100,00 %
10.03.2018 22:04 6,1 C 3,9 C 87 % 1008,1 hPa 0,0 l/m 4,3 km/h (1 Bft) SW 232 0 min 0,000 mm 0,0 UV-I 0 W/m 4,1 C 6,1 C 4,8 km/h (1 Bft) 95,65 %
10.03.2018 22:05 6,0 C 3,9 C 87 % 1008,2 hPa 0,0 l/m 4,3 km/h (1 Bft) SW 232 0 min 0,000 mm 0,0 UV-I 0 W/m 4,0 C 6,0 C 4,8 km/h (1 Bft) 100,00 %
10.03.2018 22:06 6,0 C 3,9 C 88 % 1008,2 hPa 0,0 l/m 4,3 km/h (1 Bft) SW 232 0 min 0,000 mm 0,0 UV-I 0 W/m 4,2 C 6,0 C 6,4 km/h (2 Bft) 100,00 %
10.03.2018 22:07 5,9 C 3,9 C 88 % 1008,2 hPa 0,0 l/m 3,8 km/h (1 Bft) SW 232 0 min 0,000 mm 0,0 UV-I 0 W/m 4,1 C 5,9 C 4,8 km/h (1 Bft) 96,67 %
10.03.2018 22:08 5,8 C 3,9 C 88 % 1008,2 hPa 0,0 l/m 3,4 km/h (1 Bft) SW 232 0 min 0,000 mm 0,0 UV-I 0 W/m 4,0 C 5,8 C 4,8 km/h (1 Bft) 100,00 %
10.03.2018 22:09 5,8 C 3,9 C 88 % 1008,2 hPa 0,0 l/m 3,1 km/h (1 Bft) SW 232 0 min 0,000 mm 0,0 UV-I 0 W/m 4,0 C 5,8 C 3,2 km/h (1 Bft) 100,00 %
10.03.2018 22:10 5,9 C 3,9 C 89 % 1008,2 hPa 0,0 l/m 2,6 km/h (1 Bft) SW 232 0 min 0,000 mm 0,0 UV-I 0 W/m 4,2 C 5,9 C 3,2 km/h (1 Bft) 100,00 %
10.03.2018 22:11 5,9 C 3,9 C 88 % 1008,1 hPa 0,0 l/m 2,7 km/h (1 Bft) SW 232 0 min 0,000 mm 0,0 UV-I 0 W/m 4,1 C 5,9 C 3,2 km/h (1 Bft) 100,00 %
10.03.2018 22:12 5,9 C 3,9 C 88 % 1008,1 hPa 0,0 l/m 3,0 km/h (1 Bft) SW 232 0 min 0,000 mm 0,0 UV-I 0 W/m 4,1 C 5,9 C 3,2 km/h (1 Bft) 100,00 %
10.03.2018 22:13 5,8 C 3,9 C 89 % 1008,1 hPa 0,0 l/m 4,2 km/h (1 Bft) SW 223 0 min 0,000 mm 0,0 UV-I 0 W/m 4,1 C 5,8 C 4,8 km/h (1 Bft) 100,00 %
10.03.2018 22:14 5,9 C 3,9 C 89 % 1008,1 hPa 0,0 l/m 4,3 km/h (1 Bft) SW 221 0 min 0,000 mm 0,0 UV-I 0 W/m 4,2 C 5,9 C 4,8 km/h (1 Bft) 100,00 %
10.03.2018 22:15 6,1 C 3,9 C 89 % 1008,1 hPa 0,0 l/m 3,6 km/h (1 Bft) SW 221 0 min 0,000 mm 0,0 UV-I 0 W/m 4,4 C 6,1 C 4,8 km/h (1 Bft) 100,00 %
10.03.2018 22:16 6,2 C 3,9 C 89 % 1008,1 hPa 0,0 l/m 3,9 km/h (1 Bft) SW 221 0 min 0,000 mm 0,0 UV-I 0 W/m 4,5 C 6,2 C 4,8 km/h (1 Bft) 100,00 %
10.03.2018 22:17 6,3 C 3,9 C 88 % 1008,1 hPa 0,0 l/m 3,9 km/h (1 Bft) SW 221 0 min 0,000 mm 0,0 UV-I 0 W/m 4,5 C 6,3 C 4,8 km/h (1 Bft) 100,00 %
10.03.2018 22:18 6,3 C 3,9 C 88 % 1008,1 hPa 0,0 l/m 4,1 km/h (1 Bft) SW 221 0 min 0,000 mm 0,0 UV-I 0 W/m 4,5 C 6,3 C 4,8 km/h (1 Bft) 95,83 %
10.03.2018 22:19 6,2 C 3,9 C 87 % 1008,1 hPa 0,0 l/m 3,7 km/h (1 Bft) SW 221 0 min 0,000 mm 0,0 UV-I 0 W/m 4,2 C 6,2 C 4,8 km/h (1 Bft) 100,00 %
10.03.2018 22:20 6,1 C 3,9 C 87 % 1008,1 hPa 0,0 l/m 4,6 km/h (1 Bft) SW 221 0 min 0,000 mm 0,0 UV-I 0 W/m 4,1 C 6,1 C 4,8 km/h (1 Bft) 100,00 %
10.03.2018 22:21 6,2 C 3,9 C 89 % 1008,1 hPa 0,0 l/m 3,1 km/h (1 Bft) SW 221 0 min 0,000 mm 0,0 UV-I 0 W/m 4,5 C 6,2 C 4,8 km/h (1 Bft) 96,55 %
10.03.2018 22:22 6,3 C 3,9 C 88 % 1008,1 hPa 0,0 l/m 1,5 km/h (1 Bft) SW 221 0 min 0,000 mm 0,0 UV-I 0 W/m 4,5 C 6,3 C 3,2 km/h (1 Bft) 100,00 %
10.03.2018 22:23 6,3 C 3,9 C 88 % 1008,1 hPa 0,0 l/m 2,5 km/h (1 Bft) SW 221 0 min 0,000 mm 0,0 UV-I 0 W/m 4,5 C 6,3 C 3,2 km/h (1 Bft) 97,77 %
10.03.2018 22:24 6,3 C 3,9 C 88 % 1008,1 hPa 0,0 l/m 3,2 km/h (1 Bft) SW 221 0 min 0,000 mm 0,0 UV-I 0 W/m 4,5 C 6,3 C 3,2 km/h (1 Bft) 100,00 %
10.03.2018 22:25 6,2 C 3,9 C 88 % 1008,1 hPa 0,0 l/m 3,6 km/h (1 Bft) SW 221 0 min 0,000 mm 0,0 UV-I 0 W/m 4,4 C 6,2 C 4,8 km/h (1 Bft) 100,00 %
10.03.2018 22:26 6,2 C 3,9 C 88 % 1008,1 hPa 0,0 l/m 5,6 km/h (1 Bft) S 190 0 min 0,000 mm 0,0 UV-I 0 W/m 4,4 C 6,2 C 6,4 km/h (2 Bft) 100,00 %
10.03.2018 22:27 6,3 C 3,9 C 88 % 1008,1 hPa 0,0 l/m 6,2 km/h (2 Bft) S 177 0 min 0,000 mm 0,0 UV-I 0 W/m 4,5 C 6,3 C 6,4 km/h (2 Bft) 94,12 %
10.03.2018 22:29 6,4 C 3,9 C 87 % 1008,1 hPa 0,0 l/m 5,9 km/h (2 Bft) S 175 0 min 0,000 mm 0,0 UV-I 0 W/m 4,4 C 6,4 C 6,4 km/h (2 Bft) 100,00 %
10.03.2018 22:30 6,4 C 3,9 C 88 % 1008,1 hPa 0,0 l/m 3,8 km/h (1 Bft) S 175 0 min 0,000 mm 0,0 UV-I 0 W/m 4,6 C 6,4 C 4,8 km/h (1 Bft) 100,00 %
10.03.2018 22:31 6,3 C 3,9 C 88 % 1008,1 hPa 0,0 l/m 1,8 km/h (1 Bft) S 175 0 min 0,000 mm 0,0 UV-I 0 W/m 4,5 C 6,3 C 3,2 km/h (1 Bft) 100,00 %
10.03.2018 22:32 6,3 C 3,9 C 88 % 1008,1 hPa 0,0 l/m 2,7 km/h (1 Bft) S 175 0 min 0,000 mm 0,0 UV-I 0 W/m 4,5 C 6,3 C 4,8 km/h (1 Bft) 100,00 %
10.03.2018 22:33 6,2 C 3,9 C 87 % 1008,0 hPa 0,0 l/m 3,3 km/h (1 Bft) S 175 0 min 0,000 mm 0,0 UV-I 0 W/m 4,2 C 6,2 C 4,8 km/h (1 Bft) 100,00 %
10.03.2018 22:34 6,1 C 3,9 C 88 % 1008,0 hPa 0,0 l/m 3,3 km/h (1 Bft) S 175 0 min 0,000 mm 0,0 UV-I 0 W/m 4,3 C 6,1 C 4,8 km/h (1 Bft) 100,00 %
10.03.2018 22:35 6,1 C 3,9 C 88 % 1008,0 hPa 0,0 l/m 4,8 km/h (1 Bft) S 175 0 min 0,000 mm 0,0 UV-I 0 W/m 4,3 C 6,1 C 6,4 km/h (2 Bft) 95,65 %
10.03.2018 22:36 6,2 C 3,9 C 89 % 1008,0 hPa 0,0 l/m 7,7 km/h (2 Bft) S-SO 168 0 min 0,000 mm 0,0 UV-I 0 W/m 4,5 C 5,1 C 8,0 km/h (2 Bft) 100,00 %
10.03.2018 22:37 6,2 C 3,9 C 89 % 1007,9 hPa 0,0 l/m 8,1 km/h (2 Bft) S-SO 166 0 min 0,000 mm 0,0 UV-I 0 W/m 4,5 C 4,8 C 9,7 km/h (2 Bft) 100,00 %
10.03.2018 22:38 6,3 C 3,9 C 89 % 1007,9 hPa 0,0 l/m 8,0 km/h (2 Bft) S-SO 162 0 min 0,000 mm 0,0 UV-I 0 W/m 4,6 C 5,0 C 8,0 km/h (2 Bft) 93,33 %
10.03.2018 22:39 6,3 C 3,9 C 88 % 1007,9 hPa 0,0 l/m 7,9 km/h (2 Bft) S-SO 161 0 min 0,000 mm 0,0 UV-I 0 W/m 4,5 C 5,0 C 8,0 km/h (2 Bft) 100,00 %
10.03.2018 22:40 6,3 C 3,9 C 88 % 1007,9 hPa 0,0 l/m 7,9 km/h (2 Bft) S-SO 161 0 min 0,000 mm 0,0 UV-I 0 W/m 4,5 C 5,0 C 8,0 km/h (2 Bft) 95,83 %
10.03.2018 22:41 6,3 C 3,9 C 88 % 1007,9 hPa 0,0 l/m 7,6 km/h (2 Bft) S-SO 161 0 min 0,000 mm 0,0 UV-I 0 W/m 4,5 C 5,3 C 8,0 km/h (2 Bft) 100,00 %
10.03.2018 22:42 6,3 C 3,9 C 88 % 1007,9 hPa 0,0 l/m 7,4 km/h (2 Bft) S-SO 161 0 min 0,000 mm 0,0 UV-I 0 W/m 4,5 C 5,5 C 8,0 km/h (2 Bft) 100,00 %
10.03.2018 22:43 6,3 C 3,9 C 88 % 1007,9 hPa 0,0 l/m 6,8 km/h (2 Bft) S-SO 161 0 min 0,000 mm 0,0 UV-I 0 W/m 4,5 C 6,0 C 8,0 km/h (2 Bft) 100,00 %
10.03.2018 22:44 6,2 C 3,9 C 88 % 1007,8 hPa 0,0 l/m 7,4 km/h (2 Bft) S-SO 161 0 min 0,000 mm 0,0 UV-I 0 W/m 4,4 C 5,4 C 8,0 km/h (2 Bft) 100,00 %
10.03.2018 22:45 6,2 C 3,9 C 89 % 1007,8 hPa 0,0 l/m 7,9 km/h (2 Bft) S-SO 160 0 min 0,000 mm 0,0 UV-I 0 W/m 4,5 C 4,9 C 8,0 km/h (2 Bft) 96,30 %
10.03.2018 22:46 6,3 C 3,9 C 89 % 1007,8 hPa 0,0 l/m 6,2 km/h (2 Bft) S-SO 159 0 min 0,000 mm 0,0 UV-I 0 W/m 4,6 C 6,3 C 8,0 km/h (2 Bft) 96,15 %
10.03.2018 22:47 6,4 C 3,9 C 89 % 1007,8 hPa 0,0 l/m 6,6 km/h (2 Bft) S-SO 159 0 min 0,000 mm 0,0 UV-I 0 W/m 4,7 C 6,3 C 8,0 km/h (2 Bft) 95,83 %
10.03.2018 22:48 6,6 C 3,9 C 89 % 1007,7 hPa 0,0 l/m 7,0 km/h (2 Bft) S-SO 159 0 min 0,000 mm 0,0 UV-I 0 W/m 4,9 C 6,1 C 8,0 km/h (2 Bft) 100,00 %
10.03.2018 22:49 6,7 C 3,9 C 88 % 1007,7 hPa 0,0 l/m 5,7 km/h (1 Bft) S-SO 159 0 min 0,000 mm 0,0 UV-I 0 W/m 4,9 C 6,7 C 8,0 km/h (2 Bft) 91,67 %
10.03.2018 22:50 6,7 C 3,9 C 88 % 1007,7 hPa 0,0 l/m 3,6 km/h (1 Bft) S-SO 159 0 min 0,000 mm 0,0 UV-I 0 W/m 4,9 C 6,7 C 6,4 km/h (2 Bft) 100,00 %
10.03.2018 22:51 6,7 C 3,9 C 88 % 1007,7 hPa 0,0 l/m 1,7 km/h (1 Bft) S-SO 159 0 min 0,000 mm 0,0 UV-I 0 W/m 4,9 C 6,7 C 3,2 km/h (1 Bft) 95,83 %
10.03.2018 22:52 6,7 C 3,9 C 88 % 1007,8 hPa 0,0 l/m 2,2 km/h (1 Bft) S-SO 159 0 min 0,000 mm 0,0 UV-I 0 W/m 4,9 C 6,7 C 3,2 km/h (1 Bft) 91,30 %
10.03.2018 22:53 6,6 C 3,9 C 87 % 1007,8 hPa 0,0 l/m 2,8 km/h (1 Bft) S-SO 159 0 min 0,000 mm 0,0 UV-I 0 W/m 4,6 C 6,6 C 3,2 km/h (1 Bft) 100,00 %
10.03.2018 22:54 6,4 C 3,9 C 87 % 1007,8 hPa 0,0 l/m 4,9 km/h (1 Bft) SW 225 0 min 0,000 mm 0,0 UV-I 0 W/m 4,4 C 6,4 C 6,4 km/h (2 Bft) 100,00 %
10.03.2018 22:55 6,2 C 3,9 C 87 % 1007,8 hPa 0,0 l/m 4,0 km/h (1 Bft) SW 225 0 min 0,000 mm 0,0 UV-I 0 W/m 4,2 C 6,2 C 4,8 km/h (1 Bft) 92,86 %
10.03.2018 22:56 6,0 C 3,9 C 87 % 1007,8 hPa 0,0 l/m 3,6 km/h (1 Bft) SW 225 0 min 0,000 mm 0,0 UV-I 0 W/m 4,0 C 6,0 C 4,8 km/h (1 Bft) 97,44 %
10.03.2018 22:57 5,8 C 3,9 C 88 % 1007,8 hPa 0,0 l/m 3,9 km/h (1 Bft) SW 224 0 min 0,000 mm 0,0 UV-I 0 W/m 4,0 C 5,8 C 4,8 km/h (1 Bft) 100,00 %
10.03.2018 22:58 5,7 C 3,9 C 88 % 1007,7 hPa 0,0 l/m 5,0 km/h (1 Bft) SW 224 0 min 0,000 mm 0,0 UV-I 0 W/m 3,9 C 5,7 C 6,4 km/h (2 Bft) 95,83 %
10.03.2018 22:59 5,6 C 3,9 C 89 % 1007,7 hPa 0,0 l/m 3,6 km/h (1 Bft) SW 224 0 min 0,000 mm 0,0 UV-I 0 W/m 3,9 C 5,6 C 4,8 km/h (1 Bft) 100,00 %
10.03.2018 23:00 5,6 C 3,9 C 89 % 1007,8 hPa 0,0 l/m 4,0 km/h (1 Bft) SW 226 0 min 0,000 mm 0,0 UV-I 0 W/m 3,9 C 5,6 C 4,8 km/h (1 Bft) 95,83 %
10.03.2018 23:01 5,6 C 3,9 C 89 % 1007,8 hPa 0,0 l/m 5,7 km/h (1 Bft) W-SW 247 0 min 0,000 mm 0,0 UV-I 0 W/m 3,9 C 5,6 C 8,0 km/h (2 Bft) 95,65 %
10.03.2018 23:02 5,5 C 3,9 C 89 % 1007,8 hPa 0,0 l/m 7,1 km/h (2 Bft) W-SW 244 0 min 0,000 mm 0,0 UV-I 0 W/m 3,8 C 4,9 C 8,0 km/h (2 Bft) 95,83 %
10.03.2018 23:03 5,4 C 3,9 C 90 % 1007,8 hPa 0,0 l/m 5,1 km/h (1 Bft) W-SW 242 0 min 0,000 mm 0,0 UV-I 0 W/m 3,9 C 5,4 C 6,4 km/h (2 Bft) 95,65 %
10.03.2018 23:04 5,4 C 3,9 C 90 % 1007,8 hPa 0,0 l/m 3,9 km/h (1 Bft) W-SW 242 0 min 0,000 mm 0,0 UV-I 0 W/m 3,9 C 5,4 C 4,8 km/h (1 Bft) 100,00 %
10.03.2018 23:05 5,4 C 3,9 C 90 % 1007,8 hPa 0,0 l/m 3,3 km/h (1 Bft) W-SW 242 0 min 0,000 mm 0,0 UV-I 0 W/m 3,9 C 5,4 C 4,8 km/h (1 Bft) 91,30 %
10.03.2018 23:06 5,4 C 3,9 C 90 % 1007,7 hPa 0,0 l/m 3,5 km/h (1 Bft) W-SW 242 0 min 0,000 mm 0,0 UV-I 0 W/m 3,9 C 5,4 C 4,8 km/h (1 Bft) 100,00 %
10.03.2018 23:07 5,4 C 3,9 C 90 % 1007,8 hPa 0,0 l/m 4,0 km/h (1 Bft) W-SW 242 0 min 0,000 mm 0,0 UV-I 0 W/m 3,9 C 5,4 C 4,8 km/h (1 Bft) 95,65 %
10.03.2018 23:08 5,4 C 3,9 C 90 % 1007,7 hPa 0,0 l/m 4,2 km/h (1 Bft) W-SW 242 0 min 0,000 mm 0,0 UV-I 0 W/m 3,9 C 5,4 C 4,8 km/h (1 Bft) 95,83 %
10.03.2018 23:09 5,3 C 3,9 C 90 % 1007,7 hPa 0,0 l/m 4,2 km/h (1 Bft) W-SW 242 0 min 0,000 mm 0,0 UV-I 0 W/m 3,8 C 5,3 C 4,8 km/h (1 Bft) 100,00 %
10.03.2018 23:10 5,4 C 3,9 C 91 % 1007,7 hPa 0,0 l/m 4,1 km/h (1 Bft) W-SW 242 0 min 0,000 mm 0,0 UV-I 0 W/m 4,1 C 5,4 C 4,8 km/h (1 Bft) 96,30 %
10.03.2018 23:11 5,4 C 3,9 C 91 % 1007,7 hPa 0,0 l/m 4,4 km/h (1 Bft) W-SW 242 0 min 0,000 mm 0,0 UV-I 0 W/m 4,1 C 5,4 C 4,8 km/h (1 Bft) 100,00 %
10.03.2018 23:12 5,4 C 3,9 C 91 % 1007,7 hPa 0,0 l/m 3,7 km/h (1 Bft) W-SW 242 0 min 0,000 mm 0,0 UV-I 0 W/m 4,1 C 5,4 C 4,8 km/h (1 Bft) 95,83 %
10.03.2018 23:13 5,5 C 3,9 C 91 % 1007,7 hPa 0,0 l/m 4,5 km/h (1 Bft) W-SW 242 0 min 0,000 mm 0,0 UV-I 0 W/m 4,2 C 5,5 C 4,8 km/h (1 Bft) 100,00 %
10.03.2018 23:14 5,5 C 3,9 C 91 % 1007,7 hPa 0,0 l/m 3,8 km/h (1 Bft) W-SW 242 0 min 0,000 mm 0,0 UV-I 0 W/m 4,2 C 5,5 C 4,8 km/h (1 Bft) 93,33 %
10.03.2018 23:15 5,5 C 3,9 C 90 % 1007,7 hPa 0,0 l/m 3,7 km/h (1 Bft) W-SW 242 0 min 0,000 mm 0,0 UV-I 0 W/m 4,0 C 5,5 C 4,8 km/h (1 Bft) 100,00 %
10.03.2018 23:16 5,6 C 3,9 C 91 % 1007,7 hPa 0,0 l/m 4,3 km/h (1 Bft) W-SW 242 0 min 0,000 mm 0,0 UV-I 0 W/m 4,2 C 5,6 C 4,8 km/h (1 Bft) 91,30 %
10.03.2018 23:17 5,6 C 3,9 C 91 % 1007,7 hPa 0,0 l/m 4,2 km/h (1 Bft) W-SW 240 0 min 0,000 mm 0,0 UV-I 0 W/m 4,2 C 5,6 C 4,8 km/h (1 Bft) 100,00 %
10.03.2018 23:18 5,7 C 3,9 C 91 % 1007,7 hPa 0,0 l/m 3,9 km/h (1 Bft) S 173 0 min 0,000 mm 0,0 UV-I 0 W/m 4,3 C 5,7 C 6,4 km/h (2 Bft) 95,65 %
10.03.2018 23:19 5,8 C 3,9 C 91 % 1007,7 hPa 0,0 l/m 7,4 km/h (2 Bft) S 171 0 min 0,000 mm 0,0 UV-I 0 W/m 4,4 C 4,9 C 8,0 km/h (2 Bft) 100,00 %
10.03.2018 23:20 5,9 C 3,9 C 90 % 1007,7 hPa 0,0 l/m 6,8 km/h (2 Bft) S 171 0 min 0,000 mm 0,0 UV-I 0 W/m 4,4 C 5,6 C 8,0 km/h (2 Bft) 96,55 %
10.03.2018 23:21 5,9 C 3,9 C 90 % 1007,7 hPa 0,0 l/m 6,6 km/h (2 Bft) S 171 0 min 0,000 mm 0,0 UV-I 0 W/m 4,4 C 5,8 C 8,0 km/h (2 Bft) 96,30 %
10.03.2018 23:22 5,9 C 3,9 C 89 % 1007,7 hPa 0,0 l/m 3,7 km/h (1 Bft) S 171 0 min 0,000 mm 0,0 UV-I 0 W/m 4,2 C 5,9 C 6,4 km/h (2 Bft) 100,00 %
10.03.2018 23:23 5,9 C 3,9 C 89 % 1007,7 hPa 0,0 l/m 1,7 km/h (1 Bft) S 171 0 min 0,000 mm 0,0 UV-I 0 W/m 4,2 C 5,9 C 3,2 km/h (1 Bft) 91,67 %
10.03.2018 23:24 5,8 C 3,9 C 89 % 1007,7 hPa 0,0 l/m 1,3 km/h (1 Bft) S 171 0 min 0,000 mm 0,0 UV-I 0 W/m 4,1 C 5,8 C 1,6 km/h (1 Bft) 100,00 %
10.03.2018 23:25 5,8 C 3,9 C 90 % 1007,8 hPa 0,0 l/m 1,4 km/h (1 Bft) S 171 0 min 0,000 mm 0,0 UV-I 0 W/m 4,3 C 5,8 C 1,6 km/h (1 Bft) 95,83 %
10.03.2018 23:26 5,8 C 3,9 C 90 % 1007,7 hPa 0,0 l/m 2,3 km/h (1 Bft) S 171 0 min 0,000 mm 0,0 UV-I 0 W/m 4,3 C 5,8 C 3,2 km/h (1 Bft) 100,00 %
10.03.2018 23:27 5,9 C 3,9 C 90 % 1007,7 hPa 0,0 l/m 2,3 km/h (1 Bft) S 171 0 min 0,000 mm 0,0 UV-I 0 W/m 4,4 C 5,9 C 3,2 km/h (1 Bft) 96,30 %
10.03.2018 23:28 6,1 C 3,9 C 90 % 1007,7 hPa 0,0 l/m 2,5 km/h (1 Bft) S 171 0 min 0,000 mm 0,0 UV-I 0 W/m 4,6 C 6,1 C 3,2 km/h (1 Bft) 95,65 %
10.03.2018 23:29 6,3 C 3,9 C 90 % 1007,7 hPa 0,0 l/m 2,3 km/h (1 Bft) S 171 0 min 0,000 mm 0,0 UV-I 0 W/m 4,8 C 6,3 C 3,2 km/h (1 Bft) 100,00 %
10.03.2018 23:30 6,4 C 3,9 C 90 % 1007,7 hPa 0,0 l/m 1,9 km/h (1 Bft) S 171 0 min 0,000 mm 0,0 UV-I 0 W/m 4,9 C 6,4 C 3,2 km/h (1 Bft) 100,00 %
10.03.2018 23:31 6,6 C 3,9 C 89 % 1007,7 hPa 0,0 l/m 2,0 km/h (1 Bft) S 171 0 min 0,000 mm 0,0 UV-I 0 W/m 4,9 C 6,6 C 3,2 km/h (1 Bft) 100,00 %
10.03.2018 23:32 6,6 C 3,9 C 88 % 1007,7 hPa 0,0 l/m 2,0 km/h (1 Bft) S 171 0 min 0,000 mm 0,0 UV-I 0 W/m 4,8 C 6,6 C 3,2 km/h (1 Bft) 100,00 %
10.03.2018 23:33 6,6 C 3,9 C 88 % 1007,6 hPa 0,0 l/m 2,3 km/h (1 Bft) S 171 0 min 0,000 mm 0,0 UV-I 0 W/m 4,8 C 6,6 C 3,2 km/h (1 Bft) 96,15 %
10.03.2018 23:34 6,6 C 3,9 C 88 % 1007,6 hPa 0,0 l/m 2,6 km/h (1 Bft) S 171 0 min 0,000 mm 0,0 UV-I 0 W/m 4,8 C 6,6 C 3,2 km/h (1 Bft) 100,00 %
10.03.2018 23:35 6,6 C 3,9 C 88 % 1007,6 hPa 0,0 l/m 2,7 km/h (1 Bft) S 171 0 min 0,000 mm 0,0 UV-I 0 W/m 4,8 C 6,6 C 3,2 km/h (1 Bft) 100,00 %
10.03.2018 23:36 6,6 C 3,9 C 88 % 1007,6 hPa 0,0 l/m 0,6 km/h (0 Bft) S 171 0 min 0,000 mm 0,0 UV-I 0 W/m 4,8 C 6,6 C 1,6 km/h (1 Bft) 100,00 %
10.03.2018 23:37 6,5 C 3,9 C 87 % 1007,6 hPa 0,0 l/m 0,0 km/h (0 Bft) S 171 0 min 0,000 mm 0,0 UV-I 0 W/m 4,5 C 6,5 C 0,0 km/h (0 Bft) 96,15 %
10.03.2018 23:38 6,4 C 3,9 C 87 % 1007,6 hPa 0,0 l/m 0,7 km/h (0 Bft) S 171 0 min 0,000 mm 0,0 UV-I 0 W/m 4,4 C 6,4 C 1,6 km/h (1 Bft) 96,30 %
10.03.2018 23:39 6,3 C 3,9 C 88 % 1007,6 hPa 0,0 l/m 1,6 km/h (1 Bft) S 171 0 min 0,000 mm 0,0 UV-I 0 W/m 4,5 C 6,3 C 1,6 km/h (1 Bft) 100,00 %
10.03.2018 23:40 6,3 C 3,9 C 88 % 1007,6 hPa 0,0 l/m 1,3 km/h (1 Bft) S 171 0 min 0,000 mm 0,0 UV-I 0 W/m 4,5 C 6,3 C 1,6 km/h (1 Bft) 100,00 %
10.03.2018 23:41 6,2 C 3,9 C 88 % 1007,6 hPa 0,0 l/m 1,6 km/h (1 Bft) S 171 0 min 0,000 mm 0,0 UV-I 0 W/m 4,4 C 6,2 C 3,2 km/h (1 Bft) 100,00 %
10.03.2018 23:42 6,3 C 3,9 C 88 % 1007,5 hPa 0,0 l/m 3,2 km/h (1 Bft) S 171 0 min 0,000 mm 0,0 UV-I 0 W/m 4,5 C 6,3 C 6,4 km/h (2 Bft) 100,00 %
10.03.2018 23:43 6,3 C 3,9 C 89 % 1007,5 hPa 0,0 l/m 5,5 km/h (1 Bft) S 169 0 min 0,000 mm 0,0 UV-I 0 W/m 4,6 C 6,3 C 6,4 km/h (2 Bft) 100,00 %
10.03.2018 23:44 6,4 C 3,9 C 88 % 1007,4 hPa 0,0 l/m 6,6 km/h (2 Bft) O-NO 65 0 min 0,000 mm 0,0 UV-I 0 W/m 4,6 C 6,3 C 8,0 km/h (2 Bft) 100,00 %
10.03.2018 23:45 6,4 C 3,9 C 88 % 1007,4 hPa 0,0 l/m 6,8 km/h (2 Bft) O-NO 71 0 min 0,000 mm 0,0 UV-I 0 W/m 4,6 C 6,1 C 8,0 km/h (2 Bft) 100,00 %
10.03.2018 23:46 6,6 C 3,9 C 89 % 1007,3 hPa 0,0 l/m 6,4 km/h (2 Bft) O 80 0 min 0,000 mm 0,0 UV-I 0 W/m 4,9 C 6,6 C 9,7 km/h (2 Bft) 100,00 %
10.03.2018 23:47 6,7 C 3,9 C 89 % 1007,3 hPa 0,0 l/m 6,1 km/h (2 Bft) O-NO 71 0 min 0,000 mm 0,0 UV-I 0 W/m 5,0 C 6,7 C 8,0 km/h (2 Bft) 100,00 %
10.03.2018 23:48 6,9 C 3,9 C 88 % 1007,3 hPa 0,0 l/m 5,5 km/h (1 Bft) O 94 0 min 0,000 mm 0,0 UV-I 0 W/m 5,1 C 6,9 C 6,4 km/h (2 Bft) 100,00 %
10.03.2018 23:49 7,1 C 3,9 C 88 % 1007,3 hPa 0,0 l/m 6,5 km/h (2 Bft) O 86 0 min 0,000 mm 0,0 UV-I 0 W/m 5,2 C 7,0 C 8,0 km/h (2 Bft) 100,00 %
10.03.2018 23:50 7,3 C 3,9 C 87 % 1007,2 hPa 0,0 l/m 6,1 km/h (2 Bft) O-NO 68 0 min 0,000 mm 0,0 UV-I 0 W/m 5,3 C 7,3 C 6,4 km/h (2 Bft) 100,00 %
10.03.2018 23:51 7,3 C 3,9 C 86 % 1007,2 hPa 0,0 l/m 7,2 km/h (2 Bft) O 80 0 min 0,000 mm 0,0 UV-I 0 W/m 5,1 C 6,7 C 8,0 km/h (2 Bft) 100,00 %
10.03.2018 23:52 7,3 C 3,9 C 86 % 1007,2 hPa 0,0 l/m 7,1 km/h (2 Bft) O 95 0 min 0,000 mm 0,0 UV-I 0 W/m 5,1 C 6,7 C 9,7 km/h (2 Bft) 95,83 %
10.03.2018 23:53 7,4 C 3,9 C 86 % 1007,2 hPa 0,0 l/m 6,2 km/h (2 Bft) O 82 0 min 0,000 mm 0,0 UV-I 0 W/m 5,2 C 7,4 C 9,7 km/h (2 Bft) 100,00 %
10.03.2018 23:54 7,5 C 3,9 C 86 % 1007,2 hPa 0,0 l/m 6,0 km/h (2 Bft) O 88 0 min 0,000 mm 0,0 UV-I 0 W/m 5,3 C 7,5 C 8,0 km/h (2 Bft) 96,15 %
10.03.2018 23:55 7,5 C 3,9 C 85 % 1007,2 hPa 0,0 l/m 6,3 km/h (2 Bft) O 92 0 min 0,000 mm 0,0 UV-I 0 W/m 5,1 C 7,5 C 8,0 km/h (2 Bft) 100,00 %
10.03.2018 23:56 7,4 C 3,9 C 84 % 1007,2 hPa 0,0 l/m 6,8 km/h (2 Bft) O-SO 109 0 min 0,000 mm 0,0 UV-I 0 W/m 4,9 C 7,1 C 8,0 km/h (2 Bft) 96,15 %
10.03.2018 23:57 7,4 C 3,9 C 85 % 1007,2 hPa 0,0 l/m 7,8 km/h (2 Bft) O-SO 115 0 min 0,000 mm 0,0 UV-I 0 W/m 5,0 C 6,3 C 11,3 km/h (2 Bft) 96,67 %
10.03.2018 23:58 7,4 C 3,9 C 85 % 1007,2 hPa 0,0 l/m 7,6 km/h (2 Bft) O 99 0 min 0,000 mm 0,0 UV-I 0 W/m 5,0 C 6,4 C 11,3 km/h (2 Bft) 100,00 %
10.03.2018 23:59 7,5 C 3,9 C 85 % 1007,2 hPa 0,0 l/m 8,4 km/h (2 Bft) O-SO 115 0 min 0,000 mm 0,0 UV-I 0 W/m 5,1 C 5,9 C 12,9 km/h (3 Bft) 100,00 %
_ Min-Zeit 06:01 00:00 14:30 17:03 - 00:10 - - - - - - 06:01 06:01 00:10 11:28
Minimum _ 0,6 C 3,9 C 62 % 1007,2 hPa - 0,0 km/h (0 Bft) - - - - - - -0,4 C 0,6 C 0,0 km/h (0 Bft) 81,82 %
_ Max-Zeit 14:50 00:00 06:11 00:00 00:00 23:59 - - 08:34 11:01 11:18 10:10 12:43 14:50 23:59 00:00
Maximum _ 11,5 C 3,9 C 95 % 1009,2 hPa 0,0 l/m 8,4 km/h
O-SO (2 Bft)
- - 2 min 0,178 mm 1,5 UV-I 540 W/m 5,9 C 11,5 C 12,9 km/h
O (3 Bft)
100,00 %
Durchschnitt _ 6,2 C 3,9 C 81 % 1008,0 hPa #0,0 l/m 2,8 km/h (1 Bft) SW - #2:52 h #1,143 mm 1,0 UV-I 193 W/m 3,1 C 6,2 C 3,9 km/h (1 Bft) 97,82 %